<?xml version="1.0" encoding="UTF-8" standalone="no" ?>
<gpx xmlns="http://www.topografix.com/GPX/1/1" xmlns:xsi="http://www.w3.org/2001/XMLSchema-instance" xsi:schemaLocation="http://www.topografix.com/GPX/1/1 http://www.topografix.com/GPX/1/1/gpx.xsd" version="1.1" creator="VisuGPX - https://www.visugpx.com">
  <metadata>
    <name>SityTrail - renlies 1</name>
    <desc><![CDATA[Voilà un VTT au départ du village de Renlies une belle randonnée très variée avec de beaux villages comme le village de Barbencon un des plus beaux villages de Wallonies .le VTT va vous faire découvrir les lacs de l'eau d'heure avec de belles vues sur le lac de la plate taille .Il y a aussi un passage sur le RAVeL pour aller chercher le bois de Rance .Pour rejoindre le village de Renlies .bon VTT

Vidéo https://www.youtube.com/watch?v=8zIglGvn8gA]]></desc>
  </metadata>
  <trk>
    <name><![CDATA[SityTrail - renlies 1]]></name>
    <trkseg>
      <trkpt lat="50.19178" lon="4.26721">
        <ele>196</ele>
        <time>2021-02-28T07:53:35Z</time>
      </trkpt>
      <trkpt lat="50.19183" lon="4.26725">
        <ele>195</ele>
        <time>2021-02-28T07:53:37Z</time>
      </trkpt>
      <trkpt lat="50.19231" lon="4.26762">
        <ele>196</ele>
        <time>2021-02-28T07:53:39Z</time>
      </trkpt>
      <trkpt lat="50.19234" lon="4.26767">
        <ele>197</ele>
        <time>2021-02-28T07:53:41Z</time>
      </trkpt>
      <trkpt lat="50.19236" lon="4.26773">
        <ele>197</ele>
        <time>2021-02-28T07:53:43Z</time>
      </trkpt>
      <trkpt lat="50.19238" lon="4.2678">
        <ele>197</ele>
        <time>2021-02-28T07:53:45Z</time>
      </trkpt>
      <trkpt lat="50.19239" lon="4.26787">
        <ele>197</ele>
        <time>2021-02-28T07:53:47Z</time>
      </trkpt>
      <trkpt lat="50.1924" lon="4.26794">
        <ele>197</ele>
        <time>2021-02-28T07:53:49Z</time>
      </trkpt>
      <trkpt lat="50.19241" lon="4.26802">
        <ele>197</ele>
        <time>2021-02-28T07:53:51Z</time>
      </trkpt>
      <trkpt lat="50.19242" lon="4.26809">
        <ele>197</ele>
        <time>2021-02-28T07:53:53Z</time>
      </trkpt>
      <trkpt lat="50.19243" lon="4.26817">
        <ele>197</ele>
        <time>2021-02-28T07:53:55Z</time>
      </trkpt>
      <trkpt lat="50.19244" lon="4.26826">
        <ele>197</ele>
        <time>2021-02-28T07:53:57Z</time>
      </trkpt>
      <trkpt lat="50.19245" lon="4.26834">
        <ele>197</ele>
        <time>2021-02-28T07:53:59Z</time>
      </trkpt>
      <trkpt lat="50.19247" lon="4.26843">
        <ele>197</ele>
        <time>2021-02-28T07:54:01Z</time>
      </trkpt>
      <trkpt lat="50.19249" lon="4.26851">
        <ele>197</ele>
        <time>2021-02-28T07:54:03Z</time>
      </trkpt>
      <trkpt lat="50.19253" lon="4.26863">
        <ele>197</ele>
        <time>2021-02-28T07:54:06Z</time>
      </trkpt>
      <trkpt lat="50.19256" lon="4.2687">
        <ele>197</ele>
        <time>2021-02-28T07:54:08Z</time>
      </trkpt>
      <trkpt lat="50.19259" lon="4.26877">
        <ele>198</ele>
        <time>2021-02-28T07:54:10Z</time>
      </trkpt>
      <trkpt lat="50.19263" lon="4.26883">
        <ele>198</ele>
        <time>2021-02-28T07:54:12Z</time>
      </trkpt>
      <trkpt lat="50.19267" lon="4.26889">
        <ele>200</ele>
        <time>2021-02-28T07:54:14Z</time>
      </trkpt>
      <trkpt lat="50.1927" lon="4.26895">
        <ele>200</ele>
        <time>2021-02-28T07:54:16Z</time>
      </trkpt>
      <trkpt lat="50.19273" lon="4.26902">
        <ele>200</ele>
        <time>2021-02-28T07:54:18Z</time>
      </trkpt>
      <trkpt lat="50.19276" lon="4.26908">
        <ele>201</ele>
        <time>2021-02-28T07:54:20Z</time>
      </trkpt>
      <trkpt lat="50.1928" lon="4.26914">
        <ele>201</ele>
        <time>2021-02-28T07:54:22Z</time>
      </trkpt>
      <trkpt lat="50.19282" lon="4.2692">
        <ele>201</ele>
        <time>2021-02-28T07:54:24Z</time>
      </trkpt>
      <trkpt lat="50.19286" lon="4.26926">
        <ele>201</ele>
        <time>2021-02-28T07:54:26Z</time>
      </trkpt>
      <trkpt lat="50.19294" lon="4.2694">
        <ele>203</ele>
        <time>2021-02-28T07:54:31Z</time>
      </trkpt>
      <trkpt lat="50.19299" lon="4.26948">
        <ele>203</ele>
        <time>2021-02-28T07:54:34Z</time>
      </trkpt>
      <trkpt lat="50.19302" lon="4.26954">
        <ele>203</ele>
        <time>2021-02-28T07:54:36Z</time>
      </trkpt>
      <trkpt lat="50.19305" lon="4.26959">
        <ele>204</ele>
        <time>2021-02-28T07:54:38Z</time>
      </trkpt>
      <trkpt lat="50.1931" lon="4.26966">
        <ele>204</ele>
        <time>2021-02-28T07:54:41Z</time>
      </trkpt>
      <trkpt lat="50.19314" lon="4.26969">
        <ele>204</ele>
        <time>2021-02-28T07:54:43Z</time>
      </trkpt>
      <trkpt lat="50.19319" lon="4.26972">
        <ele>204</ele>
        <time>2021-02-28T07:54:45Z</time>
      </trkpt>
      <trkpt lat="50.19323" lon="4.26972">
        <ele>206</ele>
        <time>2021-02-28T07:54:47Z</time>
      </trkpt>
      <trkpt lat="50.19329" lon="4.26973">
        <ele>206</ele>
        <time>2021-02-28T07:54:49Z</time>
      </trkpt>
      <trkpt lat="50.19334" lon="4.26972">
        <ele>206</ele>
        <time>2021-02-28T07:54:51Z</time>
      </trkpt>
      <trkpt lat="50.19341" lon="4.26972">
        <ele>206</ele>
        <time>2021-02-28T07:54:53Z</time>
      </trkpt>
      <trkpt lat="50.19346" lon="4.26971">
        <ele>206</ele>
        <time>2021-02-28T07:54:55Z</time>
      </trkpt>
      <trkpt lat="50.19351" lon="4.2697">
        <ele>208</ele>
        <time>2021-02-28T07:54:57Z</time>
      </trkpt>
      <trkpt lat="50.19356" lon="4.26968">
        <ele>208</ele>
        <time>2021-02-28T07:54:59Z</time>
      </trkpt>
      <trkpt lat="50.1936" lon="4.26965">
        <ele>208</ele>
        <time>2021-02-28T07:55:01Z</time>
      </trkpt>
      <trkpt lat="50.19368" lon="4.2696">
        <ele>208</ele>
        <time>2021-02-28T07:55:04Z</time>
      </trkpt>
      <trkpt lat="50.19373" lon="4.26957">
        <ele>205</ele>
        <time>2021-02-28T07:55:06Z</time>
      </trkpt>
      <trkpt lat="50.19378" lon="4.26954">
        <ele>207</ele>
        <time>2021-02-28T07:55:08Z</time>
      </trkpt>
      <trkpt lat="50.19383" lon="4.26953">
        <ele>207</ele>
        <time>2021-02-28T07:55:10Z</time>
      </trkpt>
      <trkpt lat="50.19388" lon="4.26951">
        <ele>207</ele>
        <time>2021-02-28T07:55:12Z</time>
      </trkpt>
      <trkpt lat="50.19392" lon="4.2695">
        <ele>207</ele>
        <time>2021-02-28T07:55:14Z</time>
      </trkpt>
      <trkpt lat="50.19397" lon="4.2695">
        <ele>207</ele>
        <time>2021-02-28T07:55:16Z</time>
      </trkpt>
      <trkpt lat="50.19401" lon="4.26951">
        <ele>207</ele>
        <time>2021-02-28T07:55:18Z</time>
      </trkpt>
      <trkpt lat="50.19406" lon="4.26952">
        <ele>210</ele>
        <time>2021-02-28T07:55:20Z</time>
      </trkpt>
      <trkpt lat="50.1941" lon="4.26954">
        <ele>210</ele>
        <time>2021-02-28T07:55:22Z</time>
      </trkpt>
      <trkpt lat="50.19415" lon="4.26958">
        <ele>210</ele>
        <time>2021-02-28T07:55:24Z</time>
      </trkpt>
      <trkpt lat="50.19418" lon="4.26962">
        <ele>212</ele>
        <time>2021-02-28T07:55:26Z</time>
      </trkpt>
      <trkpt lat="50.19422" lon="4.26965">
        <ele>212</ele>
        <time>2021-02-28T07:55:28Z</time>
      </trkpt>
      <trkpt lat="50.19425" lon="4.26969">
        <ele>212</ele>
        <time>2021-02-28T07:55:30Z</time>
      </trkpt>
      <trkpt lat="50.19429" lon="4.26974">
        <ele>212</ele>
        <time>2021-02-28T07:55:32Z</time>
      </trkpt>
      <trkpt lat="50.19431" lon="4.26977">
        <ele>213</ele>
        <time>2021-02-28T07:55:34Z</time>
      </trkpt>
      <trkpt lat="50.19435" lon="4.26982">
        <ele>213</ele>
        <time>2021-02-28T07:55:36Z</time>
      </trkpt>
      <trkpt lat="50.19438" lon="4.26987">
        <ele>216</ele>
        <time>2021-02-28T07:55:38Z</time>
      </trkpt>
      <trkpt lat="50.19441" lon="4.26991">
        <ele>216</ele>
        <time>2021-02-28T07:55:40Z</time>
      </trkpt>
      <trkpt lat="50.19445" lon="4.26996">
        <ele>216</ele>
        <time>2021-02-28T07:55:42Z</time>
      </trkpt>
      <trkpt lat="50.19449" lon="4.27002">
        <ele>216</ele>
        <time>2021-02-28T07:55:44Z</time>
      </trkpt>
      <trkpt lat="50.19453" lon="4.27007">
        <ele>216</ele>
        <time>2021-02-28T07:55:46Z</time>
      </trkpt>
      <trkpt lat="50.19456" lon="4.27011">
        <ele>216</ele>
        <time>2021-02-28T07:55:48Z</time>
      </trkpt>
      <trkpt lat="50.19459" lon="4.27015">
        <ele>217</ele>
        <time>2021-02-28T07:55:50Z</time>
      </trkpt>
      <trkpt lat="50.19461" lon="4.27019">
        <ele>217</ele>
        <time>2021-02-28T07:55:52Z</time>
      </trkpt>
      <trkpt lat="50.19464" lon="4.27022">
        <ele>217</ele>
        <time>2021-02-28T07:55:54Z</time>
      </trkpt>
      <trkpt lat="50.19466" lon="4.27026">
        <ele>217</ele>
        <time>2021-02-28T07:55:56Z</time>
      </trkpt>
      <trkpt lat="50.19467" lon="4.27031">
        <ele>217</ele>
        <time>2021-02-28T07:55:58Z</time>
      </trkpt>
      <trkpt lat="50.19469" lon="4.27035">
        <ele>217</ele>
        <time>2021-02-28T07:56:00Z</time>
      </trkpt>
      <trkpt lat="50.1947" lon="4.27038">
        <ele>217</ele>
        <time>2021-02-28T07:56:02Z</time>
      </trkpt>
      <trkpt lat="50.19473" lon="4.27042">
        <ele>219</ele>
        <time>2021-02-28T07:56:04Z</time>
      </trkpt>
      <trkpt lat="50.19476" lon="4.27047">
        <ele>219</ele>
        <time>2021-02-28T07:56:06Z</time>
      </trkpt>
      <trkpt lat="50.19479" lon="4.27051">
        <ele>219</ele>
        <time>2021-02-28T07:56:08Z</time>
      </trkpt>
      <trkpt lat="50.19483" lon="4.27057">
        <ele>219</ele>
        <time>2021-02-28T07:56:10Z</time>
      </trkpt>
      <trkpt lat="50.19487" lon="4.27064">
        <ele>219</ele>
        <time>2021-02-28T07:56:12Z</time>
      </trkpt>
      <trkpt lat="50.19489" lon="4.27069">
        <ele>219</ele>
        <time>2021-02-28T07:56:14Z</time>
      </trkpt>
      <trkpt lat="50.19492" lon="4.27074">
        <ele>222</ele>
        <time>2021-02-28T07:56:16Z</time>
      </trkpt>
      <trkpt lat="50.19494" lon="4.27081">
        <ele>222</ele>
        <time>2021-02-28T07:56:18Z</time>
      </trkpt>
      <trkpt lat="50.19495" lon="4.27085">
        <ele>222</ele>
        <time>2021-02-28T07:56:20Z</time>
      </trkpt>
      <trkpt lat="50.19495" lon="4.2709">
        <ele>222</ele>
        <time>2021-02-28T07:56:22Z</time>
      </trkpt>
      <trkpt lat="50.19496" lon="4.27095">
        <ele>222</ele>
        <time>2021-02-28T07:56:24Z</time>
      </trkpt>
      <trkpt lat="50.19497" lon="4.271">
        <ele>223</ele>
        <time>2021-02-28T07:56:26Z</time>
      </trkpt>
      <trkpt lat="50.19499" lon="4.27105">
        <ele>223</ele>
        <time>2021-02-28T07:56:28Z</time>
      </trkpt>
      <trkpt lat="50.19501" lon="4.27111">
        <ele>223</ele>
        <time>2021-02-28T07:56:30Z</time>
      </trkpt>
      <trkpt lat="50.19503" lon="4.27116">
        <ele>223</ele>
        <time>2021-02-28T07:56:32Z</time>
      </trkpt>
      <trkpt lat="50.19506" lon="4.27121">
        <ele>223</ele>
        <time>2021-02-28T07:56:34Z</time>
      </trkpt>
      <trkpt lat="50.1951" lon="4.27124">
        <ele>223</ele>
        <time>2021-02-28T07:56:36Z</time>
      </trkpt>
      <trkpt lat="50.19515" lon="4.27131">
        <ele>227</ele>
        <time>2021-02-28T07:56:38Z</time>
      </trkpt>
      <trkpt lat="50.19518" lon="4.27137">
        <ele>227</ele>
        <time>2021-02-28T07:56:40Z</time>
      </trkpt>
      <trkpt lat="50.19522" lon="4.27142">
        <ele>227</ele>
        <time>2021-02-28T07:56:42Z</time>
      </trkpt>
      <trkpt lat="50.19525" lon="4.27147">
        <ele>227</ele>
        <time>2021-02-28T07:56:44Z</time>
      </trkpt>
      <trkpt lat="50.19528" lon="4.27153">
        <ele>227</ele>
        <time>2021-02-28T07:56:46Z</time>
      </trkpt>
      <trkpt lat="50.19532" lon="4.27159">
        <ele>229</ele>
        <time>2021-02-28T07:56:48Z</time>
      </trkpt>
      <trkpt lat="50.19534" lon="4.27163">
        <ele>229</ele>
        <time>2021-02-28T07:56:50Z</time>
      </trkpt>
      <trkpt lat="50.19535" lon="4.27167">
        <ele>229</ele>
        <time>2021-02-28T07:56:52Z</time>
      </trkpt>
      <trkpt lat="50.19537" lon="4.27171">
        <ele>229</ele>
        <time>2021-02-28T07:56:54Z</time>
      </trkpt>
      <trkpt lat="50.1954" lon="4.27174">
        <ele>229</ele>
        <time>2021-02-28T07:56:56Z</time>
      </trkpt>
      <trkpt lat="50.19543" lon="4.27177">
        <ele>230</ele>
        <time>2021-02-28T07:56:58Z</time>
      </trkpt>
      <trkpt lat="50.19546" lon="4.27181">
        <ele>230</ele>
        <time>2021-02-28T07:57:00Z</time>
      </trkpt>
      <trkpt lat="50.19552" lon="4.27187">
        <ele>230</ele>
        <time>2021-02-28T07:57:02Z</time>
      </trkpt>
      <trkpt lat="50.19555" lon="4.27192">
        <ele>230</ele>
        <time>2021-02-28T07:57:04Z</time>
      </trkpt>
      <trkpt lat="50.19557" lon="4.27196">
        <ele>230</ele>
        <time>2021-02-28T07:57:06Z</time>
      </trkpt>
      <trkpt lat="50.1956" lon="4.272">
        <ele>230</ele>
        <time>2021-02-28T07:57:08Z</time>
      </trkpt>
      <trkpt lat="50.19563" lon="4.27205">
        <ele>230</ele>
        <time>2021-02-28T07:57:10Z</time>
      </trkpt>
      <trkpt lat="50.19567" lon="4.27211">
        <ele>231</ele>
        <time>2021-02-28T07:57:12Z</time>
      </trkpt>
      <trkpt lat="50.19569" lon="4.27215">
        <ele>231</ele>
        <time>2021-02-28T07:57:14Z</time>
      </trkpt>
      <trkpt lat="50.1957" lon="4.27218">
        <ele>232</ele>
        <time>2021-02-28T07:57:16Z</time>
      </trkpt>
      <trkpt lat="50.19572" lon="4.27221">
        <ele>232</ele>
        <time>2021-02-28T07:57:18Z</time>
      </trkpt>
      <trkpt lat="50.19574" lon="4.27225">
        <ele>232</ele>
        <time>2021-02-28T07:57:20Z</time>
      </trkpt>
      <trkpt lat="50.19576" lon="4.27229">
        <ele>232</ele>
        <time>2021-02-28T07:57:22Z</time>
      </trkpt>
      <trkpt lat="50.19577" lon="4.27233">
        <ele>232</ele>
        <time>2021-02-28T07:57:24Z</time>
      </trkpt>
      <trkpt lat="50.19578" lon="4.27236">
        <ele>232</ele>
        <time>2021-02-28T07:57:26Z</time>
      </trkpt>
      <trkpt lat="50.19578" lon="4.27239">
        <ele>232</ele>
        <time>2021-02-28T07:57:28Z</time>
      </trkpt>
      <trkpt lat="50.19582" lon="4.27243">
        <ele>232</ele>
        <time>2021-02-28T07:57:30Z</time>
      </trkpt>
      <trkpt lat="50.19585" lon="4.2725">
        <ele>232</ele>
        <time>2021-02-28T07:57:32Z</time>
      </trkpt>
      <trkpt lat="50.19589" lon="4.27256">
        <ele>232</ele>
        <time>2021-02-28T07:57:34Z</time>
      </trkpt>
      <trkpt lat="50.1959" lon="4.2726">
        <ele>232</ele>
        <time>2021-02-28T07:57:36Z</time>
      </trkpt>
      <trkpt lat="50.19593" lon="4.27264">
        <ele>233</ele>
        <time>2021-02-28T07:57:38Z</time>
      </trkpt>
      <trkpt lat="50.19596" lon="4.27268">
        <ele>233</ele>
        <time>2021-02-28T07:57:40Z</time>
      </trkpt>
      <trkpt lat="50.19599" lon="4.27271">
        <ele>235</ele>
        <time>2021-02-28T07:57:42Z</time>
      </trkpt>
      <trkpt lat="50.19603" lon="4.27276">
        <ele>235</ele>
        <time>2021-02-28T07:57:44Z</time>
      </trkpt>
      <trkpt lat="50.19606" lon="4.2728">
        <ele>235</ele>
        <time>2021-02-28T07:57:46Z</time>
      </trkpt>
      <trkpt lat="50.1961" lon="4.27285">
        <ele>235</ele>
        <time>2021-02-28T07:57:48Z</time>
      </trkpt>
      <trkpt lat="50.19614" lon="4.2729">
        <ele>235</ele>
        <time>2021-02-28T07:57:50Z</time>
      </trkpt>
      <trkpt lat="50.19618" lon="4.27294">
        <ele>234</ele>
        <time>2021-02-28T07:57:52Z</time>
      </trkpt>
      <trkpt lat="50.19622" lon="4.27298">
        <ele>234</ele>
        <time>2021-02-28T07:57:54Z</time>
      </trkpt>
      <trkpt lat="50.19626" lon="4.27302">
        <ele>236</ele>
        <time>2021-02-28T07:57:56Z</time>
      </trkpt>
      <trkpt lat="50.1963" lon="4.27307">
        <ele>236</ele>
        <time>2021-02-28T07:57:58Z</time>
      </trkpt>
      <trkpt lat="50.1964" lon="4.27318">
        <ele>236</ele>
        <time>2021-02-28T07:58:00Z</time>
      </trkpt>
      <trkpt lat="50.19644" lon="4.27323">
        <ele>237</ele>
        <time>2021-02-28T07:58:02Z</time>
      </trkpt>
      <trkpt lat="50.19648" lon="4.27328">
        <ele>237</ele>
        <time>2021-02-28T07:58:04Z</time>
      </trkpt>
      <trkpt lat="50.19652" lon="4.27331">
        <ele>237</ele>
        <time>2021-02-28T07:58:06Z</time>
      </trkpt>
      <trkpt lat="50.19657" lon="4.27336">
        <ele>238</ele>
        <time>2021-02-28T07:58:08Z</time>
      </trkpt>
      <trkpt lat="50.19662" lon="4.27338">
        <ele>238</ele>
        <time>2021-02-28T07:58:10Z</time>
      </trkpt>
      <trkpt lat="50.19667" lon="4.2734">
        <ele>238</ele>
        <time>2021-02-28T07:58:12Z</time>
      </trkpt>
      <trkpt lat="50.19672" lon="4.27342">
        <ele>238</ele>
        <time>2021-02-28T07:58:14Z</time>
      </trkpt>
      <trkpt lat="50.19677" lon="4.27343">
        <ele>238</ele>
        <time>2021-02-28T07:58:16Z</time>
      </trkpt>
      <trkpt lat="50.19682" lon="4.27344">
        <ele>238</ele>
        <time>2021-02-28T07:58:18Z</time>
      </trkpt>
      <trkpt lat="50.19687" lon="4.27345">
        <ele>238</ele>
        <time>2021-02-28T07:58:20Z</time>
      </trkpt>
      <trkpt lat="50.19693" lon="4.27346">
        <ele>238</ele>
        <time>2021-02-28T07:58:22Z</time>
      </trkpt>
      <trkpt lat="50.19698" lon="4.27346">
        <ele>238</ele>
        <time>2021-02-28T07:58:24Z</time>
      </trkpt>
      <trkpt lat="50.19704" lon="4.27347">
        <ele>238</ele>
        <time>2021-02-28T07:58:26Z</time>
      </trkpt>
      <trkpt lat="50.19709" lon="4.27347">
        <ele>237</ele>
        <time>2021-02-28T07:58:28Z</time>
      </trkpt>
      <trkpt lat="50.19716" lon="4.27348">
        <ele>237</ele>
        <time>2021-02-28T07:58:30Z</time>
      </trkpt>
      <trkpt lat="50.19722" lon="4.27349">
        <ele>237</ele>
        <time>2021-02-28T07:58:32Z</time>
      </trkpt>
      <trkpt lat="50.19728" lon="4.2735">
        <ele>237</ele>
        <time>2021-02-28T07:58:34Z</time>
      </trkpt>
      <trkpt lat="50.19735" lon="4.2735">
        <ele>237</ele>
        <time>2021-02-28T07:58:36Z</time>
      </trkpt>
      <trkpt lat="50.19741" lon="4.2735">
        <ele>236</ele>
        <time>2021-02-28T07:58:38Z</time>
      </trkpt>
      <trkpt lat="50.19748" lon="4.27351">
        <ele>236</ele>
        <time>2021-02-28T07:58:40Z</time>
      </trkpt>
      <trkpt lat="50.19755" lon="4.27351">
        <ele>236</ele>
        <time>2021-02-28T07:58:42Z</time>
      </trkpt>
      <trkpt lat="50.19762" lon="4.27351">
        <ele>236</ele>
        <time>2021-02-28T07:58:44Z</time>
      </trkpt>
      <trkpt lat="50.19769" lon="4.27351">
        <ele>235</ele>
        <time>2021-02-28T07:58:46Z</time>
      </trkpt>
      <trkpt lat="50.19777" lon="4.27352">
        <ele>235</ele>
        <time>2021-02-28T07:58:48Z</time>
      </trkpt>
      <trkpt lat="50.19785" lon="4.27353">
        <ele>235</ele>
        <time>2021-02-28T07:58:50Z</time>
      </trkpt>
      <trkpt lat="50.19793" lon="4.27353">
        <ele>234</ele>
        <time>2021-02-28T07:58:52Z</time>
      </trkpt>
      <trkpt lat="50.19801" lon="4.27352">
        <ele>234</ele>
        <time>2021-02-28T07:58:54Z</time>
      </trkpt>
      <trkpt lat="50.19811" lon="4.27349">
        <ele>234</ele>
        <time>2021-02-28T07:58:56Z</time>
      </trkpt>
      <trkpt lat="50.19821" lon="4.27345">
        <ele>233</ele>
        <time>2021-02-28T07:58:58Z</time>
      </trkpt>
      <trkpt lat="50.19833" lon="4.2734">
        <ele>233</ele>
        <time>2021-02-28T07:59:00Z</time>
      </trkpt>
      <trkpt lat="50.19846" lon="4.27334">
        <ele>233</ele>
        <time>2021-02-28T07:59:02Z</time>
      </trkpt>
      <trkpt lat="50.1986" lon="4.27327">
        <ele>231</ele>
        <time>2021-02-28T07:59:04Z</time>
      </trkpt>
      <trkpt lat="50.19874" lon="4.27318">
        <ele>231</ele>
        <time>2021-02-28T07:59:06Z</time>
      </trkpt>
      <trkpt lat="50.19888" lon="4.27309">
        <ele>229</ele>
        <time>2021-02-28T07:59:08Z</time>
      </trkpt>
      <trkpt lat="50.19901" lon="4.27299">
        <ele>229</ele>
        <time>2021-02-28T07:59:10Z</time>
      </trkpt>
      <trkpt lat="50.19915" lon="4.2729">
        <ele>227</ele>
        <time>2021-02-28T07:59:12Z</time>
      </trkpt>
      <trkpt lat="50.19931" lon="4.27282">
        <ele>225</ele>
        <time>2021-02-28T07:59:14Z</time>
      </trkpt>
      <trkpt lat="50.19945" lon="4.27275">
        <ele>225</ele>
        <time>2021-02-28T07:59:16Z</time>
      </trkpt>
      <trkpt lat="50.19959" lon="4.27265">
        <ele>224</ele>
        <time>2021-02-28T07:59:18Z</time>
      </trkpt>
      <trkpt lat="50.19974" lon="4.27252">
        <ele>223</ele>
        <time>2021-02-28T07:59:20Z</time>
      </trkpt>
      <trkpt lat="50.19988" lon="4.27237">
        <ele>221</ele>
        <time>2021-02-28T07:59:22Z</time>
      </trkpt>
      <trkpt lat="50.20002" lon="4.27221">
        <ele>220</ele>
        <time>2021-02-28T07:59:24Z</time>
      </trkpt>
      <trkpt lat="50.20015" lon="4.27204">
        <ele>218</ele>
        <time>2021-02-28T07:59:26Z</time>
      </trkpt>
      <trkpt lat="50.20029" lon="4.27186">
        <ele>218</ele>
        <time>2021-02-28T07:59:28Z</time>
      </trkpt>
      <trkpt lat="50.20042" lon="4.27168">
        <ele>216</ele>
        <time>2021-02-28T07:59:30Z</time>
      </trkpt>
      <trkpt lat="50.20054" lon="4.27149">
        <ele>215</ele>
        <time>2021-02-28T07:59:32Z</time>
      </trkpt>
      <trkpt lat="50.20066" lon="4.2713">
        <ele>215</ele>
        <time>2021-02-28T07:59:34Z</time>
      </trkpt>
      <trkpt lat="50.20078" lon="4.27113">
        <ele>212</ele>
        <time>2021-02-28T07:59:36Z</time>
      </trkpt>
      <trkpt lat="50.20091" lon="4.27097">
        <ele>212</ele>
        <time>2021-02-28T07:59:38Z</time>
      </trkpt>
      <trkpt lat="50.20103" lon="4.27084">
        <ele>210</ele>
        <time>2021-02-28T07:59:40Z</time>
      </trkpt>
      <trkpt lat="50.20114" lon="4.27072">
        <ele>210</ele>
        <time>2021-02-28T07:59:42Z</time>
      </trkpt>
      <trkpt lat="50.20123" lon="4.27061">
        <ele>209</ele>
        <time>2021-02-28T07:59:44Z</time>
      </trkpt>
      <trkpt lat="50.20132" lon="4.27051">
        <ele>208</ele>
        <time>2021-02-28T07:59:46Z</time>
      </trkpt>
      <trkpt lat="50.20141" lon="4.27043">
        <ele>208</ele>
        <time>2021-02-28T07:59:48Z</time>
      </trkpt>
      <trkpt lat="50.20152" lon="4.27037">
        <ele>207</ele>
        <time>2021-02-28T07:59:50Z</time>
      </trkpt>
      <trkpt lat="50.20165" lon="4.27032">
        <ele>206</ele>
        <time>2021-02-28T07:59:52Z</time>
      </trkpt>
      <trkpt lat="50.20177" lon="4.27027">
        <ele>206</ele>
        <time>2021-02-28T07:59:54Z</time>
      </trkpt>
      <trkpt lat="50.20189" lon="4.27022">
        <ele>206</ele>
        <time>2021-02-28T07:59:56Z</time>
      </trkpt>
      <trkpt lat="50.20199" lon="4.27014">
        <ele>206</ele>
        <time>2021-02-28T07:59:58Z</time>
      </trkpt>
      <trkpt lat="50.20208" lon="4.27007">
        <ele>207</ele>
        <time>2021-02-28T08:00:00Z</time>
      </trkpt>
      <trkpt lat="50.20215" lon="4.26998">
        <ele>208</ele>
        <time>2021-02-28T08:00:02Z</time>
      </trkpt>
      <trkpt lat="50.20221" lon="4.26989">
        <ele>208</ele>
        <time>2021-02-28T08:00:04Z</time>
      </trkpt>
      <trkpt lat="50.20226" lon="4.2698">
        <ele>208</ele>
        <time>2021-02-28T08:00:06Z</time>
      </trkpt>
      <trkpt lat="50.20231" lon="4.26972">
        <ele>208</ele>
        <time>2021-02-28T08:00:08Z</time>
      </trkpt>
      <trkpt lat="50.20235" lon="4.26965">
        <ele>208</ele>
        <time>2021-02-28T08:00:10Z</time>
      </trkpt>
      <trkpt lat="50.20239" lon="4.26959">
        <ele>212</ele>
        <time>2021-02-28T08:00:12Z</time>
      </trkpt>
      <trkpt lat="50.20242" lon="4.26953">
        <ele>213</ele>
        <time>2021-02-28T08:00:14Z</time>
      </trkpt>
      <trkpt lat="50.20245" lon="4.26947">
        <ele>213</ele>
        <time>2021-02-28T08:00:16Z</time>
      </trkpt>
      <trkpt lat="50.20248" lon="4.2694">
        <ele>213</ele>
        <time>2021-02-28T08:00:18Z</time>
      </trkpt>
      <trkpt lat="50.2025" lon="4.26931">
        <ele>213</ele>
        <time>2021-02-28T08:00:20Z</time>
      </trkpt>
      <trkpt lat="50.20252" lon="4.26921">
        <ele>214</ele>
        <time>2021-02-28T08:00:22Z</time>
      </trkpt>
      <trkpt lat="50.20253" lon="4.26909">
        <ele>214</ele>
        <time>2021-02-28T08:00:24Z</time>
      </trkpt>
      <trkpt lat="50.20255" lon="4.26897">
        <ele>215</ele>
        <time>2021-02-28T08:00:26Z</time>
      </trkpt>
      <trkpt lat="50.20256" lon="4.26885">
        <ele>215</ele>
        <time>2021-02-28T08:00:28Z</time>
      </trkpt>
      <trkpt lat="50.20258" lon="4.26874">
        <ele>216</ele>
        <time>2021-02-28T08:00:30Z</time>
      </trkpt>
      <trkpt lat="50.2026" lon="4.26862">
        <ele>216</ele>
        <time>2021-02-28T08:00:32Z</time>
      </trkpt>
      <trkpt lat="50.20262" lon="4.26851">
        <ele>216</ele>
        <time>2021-02-28T08:00:34Z</time>
      </trkpt>
      <trkpt lat="50.20264" lon="4.2684">
        <ele>219</ele>
        <time>2021-02-28T08:00:36Z</time>
      </trkpt>
      <trkpt lat="50.20267" lon="4.26829">
        <ele>219</ele>
        <time>2021-02-28T08:00:38Z</time>
      </trkpt>
      <trkpt lat="50.20269" lon="4.26819">
        <ele>220</ele>
        <time>2021-02-28T08:00:40Z</time>
      </trkpt>
      <trkpt lat="50.20272" lon="4.2681">
        <ele>220</ele>
        <time>2021-02-28T08:00:42Z</time>
      </trkpt>
      <trkpt lat="50.20275" lon="4.26801">
        <ele>220</ele>
        <time>2021-02-28T08:00:44Z</time>
      </trkpt>
      <trkpt lat="50.20278" lon="4.26792">
        <ele>220</ele>
        <time>2021-02-28T08:00:46Z</time>
      </trkpt>
      <trkpt lat="50.20281" lon="4.26784">
        <ele>219</ele>
        <time>2021-02-28T08:00:48Z</time>
      </trkpt>
      <trkpt lat="50.20284" lon="4.26775">
        <ele>219</ele>
        <time>2021-02-28T08:00:50Z</time>
      </trkpt>
      <trkpt lat="50.20287" lon="4.26767">
        <ele>219</ele>
        <time>2021-02-28T08:00:52Z</time>
      </trkpt>
      <trkpt lat="50.2029" lon="4.2676">
        <ele>220</ele>
        <time>2021-02-28T08:00:54Z</time>
      </trkpt>
      <trkpt lat="50.20293" lon="4.26753">
        <ele>224</ele>
        <time>2021-02-28T08:00:56Z</time>
      </trkpt>
      <trkpt lat="50.20296" lon="4.26745">
        <ele>224</ele>
        <time>2021-02-28T08:00:58Z</time>
      </trkpt>
      <trkpt lat="50.20299" lon="4.26738">
        <ele>224</ele>
        <time>2021-02-28T08:01:00Z</time>
      </trkpt>
      <trkpt lat="50.20301" lon="4.26729">
        <ele>223</ele>
        <time>2021-02-28T08:01:02Z</time>
      </trkpt>
      <trkpt lat="50.20303" lon="4.26722">
        <ele>223</ele>
        <time>2021-02-28T08:01:04Z</time>
      </trkpt>
      <trkpt lat="50.20306" lon="4.26714">
        <ele>223</ele>
        <time>2021-02-28T08:01:06Z</time>
      </trkpt>
      <trkpt lat="50.20308" lon="4.26706">
        <ele>224</ele>
        <time>2021-02-28T08:01:08Z</time>
      </trkpt>
      <trkpt lat="50.2031" lon="4.26698">
        <ele>224</ele>
        <time>2021-02-28T08:01:10Z</time>
      </trkpt>
      <trkpt lat="50.20313" lon="4.2669">
        <ele>224</ele>
        <time>2021-02-28T08:01:12Z</time>
      </trkpt>
      <trkpt lat="50.20316" lon="4.26683">
        <ele>224</ele>
        <time>2021-02-28T08:01:14Z</time>
      </trkpt>
      <trkpt lat="50.20318" lon="4.26675">
        <ele>222</ele>
        <time>2021-02-28T08:01:16Z</time>
      </trkpt>
      <trkpt lat="50.20321" lon="4.26668">
        <ele>226</ele>
        <time>2021-02-28T08:01:18Z</time>
      </trkpt>
      <trkpt lat="50.20324" lon="4.2666">
        <ele>226</ele>
        <time>2021-02-28T08:01:20Z</time>
      </trkpt>
      <trkpt lat="50.20327" lon="4.26652">
        <ele>226</ele>
        <time>2021-02-28T08:01:22Z</time>
      </trkpt>
      <trkpt lat="50.20329" lon="4.26644">
        <ele>226</ele>
        <time>2021-02-28T08:01:24Z</time>
      </trkpt>
      <trkpt lat="50.20332" lon="4.26636">
        <ele>226</ele>
        <time>2021-02-28T08:01:26Z</time>
      </trkpt>
      <trkpt lat="50.20336" lon="4.26629">
        <ele>226</ele>
        <time>2021-02-28T08:01:28Z</time>
      </trkpt>
      <trkpt lat="50.2034" lon="4.26623">
        <ele>225</ele>
        <time>2021-02-28T08:01:30Z</time>
      </trkpt>
      <trkpt lat="50.20344" lon="4.26617">
        <ele>225</ele>
        <time>2021-02-28T08:01:32Z</time>
      </trkpt>
      <trkpt lat="50.20348" lon="4.26612">
        <ele>228</ele>
        <time>2021-02-28T08:01:34Z</time>
      </trkpt>
      <trkpt lat="50.20353" lon="4.26607">
        <ele>228</ele>
        <time>2021-02-28T08:01:36Z</time>
      </trkpt>
      <trkpt lat="50.20358" lon="4.26603">
        <ele>228</ele>
        <time>2021-02-28T08:01:38Z</time>
      </trkpt>
      <trkpt lat="50.20362" lon="4.26597">
        <ele>228</ele>
        <time>2021-02-28T08:01:40Z</time>
      </trkpt>
      <trkpt lat="50.20367" lon="4.26593">
        <ele>227</ele>
        <time>2021-02-28T08:01:42Z</time>
      </trkpt>
      <trkpt lat="50.20372" lon="4.26588">
        <ele>227</ele>
        <time>2021-02-28T08:01:44Z</time>
      </trkpt>
      <trkpt lat="50.20377" lon="4.26583">
        <ele>229</ele>
        <time>2021-02-28T08:01:46Z</time>
      </trkpt>
      <trkpt lat="50.20382" lon="4.26579">
        <ele>229</ele>
        <time>2021-02-28T08:01:48Z</time>
      </trkpt>
      <trkpt lat="50.20388" lon="4.26575">
        <ele>229</ele>
        <time>2021-02-28T08:01:50Z</time>
      </trkpt>
      <trkpt lat="50.20393" lon="4.2657">
        <ele>229</ele>
        <time>2021-02-28T08:01:52Z</time>
      </trkpt>
      <trkpt lat="50.20398" lon="4.26565">
        <ele>228</ele>
        <time>2021-02-28T08:01:54Z</time>
      </trkpt>
      <trkpt lat="50.20403" lon="4.2656">
        <ele>231</ele>
        <time>2021-02-28T08:01:56Z</time>
      </trkpt>
      <trkpt lat="50.20409" lon="4.26556">
        <ele>231</ele>
        <time>2021-02-28T08:01:58Z</time>
      </trkpt>
      <trkpt lat="50.20414" lon="4.26552">
        <ele>231</ele>
        <time>2021-02-28T08:02:00Z</time>
      </trkpt>
      <trkpt lat="50.20419" lon="4.26548">
        <ele>231</ele>
        <time>2021-02-28T08:02:02Z</time>
      </trkpt>
      <trkpt lat="50.20424" lon="4.26544">
        <ele>231</ele>
        <time>2021-02-28T08:02:04Z</time>
      </trkpt>
      <trkpt lat="50.20429" lon="4.2654">
        <ele>230</ele>
        <time>2021-02-28T08:02:06Z</time>
      </trkpt>
      <trkpt lat="50.20435" lon="4.26536">
        <ele>231</ele>
        <time>2021-02-28T08:02:08Z</time>
      </trkpt>
      <trkpt lat="50.2044" lon="4.26532">
        <ele>231</ele>
        <time>2021-02-28T08:02:10Z</time>
      </trkpt>
      <trkpt lat="50.20446" lon="4.26529">
        <ele>231</ele>
        <time>2021-02-28T08:02:12Z</time>
      </trkpt>
      <trkpt lat="50.20451" lon="4.26525">
        <ele>231</ele>
        <time>2021-02-28T08:02:14Z</time>
      </trkpt>
      <trkpt lat="50.20458" lon="4.26521">
        <ele>231</ele>
        <time>2021-02-28T08:02:16Z</time>
      </trkpt>
      <trkpt lat="50.20464" lon="4.26517">
        <ele>231</ele>
        <time>2021-02-28T08:02:18Z</time>
      </trkpt>
      <trkpt lat="50.2047" lon="4.26514">
        <ele>230</ele>
        <time>2021-02-28T08:02:20Z</time>
      </trkpt>
      <trkpt lat="50.20476" lon="4.26509">
        <ele>230</ele>
        <time>2021-02-28T08:02:22Z</time>
      </trkpt>
      <trkpt lat="50.20483" lon="4.26506">
        <ele>230</ele>
        <time>2021-02-28T08:02:24Z</time>
      </trkpt>
      <trkpt lat="50.20488" lon="4.26502">
        <ele>232</ele>
        <time>2021-02-28T08:02:26Z</time>
      </trkpt>
      <trkpt lat="50.20495" lon="4.26497">
        <ele>232</ele>
        <time>2021-02-28T08:02:28Z</time>
      </trkpt>
      <trkpt lat="50.20503" lon="4.26493">
        <ele>232</ele>
        <time>2021-02-28T08:02:30Z</time>
      </trkpt>
      <trkpt lat="50.20511" lon="4.26489">
        <ele>232</ele>
        <time>2021-02-28T08:02:32Z</time>
      </trkpt>
      <trkpt lat="50.20517" lon="4.26486">
        <ele>234</ele>
        <time>2021-02-28T08:02:34Z</time>
      </trkpt>
      <trkpt lat="50.20525" lon="4.26482">
        <ele>234</ele>
        <time>2021-02-28T08:02:36Z</time>
      </trkpt>
      <trkpt lat="50.20532" lon="4.26478">
        <ele>234</ele>
        <time>2021-02-28T08:02:38Z</time>
      </trkpt>
      <trkpt lat="50.20539" lon="4.26473">
        <ele>234</ele>
        <time>2021-02-28T08:02:40Z</time>
      </trkpt>
      <trkpt lat="50.20546" lon="4.26469">
        <ele>236</ele>
        <time>2021-02-28T08:02:42Z</time>
      </trkpt>
      <trkpt lat="50.20553" lon="4.26464">
        <ele>236</ele>
        <time>2021-02-28T08:02:44Z</time>
      </trkpt>
      <trkpt lat="50.20561" lon="4.2646">
        <ele>236</ele>
        <time>2021-02-28T08:02:46Z</time>
      </trkpt>
      <trkpt lat="50.20568" lon="4.26455">
        <ele>233</ele>
        <time>2021-02-28T08:02:48Z</time>
      </trkpt>
      <trkpt lat="50.20575" lon="4.2645">
        <ele>234</ele>
        <time>2021-02-28T08:02:50Z</time>
      </trkpt>
      <trkpt lat="50.20582" lon="4.26448">
        <ele>234</ele>
        <time>2021-02-28T08:02:52Z</time>
      </trkpt>
      <trkpt lat="50.20589" lon="4.26443">
        <ele>234</ele>
        <time>2021-02-28T08:02:54Z</time>
      </trkpt>
      <trkpt lat="50.20597" lon="4.26437">
        <ele>234</ele>
        <time>2021-02-28T08:02:56Z</time>
      </trkpt>
      <trkpt lat="50.20604" lon="4.26432">
        <ele>230</ele>
        <time>2021-02-28T08:02:58Z</time>
      </trkpt>
      <trkpt lat="50.20612" lon="4.26427">
        <ele>230</ele>
        <time>2021-02-28T08:03:00Z</time>
      </trkpt>
      <trkpt lat="50.20619" lon="4.26422">
        <ele>230</ele>
        <time>2021-02-28T08:03:02Z</time>
      </trkpt>
      <trkpt lat="50.20626" lon="4.26415">
        <ele>229</ele>
        <time>2021-02-28T08:03:04Z</time>
      </trkpt>
      <trkpt lat="50.20632" lon="4.26409">
        <ele>229</ele>
        <time>2021-02-28T08:03:06Z</time>
      </trkpt>
      <trkpt lat="50.2064" lon="4.26403">
        <ele>229</ele>
        <time>2021-02-28T08:03:08Z</time>
      </trkpt>
      <trkpt lat="50.20647" lon="4.26397">
        <ele>229</ele>
        <time>2021-02-28T08:03:10Z</time>
      </trkpt>
      <trkpt lat="50.20654" lon="4.26391">
        <ele>228</ele>
        <time>2021-02-28T08:03:12Z</time>
      </trkpt>
      <trkpt lat="50.20662" lon="4.26385">
        <ele>228</ele>
        <time>2021-02-28T08:03:14Z</time>
      </trkpt>
      <trkpt lat="50.20668" lon="4.26381">
        <ele>228</ele>
        <time>2021-02-28T08:03:16Z</time>
      </trkpt>
      <trkpt lat="50.20673" lon="4.26376">
        <ele>228</ele>
        <time>2021-02-28T08:03:18Z</time>
      </trkpt>
      <trkpt lat="50.20679" lon="4.2637">
        <ele>226</ele>
        <time>2021-02-28T08:03:20Z</time>
      </trkpt>
      <trkpt lat="50.20684" lon="4.26361">
        <ele>225</ele>
        <time>2021-02-28T08:03:22Z</time>
      </trkpt>
      <trkpt lat="50.20687" lon="4.2635">
        <ele>225</ele>
        <time>2021-02-28T08:03:24Z</time>
      </trkpt>
      <trkpt lat="50.2069" lon="4.26338">
        <ele>224</ele>
        <time>2021-02-28T08:03:26Z</time>
      </trkpt>
      <trkpt lat="50.20693" lon="4.26325">
        <ele>224</ele>
        <time>2021-02-28T08:03:28Z</time>
      </trkpt>
      <trkpt lat="50.20696" lon="4.26312">
        <ele>225</ele>
        <time>2021-02-28T08:03:30Z</time>
      </trkpt>
      <trkpt lat="50.20699" lon="4.26299">
        <ele>225</ele>
        <time>2021-02-28T08:03:32Z</time>
      </trkpt>
      <trkpt lat="50.20702" lon="4.26286">
        <ele>225</ele>
        <time>2021-02-28T08:03:34Z</time>
      </trkpt>
      <trkpt lat="50.20704" lon="4.26273">
        <ele>225</ele>
        <time>2021-02-28T08:03:36Z</time>
      </trkpt>
      <trkpt lat="50.20706" lon="4.2626">
        <ele>226</ele>
        <time>2021-02-28T08:03:38Z</time>
      </trkpt>
      <trkpt lat="50.20707" lon="4.26248">
        <ele>226</ele>
        <time>2021-02-28T08:03:40Z</time>
      </trkpt>
      <trkpt lat="50.20709" lon="4.26236">
        <ele>226</ele>
        <time>2021-02-28T08:03:42Z</time>
      </trkpt>
      <trkpt lat="50.2071" lon="4.26226">
        <ele>226</ele>
        <time>2021-02-28T08:03:44Z</time>
      </trkpt>
      <trkpt lat="50.20709" lon="4.26217">
        <ele>226</ele>
        <time>2021-02-28T08:03:46Z</time>
      </trkpt>
      <trkpt lat="50.20706" lon="4.2621">
        <ele>227</ele>
        <time>2021-02-28T08:03:48Z</time>
      </trkpt>
      <trkpt lat="50.20702" lon="4.26204">
        <ele>227</ele>
        <time>2021-02-28T08:03:50Z</time>
      </trkpt>
      <trkpt lat="50.20697" lon="4.26197">
        <ele>227</ele>
        <time>2021-02-28T08:03:52Z</time>
      </trkpt>
      <trkpt lat="50.20691" lon="4.2619">
        <ele>227</ele>
        <time>2021-02-28T08:03:54Z</time>
      </trkpt>
      <trkpt lat="50.20685" lon="4.26182">
        <ele>227</ele>
        <time>2021-02-28T08:03:56Z</time>
      </trkpt>
      <trkpt lat="50.2068" lon="4.26174">
        <ele>228</ele>
        <time>2021-02-28T08:03:58Z</time>
      </trkpt>
      <trkpt lat="50.20675" lon="4.26165">
        <ele>228</ele>
        <time>2021-02-28T08:04:00Z</time>
      </trkpt>
      <trkpt lat="50.20671" lon="4.26154">
        <ele>228</ele>
        <time>2021-02-28T08:04:02Z</time>
      </trkpt>
      <trkpt lat="50.20668" lon="4.26137">
        <ele>228</ele>
        <time>2021-02-28T08:04:05Z</time>
      </trkpt>
      <trkpt lat="50.20665" lon="4.26125">
        <ele>228</ele>
        <time>2021-02-28T08:04:07Z</time>
      </trkpt>
      <trkpt lat="50.20663" lon="4.26113">
        <ele>228</ele>
        <time>2021-02-28T08:04:09Z</time>
      </trkpt>
      <trkpt lat="50.20661" lon="4.26101">
        <ele>228</ele>
        <time>2021-02-28T08:04:11Z</time>
      </trkpt>
      <trkpt lat="50.20659" lon="4.26089">
        <ele>228</ele>
        <time>2021-02-28T08:04:13Z</time>
      </trkpt>
      <trkpt lat="50.20657" lon="4.26077">
        <ele>228</ele>
        <time>2021-02-28T08:04:15Z</time>
      </trkpt>
      <trkpt lat="50.20655" lon="4.26065">
        <ele>229</ele>
        <time>2021-02-28T08:04:17Z</time>
      </trkpt>
      <trkpt lat="50.20653" lon="4.26052">
        <ele>229</ele>
        <time>2021-02-28T08:04:19Z</time>
      </trkpt>
      <trkpt lat="50.20651" lon="4.2604">
        <ele>230</ele>
        <time>2021-02-28T08:04:21Z</time>
      </trkpt>
      <trkpt lat="50.20649" lon="4.26027">
        <ele>230</ele>
        <time>2021-02-28T08:04:23Z</time>
      </trkpt>
      <trkpt lat="50.20646" lon="4.26015">
        <ele>230</ele>
        <time>2021-02-28T08:04:25Z</time>
      </trkpt>
      <trkpt lat="50.20644" lon="4.26002">
        <ele>230</ele>
        <time>2021-02-28T08:04:27Z</time>
      </trkpt>
      <trkpt lat="50.20641" lon="4.25989">
        <ele>230</ele>
        <time>2021-02-28T08:04:29Z</time>
      </trkpt>
      <trkpt lat="50.20639" lon="4.25975">
        <ele>231</ele>
        <time>2021-02-28T08:04:31Z</time>
      </trkpt>
      <trkpt lat="50.20636" lon="4.25962">
        <ele>231</ele>
        <time>2021-02-28T08:04:33Z</time>
      </trkpt>
      <trkpt lat="50.20634" lon="4.2595">
        <ele>231</ele>
        <time>2021-02-28T08:04:35Z</time>
      </trkpt>
      <trkpt lat="50.20632" lon="4.25937">
        <ele>231</ele>
        <time>2021-02-28T08:04:37Z</time>
      </trkpt>
      <trkpt lat="50.2063" lon="4.25924">
        <ele>231</ele>
        <time>2021-02-28T08:04:39Z</time>
      </trkpt>
      <trkpt lat="50.20628" lon="4.25911">
        <ele>231</ele>
        <time>2021-02-28T08:04:41Z</time>
      </trkpt>
      <trkpt lat="50.20625" lon="4.25898">
        <ele>231</ele>
        <time>2021-02-28T08:04:43Z</time>
      </trkpt>
      <trkpt lat="50.20623" lon="4.25886">
        <ele>231</ele>
        <time>2021-02-28T08:04:45Z</time>
      </trkpt>
      <trkpt lat="50.20621" lon="4.25875">
        <ele>231</ele>
        <time>2021-02-28T08:04:47Z</time>
      </trkpt>
      <trkpt lat="50.20618" lon="4.25866">
        <ele>231</ele>
        <time>2021-02-28T08:04:49Z</time>
      </trkpt>
      <trkpt lat="50.20612" lon="4.25864">
        <ele>231</ele>
        <time>2021-02-28T08:04:51Z</time>
      </trkpt>
      <trkpt lat="50.20606" lon="4.25867">
        <ele>231</ele>
        <time>2021-02-28T08:04:53Z</time>
      </trkpt>
      <trkpt lat="50.20598" lon="4.2587">
        <ele>231</ele>
        <time>2021-02-28T08:04:55Z</time>
      </trkpt>
      <trkpt lat="50.20591" lon="4.25867">
        <ele>232</ele>
        <time>2021-02-28T08:04:57Z</time>
      </trkpt>
      <trkpt lat="50.20585" lon="4.25859">
        <ele>232</ele>
        <time>2021-02-28T08:04:59Z</time>
      </trkpt>
      <trkpt lat="50.20578" lon="4.25852">
        <ele>232</ele>
        <time>2021-02-28T08:05:01Z</time>
      </trkpt>
      <trkpt lat="50.20573" lon="4.25844">
        <ele>233</ele>
        <time>2021-02-28T08:05:03Z</time>
      </trkpt>
      <trkpt lat="50.20567" lon="4.25836">
        <ele>232</ele>
        <time>2021-02-28T08:05:05Z</time>
      </trkpt>
      <trkpt lat="50.20561" lon="4.25828">
        <ele>232</ele>
        <time>2021-02-28T08:05:07Z</time>
      </trkpt>
      <trkpt lat="50.20554" lon="4.2582">
        <ele>232</ele>
        <time>2021-02-28T08:05:09Z</time>
      </trkpt>
      <trkpt lat="50.20548" lon="4.2581">
        <ele>232</ele>
        <time>2021-02-28T08:05:11Z</time>
      </trkpt>
      <trkpt lat="50.20541" lon="4.25802">
        <ele>232</ele>
        <time>2021-02-28T08:05:13Z</time>
      </trkpt>
      <trkpt lat="50.20533" lon="4.25793">
        <ele>232</ele>
        <time>2021-02-28T08:05:15Z</time>
      </trkpt>
      <trkpt lat="50.20527" lon="4.25783">
        <ele>231</ele>
        <time>2021-02-28T08:05:17Z</time>
      </trkpt>
      <trkpt lat="50.20519" lon="4.25774">
        <ele>231</ele>
        <time>2021-02-28T08:05:19Z</time>
      </trkpt>
      <trkpt lat="50.20512" lon="4.25767">
        <ele>231</ele>
        <time>2021-02-28T08:05:21Z</time>
      </trkpt>
      <trkpt lat="50.20505" lon="4.25757">
        <ele>231</ele>
        <time>2021-02-28T08:05:23Z</time>
      </trkpt>
      <trkpt lat="50.20498" lon="4.25748">
        <ele>231</ele>
        <time>2021-02-28T08:05:25Z</time>
      </trkpt>
      <trkpt lat="50.20491" lon="4.25737">
        <ele>231</ele>
        <time>2021-02-28T08:05:27Z</time>
      </trkpt>
      <trkpt lat="50.20486" lon="4.25726">
        <ele>231</ele>
        <time>2021-02-28T08:05:29Z</time>
      </trkpt>
      <trkpt lat="50.20481" lon="4.25714">
        <ele>231</ele>
        <time>2021-02-28T08:05:31Z</time>
      </trkpt>
      <trkpt lat="50.20475" lon="4.25704">
        <ele>230</ele>
        <time>2021-02-28T08:05:33Z</time>
      </trkpt>
      <trkpt lat="50.20472" lon="4.25693">
        <ele>230</ele>
        <time>2021-02-28T08:05:35Z</time>
      </trkpt>
      <trkpt lat="50.20467" lon="4.25684">
        <ele>230</ele>
        <time>2021-02-28T08:05:37Z</time>
      </trkpt>
      <trkpt lat="50.20464" lon="4.25674">
        <ele>229</ele>
        <time>2021-02-28T08:05:39Z</time>
      </trkpt>
      <trkpt lat="50.20459" lon="4.25666">
        <ele>229</ele>
        <time>2021-02-28T08:05:41Z</time>
      </trkpt>
      <trkpt lat="50.20456" lon="4.25658">
        <ele>230</ele>
        <time>2021-02-28T08:05:43Z</time>
      </trkpt>
      <trkpt lat="50.20451" lon="4.2565">
        <ele>231</ele>
        <time>2021-02-28T08:05:45Z</time>
      </trkpt>
      <trkpt lat="50.20448" lon="4.25643">
        <ele>231</ele>
        <time>2021-02-28T08:05:47Z</time>
      </trkpt>
      <trkpt lat="50.20445" lon="4.25634">
        <ele>231</ele>
        <time>2021-02-28T08:05:49Z</time>
      </trkpt>
      <trkpt lat="50.20441" lon="4.25625">
        <ele>231</ele>
        <time>2021-02-28T08:05:51Z</time>
      </trkpt>
      <trkpt lat="50.20438" lon="4.25616">
        <ele>229</ele>
        <time>2021-02-28T08:05:53Z</time>
      </trkpt>
      <trkpt lat="50.20434" lon="4.25607">
        <ele>229</ele>
        <time>2021-02-28T08:05:55Z</time>
      </trkpt>
      <trkpt lat="50.20432" lon="4.25598">
        <ele>229</ele>
        <time>2021-02-28T08:05:57Z</time>
      </trkpt>
      <trkpt lat="50.20428" lon="4.25589">
        <ele>231</ele>
        <time>2021-02-28T08:05:59Z</time>
      </trkpt>
      <trkpt lat="50.20425" lon="4.25579">
        <ele>231</ele>
        <time>2021-02-28T08:06:01Z</time>
      </trkpt>
      <trkpt lat="50.20421" lon="4.25568">
        <ele>231</ele>
        <time>2021-02-28T08:06:03Z</time>
      </trkpt>
      <trkpt lat="50.20418" lon="4.25557">
        <ele>231</ele>
        <time>2021-02-28T08:06:05Z</time>
      </trkpt>
      <trkpt lat="50.20414" lon="4.25545">
        <ele>231</ele>
        <time>2021-02-28T08:06:07Z</time>
      </trkpt>
      <trkpt lat="50.20412" lon="4.25534">
        <ele>230</ele>
        <time>2021-02-28T08:06:09Z</time>
      </trkpt>
      <trkpt lat="50.20409" lon="4.25525">
        <ele>230</ele>
        <time>2021-02-28T08:06:11Z</time>
      </trkpt>
      <trkpt lat="50.20408" lon="4.25514">
        <ele>230</ele>
        <time>2021-02-28T08:06:13Z</time>
      </trkpt>
      <trkpt lat="50.20406" lon="4.25504">
        <ele>230</ele>
        <time>2021-02-28T08:06:15Z</time>
      </trkpt>
      <trkpt lat="50.20402" lon="4.25492">
        <ele>229</ele>
        <time>2021-02-28T08:06:17Z</time>
      </trkpt>
      <trkpt lat="50.20398" lon="4.25482">
        <ele>229</ele>
        <time>2021-02-28T08:06:19Z</time>
      </trkpt>
      <trkpt lat="50.20394" lon="4.25471">
        <ele>229</ele>
        <time>2021-02-28T08:06:21Z</time>
      </trkpt>
      <trkpt lat="50.20392" lon="4.25458">
        <ele>229</ele>
        <time>2021-02-28T08:06:23Z</time>
      </trkpt>
      <trkpt lat="50.20389" lon="4.25444">
        <ele>229</ele>
        <time>2021-02-28T08:06:25Z</time>
      </trkpt>
      <trkpt lat="50.20387" lon="4.25431">
        <ele>229</ele>
        <time>2021-02-28T08:06:27Z</time>
      </trkpt>
      <trkpt lat="50.20386" lon="4.25418">
        <ele>229</ele>
        <time>2021-02-28T08:06:29Z</time>
      </trkpt>
      <trkpt lat="50.20384" lon="4.25407">
        <ele>229</ele>
        <time>2021-02-28T08:06:31Z</time>
      </trkpt>
      <trkpt lat="50.20382" lon="4.25396">
        <ele>229</ele>
        <time>2021-02-28T08:06:33Z</time>
      </trkpt>
      <trkpt lat="50.2038" lon="4.25385">
        <ele>229</ele>
        <time>2021-02-28T08:06:35Z</time>
      </trkpt>
      <trkpt lat="50.20378" lon="4.25375">
        <ele>229</ele>
        <time>2021-02-28T08:06:37Z</time>
      </trkpt>
      <trkpt lat="50.20375" lon="4.25367">
        <ele>230</ele>
        <time>2021-02-28T08:06:39Z</time>
      </trkpt>
      <trkpt lat="50.20374" lon="4.25359">
        <ele>228</ele>
        <time>2021-02-28T08:06:41Z</time>
      </trkpt>
      <trkpt lat="50.20373" lon="4.25352">
        <ele>228</ele>
        <time>2021-02-28T08:06:43Z</time>
      </trkpt>
      <trkpt lat="50.20372" lon="4.25345">
        <ele>227</ele>
        <time>2021-02-28T08:06:45Z</time>
      </trkpt>
      <trkpt lat="50.20371" lon="4.25336">
        <ele>227</ele>
        <time>2021-02-28T08:06:47Z</time>
      </trkpt>
      <trkpt lat="50.20369" lon="4.25326">
        <ele>227</ele>
        <time>2021-02-28T08:06:49Z</time>
      </trkpt>
      <trkpt lat="50.20367" lon="4.25317">
        <ele>228</ele>
        <time>2021-02-28T08:06:51Z</time>
      </trkpt>
      <trkpt lat="50.20364" lon="4.25307">
        <ele>228</ele>
        <time>2021-02-28T08:06:53Z</time>
      </trkpt>
      <trkpt lat="50.20363" lon="4.25299">
        <ele>228</ele>
        <time>2021-02-28T08:06:55Z</time>
      </trkpt>
      <trkpt lat="50.20364" lon="4.25289">
        <ele>228</ele>
        <time>2021-02-28T08:06:57Z</time>
      </trkpt>
      <trkpt lat="50.20363" lon="4.25279">
        <ele>228</ele>
        <time>2021-02-28T08:06:59Z</time>
      </trkpt>
      <trkpt lat="50.20363" lon="4.25268">
        <ele>228</ele>
        <time>2021-02-28T08:07:01Z</time>
      </trkpt>
      <trkpt lat="50.20362" lon="4.25257">
        <ele>227</ele>
        <time>2021-02-28T08:07:03Z</time>
      </trkpt>
      <trkpt lat="50.20363" lon="4.25246">
        <ele>227</ele>
        <time>2021-02-28T08:07:05Z</time>
      </trkpt>
      <trkpt lat="50.20363" lon="4.25235">
        <ele>229</ele>
        <time>2021-02-28T08:07:07Z</time>
      </trkpt>
      <trkpt lat="50.20361" lon="4.25223">
        <ele>229</ele>
        <time>2021-02-28T08:07:09Z</time>
      </trkpt>
      <trkpt lat="50.2036" lon="4.25214">
        <ele>229</ele>
        <time>2021-02-28T08:07:11Z</time>
      </trkpt>
      <trkpt lat="50.2036" lon="4.25204">
        <ele>228</ele>
        <time>2021-02-28T08:07:13Z</time>
      </trkpt>
      <trkpt lat="50.20357" lon="4.25196">
        <ele>228</ele>
        <time>2021-02-28T08:07:15Z</time>
      </trkpt>
      <trkpt lat="50.20359" lon="4.25188">
        <ele>228</ele>
        <time>2021-02-28T08:07:17Z</time>
      </trkpt>
      <trkpt lat="50.20361" lon="4.25181">
        <ele>228</ele>
        <time>2021-02-28T08:07:19Z</time>
      </trkpt>
      <trkpt lat="50.20361" lon="4.25171">
        <ele>231</ele>
        <time>2021-02-28T08:07:21Z</time>
      </trkpt>
      <trkpt lat="50.20358" lon="4.25156">
        <ele>231</ele>
        <time>2021-02-28T08:07:23Z</time>
      </trkpt>
      <trkpt lat="50.20358" lon="4.25141">
        <ele>230</ele>
        <time>2021-02-28T08:07:25Z</time>
      </trkpt>
      <trkpt lat="50.20358" lon="4.25131">
        <ele>230</ele>
        <time>2021-02-28T08:07:27Z</time>
      </trkpt>
      <trkpt lat="50.20357" lon="4.25119">
        <ele>232</ele>
        <time>2021-02-28T08:07:29Z</time>
      </trkpt>
      <trkpt lat="50.20358" lon="4.25106">
        <ele>232</ele>
        <time>2021-02-28T08:07:31Z</time>
      </trkpt>
      <trkpt lat="50.20358" lon="4.25093">
        <ele>229</ele>
        <time>2021-02-28T08:07:33Z</time>
      </trkpt>
      <trkpt lat="50.20359" lon="4.25082">
        <ele>229</ele>
        <time>2021-02-28T08:07:35Z</time>
      </trkpt>
      <trkpt lat="50.20361" lon="4.2507">
        <ele>229</ele>
        <time>2021-02-28T08:07:37Z</time>
      </trkpt>
      <trkpt lat="50.20361" lon="4.25052">
        <ele>230</ele>
        <time>2021-02-28T08:07:39Z</time>
      </trkpt>
      <trkpt lat="50.20366" lon="4.25035">
        <ele>227</ele>
        <time>2021-02-28T08:07:41Z</time>
      </trkpt>
      <trkpt lat="50.20369" lon="4.25021">
        <ele>227</ele>
        <time>2021-02-28T08:07:43Z</time>
      </trkpt>
      <trkpt lat="50.20372" lon="4.25009">
        <ele>226</ele>
        <time>2021-02-28T08:07:45Z</time>
      </trkpt>
      <trkpt lat="50.20373" lon="4.24997">
        <ele>226</ele>
        <time>2021-02-28T08:07:47Z</time>
      </trkpt>
      <trkpt lat="50.20371" lon="4.2499">
        <ele>226</ele>
        <time>2021-02-28T08:07:49Z</time>
      </trkpt>
      <trkpt lat="50.20369" lon="4.24984">
        <ele>223</ele>
        <time>2021-02-28T08:07:51Z</time>
      </trkpt>
      <trkpt lat="50.20368" lon="4.24979">
        <ele>223</ele>
        <time>2021-02-28T08:07:53Z</time>
      </trkpt>
      <trkpt lat="50.20365" lon="4.24976">
        <ele>223</ele>
        <time>2021-02-28T08:07:55Z</time>
      </trkpt>
      <trkpt lat="50.20363" lon="4.24974">
        <ele>223</ele>
        <time>2021-02-28T08:07:57Z</time>
      </trkpt>
      <trkpt lat="50.20359" lon="4.24972">
        <ele>223</ele>
        <time>2021-02-28T08:07:59Z</time>
      </trkpt>
      <trkpt lat="50.20355" lon="4.24971">
        <ele>223</ele>
        <time>2021-02-28T08:08:01Z</time>
      </trkpt>
      <trkpt lat="50.20351" lon="4.2497">
        <ele>223</ele>
        <time>2021-02-28T08:08:03Z</time>
      </trkpt>
      <trkpt lat="50.20347" lon="4.24969">
        <ele>219</ele>
        <time>2021-02-28T08:08:05Z</time>
      </trkpt>
      <trkpt lat="50.20344" lon="4.24968">
        <ele>219</ele>
        <time>2021-02-28T08:08:07Z</time>
      </trkpt>
      <trkpt lat="50.20338" lon="4.24966">
        <ele>219</ele>
        <time>2021-02-28T08:08:09Z</time>
      </trkpt>
      <trkpt lat="50.20333" lon="4.24964">
        <ele>219</ele>
        <time>2021-02-28T08:08:11Z</time>
      </trkpt>
      <trkpt lat="50.20327" lon="4.24962">
        <ele>219</ele>
        <time>2021-02-28T08:08:13Z</time>
      </trkpt>
      <trkpt lat="50.20322" lon="4.24959">
        <ele>219</ele>
        <time>2021-02-28T08:08:15Z</time>
      </trkpt>
      <trkpt lat="50.20318" lon="4.24956">
        <ele>212</ele>
        <time>2021-02-28T08:08:17Z</time>
      </trkpt>
      <trkpt lat="50.20313" lon="4.24956">
        <ele>212</ele>
        <time>2021-02-28T08:08:19Z</time>
      </trkpt>
      <trkpt lat="50.20309" lon="4.24954">
        <ele>212</ele>
        <time>2021-02-28T08:08:21Z</time>
      </trkpt>
      <trkpt lat="50.20305" lon="4.24953">
        <ele>212</ele>
        <time>2021-02-28T08:08:23Z</time>
      </trkpt>
      <trkpt lat="50.20301" lon="4.24951">
        <ele>212</ele>
        <time>2021-02-28T08:08:25Z</time>
      </trkpt>
      <trkpt lat="50.20297" lon="4.24949">
        <ele>212</ele>
        <time>2021-02-28T08:08:27Z</time>
      </trkpt>
      <trkpt lat="50.20293" lon="4.24946">
        <ele>212</ele>
        <time>2021-02-28T08:08:29Z</time>
      </trkpt>
      <trkpt lat="50.20291" lon="4.24944">
        <ele>205</ele>
        <time>2021-02-28T08:08:31Z</time>
      </trkpt>
      <trkpt lat="50.20287" lon="4.24942">
        <ele>205</ele>
        <time>2021-02-28T08:08:33Z</time>
      </trkpt>
      <trkpt lat="50.20283" lon="4.24941">
        <ele>205</ele>
        <time>2021-02-28T08:08:35Z</time>
      </trkpt>
      <trkpt lat="50.20278" lon="4.2494">
        <ele>205</ele>
        <time>2021-02-28T08:08:37Z</time>
      </trkpt>
      <trkpt lat="50.20275" lon="4.2494">
        <ele>205</ele>
        <time>2021-02-28T08:08:39Z</time>
      </trkpt>
      <trkpt lat="50.2027" lon="4.24938">
        <ele>205</ele>
        <time>2021-02-28T08:08:41Z</time>
      </trkpt>
      <trkpt lat="50.20265" lon="4.24936">
        <ele>205</ele>
        <time>2021-02-28T08:08:43Z</time>
      </trkpt>
      <trkpt lat="50.2026" lon="4.24934">
        <ele>201</ele>
        <time>2021-02-28T08:08:45Z</time>
      </trkpt>
      <trkpt lat="50.20253" lon="4.24931">
        <ele>201</ele>
        <time>2021-02-28T08:08:47Z</time>
      </trkpt>
      <trkpt lat="50.20244" lon="4.24925">
        <ele>198</ele>
        <time>2021-02-28T08:08:50Z</time>
      </trkpt>
      <trkpt lat="50.20236" lon="4.24919">
        <ele>198</ele>
        <time>2021-02-28T08:08:52Z</time>
      </trkpt>
      <trkpt lat="50.20231" lon="4.24915">
        <ele>194</ele>
        <time>2021-02-28T08:08:54Z</time>
      </trkpt>
      <trkpt lat="50.20226" lon="4.24909">
        <ele>194</ele>
        <time>2021-02-28T08:08:56Z</time>
      </trkpt>
      <trkpt lat="50.20221" lon="4.24904">
        <ele>194</ele>
        <time>2021-02-28T08:08:58Z</time>
      </trkpt>
      <trkpt lat="50.20216" lon="4.24899">
        <ele>193</ele>
        <time>2021-02-28T08:09:00Z</time>
      </trkpt>
      <trkpt lat="50.2021" lon="4.24895">
        <ele>193</ele>
        <time>2021-02-28T08:09:02Z</time>
      </trkpt>
      <trkpt lat="50.20205" lon="4.24891">
        <ele>190</ele>
        <time>2021-02-28T08:09:04Z</time>
      </trkpt>
      <trkpt lat="50.20202" lon="4.24887">
        <ele>190</ele>
        <time>2021-02-28T08:09:06Z</time>
      </trkpt>
      <trkpt lat="50.20199" lon="4.2488">
        <ele>190</ele>
        <time>2021-02-28T08:09:08Z</time>
      </trkpt>
      <trkpt lat="50.20198" lon="4.2487">
        <ele>186</ele>
        <time>2021-02-28T08:09:10Z</time>
      </trkpt>
      <trkpt lat="50.20198" lon="4.2486">
        <ele>186</ele>
        <time>2021-02-28T08:09:12Z</time>
      </trkpt>
      <trkpt lat="50.202" lon="4.2485">
        <ele>186</ele>
        <time>2021-02-28T08:09:14Z</time>
      </trkpt>
      <trkpt lat="50.20201" lon="4.2484">
        <ele>187</ele>
        <time>2021-02-28T08:09:16Z</time>
      </trkpt>
      <trkpt lat="50.20205" lon="4.24829">
        <ele>187</ele>
        <time>2021-02-28T08:09:18Z</time>
      </trkpt>
      <trkpt lat="50.2021" lon="4.24817">
        <ele>183</ele>
        <time>2021-02-28T08:09:20Z</time>
      </trkpt>
      <trkpt lat="50.20215" lon="4.24806">
        <ele>183</ele>
        <time>2021-02-28T08:09:22Z</time>
      </trkpt>
      <trkpt lat="50.20219" lon="4.24797">
        <ele>183</ele>
        <time>2021-02-28T08:09:24Z</time>
      </trkpt>
      <trkpt lat="50.20222" lon="4.24789">
        <ele>183</ele>
        <time>2021-02-28T08:09:26Z</time>
      </trkpt>
      <trkpt lat="50.20226" lon="4.24781">
        <ele>183</ele>
        <time>2021-02-28T08:09:28Z</time>
      </trkpt>
      <trkpt lat="50.20231" lon="4.24773">
        <ele>183</ele>
        <time>2021-02-28T08:09:30Z</time>
      </trkpt>
      <trkpt lat="50.20235" lon="4.24766">
        <ele>183</ele>
        <time>2021-02-28T08:09:32Z</time>
      </trkpt>
      <trkpt lat="50.20239" lon="4.24759">
        <ele>185</ele>
        <time>2021-02-28T08:09:34Z</time>
      </trkpt>
      <trkpt lat="50.20243" lon="4.24752">
        <ele>185</ele>
        <time>2021-02-28T08:09:36Z</time>
      </trkpt>
      <trkpt lat="50.20247" lon="4.24745">
        <ele>185</ele>
        <time>2021-02-28T08:09:38Z</time>
      </trkpt>
      <trkpt lat="50.2025" lon="4.24738">
        <ele>185</ele>
        <time>2021-02-28T08:09:40Z</time>
      </trkpt>
      <trkpt lat="50.20253" lon="4.2473">
        <ele>189</ele>
        <time>2021-02-28T08:09:42Z</time>
      </trkpt>
      <trkpt lat="50.20257" lon="4.24721">
        <ele>189</ele>
        <time>2021-02-28T08:09:44Z</time>
      </trkpt>
      <trkpt lat="50.20262" lon="4.24715">
        <ele>189</ele>
        <time>2021-02-28T08:09:46Z</time>
      </trkpt>
      <trkpt lat="50.20263" lon="4.24715">
        <ele>189</ele>
        <time>2021-02-28T08:09:48Z</time>
      </trkpt>
      <trkpt lat="50.20267" lon="4.24709">
        <ele>189</ele>
        <time>2021-02-28T08:09:50Z</time>
      </trkpt>
      <trkpt lat="50.2027" lon="4.24704">
        <ele>192</ele>
        <time>2021-02-28T08:09:52Z</time>
      </trkpt>
      <trkpt lat="50.20274" lon="4.24699">
        <ele>192</ele>
        <time>2021-02-28T08:09:54Z</time>
      </trkpt>
      <trkpt lat="50.20281" lon="4.24698">
        <ele>192</ele>
        <time>2021-02-28T08:09:56Z</time>
      </trkpt>
      <trkpt lat="50.2029" lon="4.24697">
        <ele>192</ele>
        <time>2021-02-28T08:09:58Z</time>
      </trkpt>
      <trkpt lat="50.20298" lon="4.24694">
        <ele>191</ele>
        <time>2021-02-28T08:10:00Z</time>
      </trkpt>
      <trkpt lat="50.20305" lon="4.2469">
        <ele>191</ele>
        <time>2021-02-28T08:10:02Z</time>
      </trkpt>
      <trkpt lat="50.20311" lon="4.24683">
        <ele>191</ele>
        <time>2021-02-28T08:10:04Z</time>
      </trkpt>
      <trkpt lat="50.2032" lon="4.24677">
        <ele>192</ele>
        <time>2021-02-28T08:10:06Z</time>
      </trkpt>
      <trkpt lat="50.20329" lon="4.2467">
        <ele>192</ele>
        <time>2021-02-28T08:10:08Z</time>
      </trkpt>
      <trkpt lat="50.20337" lon="4.24663">
        <ele>192</ele>
        <time>2021-02-28T08:10:10Z</time>
      </trkpt>
      <trkpt lat="50.20343" lon="4.24651">
        <ele>194</ele>
        <time>2021-02-28T08:10:12Z</time>
      </trkpt>
      <trkpt lat="50.20349" lon="4.24641">
        <ele>190</ele>
        <time>2021-02-28T08:10:14Z</time>
      </trkpt>
      <trkpt lat="50.20353" lon="4.24632">
        <ele>190</ele>
        <time>2021-02-28T08:10:16Z</time>
      </trkpt>
      <trkpt lat="50.20357" lon="4.24625">
        <ele>193</ele>
        <time>2021-02-28T08:10:18Z</time>
      </trkpt>
      <trkpt lat="50.20359" lon="4.24616">
        <ele>193</ele>
        <time>2021-02-28T08:10:20Z</time>
      </trkpt>
      <trkpt lat="50.20361" lon="4.2461">
        <ele>193</ele>
        <time>2021-02-28T08:10:22Z</time>
      </trkpt>
      <trkpt lat="50.20363" lon="4.246">
        <ele>193</ele>
        <time>2021-02-28T08:10:24Z</time>
      </trkpt>
      <trkpt lat="50.20368" lon="4.24589">
        <ele>192</ele>
        <time>2021-02-28T08:10:26Z</time>
      </trkpt>
      <trkpt lat="50.20372" lon="4.24578">
        <ele>192</ele>
        <time>2021-02-28T08:10:28Z</time>
      </trkpt>
      <trkpt lat="50.20375" lon="4.24571">
        <ele>188</ele>
        <time>2021-02-28T08:10:30Z</time>
      </trkpt>
      <trkpt lat="50.2038" lon="4.24569">
        <ele>186</ele>
        <time>2021-02-28T08:10:32Z</time>
      </trkpt>
      <trkpt lat="50.20385" lon="4.24571">
        <ele>188</ele>
        <time>2021-02-28T08:10:34Z</time>
      </trkpt>
      <trkpt lat="50.20389" lon="4.24569">
        <ele>186</ele>
        <time>2021-02-28T08:10:36Z</time>
      </trkpt>
      <trkpt lat="50.2039" lon="4.24564">
        <ele>186</ele>
        <time>2021-02-28T08:10:38Z</time>
      </trkpt>
      <trkpt lat="50.20394" lon="4.24557">
        <ele>186</ele>
        <time>2021-02-28T08:10:40Z</time>
      </trkpt>
      <trkpt lat="50.20401" lon="4.24553">
        <ele>186</ele>
        <time>2021-02-28T08:10:42Z</time>
      </trkpt>
      <trkpt lat="50.20407" lon="4.24549">
        <ele>184</ele>
        <time>2021-02-28T08:10:44Z</time>
      </trkpt>
      <trkpt lat="50.20413" lon="4.24546">
        <ele>184</ele>
        <time>2021-02-28T08:10:46Z</time>
      </trkpt>
      <trkpt lat="50.20419" lon="4.24541">
        <ele>185</ele>
        <time>2021-02-28T08:10:48Z</time>
      </trkpt>
      <trkpt lat="50.20425" lon="4.24535">
        <ele>185</ele>
        <time>2021-02-28T08:10:50Z</time>
      </trkpt>
      <trkpt lat="50.20431" lon="4.24528">
        <ele>186</ele>
        <time>2021-02-28T08:10:52Z</time>
      </trkpt>
      <trkpt lat="50.20437" lon="4.24519">
        <ele>186</ele>
        <time>2021-02-28T08:10:54Z</time>
      </trkpt>
      <trkpt lat="50.2044" lon="4.2451">
        <ele>184</ele>
        <time>2021-02-28T08:10:56Z</time>
      </trkpt>
      <trkpt lat="50.20445" lon="4.24503">
        <ele>184</ele>
        <time>2021-02-28T08:10:58Z</time>
      </trkpt>
      <trkpt lat="50.20449" lon="4.24496">
        <ele>184</ele>
        <time>2021-02-28T08:11:00Z</time>
      </trkpt>
      <trkpt lat="50.20454" lon="4.2449">
        <ele>184</ele>
        <time>2021-02-28T08:11:02Z</time>
      </trkpt>
      <trkpt lat="50.20458" lon="4.24486">
        <ele>184</ele>
        <time>2021-02-28T08:11:04Z</time>
      </trkpt>
      <trkpt lat="50.20463" lon="4.24484">
        <ele>183</ele>
        <time>2021-02-28T08:11:06Z</time>
      </trkpt>
      <trkpt lat="50.20469" lon="4.24484">
        <ele>183</ele>
        <time>2021-02-28T08:11:08Z</time>
      </trkpt>
      <trkpt lat="50.20476" lon="4.24485">
        <ele>183</ele>
        <time>2021-02-28T08:11:10Z</time>
      </trkpt>
      <trkpt lat="50.20482" lon="4.24489">
        <ele>188</ele>
        <time>2021-02-28T08:11:12Z</time>
      </trkpt>
      <trkpt lat="50.20488" lon="4.24491">
        <ele>186</ele>
        <time>2021-02-28T08:11:14Z</time>
      </trkpt>
      <trkpt lat="50.20493" lon="4.24495">
        <ele>186</ele>
        <time>2021-02-28T08:11:16Z</time>
      </trkpt>
      <trkpt lat="50.20497" lon="4.24501">
        <ele>186</ele>
        <time>2021-02-28T08:11:18Z</time>
      </trkpt>
      <trkpt lat="50.20501" lon="4.24507">
        <ele>186</ele>
        <time>2021-02-28T08:11:20Z</time>
      </trkpt>
      <trkpt lat="50.20506" lon="4.24515">
        <ele>187</ele>
        <time>2021-02-28T08:11:22Z</time>
      </trkpt>
      <trkpt lat="50.20508" lon="4.24524">
        <ele>187</ele>
        <time>2021-02-28T08:11:24Z</time>
      </trkpt>
      <trkpt lat="50.20511" lon="4.24534">
        <ele>187</ele>
        <time>2021-02-28T08:11:26Z</time>
      </trkpt>
      <trkpt lat="50.20512" lon="4.24543">
        <ele>191</ele>
        <time>2021-02-28T08:11:28Z</time>
      </trkpt>
      <trkpt lat="50.20517" lon="4.24555">
        <ele>186</ele>
        <time>2021-02-28T08:11:30Z</time>
      </trkpt>
      <trkpt lat="50.20517" lon="4.24565">
        <ele>186</ele>
        <time>2021-02-28T08:11:32Z</time>
      </trkpt>
      <trkpt lat="50.20519" lon="4.24575">
        <ele>189</ele>
        <time>2021-02-28T08:11:34Z</time>
      </trkpt>
      <trkpt lat="50.20522" lon="4.24585">
        <ele>189</ele>
        <time>2021-02-28T08:11:36Z</time>
      </trkpt>
      <trkpt lat="50.20525" lon="4.24595">
        <ele>189</ele>
        <time>2021-02-28T08:11:38Z</time>
      </trkpt>
      <trkpt lat="50.20528" lon="4.24605">
        <ele>193</ele>
        <time>2021-02-28T08:11:40Z</time>
      </trkpt>
      <trkpt lat="50.20532" lon="4.24614">
        <ele>193</ele>
        <time>2021-02-28T08:11:42Z</time>
      </trkpt>
      <trkpt lat="50.20535" lon="4.24623">
        <ele>193</ele>
        <time>2021-02-28T08:11:44Z</time>
      </trkpt>
      <trkpt lat="50.20538" lon="4.24631">
        <ele>194</ele>
        <time>2021-02-28T08:11:46Z</time>
      </trkpt>
      <trkpt lat="50.20541" lon="4.24637">
        <ele>194</ele>
        <time>2021-02-28T08:11:48Z</time>
      </trkpt>
      <trkpt lat="50.20547" lon="4.24645">
        <ele>187</ele>
        <time>2021-02-28T08:11:50Z</time>
      </trkpt>
      <trkpt lat="50.20551" lon="4.24655">
        <ele>190</ele>
        <time>2021-02-28T08:11:52Z</time>
      </trkpt>
      <trkpt lat="50.20555" lon="4.24661">
        <ele>190</ele>
        <time>2021-02-28T08:11:54Z</time>
      </trkpt>
      <trkpt lat="50.20559" lon="4.24669">
        <ele>190</ele>
        <time>2021-02-28T08:11:56Z</time>
      </trkpt>
      <trkpt lat="50.20564" lon="4.24674">
        <ele>190</ele>
        <time>2021-02-28T08:11:58Z</time>
      </trkpt>
      <trkpt lat="50.20571" lon="4.2468">
        <ele>183</ele>
        <time>2021-02-28T08:12:00Z</time>
      </trkpt>
      <trkpt lat="50.20581" lon="4.24681">
        <ele>187</ele>
        <time>2021-02-28T08:12:02Z</time>
      </trkpt>
      <trkpt lat="50.20595" lon="4.24677">
        <ele>183</ele>
        <time>2021-02-28T08:12:04Z</time>
      </trkpt>
      <trkpt lat="50.2061" lon="4.24673">
        <ele>179</ele>
        <time>2021-02-28T08:12:06Z</time>
      </trkpt>
      <trkpt lat="50.20624" lon="4.24669">
        <ele>179</ele>
        <time>2021-02-28T08:12:08Z</time>
      </trkpt>
      <trkpt lat="50.20638" lon="4.24665">
        <ele>179</ele>
        <time>2021-02-28T08:12:10Z</time>
      </trkpt>
      <trkpt lat="50.20652" lon="4.2466">
        <ele>179</ele>
        <time>2021-02-28T08:12:12Z</time>
      </trkpt>
      <trkpt lat="50.20665" lon="4.24654">
        <ele>181</ele>
        <time>2021-02-28T08:12:14Z</time>
      </trkpt>
      <trkpt lat="50.20678" lon="4.2465">
        <ele>179</ele>
        <time>2021-02-28T08:12:16Z</time>
      </trkpt>
      <trkpt lat="50.20689" lon="4.24645">
        <ele>180</ele>
        <time>2021-02-28T08:12:18Z</time>
      </trkpt>
      <trkpt lat="50.207" lon="4.24642">
        <ele>180</ele>
        <time>2021-02-28T08:12:20Z</time>
      </trkpt>
      <trkpt lat="50.2071" lon="4.2464">
        <ele>180</ele>
        <time>2021-02-28T08:12:22Z</time>
      </trkpt>
      <trkpt lat="50.2072" lon="4.24639">
        <ele>180</ele>
        <time>2021-02-28T08:12:24Z</time>
      </trkpt>
      <trkpt lat="50.20729" lon="4.24638">
        <ele>180</ele>
        <time>2021-02-28T08:12:26Z</time>
      </trkpt>
      <trkpt lat="50.20739" lon="4.24635">
        <ele>180</ele>
        <time>2021-02-28T08:12:28Z</time>
      </trkpt>
      <trkpt lat="50.20747" lon="4.24631">
        <ele>180</ele>
        <time>2021-02-28T08:12:30Z</time>
      </trkpt>
      <trkpt lat="50.20756" lon="4.24627">
        <ele>180</ele>
        <time>2021-02-28T08:12:32Z</time>
      </trkpt>
      <trkpt lat="50.20764" lon="4.24624">
        <ele>183</ele>
        <time>2021-02-28T08:12:34Z</time>
      </trkpt>
      <trkpt lat="50.20771" lon="4.2462">
        <ele>183</ele>
        <time>2021-02-28T08:12:36Z</time>
      </trkpt>
      <trkpt lat="50.2078" lon="4.24615">
        <ele>183</ele>
        <time>2021-02-28T08:12:38Z</time>
      </trkpt>
      <trkpt lat="50.2079" lon="4.24609">
        <ele>183</ele>
        <time>2021-02-28T08:12:40Z</time>
      </trkpt>
      <trkpt lat="50.208" lon="4.24603">
        <ele>180</ele>
        <time>2021-02-28T08:12:42Z</time>
      </trkpt>
      <trkpt lat="50.2081" lon="4.24596">
        <ele>184</ele>
        <time>2021-02-28T08:12:44Z</time>
      </trkpt>
      <trkpt lat="50.20819" lon="4.2459">
        <ele>184</ele>
        <time>2021-02-28T08:12:46Z</time>
      </trkpt>
      <trkpt lat="50.20828" lon="4.24583">
        <ele>181</ele>
        <time>2021-02-28T08:12:48Z</time>
      </trkpt>
      <trkpt lat="50.20836" lon="4.24577">
        <ele>181</ele>
        <time>2021-02-28T08:12:50Z</time>
      </trkpt>
      <trkpt lat="50.20843" lon="4.24567">
        <ele>184</ele>
        <time>2021-02-28T08:12:52Z</time>
      </trkpt>
      <trkpt lat="50.20852" lon="4.24555">
        <ele>181</ele>
        <time>2021-02-28T08:12:54Z</time>
      </trkpt>
      <trkpt lat="50.20859" lon="4.24544">
        <ele>181</ele>
        <time>2021-02-28T08:12:56Z</time>
      </trkpt>
      <trkpt lat="50.20866" lon="4.24531">
        <ele>184</ele>
        <time>2021-02-28T08:12:58Z</time>
      </trkpt>
      <trkpt lat="50.20871" lon="4.24518">
        <ele>184</ele>
        <time>2021-02-28T08:13:00Z</time>
      </trkpt>
      <trkpt lat="50.20873" lon="4.24502">
        <ele>186</ele>
        <time>2021-02-28T08:13:02Z</time>
      </trkpt>
      <trkpt lat="50.20872" lon="4.24487">
        <ele>186</ele>
        <time>2021-02-28T08:13:04Z</time>
      </trkpt>
      <trkpt lat="50.20871" lon="4.24474">
        <ele>191</ele>
        <time>2021-02-28T08:13:06Z</time>
      </trkpt>
      <trkpt lat="50.20873" lon="4.24462">
        <ele>191</ele>
        <time>2021-02-28T08:13:08Z</time>
      </trkpt>
      <trkpt lat="50.20874" lon="4.24449">
        <ele>194</ele>
        <time>2021-02-28T08:13:10Z</time>
      </trkpt>
      <trkpt lat="50.20877" lon="4.24438">
        <ele>185</ele>
        <time>2021-02-28T08:13:12Z</time>
      </trkpt>
      <trkpt lat="50.20882" lon="4.24428">
        <ele>191</ele>
        <time>2021-02-28T08:13:14Z</time>
      </trkpt>
      <trkpt lat="50.20886" lon="4.24419">
        <ele>191</ele>
        <time>2021-02-28T08:13:16Z</time>
      </trkpt>
      <trkpt lat="50.20887" lon="4.24407">
        <ele>191</ele>
        <time>2021-02-28T08:13:18Z</time>
      </trkpt>
      <trkpt lat="50.20891" lon="4.24396">
        <ele>194</ele>
        <time>2021-02-28T08:13:20Z</time>
      </trkpt>
      <trkpt lat="50.20897" lon="4.24384">
        <ele>194</ele>
        <time>2021-02-28T08:13:22Z</time>
      </trkpt>
      <trkpt lat="50.20904" lon="4.24373">
        <ele>190</ele>
        <time>2021-02-28T08:13:24Z</time>
      </trkpt>
      <trkpt lat="50.20912" lon="4.24365">
        <ele>190</ele>
        <time>2021-02-28T08:13:26Z</time>
      </trkpt>
      <trkpt lat="50.20921" lon="4.24357">
        <ele>190</ele>
        <time>2021-02-28T08:13:28Z</time>
      </trkpt>
      <trkpt lat="50.20931" lon="4.24349">
        <ele>190</ele>
        <time>2021-02-28T08:13:30Z</time>
      </trkpt>
      <trkpt lat="50.2094" lon="4.24344">
        <ele>188</ele>
        <time>2021-02-28T08:13:32Z</time>
      </trkpt>
      <trkpt lat="50.20949" lon="4.24339">
        <ele>188</ele>
        <time>2021-02-28T08:13:34Z</time>
      </trkpt>
      <trkpt lat="50.20955" lon="4.24334">
        <ele>188</ele>
        <time>2021-02-28T08:13:36Z</time>
      </trkpt>
      <trkpt lat="50.20962" lon="4.24332">
        <ele>186</ele>
        <time>2021-02-28T08:13:38Z</time>
      </trkpt>
      <trkpt lat="50.20965" lon="4.2433">
        <ele>186</ele>
        <time>2021-02-28T08:13:40Z</time>
      </trkpt>
      <trkpt lat="50.20968" lon="4.24329">
        <ele>186</ele>
        <time>2021-02-28T08:13:42Z</time>
      </trkpt>
      <trkpt lat="50.20976" lon="4.24324">
        <ele>186</ele>
        <time>2021-02-28T08:14:40Z</time>
      </trkpt>
      <trkpt lat="50.20995" lon="4.24312">
        <ele>185</ele>
        <time>2021-02-28T08:14:42Z</time>
      </trkpt>
      <trkpt lat="50.20999" lon="4.24313">
        <ele>185</ele>
        <time>2021-02-28T08:14:44Z</time>
      </trkpt>
      <trkpt lat="50.21003" lon="4.24312">
        <ele>185</ele>
        <time>2021-02-28T08:14:46Z</time>
      </trkpt>
      <trkpt lat="50.21008" lon="4.24312">
        <ele>185</ele>
        <time>2021-02-28T08:14:48Z</time>
      </trkpt>
      <trkpt lat="50.21014" lon="4.24312">
        <ele>182</ele>
        <time>2021-02-28T08:14:50Z</time>
      </trkpt>
      <trkpt lat="50.21019" lon="4.24311">
        <ele>182</ele>
        <time>2021-02-28T08:14:52Z</time>
      </trkpt>
      <trkpt lat="50.21022" lon="4.2431">
        <ele>182</ele>
        <time>2021-02-28T08:14:54Z</time>
      </trkpt>
      <trkpt lat="50.21026" lon="4.24309">
        <ele>182</ele>
        <time>2021-02-28T08:14:56Z</time>
      </trkpt>
      <trkpt lat="50.21029" lon="4.24307">
        <ele>182</ele>
        <time>2021-02-28T08:14:58Z</time>
      </trkpt>
      <trkpt lat="50.21031" lon="4.24307">
        <ele>182</ele>
        <time>2021-02-28T08:15:00Z</time>
      </trkpt>
      <trkpt lat="50.21034" lon="4.24306">
        <ele>182</ele>
        <time>2021-02-28T08:15:02Z</time>
      </trkpt>
      <trkpt lat="50.21035" lon="4.24304">
        <ele>182</ele>
        <time>2021-02-28T08:15:04Z</time>
      </trkpt>
      <trkpt lat="50.21037" lon="4.24301">
        <ele>182</ele>
        <time>2021-02-28T08:15:08Z</time>
      </trkpt>
      <trkpt lat="50.21038" lon="4.24299">
        <ele>182</ele>
        <time>2021-02-28T08:15:10Z</time>
      </trkpt>
      <trkpt lat="50.2104" lon="4.24296">
        <ele>182</ele>
        <time>2021-02-28T08:15:12Z</time>
      </trkpt>
      <trkpt lat="50.21043" lon="4.24293">
        <ele>179</ele>
        <time>2021-02-28T08:15:14Z</time>
      </trkpt>
      <trkpt lat="50.21045" lon="4.24291">
        <ele>180</ele>
        <time>2021-02-28T08:15:16Z</time>
      </trkpt>
      <trkpt lat="50.21049" lon="4.24288">
        <ele>180</ele>
        <time>2021-02-28T08:15:18Z</time>
      </trkpt>
      <trkpt lat="50.21058" lon="4.24284">
        <ele>180</ele>
        <time>2021-02-28T08:15:20Z</time>
      </trkpt>
      <trkpt lat="50.21062" lon="4.24283">
        <ele>180</ele>
        <time>2021-02-28T08:15:22Z</time>
      </trkpt>
      <trkpt lat="50.21065" lon="4.24281">
        <ele>180</ele>
        <time>2021-02-28T08:15:24Z</time>
      </trkpt>
      <trkpt lat="50.2107" lon="4.24281">
        <ele>179</ele>
        <time>2021-02-28T08:15:26Z</time>
      </trkpt>
      <trkpt lat="50.21074" lon="4.24276">
        <ele>179</ele>
        <time>2021-02-28T08:15:28Z</time>
      </trkpt>
      <trkpt lat="50.21082" lon="4.2427">
        <ele>179</ele>
        <time>2021-02-28T08:15:30Z</time>
      </trkpt>
      <trkpt lat="50.21089" lon="4.24264">
        <ele>181</ele>
        <time>2021-02-28T08:15:32Z</time>
      </trkpt>
      <trkpt lat="50.21098" lon="4.24256">
        <ele>180</ele>
        <time>2021-02-28T08:15:34Z</time>
      </trkpt>
      <trkpt lat="50.21105" lon="4.24252">
        <ele>180</ele>
        <time>2021-02-28T08:15:36Z</time>
      </trkpt>
      <trkpt lat="50.21112" lon="4.24248">
        <ele>180</ele>
        <time>2021-02-28T08:15:38Z</time>
      </trkpt>
      <trkpt lat="50.2112" lon="4.24244">
        <ele>180</ele>
        <time>2021-02-28T08:15:40Z</time>
      </trkpt>
      <trkpt lat="50.21126" lon="4.2424">
        <ele>180</ele>
        <time>2021-02-28T08:15:42Z</time>
      </trkpt>
      <trkpt lat="50.21133" lon="4.24236">
        <ele>180</ele>
        <time>2021-02-28T08:15:44Z</time>
      </trkpt>
      <trkpt lat="50.21139" lon="4.24234">
        <ele>184</ele>
        <time>2021-02-28T08:15:46Z</time>
      </trkpt>
      <trkpt lat="50.21145" lon="4.24235">
        <ele>184</ele>
        <time>2021-02-28T08:15:48Z</time>
      </trkpt>
      <trkpt lat="50.21149" lon="4.24236">
        <ele>184</ele>
        <time>2021-02-28T08:15:50Z</time>
      </trkpt>
      <trkpt lat="50.21153" lon="4.24236">
        <ele>181</ele>
        <time>2021-02-28T08:15:52Z</time>
      </trkpt>
      <trkpt lat="50.21157" lon="4.24233">
        <ele>181</ele>
        <time>2021-02-28T08:15:54Z</time>
      </trkpt>
      <trkpt lat="50.2116" lon="4.2423">
        <ele>181</ele>
        <time>2021-02-28T08:15:56Z</time>
      </trkpt>
      <trkpt lat="50.21164" lon="4.24227">
        <ele>181</ele>
        <time>2021-02-28T08:15:58Z</time>
      </trkpt>
      <trkpt lat="50.21169" lon="4.24225">
        <ele>181</ele>
        <time>2021-02-28T08:16:00Z</time>
      </trkpt>
      <trkpt lat="50.21172" lon="4.24223">
        <ele>181</ele>
        <time>2021-02-28T08:16:02Z</time>
      </trkpt>
      <trkpt lat="50.21177" lon="4.24221">
        <ele>181</ele>
        <time>2021-02-28T08:16:04Z</time>
      </trkpt>
      <trkpt lat="50.21181" lon="4.24219">
        <ele>178</ele>
        <time>2021-02-28T08:16:06Z</time>
      </trkpt>
      <trkpt lat="50.21185" lon="4.24217">
        <ele>178</ele>
        <time>2021-02-28T08:16:08Z</time>
      </trkpt>
      <trkpt lat="50.21189" lon="4.24215">
        <ele>178</ele>
        <time>2021-02-28T08:16:10Z</time>
      </trkpt>
      <trkpt lat="50.21191" lon="4.24213">
        <ele>178</ele>
        <time>2021-02-28T08:16:12Z</time>
      </trkpt>
      <trkpt lat="50.21196" lon="4.24209">
        <ele>178</ele>
        <time>2021-02-28T08:16:18Z</time>
      </trkpt>
      <trkpt lat="50.21199" lon="4.24207">
        <ele>183</ele>
        <time>2021-02-28T08:16:20Z</time>
      </trkpt>
      <trkpt lat="50.21201" lon="4.24205">
        <ele>183</ele>
        <time>2021-02-28T08:16:22Z</time>
      </trkpt>
      <trkpt lat="50.21204" lon="4.24204">
        <ele>183</ele>
        <time>2021-02-28T08:16:24Z</time>
      </trkpt>
      <trkpt lat="50.21208" lon="4.24202">
        <ele>183</ele>
        <time>2021-02-28T08:16:26Z</time>
      </trkpt>
      <trkpt lat="50.21222" lon="4.24198">
        <ele>182</ele>
        <time>2021-02-28T08:16:28Z</time>
      </trkpt>
      <trkpt lat="50.21227" lon="4.24197">
        <ele>182</ele>
        <time>2021-02-28T08:16:30Z</time>
      </trkpt>
      <trkpt lat="50.2123" lon="4.24196">
        <ele>182</ele>
        <time>2021-02-28T08:16:32Z</time>
      </trkpt>
      <trkpt lat="50.21232" lon="4.24195">
        <ele>182</ele>
        <time>2021-02-28T08:16:34Z</time>
      </trkpt>
      <trkpt lat="50.21235" lon="4.24193">
        <ele>182</ele>
        <time>2021-02-28T08:16:36Z</time>
      </trkpt>
      <trkpt lat="50.2124" lon="4.24193">
        <ele>181</ele>
        <time>2021-02-28T08:16:37Z</time>
      </trkpt>
      <trkpt lat="50.21245" lon="4.24192">
        <ele>181</ele>
        <time>2021-02-28T08:16:40Z</time>
      </trkpt>
      <trkpt lat="50.21251" lon="4.24191">
        <ele>181</ele>
        <time>2021-02-28T08:16:42Z</time>
      </trkpt>
      <trkpt lat="50.21256" lon="4.2419">
        <ele>181</ele>
        <time>2021-02-28T08:16:44Z</time>
      </trkpt>
      <trkpt lat="50.21261" lon="4.24191">
        <ele>181</ele>
        <time>2021-02-28T08:16:46Z</time>
      </trkpt>
      <trkpt lat="50.21266" lon="4.24192">
        <ele>180</ele>
        <time>2021-02-28T08:16:48Z</time>
      </trkpt>
      <trkpt lat="50.2127" lon="4.24191">
        <ele>180</ele>
        <time>2021-02-28T08:16:50Z</time>
      </trkpt>
      <trkpt lat="50.21275" lon="4.24192">
        <ele>180</ele>
        <time>2021-02-28T08:16:52Z</time>
      </trkpt>
      <trkpt lat="50.2128" lon="4.24193">
        <ele>180</ele>
        <time>2021-02-28T08:16:54Z</time>
      </trkpt>
      <trkpt lat="50.21286" lon="4.24192">
        <ele>180</ele>
        <time>2021-02-28T08:16:56Z</time>
      </trkpt>
      <trkpt lat="50.21292" lon="4.2419">
        <ele>180</ele>
        <time>2021-02-28T08:16:58Z</time>
      </trkpt>
      <trkpt lat="50.21296" lon="4.24186">
        <ele>180</ele>
        <time>2021-02-28T08:17:00Z</time>
      </trkpt>
      <trkpt lat="50.21301" lon="4.24183">
        <ele>180</ele>
        <time>2021-02-28T08:17:02Z</time>
      </trkpt>
      <trkpt lat="50.21303" lon="4.24181">
        <ele>181</ele>
        <time>2021-02-28T08:17:04Z</time>
      </trkpt>
      <trkpt lat="50.21305" lon="4.24179">
        <ele>181</ele>
        <time>2021-02-28T08:17:06Z</time>
      </trkpt>
      <trkpt lat="50.2131" lon="4.24173">
        <ele>181</ele>
        <time>2021-02-28T08:17:56Z</time>
      </trkpt>
      <trkpt lat="50.21318" lon="4.24168">
        <ele>181</ele>
        <time>2021-02-28T08:17:58Z</time>
      </trkpt>
      <trkpt lat="50.21326" lon="4.24166">
        <ele>181</ele>
        <time>2021-02-28T08:18:00Z</time>
      </trkpt>
      <trkpt lat="50.21333" lon="4.24166">
        <ele>181</ele>
        <time>2021-02-28T08:18:02Z</time>
      </trkpt>
      <trkpt lat="50.21339" lon="4.24167">
        <ele>181</ele>
        <time>2021-02-28T08:18:04Z</time>
      </trkpt>
      <trkpt lat="50.21347" lon="4.24171">
        <ele>179</ele>
        <time>2021-02-28T08:18:06Z</time>
      </trkpt>
      <trkpt lat="50.21357" lon="4.24176">
        <ele>179</ele>
        <time>2021-02-28T08:18:07Z</time>
      </trkpt>
      <trkpt lat="50.21368" lon="4.2418">
        <ele>179</ele>
        <time>2021-02-28T08:18:10Z</time>
      </trkpt>
      <trkpt lat="50.21377" lon="4.24188">
        <ele>178</ele>
        <time>2021-02-28T08:18:12Z</time>
      </trkpt>
      <trkpt lat="50.21386" lon="4.24197">
        <ele>178</ele>
        <time>2021-02-28T08:18:14Z</time>
      </trkpt>
      <trkpt lat="50.21394" lon="4.24207">
        <ele>178</ele>
        <time>2021-02-28T08:18:16Z</time>
      </trkpt>
      <trkpt lat="50.21402" lon="4.24218">
        <ele>178</ele>
        <time>2021-02-28T08:18:18Z</time>
      </trkpt>
      <trkpt lat="50.2141" lon="4.24228">
        <ele>176</ele>
        <time>2021-02-28T08:18:20Z</time>
      </trkpt>
      <trkpt lat="50.21419" lon="4.24234">
        <ele>176</ele>
        <time>2021-02-28T08:18:22Z</time>
      </trkpt>
      <trkpt lat="50.21429" lon="4.24234">
        <ele>176</ele>
        <time>2021-02-28T08:18:24Z</time>
      </trkpt>
      <trkpt lat="50.21439" lon="4.24229">
        <ele>175</ele>
        <time>2021-02-28T08:18:26Z</time>
      </trkpt>
      <trkpt lat="50.21446" lon="4.24221">
        <ele>175</ele>
        <time>2021-02-28T08:18:28Z</time>
      </trkpt>
      <trkpt lat="50.21455" lon="4.24214">
        <ele>175</ele>
        <time>2021-02-28T08:18:30Z</time>
      </trkpt>
      <trkpt lat="50.21462" lon="4.24206">
        <ele>177</ele>
        <time>2021-02-28T08:18:32Z</time>
      </trkpt>
      <trkpt lat="50.21471" lon="4.242">
        <ele>177</ele>
        <time>2021-02-28T08:18:34Z</time>
      </trkpt>
      <trkpt lat="50.21479" lon="4.24197">
        <ele>177</ele>
        <time>2021-02-28T08:18:36Z</time>
      </trkpt>
      <trkpt lat="50.21486" lon="4.24202">
        <ele>177</ele>
        <time>2021-02-28T08:18:38Z</time>
      </trkpt>
      <trkpt lat="50.21492" lon="4.24217">
        <ele>176</ele>
        <time>2021-02-28T08:18:40Z</time>
      </trkpt>
      <trkpt lat="50.21496" lon="4.24233">
        <ele>176</ele>
        <time>2021-02-28T08:18:42Z</time>
      </trkpt>
      <trkpt lat="50.21501" lon="4.24251">
        <ele>175</ele>
        <time>2021-02-28T08:18:44Z</time>
      </trkpt>
      <trkpt lat="50.21507" lon="4.24268">
        <ele>174</ele>
        <time>2021-02-28T08:18:46Z</time>
      </trkpt>
      <trkpt lat="50.21512" lon="4.24285">
        <ele>174</ele>
        <time>2021-02-28T08:18:48Z</time>
      </trkpt>
      <trkpt lat="50.21518" lon="4.24302">
        <ele>171</ele>
        <time>2021-02-28T08:18:50Z</time>
      </trkpt>
      <trkpt lat="50.21529" lon="4.24316">
        <ele>171</ele>
        <time>2021-02-28T08:18:52Z</time>
      </trkpt>
      <trkpt lat="50.21542" lon="4.24324">
        <ele>168</ele>
        <time>2021-02-28T08:18:54Z</time>
      </trkpt>
      <trkpt lat="50.21553" lon="4.24334">
        <ele>168</ele>
        <time>2021-02-28T08:18:56Z</time>
      </trkpt>
      <trkpt lat="50.21566" lon="4.24342">
        <ele>168</ele>
        <time>2021-02-28T08:18:58Z</time>
      </trkpt>
      <trkpt lat="50.21576" lon="4.24348">
        <ele>169</ele>
        <time>2021-02-28T08:19:00Z</time>
      </trkpt>
      <trkpt lat="50.21584" lon="4.24353">
        <ele>169</ele>
        <time>2021-02-28T08:19:02Z</time>
      </trkpt>
      <trkpt lat="50.21592" lon="4.24357">
        <ele>169</ele>
        <time>2021-02-28T08:19:04Z</time>
      </trkpt>
      <trkpt lat="50.216" lon="4.24359">
        <ele>171</ele>
        <time>2021-02-28T08:19:06Z</time>
      </trkpt>
      <trkpt lat="50.2161" lon="4.24356">
        <ele>171</ele>
        <time>2021-02-28T08:19:08Z</time>
      </trkpt>
      <trkpt lat="50.21618" lon="4.24345">
        <ele>170</ele>
        <time>2021-02-28T08:19:10Z</time>
      </trkpt>
      <trkpt lat="50.21626" lon="4.24336">
        <ele>173</ele>
        <time>2021-02-28T08:19:12Z</time>
      </trkpt>
      <trkpt lat="50.21632" lon="4.24327">
        <ele>173</ele>
        <time>2021-02-28T08:19:14Z</time>
      </trkpt>
      <trkpt lat="50.2164" lon="4.24317">
        <ele>173</ele>
        <time>2021-02-28T08:19:16Z</time>
      </trkpt>
      <trkpt lat="50.21648" lon="4.2431">
        <ele>173</ele>
        <time>2021-02-28T08:19:18Z</time>
      </trkpt>
      <trkpt lat="50.21656" lon="4.24302">
        <ele>174</ele>
        <time>2021-02-28T08:19:20Z</time>
      </trkpt>
      <trkpt lat="50.21663" lon="4.24293">
        <ele>174</ele>
        <time>2021-02-28T08:19:22Z</time>
      </trkpt>
      <trkpt lat="50.21671" lon="4.24286">
        <ele>173</ele>
        <time>2021-02-28T08:19:24Z</time>
      </trkpt>
      <trkpt lat="50.2168" lon="4.2428">
        <ele>173</ele>
        <time>2021-02-28T08:19:26Z</time>
      </trkpt>
      <trkpt lat="50.21689" lon="4.24276">
        <ele>171</ele>
        <time>2021-02-28T08:19:28Z</time>
      </trkpt>
      <trkpt lat="50.21698" lon="4.24276">
        <ele>171</ele>
        <time>2021-02-28T08:19:30Z</time>
      </trkpt>
      <trkpt lat="50.21706" lon="4.24281">
        <ele>171</ele>
        <time>2021-02-28T08:19:32Z</time>
      </trkpt>
      <trkpt lat="50.21714" lon="4.24286">
        <ele>171</ele>
        <time>2021-02-28T08:19:34Z</time>
      </trkpt>
      <trkpt lat="50.21723" lon="4.24295">
        <ele>174</ele>
        <time>2021-02-28T08:19:36Z</time>
      </trkpt>
      <trkpt lat="50.21729" lon="4.24302">
        <ele>174</ele>
        <time>2021-02-28T08:19:37Z</time>
      </trkpt>
      <trkpt lat="50.21736" lon="4.24309">
        <ele>174</ele>
        <time>2021-02-28T08:19:40Z</time>
      </trkpt>
      <trkpt lat="50.21743" lon="4.24316">
        <ele>173</ele>
        <time>2021-02-28T08:19:42Z</time>
      </trkpt>
      <trkpt lat="50.2175" lon="4.24323">
        <ele>175</ele>
        <time>2021-02-28T08:19:44Z</time>
      </trkpt>
      <trkpt lat="50.21755" lon="4.24332">
        <ele>175</ele>
        <time>2021-02-28T08:19:46Z</time>
      </trkpt>
      <trkpt lat="50.21758" lon="4.24343">
        <ele>175</ele>
        <time>2021-02-28T08:19:48Z</time>
      </trkpt>
      <trkpt lat="50.21758" lon="4.24353">
        <ele>177</ele>
        <time>2021-02-28T08:19:50Z</time>
      </trkpt>
      <trkpt lat="50.21771" lon="4.24357">
        <ele>176</ele>
        <time>2021-02-28T08:20:08Z</time>
      </trkpt>
      <trkpt lat="50.21779" lon="4.24359">
        <ele>176</ele>
        <time>2021-02-28T08:20:10Z</time>
      </trkpt>
      <trkpt lat="50.21786" lon="4.24365">
        <ele>176</ele>
        <time>2021-02-28T08:20:12Z</time>
      </trkpt>
      <trkpt lat="50.21793" lon="4.2437">
        <ele>175</ele>
        <time>2021-02-28T08:20:14Z</time>
      </trkpt>
      <trkpt lat="50.21799" lon="4.24374">
        <ele>175</ele>
        <time>2021-02-28T08:20:16Z</time>
      </trkpt>
      <trkpt lat="50.21805" lon="4.2438">
        <ele>177</ele>
        <time>2021-02-28T08:20:18Z</time>
      </trkpt>
      <trkpt lat="50.2181" lon="4.24384">
        <ele>177</ele>
        <time>2021-02-28T08:20:20Z</time>
      </trkpt>
      <trkpt lat="50.21813" lon="4.24387">
        <ele>177</ele>
        <time>2021-02-28T08:20:22Z</time>
      </trkpt>
      <trkpt lat="50.21818" lon="4.2439">
        <ele>177</ele>
        <time>2021-02-28T08:20:24Z</time>
      </trkpt>
      <trkpt lat="50.21822" lon="4.24394">
        <ele>176</ele>
        <time>2021-02-28T08:20:26Z</time>
      </trkpt>
      <trkpt lat="50.21829" lon="4.24401">
        <ele>176</ele>
        <time>2021-02-28T08:20:28Z</time>
      </trkpt>
      <trkpt lat="50.21838" lon="4.24409">
        <ele>177</ele>
        <time>2021-02-28T08:20:30Z</time>
      </trkpt>
      <trkpt lat="50.21849" lon="4.24419">
        <ele>174</ele>
        <time>2021-02-28T08:20:32Z</time>
      </trkpt>
      <trkpt lat="50.21859" lon="4.24429">
        <ele>174</ele>
        <time>2021-02-28T08:20:34Z</time>
      </trkpt>
      <trkpt lat="50.21875" lon="4.24444">
        <ele>174</ele>
        <time>2021-02-28T08:20:36Z</time>
      </trkpt>
      <trkpt lat="50.21891" lon="4.2446">
        <ele>174</ele>
        <time>2021-02-28T08:20:38Z</time>
      </trkpt>
      <trkpt lat="50.21905" lon="4.24474">
        <ele>171</ele>
        <time>2021-02-28T08:20:40Z</time>
      </trkpt>
      <trkpt lat="50.21917" lon="4.24485">
        <ele>171</ele>
        <time>2021-02-28T08:20:42Z</time>
      </trkpt>
      <trkpt lat="50.21929" lon="4.24494">
        <ele>172</ele>
        <time>2021-02-28T08:20:44Z</time>
      </trkpt>
      <trkpt lat="50.21937" lon="4.24492">
        <ele>167</ele>
        <time>2021-02-28T08:20:46Z</time>
      </trkpt>
      <trkpt lat="50.21941" lon="4.24482">
        <ele>168</ele>
        <time>2021-02-28T08:20:48Z</time>
      </trkpt>
      <trkpt lat="50.21941" lon="4.24471">
        <ele>168</ele>
        <time>2021-02-28T08:20:50Z</time>
      </trkpt>
      <trkpt lat="50.21938" lon="4.24459">
        <ele>168</ele>
        <time>2021-02-28T08:20:52Z</time>
      </trkpt>
      <trkpt lat="50.21936" lon="4.24448">
        <ele>166</ele>
        <time>2021-02-28T08:20:54Z</time>
      </trkpt>
      <trkpt lat="50.21934" lon="4.24436">
        <ele>166</ele>
        <time>2021-02-28T08:20:56Z</time>
      </trkpt>
      <trkpt lat="50.21932" lon="4.24424">
        <ele>167</ele>
        <time>2021-02-28T08:20:58Z</time>
      </trkpt>
      <trkpt lat="50.21931" lon="4.24413">
        <ele>167</ele>
        <time>2021-02-28T08:21:00Z</time>
      </trkpt>
      <trkpt lat="50.21932" lon="4.24402">
        <ele>166</ele>
        <time>2021-02-28T08:21:02Z</time>
      </trkpt>
      <trkpt lat="50.21935" lon="4.24392">
        <ele>166</ele>
        <time>2021-02-28T08:21:04Z</time>
      </trkpt>
      <trkpt lat="50.21939" lon="4.24382">
        <ele>166</ele>
        <time>2021-02-28T08:21:06Z</time>
      </trkpt>
      <trkpt lat="50.21941" lon="4.24374">
        <ele>170</ele>
        <time>2021-02-28T08:21:08Z</time>
      </trkpt>
      <trkpt lat="50.21943" lon="4.24365">
        <ele>170</ele>
        <time>2021-02-28T08:21:10Z</time>
      </trkpt>
      <trkpt lat="50.21944" lon="4.24358">
        <ele>170</ele>
        <time>2021-02-28T08:21:12Z</time>
      </trkpt>
      <trkpt lat="50.21945" lon="4.24351">
        <ele>170</ele>
        <time>2021-02-28T08:21:14Z</time>
      </trkpt>
      <trkpt lat="50.21948" lon="4.24344">
        <ele>171</ele>
        <time>2021-02-28T08:21:16Z</time>
      </trkpt>
      <trkpt lat="50.21949" lon="4.24338">
        <ele>171</ele>
        <time>2021-02-28T08:21:18Z</time>
      </trkpt>
      <trkpt lat="50.21951" lon="4.24332">
        <ele>171</ele>
        <time>2021-02-28T08:21:20Z</time>
      </trkpt>
      <trkpt lat="50.21953" lon="4.24325">
        <ele>171</ele>
        <time>2021-02-28T08:21:22Z</time>
      </trkpt>
      <trkpt lat="50.21954" lon="4.24319">
        <ele>176</ele>
        <time>2021-02-28T08:21:24Z</time>
      </trkpt>
      <trkpt lat="50.21956" lon="4.24314">
        <ele>176</ele>
        <time>2021-02-28T08:21:26Z</time>
      </trkpt>
      <trkpt lat="50.21957" lon="4.24308">
        <ele>176</ele>
        <time>2021-02-28T08:21:28Z</time>
      </trkpt>
      <trkpt lat="50.21957" lon="4.24303">
        <ele>176</ele>
        <time>2021-02-28T08:21:30Z</time>
      </trkpt>
      <trkpt lat="50.21957" lon="4.24298">
        <ele>176</ele>
        <time>2021-02-28T08:21:32Z</time>
      </trkpt>
      <trkpt lat="50.21958" lon="4.24293">
        <ele>176</ele>
        <time>2021-02-28T08:21:34Z</time>
      </trkpt>
      <trkpt lat="50.21959" lon="4.24288">
        <ele>180</ele>
        <time>2021-02-28T08:21:36Z</time>
      </trkpt>
      <trkpt lat="50.21959" lon="4.24284">
        <ele>180</ele>
        <time>2021-02-28T08:21:38Z</time>
      </trkpt>
      <trkpt lat="50.2196" lon="4.2428">
        <ele>180</ele>
        <time>2021-02-28T08:21:40Z</time>
      </trkpt>
      <trkpt lat="50.21961" lon="4.24276">
        <ele>180</ele>
        <time>2021-02-28T08:21:42Z</time>
      </trkpt>
      <trkpt lat="50.21961" lon="4.24272">
        <ele>180</ele>
        <time>2021-02-28T08:21:44Z</time>
      </trkpt>
      <trkpt lat="50.21962" lon="4.24268">
        <ele>180</ele>
        <time>2021-02-28T08:21:46Z</time>
      </trkpt>
      <trkpt lat="50.21962" lon="4.24264">
        <ele>180</ele>
        <time>2021-02-28T08:21:48Z</time>
      </trkpt>
      <trkpt lat="50.21964" lon="4.24261">
        <ele>181</ele>
        <time>2021-02-28T08:21:50Z</time>
      </trkpt>
      <trkpt lat="50.21966" lon="4.24257">
        <ele>181</ele>
        <time>2021-02-28T08:21:52Z</time>
      </trkpt>
      <trkpt lat="50.21968" lon="4.24253">
        <ele>181</ele>
        <time>2021-02-28T08:21:54Z</time>
      </trkpt>
      <trkpt lat="50.21969" lon="4.24248">
        <ele>181</ele>
        <time>2021-02-28T08:21:56Z</time>
      </trkpt>
      <trkpt lat="50.21971" lon="4.24242">
        <ele>181</ele>
        <time>2021-02-28T08:21:58Z</time>
      </trkpt>
      <trkpt lat="50.21973" lon="4.24236">
        <ele>181</ele>
        <time>2021-02-28T08:22:00Z</time>
      </trkpt>
      <trkpt lat="50.21975" lon="4.2423">
        <ele>184</ele>
        <time>2021-02-28T08:22:02Z</time>
      </trkpt>
      <trkpt lat="50.21977" lon="4.24226">
        <ele>184</ele>
        <time>2021-02-28T08:22:04Z</time>
      </trkpt>
      <trkpt lat="50.21978" lon="4.2422">
        <ele>184</ele>
        <time>2021-02-28T08:22:06Z</time>
      </trkpt>
      <trkpt lat="50.2198" lon="4.24216">
        <ele>184</ele>
        <time>2021-02-28T08:22:08Z</time>
      </trkpt>
      <trkpt lat="50.21981" lon="4.2421">
        <ele>184</ele>
        <time>2021-02-28T08:22:10Z</time>
      </trkpt>
      <trkpt lat="50.21984" lon="4.24205">
        <ele>184</ele>
        <time>2021-02-28T08:22:12Z</time>
      </trkpt>
      <trkpt lat="50.21986" lon="4.24199">
        <ele>184</ele>
        <time>2021-02-28T08:22:14Z</time>
      </trkpt>
      <trkpt lat="50.21989" lon="4.24193">
        <ele>184</ele>
        <time>2021-02-28T08:22:16Z</time>
      </trkpt>
      <trkpt lat="50.21991" lon="4.24188">
        <ele>184</ele>
        <time>2021-02-28T08:22:18Z</time>
      </trkpt>
      <trkpt lat="50.21994" lon="4.24183">
        <ele>184</ele>
        <time>2021-02-28T08:22:20Z</time>
      </trkpt>
      <trkpt lat="50.21996" lon="4.24179">
        <ele>185</ele>
        <time>2021-02-28T08:22:22Z</time>
      </trkpt>
      <trkpt lat="50.21998" lon="4.24175">
        <ele>185</ele>
        <time>2021-02-28T08:22:24Z</time>
      </trkpt>
      <trkpt lat="50.22" lon="4.24171">
        <ele>185</ele>
        <time>2021-02-28T08:22:26Z</time>
      </trkpt>
      <trkpt lat="50.22002" lon="4.24168">
        <ele>185</ele>
        <time>2021-02-28T08:22:28Z</time>
      </trkpt>
      <trkpt lat="50.22005" lon="4.24164">
        <ele>185</ele>
        <time>2021-02-28T08:22:30Z</time>
      </trkpt>
      <trkpt lat="50.22008" lon="4.24159">
        <ele>185</ele>
        <time>2021-02-28T08:22:32Z</time>
      </trkpt>
      <trkpt lat="50.22011" lon="4.24152">
        <ele>186</ele>
        <time>2021-02-28T08:22:34Z</time>
      </trkpt>
      <trkpt lat="50.22012" lon="4.24146">
        <ele>186</ele>
        <time>2021-02-28T08:22:36Z</time>
      </trkpt>
      <trkpt lat="50.2201" lon="4.24134">
        <ele>186</ele>
        <time>2021-02-28T08:22:38Z</time>
      </trkpt>
      <trkpt lat="50.22012" lon="4.24128">
        <ele>186</ele>
        <time>2021-02-28T08:22:40Z</time>
      </trkpt>
      <trkpt lat="50.22015" lon="4.24124">
        <ele>186</ele>
        <time>2021-02-28T08:22:42Z</time>
      </trkpt>
      <trkpt lat="50.22019" lon="4.2412">
        <ele>186</ele>
        <time>2021-02-28T08:22:44Z</time>
      </trkpt>
      <trkpt lat="50.22023" lon="4.24116">
        <ele>186</ele>
        <time>2021-02-28T08:22:46Z</time>
      </trkpt>
      <trkpt lat="50.22025" lon="4.24111">
        <ele>186</ele>
        <time>2021-02-28T08:22:48Z</time>
      </trkpt>
      <trkpt lat="50.22026" lon="4.24105">
        <ele>186</ele>
        <time>2021-02-28T08:22:50Z</time>
      </trkpt>
      <trkpt lat="50.22028" lon="4.241">
        <ele>186</ele>
        <time>2021-02-28T08:22:52Z</time>
      </trkpt>
      <trkpt lat="50.2203" lon="4.24096">
        <ele>185</ele>
        <time>2021-02-28T08:22:54Z</time>
      </trkpt>
      <trkpt lat="50.22031" lon="4.24092">
        <ele>185</ele>
        <time>2021-02-28T08:22:56Z</time>
      </trkpt>
      <trkpt lat="50.22033" lon="4.24087">
        <ele>185</ele>
        <time>2021-02-28T08:22:58Z</time>
      </trkpt>
      <trkpt lat="50.22036" lon="4.24081">
        <ele>185</ele>
        <time>2021-02-28T08:23:00Z</time>
      </trkpt>
      <trkpt lat="50.22038" lon="4.24076">
        <ele>185</ele>
        <time>2021-02-28T08:23:02Z</time>
      </trkpt>
      <trkpt lat="50.2204" lon="4.24071">
        <ele>185</ele>
        <time>2021-02-28T08:23:04Z</time>
      </trkpt>
      <trkpt lat="50.22042" lon="4.24065">
        <ele>183</ele>
        <time>2021-02-28T08:23:06Z</time>
      </trkpt>
      <trkpt lat="50.22044" lon="4.2406">
        <ele>183</ele>
        <time>2021-02-28T08:23:08Z</time>
      </trkpt>
      <trkpt lat="50.22046" lon="4.24054">
        <ele>183</ele>
        <time>2021-02-28T08:23:10Z</time>
      </trkpt>
      <trkpt lat="50.22048" lon="4.24047">
        <ele>183</ele>
        <time>2021-02-28T08:23:12Z</time>
      </trkpt>
      <trkpt lat="50.2205" lon="4.24041">
        <ele>184</ele>
        <time>2021-02-28T08:23:14Z</time>
      </trkpt>
      <trkpt lat="50.22052" lon="4.24036">
        <ele>184</ele>
        <time>2021-02-28T08:23:16Z</time>
      </trkpt>
      <trkpt lat="50.22054" lon="4.2403">
        <ele>184</ele>
        <time>2021-02-28T08:23:18Z</time>
      </trkpt>
      <trkpt lat="50.22055" lon="4.24024">
        <ele>184</ele>
        <time>2021-02-28T08:23:20Z</time>
      </trkpt>
      <trkpt lat="50.22057" lon="4.24019">
        <ele>184</ele>
        <time>2021-02-28T08:23:22Z</time>
      </trkpt>
      <trkpt lat="50.22059" lon="4.24013">
        <ele>185</ele>
        <time>2021-02-28T08:23:24Z</time>
      </trkpt>
      <trkpt lat="50.2206" lon="4.24007">
        <ele>185</ele>
        <time>2021-02-28T08:23:26Z</time>
      </trkpt>
      <trkpt lat="50.22061" lon="4.24001">
        <ele>185</ele>
        <time>2021-02-28T08:23:28Z</time>
      </trkpt>
      <trkpt lat="50.22062" lon="4.23995">
        <ele>185</ele>
        <time>2021-02-28T08:23:30Z</time>
      </trkpt>
      <trkpt lat="50.22063" lon="4.23988">
        <ele>185</ele>
        <time>2021-02-28T08:23:32Z</time>
      </trkpt>
      <trkpt lat="50.22063" lon="4.2398">
        <ele>185</ele>
        <time>2021-02-28T08:23:34Z</time>
      </trkpt>
      <trkpt lat="50.22063" lon="4.23971">
        <ele>185</ele>
        <time>2021-02-28T08:23:36Z</time>
      </trkpt>
      <trkpt lat="50.22064" lon="4.23962">
        <ele>185</ele>
        <time>2021-02-28T08:23:38Z</time>
      </trkpt>
      <trkpt lat="50.22066" lon="4.23951">
        <ele>185</ele>
        <time>2021-02-28T08:23:40Z</time>
      </trkpt>
      <trkpt lat="50.22068" lon="4.23938">
        <ele>185</ele>
        <time>2021-02-28T08:23:42Z</time>
      </trkpt>
      <trkpt lat="50.22071" lon="4.23926">
        <ele>183</ele>
        <time>2021-02-28T08:23:44Z</time>
      </trkpt>
      <trkpt lat="50.22073" lon="4.23916">
        <ele>183</ele>
        <time>2021-02-28T08:23:46Z</time>
      </trkpt>
      <trkpt lat="50.22076" lon="4.23906">
        <ele>183</ele>
        <time>2021-02-28T08:23:48Z</time>
      </trkpt>
      <trkpt lat="50.22079" lon="4.23896">
        <ele>183</ele>
        <time>2021-02-28T08:23:50Z</time>
      </trkpt>
      <trkpt lat="50.22083" lon="4.23886">
        <ele>183</ele>
        <time>2021-02-28T08:23:52Z</time>
      </trkpt>
      <trkpt lat="50.22087" lon="4.23874">
        <ele>185</ele>
        <time>2021-02-28T08:23:54Z</time>
      </trkpt>
      <trkpt lat="50.22091" lon="4.23862">
        <ele>185</ele>
        <time>2021-02-28T08:23:56Z</time>
      </trkpt>
      <trkpt lat="50.22095" lon="4.2385">
        <ele>185</ele>
        <time>2021-02-28T08:23:58Z</time>
      </trkpt>
      <trkpt lat="50.221" lon="4.23838">
        <ele>183</ele>
        <time>2021-02-28T08:24:00Z</time>
      </trkpt>
      <trkpt lat="50.22105" lon="4.23825">
        <ele>183</ele>
        <time>2021-02-28T08:24:02Z</time>
      </trkpt>
      <trkpt lat="50.22112" lon="4.23813">
        <ele>183</ele>
        <time>2021-02-28T08:24:04Z</time>
      </trkpt>
      <trkpt lat="50.22119" lon="4.238">
        <ele>183</ele>
        <time>2021-02-28T08:24:06Z</time>
      </trkpt>
      <trkpt lat="50.22126" lon="4.23789">
        <ele>182</ele>
        <time>2021-02-28T08:24:08Z</time>
      </trkpt>
      <trkpt lat="50.22135" lon="4.23778">
        <ele>182</ele>
        <time>2021-02-28T08:24:10Z</time>
      </trkpt>
      <trkpt lat="50.22144" lon="4.23766">
        <ele>182</ele>
        <time>2021-02-28T08:24:12Z</time>
      </trkpt>
      <trkpt lat="50.22154" lon="4.23754">
        <ele>178</ele>
        <time>2021-02-28T08:24:14Z</time>
      </trkpt>
      <trkpt lat="50.22162" lon="4.23743">
        <ele>178</ele>
        <time>2021-02-28T08:24:16Z</time>
      </trkpt>
      <trkpt lat="50.2217" lon="4.23733">
        <ele>178</ele>
        <time>2021-02-28T08:24:18Z</time>
      </trkpt>
      <trkpt lat="50.22178" lon="4.23724">
        <ele>178</ele>
        <time>2021-02-28T08:24:20Z</time>
      </trkpt>
      <trkpt lat="50.22186" lon="4.23714">
        <ele>176</ele>
        <time>2021-02-28T08:24:22Z</time>
      </trkpt>
      <trkpt lat="50.22193" lon="4.23702">
        <ele>175</ele>
        <time>2021-02-28T08:24:24Z</time>
      </trkpt>
      <trkpt lat="50.22195" lon="4.23688">
        <ele>175</ele>
        <time>2021-02-28T08:24:26Z</time>
      </trkpt>
      <trkpt lat="50.22196" lon="4.23673">
        <ele>174</ele>
        <time>2021-02-28T08:24:28Z</time>
      </trkpt>
      <trkpt lat="50.22194" lon="4.23663">
        <ele>174</ele>
        <time>2021-02-28T08:24:30Z</time>
      </trkpt>
      <trkpt lat="50.22196" lon="4.23656">
        <ele>174</ele>
        <time>2021-02-28T08:24:32Z</time>
      </trkpt>
      <trkpt lat="50.22201" lon="4.23654">
        <ele>174</ele>
        <time>2021-02-28T08:24:34Z</time>
      </trkpt>
      <trkpt lat="50.22208" lon="4.23657">
        <ele>174</ele>
        <time>2021-02-28T08:24:36Z</time>
      </trkpt>
      <trkpt lat="50.22218" lon="4.2366">
        <ele>172</ele>
        <time>2021-02-28T08:24:38Z</time>
      </trkpt>
      <trkpt lat="50.2223" lon="4.23662">
        <ele>172</ele>
        <time>2021-02-28T08:24:40Z</time>
      </trkpt>
      <trkpt lat="50.22243" lon="4.23665">
        <ele>169</ele>
        <time>2021-02-28T08:24:42Z</time>
      </trkpt>
      <trkpt lat="50.22257" lon="4.23668">
        <ele>169</ele>
        <time>2021-02-28T08:24:44Z</time>
      </trkpt>
      <trkpt lat="50.22272" lon="4.23666">
        <ele>166</ele>
        <time>2021-02-28T08:24:46Z</time>
      </trkpt>
      <trkpt lat="50.22287" lon="4.23658">
        <ele>166</ele>
        <time>2021-02-28T08:24:48Z</time>
      </trkpt>
      <trkpt lat="50.22298" lon="4.23644">
        <ele>164</ele>
        <time>2021-02-28T08:24:50Z</time>
      </trkpt>
      <trkpt lat="50.22307" lon="4.2363">
        <ele>164</ele>
        <time>2021-02-28T08:24:52Z</time>
      </trkpt>
      <trkpt lat="50.22314" lon="4.23616">
        <ele>163</ele>
        <time>2021-02-28T08:24:54Z</time>
      </trkpt>
      <trkpt lat="50.22319" lon="4.23603">
        <ele>163</ele>
        <time>2021-02-28T08:24:56Z</time>
      </trkpt>
      <trkpt lat="50.22325" lon="4.23593">
        <ele>165</ele>
        <time>2021-02-28T08:24:58Z</time>
      </trkpt>
      <trkpt lat="50.22333" lon="4.23589">
        <ele>165</ele>
        <time>2021-02-28T08:25:00Z</time>
      </trkpt>
      <trkpt lat="50.22342" lon="4.23592">
        <ele>165</ele>
        <time>2021-02-28T08:25:02Z</time>
      </trkpt>
      <trkpt lat="50.2235" lon="4.23597">
        <ele>165</ele>
        <time>2021-02-28T08:25:04Z</time>
      </trkpt>
      <trkpt lat="50.22359" lon="4.23603">
        <ele>163</ele>
        <time>2021-02-28T08:25:06Z</time>
      </trkpt>
      <trkpt lat="50.22368" lon="4.23608">
        <ele>163</ele>
        <time>2021-02-28T08:25:08Z</time>
      </trkpt>
      <trkpt lat="50.22377" lon="4.23613">
        <ele>164</ele>
        <time>2021-02-28T08:25:10Z</time>
      </trkpt>
      <trkpt lat="50.22386" lon="4.23618">
        <ele>164</ele>
        <time>2021-02-28T08:25:12Z</time>
      </trkpt>
      <trkpt lat="50.22395" lon="4.23623">
        <ele>164</ele>
        <time>2021-02-28T08:25:14Z</time>
      </trkpt>
      <trkpt lat="50.22405" lon="4.23627">
        <ele>165</ele>
        <time>2021-02-28T08:25:16Z</time>
      </trkpt>
      <trkpt lat="50.22413" lon="4.23629">
        <ele>165</ele>
        <time>2021-02-28T08:25:18Z</time>
      </trkpt>
      <trkpt lat="50.22421" lon="4.2363">
        <ele>165</ele>
        <time>2021-02-28T08:25:20Z</time>
      </trkpt>
      <trkpt lat="50.2243" lon="4.23631">
        <ele>165</ele>
        <time>2021-02-28T08:25:22Z</time>
      </trkpt>
      <trkpt lat="50.22438" lon="4.23632">
        <ele>166</ele>
        <time>2021-02-28T08:25:24Z</time>
      </trkpt>
      <trkpt lat="50.22447" lon="4.23634">
        <ele>166</ele>
        <time>2021-02-28T08:25:26Z</time>
      </trkpt>
      <trkpt lat="50.22456" lon="4.23638">
        <ele>166</ele>
        <time>2021-02-28T08:25:28Z</time>
      </trkpt>
      <trkpt lat="50.22465" lon="4.2364">
        <ele>168</ele>
        <time>2021-02-28T08:25:30Z</time>
      </trkpt>
      <trkpt lat="50.22474" lon="4.2364">
        <ele>168</ele>
        <time>2021-02-28T08:25:32Z</time>
      </trkpt>
      <trkpt lat="50.22483" lon="4.23639">
        <ele>168</ele>
        <time>2021-02-28T08:25:34Z</time>
      </trkpt>
      <trkpt lat="50.22492" lon="4.23638">
        <ele>169</ele>
        <time>2021-02-28T08:25:36Z</time>
      </trkpt>
      <trkpt lat="50.22499" lon="4.23639">
        <ele>169</ele>
        <time>2021-02-28T08:25:38Z</time>
      </trkpt>
      <trkpt lat="50.22506" lon="4.23637">
        <ele>169</ele>
        <time>2021-02-28T08:25:40Z</time>
      </trkpt>
      <trkpt lat="50.22515" lon="4.23636">
        <ele>169</ele>
        <time>2021-02-28T08:25:42Z</time>
      </trkpt>
      <trkpt lat="50.22523" lon="4.23634">
        <ele>169</ele>
        <time>2021-02-28T08:25:44Z</time>
      </trkpt>
      <trkpt lat="50.22532" lon="4.23633">
        <ele>169</ele>
        <time>2021-02-28T08:25:46Z</time>
      </trkpt>
      <trkpt lat="50.22541" lon="4.23632">
        <ele>169</ele>
        <time>2021-02-28T08:25:48Z</time>
      </trkpt>
      <trkpt lat="50.2255" lon="4.2363">
        <ele>169</ele>
        <time>2021-02-28T08:25:50Z</time>
      </trkpt>
      <trkpt lat="50.22558" lon="4.23634">
        <ele>169</ele>
        <time>2021-02-28T08:25:52Z</time>
      </trkpt>
      <trkpt lat="50.22569" lon="4.23643">
        <ele>169</ele>
        <time>2021-02-28T08:25:54Z</time>
      </trkpt>
      <trkpt lat="50.22578" lon="4.23653">
        <ele>165</ele>
        <time>2021-02-28T08:25:56Z</time>
      </trkpt>
      <trkpt lat="50.22587" lon="4.23667">
        <ele>165</ele>
        <time>2021-02-28T08:25:58Z</time>
      </trkpt>
      <trkpt lat="50.22594" lon="4.23681">
        <ele>166</ele>
        <time>2021-02-28T08:26:00Z</time>
      </trkpt>
      <trkpt lat="50.22601" lon="4.23694">
        <ele>164</ele>
        <time>2021-02-28T08:26:02Z</time>
      </trkpt>
      <trkpt lat="50.22608" lon="4.23708">
        <ele>164</ele>
        <time>2021-02-28T08:26:04Z</time>
      </trkpt>
      <trkpt lat="50.22614" lon="4.23722">
        <ele>165</ele>
        <time>2021-02-28T08:26:06Z</time>
      </trkpt>
      <trkpt lat="50.2262" lon="4.23735">
        <ele>165</ele>
        <time>2021-02-28T08:26:08Z</time>
      </trkpt>
      <trkpt lat="50.22627" lon="4.23747">
        <ele>167</ele>
        <time>2021-02-28T08:26:10Z</time>
      </trkpt>
      <trkpt lat="50.22634" lon="4.23756">
        <ele>167</ele>
        <time>2021-02-28T08:26:12Z</time>
      </trkpt>
      <trkpt lat="50.22643" lon="4.23762">
        <ele>167</ele>
        <time>2021-02-28T08:26:14Z</time>
      </trkpt>
      <trkpt lat="50.22652" lon="4.23767">
        <ele>173</ele>
        <time>2021-02-28T08:26:16Z</time>
      </trkpt>
      <trkpt lat="50.22662" lon="4.2377">
        <ele>169</ele>
        <time>2021-02-28T08:26:18Z</time>
      </trkpt>
      <trkpt lat="50.22672" lon="4.23773">
        <ele>169</ele>
        <time>2021-02-28T08:26:20Z</time>
      </trkpt>
      <trkpt lat="50.22681" lon="4.23775">
        <ele>166</ele>
        <time>2021-02-28T08:26:22Z</time>
      </trkpt>
      <trkpt lat="50.2269" lon="4.23776">
        <ele>166</ele>
        <time>2021-02-28T08:26:24Z</time>
      </trkpt>
      <trkpt lat="50.227" lon="4.23777">
        <ele>166</ele>
        <time>2021-02-28T08:26:26Z</time>
      </trkpt>
      <trkpt lat="50.22709" lon="4.23777">
        <ele>166</ele>
        <time>2021-02-28T08:26:28Z</time>
      </trkpt>
      <trkpt lat="50.22715" lon="4.2378">
        <ele>166</ele>
        <time>2021-02-28T08:27:16Z</time>
      </trkpt>
      <trkpt lat="50.22715" lon="4.23784">
        <ele>166</ele>
        <time>2021-02-28T08:27:18Z</time>
      </trkpt>
      <trkpt lat="50.22716" lon="4.23786">
        <ele>166</ele>
        <time>2021-02-28T08:27:20Z</time>
      </trkpt>
      <trkpt lat="50.22717" lon="4.23789">
        <ele>166</ele>
        <time>2021-02-28T08:27:22Z</time>
      </trkpt>
      <trkpt lat="50.22717" lon="4.23792">
        <ele>170</ele>
        <time>2021-02-28T08:27:24Z</time>
      </trkpt>
      <trkpt lat="50.2272" lon="4.23795">
        <ele>170</ele>
        <time>2021-02-28T08:27:26Z</time>
      </trkpt>
      <trkpt lat="50.22721" lon="4.23797">
        <ele>170</ele>
        <time>2021-02-28T08:27:28Z</time>
      </trkpt>
      <trkpt lat="50.22723" lon="4.23798">
        <ele>170</ele>
        <time>2021-02-28T08:27:30Z</time>
      </trkpt>
      <trkpt lat="50.22725" lon="4.23802">
        <ele>170</ele>
        <time>2021-02-28T08:27:32Z</time>
      </trkpt>
      <trkpt lat="50.22728" lon="4.23804">
        <ele>170</ele>
        <time>2021-02-28T08:27:34Z</time>
      </trkpt>
      <trkpt lat="50.22732" lon="4.23808">
        <ele>170</ele>
        <time>2021-02-28T08:27:36Z</time>
      </trkpt>
      <trkpt lat="50.22738" lon="4.2381">
        <ele>168</ele>
        <time>2021-02-28T08:27:38Z</time>
      </trkpt>
      <trkpt lat="50.22741" lon="4.23813">
        <ele>168</ele>
        <time>2021-02-28T08:27:40Z</time>
      </trkpt>
      <trkpt lat="50.22744" lon="4.23815">
        <ele>168</ele>
        <time>2021-02-28T08:27:42Z</time>
      </trkpt>
      <trkpt lat="50.22747" lon="4.23818">
        <ele>168</ele>
        <time>2021-02-28T08:27:44Z</time>
      </trkpt>
      <trkpt lat="50.22749" lon="4.23822">
        <ele>171</ele>
        <time>2021-02-28T08:27:46Z</time>
      </trkpt>
      <trkpt lat="50.22753" lon="4.23826">
        <ele>171</ele>
        <time>2021-02-28T08:27:48Z</time>
      </trkpt>
      <trkpt lat="50.22756" lon="4.2383">
        <ele>171</ele>
        <time>2021-02-28T08:27:50Z</time>
      </trkpt>
      <trkpt lat="50.22758" lon="4.23835">
        <ele>171</ele>
        <time>2021-02-28T08:27:52Z</time>
      </trkpt>
      <trkpt lat="50.2276" lon="4.2384">
        <ele>171</ele>
        <time>2021-02-28T08:27:54Z</time>
      </trkpt>
      <trkpt lat="50.22763" lon="4.23846">
        <ele>171</ele>
        <time>2021-02-28T08:27:56Z</time>
      </trkpt>
      <trkpt lat="50.22766" lon="4.23853">
        <ele>173</ele>
        <time>2021-02-28T08:27:58Z</time>
      </trkpt>
      <trkpt lat="50.22768" lon="4.23858">
        <ele>173</ele>
        <time>2021-02-28T08:28:00Z</time>
      </trkpt>
      <trkpt lat="50.22772" lon="4.23863">
        <ele>173</ele>
        <time>2021-02-28T08:28:02Z</time>
      </trkpt>
      <trkpt lat="50.22776" lon="4.23867">
        <ele>173</ele>
        <time>2021-02-28T08:28:04Z</time>
      </trkpt>
      <trkpt lat="50.22779" lon="4.23872">
        <ele>173</ele>
        <time>2021-02-28T08:28:06Z</time>
      </trkpt>
      <trkpt lat="50.22783" lon="4.23878">
        <ele>178</ele>
        <time>2021-02-28T08:28:08Z</time>
      </trkpt>
      <trkpt lat="50.22786" lon="4.23883">
        <ele>178</ele>
        <time>2021-02-28T08:28:10Z</time>
      </trkpt>
      <trkpt lat="50.22791" lon="4.23888">
        <ele>178</ele>
        <time>2021-02-28T08:28:12Z</time>
      </trkpt>
      <trkpt lat="50.22795" lon="4.23894">
        <ele>177</ele>
        <time>2021-02-28T08:28:14Z</time>
      </trkpt>
      <trkpt lat="50.228" lon="4.239">
        <ele>177</ele>
        <time>2021-02-28T08:28:16Z</time>
      </trkpt>
      <trkpt lat="50.22804" lon="4.23907">
        <ele>178</ele>
        <time>2021-02-28T08:28:18Z</time>
      </trkpt>
      <trkpt lat="50.22807" lon="4.23914">
        <ele>178</ele>
        <time>2021-02-28T08:28:20Z</time>
      </trkpt>
      <trkpt lat="50.2281" lon="4.23921">
        <ele>178</ele>
        <time>2021-02-28T08:28:22Z</time>
      </trkpt>
      <trkpt lat="50.22812" lon="4.23928">
        <ele>178</ele>
        <time>2021-02-28T08:28:24Z</time>
      </trkpt>
      <trkpt lat="50.22813" lon="4.23934">
        <ele>181</ele>
        <time>2021-02-28T08:28:26Z</time>
      </trkpt>
      <trkpt lat="50.22815" lon="4.23941">
        <ele>181</ele>
        <time>2021-02-28T08:28:28Z</time>
      </trkpt>
      <trkpt lat="50.22817" lon="4.23949">
        <ele>181</ele>
        <time>2021-02-28T08:28:30Z</time>
      </trkpt>
      <trkpt lat="50.22818" lon="4.23956">
        <ele>181</ele>
        <time>2021-02-28T08:28:32Z</time>
      </trkpt>
      <trkpt lat="50.2282" lon="4.23962">
        <ele>179</ele>
        <time>2021-02-28T08:28:34Z</time>
      </trkpt>
      <trkpt lat="50.22821" lon="4.23969">
        <ele>179</ele>
        <time>2021-02-28T08:28:36Z</time>
      </trkpt>
      <trkpt lat="50.22822" lon="4.23976">
        <ele>179</ele>
        <time>2021-02-28T08:28:38Z</time>
      </trkpt>
      <trkpt lat="50.22823" lon="4.23983">
        <ele>179</ele>
        <time>2021-02-28T08:28:40Z</time>
      </trkpt>
      <trkpt lat="50.22824" lon="4.2399">
        <ele>180</ele>
        <time>2021-02-28T08:28:42Z</time>
      </trkpt>
      <trkpt lat="50.22825" lon="4.23996">
        <ele>180</ele>
        <time>2021-02-28T08:28:44Z</time>
      </trkpt>
      <trkpt lat="50.22826" lon="4.24004">
        <ele>180</ele>
        <time>2021-02-28T08:28:46Z</time>
      </trkpt>
      <trkpt lat="50.22826" lon="4.24011">
        <ele>180</ele>
        <time>2021-02-28T08:28:48Z</time>
      </trkpt>
      <trkpt lat="50.22827" lon="4.24018">
        <ele>181</ele>
        <time>2021-02-28T08:28:50Z</time>
      </trkpt>
      <trkpt lat="50.22828" lon="4.24026">
        <ele>181</ele>
        <time>2021-02-28T08:28:52Z</time>
      </trkpt>
      <trkpt lat="50.22829" lon="4.24033">
        <ele>181</ele>
        <time>2021-02-28T08:28:54Z</time>
      </trkpt>
      <trkpt lat="50.22829" lon="4.24041">
        <ele>181</ele>
        <time>2021-02-28T08:28:56Z</time>
      </trkpt>
      <trkpt lat="50.2283" lon="4.24048">
        <ele>183</ele>
        <time>2021-02-28T08:28:58Z</time>
      </trkpt>
      <trkpt lat="50.22831" lon="4.24056">
        <ele>183</ele>
        <time>2021-02-28T08:29:00Z</time>
      </trkpt>
      <trkpt lat="50.22831" lon="4.24064">
        <ele>183</ele>
        <time>2021-02-28T08:29:02Z</time>
      </trkpt>
      <trkpt lat="50.22831" lon="4.24071">
        <ele>185</ele>
        <time>2021-02-28T08:29:04Z</time>
      </trkpt>
      <trkpt lat="50.22832" lon="4.24078">
        <ele>185</ele>
        <time>2021-02-28T08:29:06Z</time>
      </trkpt>
      <trkpt lat="50.22833" lon="4.24086">
        <ele>185</ele>
        <time>2021-02-28T08:29:08Z</time>
      </trkpt>
      <trkpt lat="50.22834" lon="4.24094">
        <ele>185</ele>
        <time>2021-02-28T08:29:10Z</time>
      </trkpt>
      <trkpt lat="50.22835" lon="4.24102">
        <ele>186</ele>
        <time>2021-02-28T08:29:12Z</time>
      </trkpt>
      <trkpt lat="50.22836" lon="4.2411">
        <ele>186</ele>
        <time>2021-02-28T08:29:14Z</time>
      </trkpt>
      <trkpt lat="50.22837" lon="4.24118">
        <ele>186</ele>
        <time>2021-02-28T08:29:16Z</time>
      </trkpt>
      <trkpt lat="50.22837" lon="4.24125">
        <ele>187</ele>
        <time>2021-02-28T08:29:18Z</time>
      </trkpt>
      <trkpt lat="50.22838" lon="4.24133">
        <ele>187</ele>
        <time>2021-02-28T08:29:20Z</time>
      </trkpt>
      <trkpt lat="50.22839" lon="4.24141">
        <ele>187</ele>
        <time>2021-02-28T08:29:22Z</time>
      </trkpt>
      <trkpt lat="50.22841" lon="4.24149">
        <ele>187</ele>
        <time>2021-02-28T08:29:24Z</time>
      </trkpt>
      <trkpt lat="50.22842" lon="4.24156">
        <ele>188</ele>
        <time>2021-02-28T08:29:26Z</time>
      </trkpt>
      <trkpt lat="50.22844" lon="4.24164">
        <ele>188</ele>
        <time>2021-02-28T08:29:28Z</time>
      </trkpt>
      <trkpt lat="50.22846" lon="4.24171">
        <ele>188</ele>
        <time>2021-02-28T08:29:30Z</time>
      </trkpt>
      <trkpt lat="50.22849" lon="4.24178">
        <ele>189</ele>
        <time>2021-02-28T08:29:32Z</time>
      </trkpt>
      <trkpt lat="50.2285" lon="4.24186">
        <ele>189</ele>
        <time>2021-02-28T08:29:34Z</time>
      </trkpt>
      <trkpt lat="50.22852" lon="4.24193">
        <ele>189</ele>
        <time>2021-02-28T08:29:36Z</time>
      </trkpt>
      <trkpt lat="50.22855" lon="4.24201">
        <ele>189</ele>
        <time>2021-02-28T08:29:38Z</time>
      </trkpt>
      <trkpt lat="50.22858" lon="4.24208">
        <ele>191</ele>
        <time>2021-02-28T08:29:40Z</time>
      </trkpt>
      <trkpt lat="50.2286" lon="4.24216">
        <ele>191</ele>
        <time>2021-02-28T08:29:42Z</time>
      </trkpt>
      <trkpt lat="50.22862" lon="4.24225">
        <ele>191</ele>
        <time>2021-02-28T08:29:44Z</time>
      </trkpt>
      <trkpt lat="50.22865" lon="4.24233">
        <ele>191</ele>
        <time>2021-02-28T08:29:46Z</time>
      </trkpt>
      <trkpt lat="50.22867" lon="4.24242">
        <ele>191</ele>
        <time>2021-02-28T08:29:48Z</time>
      </trkpt>
      <trkpt lat="50.2287" lon="4.24251">
        <ele>191</ele>
        <time>2021-02-28T08:29:50Z</time>
      </trkpt>
      <trkpt lat="50.22873" lon="4.2426">
        <ele>191</ele>
        <time>2021-02-28T08:29:52Z</time>
      </trkpt>
      <trkpt lat="50.22876" lon="4.24269">
        <ele>192</ele>
        <time>2021-02-28T08:29:54Z</time>
      </trkpt>
      <trkpt lat="50.22879" lon="4.24279">
        <ele>192</ele>
        <time>2021-02-28T08:29:56Z</time>
      </trkpt>
      <trkpt lat="50.22882" lon="4.24289">
        <ele>192</ele>
        <time>2021-02-28T08:29:58Z</time>
      </trkpt>
      <trkpt lat="50.22885" lon="4.24299">
        <ele>192</ele>
        <time>2021-02-28T08:30:00Z</time>
      </trkpt>
      <trkpt lat="50.22887" lon="4.24309">
        <ele>192</ele>
        <time>2021-02-28T08:30:02Z</time>
      </trkpt>
      <trkpt lat="50.22889" lon="4.24318">
        <ele>192</ele>
        <time>2021-02-28T08:30:04Z</time>
      </trkpt>
      <trkpt lat="50.2289" lon="4.24326">
        <ele>194</ele>
        <time>2021-02-28T08:30:06Z</time>
      </trkpt>
      <trkpt lat="50.22891" lon="4.24335">
        <ele>194</ele>
        <time>2021-02-28T08:30:08Z</time>
      </trkpt>
      <trkpt lat="50.22891" lon="4.24344">
        <ele>194</ele>
        <time>2021-02-28T08:30:10Z</time>
      </trkpt>
      <trkpt lat="50.22891" lon="4.24353">
        <ele>193</ele>
        <time>2021-02-28T08:30:12Z</time>
      </trkpt>
      <trkpt lat="50.22892" lon="4.24361">
        <ele>193</ele>
        <time>2021-02-28T08:30:14Z</time>
      </trkpt>
      <trkpt lat="50.22893" lon="4.24369">
        <ele>193</ele>
        <time>2021-02-28T08:30:16Z</time>
      </trkpt>
      <trkpt lat="50.22895" lon="4.24378">
        <ele>195</ele>
        <time>2021-02-28T08:30:18Z</time>
      </trkpt>
      <trkpt lat="50.22898" lon="4.24386">
        <ele>195</ele>
        <time>2021-02-28T08:30:20Z</time>
      </trkpt>
      <trkpt lat="50.229" lon="4.24393">
        <ele>195</ele>
        <time>2021-02-28T08:30:22Z</time>
      </trkpt>
      <trkpt lat="50.22902" lon="4.24401">
        <ele>195</ele>
        <time>2021-02-28T08:30:24Z</time>
      </trkpt>
      <trkpt lat="50.22905" lon="4.24408">
        <ele>194</ele>
        <time>2021-02-28T08:30:26Z</time>
      </trkpt>
      <trkpt lat="50.22908" lon="4.24415">
        <ele>194</ele>
        <time>2021-02-28T08:30:28Z</time>
      </trkpt>
      <trkpt lat="50.2291" lon="4.24423">
        <ele>194</ele>
        <time>2021-02-28T08:30:30Z</time>
      </trkpt>
      <trkpt lat="50.22912" lon="4.2443">
        <ele>194</ele>
        <time>2021-02-28T08:30:32Z</time>
      </trkpt>
      <trkpt lat="50.22914" lon="4.24436">
        <ele>195</ele>
        <time>2021-02-28T08:30:34Z</time>
      </trkpt>
      <trkpt lat="50.22916" lon="4.24442">
        <ele>195</ele>
        <time>2021-02-28T08:30:36Z</time>
      </trkpt>
      <trkpt lat="50.22918" lon="4.24447">
        <ele>195</ele>
        <time>2021-02-28T08:30:38Z</time>
      </trkpt>
      <trkpt lat="50.22921" lon="4.24454">
        <ele>195</ele>
        <time>2021-02-28T08:30:40Z</time>
      </trkpt>
      <trkpt lat="50.22923" lon="4.24462">
        <ele>195</ele>
        <time>2021-02-28T08:30:42Z</time>
      </trkpt>
      <trkpt lat="50.22926" lon="4.2447">
        <ele>195</ele>
        <time>2021-02-28T08:30:44Z</time>
      </trkpt>
      <trkpt lat="50.22928" lon="4.24478">
        <ele>195</ele>
        <time>2021-02-28T08:30:46Z</time>
      </trkpt>
      <trkpt lat="50.22931" lon="4.24487">
        <ele>196</ele>
        <time>2021-02-28T08:30:48Z</time>
      </trkpt>
      <trkpt lat="50.22934" lon="4.24496">
        <ele>196</ele>
        <time>2021-02-28T08:30:50Z</time>
      </trkpt>
      <trkpt lat="50.22937" lon="4.24506">
        <ele>196</ele>
        <time>2021-02-28T08:30:52Z</time>
      </trkpt>
      <trkpt lat="50.2294" lon="4.24516">
        <ele>196</ele>
        <time>2021-02-28T08:30:54Z</time>
      </trkpt>
      <trkpt lat="50.22942" lon="4.24527">
        <ele>196</ele>
        <time>2021-02-28T08:30:56Z</time>
      </trkpt>
      <trkpt lat="50.22946" lon="4.24537">
        <ele>196</ele>
        <time>2021-02-28T08:30:58Z</time>
      </trkpt>
      <trkpt lat="50.22949" lon="4.24547">
        <ele>197</ele>
        <time>2021-02-28T08:31:00Z</time>
      </trkpt>
      <trkpt lat="50.22952" lon="4.24557">
        <ele>197</ele>
        <time>2021-02-28T08:31:02Z</time>
      </trkpt>
      <trkpt lat="50.22954" lon="4.24565">
        <ele>197</ele>
        <time>2021-02-28T08:31:04Z</time>
      </trkpt>
      <trkpt lat="50.22957" lon="4.24574">
        <ele>197</ele>
        <time>2021-02-28T08:31:06Z</time>
      </trkpt>
      <trkpt lat="50.22959" lon="4.24583">
        <ele>197</ele>
        <time>2021-02-28T08:31:08Z</time>
      </trkpt>
      <trkpt lat="50.22962" lon="4.24592">
        <ele>197</ele>
        <time>2021-02-28T08:31:10Z</time>
      </trkpt>
      <trkpt lat="50.22965" lon="4.24602">
        <ele>197</ele>
        <time>2021-02-28T08:31:12Z</time>
      </trkpt>
      <trkpt lat="50.22967" lon="4.24612">
        <ele>197</ele>
        <time>2021-02-28T08:31:14Z</time>
      </trkpt>
      <trkpt lat="50.2297" lon="4.24622">
        <ele>197</ele>
        <time>2021-02-28T08:31:16Z</time>
      </trkpt>
      <trkpt lat="50.22973" lon="4.24633">
        <ele>197</ele>
        <time>2021-02-28T08:31:18Z</time>
      </trkpt>
      <trkpt lat="50.22976" lon="4.24643">
        <ele>197</ele>
        <time>2021-02-28T08:31:20Z</time>
      </trkpt>
      <trkpt lat="50.2298" lon="4.24654">
        <ele>198</ele>
        <time>2021-02-28T08:31:22Z</time>
      </trkpt>
      <trkpt lat="50.22983" lon="4.24665">
        <ele>198</ele>
        <time>2021-02-28T08:31:24Z</time>
      </trkpt>
      <trkpt lat="50.22986" lon="4.24676">
        <ele>198</ele>
        <time>2021-02-28T08:31:26Z</time>
      </trkpt>
      <trkpt lat="50.22989" lon="4.24686">
        <ele>199</ele>
        <time>2021-02-28T08:31:28Z</time>
      </trkpt>
      <trkpt lat="50.22992" lon="4.24697">
        <ele>199</ele>
        <time>2021-02-28T08:31:30Z</time>
      </trkpt>
      <trkpt lat="50.22995" lon="4.24707">
        <ele>199</ele>
        <time>2021-02-28T08:31:32Z</time>
      </trkpt>
      <trkpt lat="50.22997" lon="4.24717">
        <ele>199</ele>
        <time>2021-02-28T08:31:34Z</time>
      </trkpt>
      <trkpt lat="50.22998" lon="4.24728">
        <ele>199</ele>
        <time>2021-02-28T08:31:36Z</time>
      </trkpt>
      <trkpt lat="50.22995" lon="4.24735">
        <ele>199</ele>
        <time>2021-02-28T08:31:38Z</time>
      </trkpt>
      <trkpt lat="50.22989" lon="4.24738">
        <ele>200</ele>
        <time>2021-02-28T08:31:39Z</time>
      </trkpt>
      <trkpt lat="50.22983" lon="4.24742">
        <ele>200</ele>
        <time>2021-02-28T08:31:42Z</time>
      </trkpt>
      <trkpt lat="50.22977" lon="4.24746">
        <ele>200</ele>
        <time>2021-02-28T08:31:44Z</time>
      </trkpt>
      <trkpt lat="50.22971" lon="4.2475">
        <ele>200</ele>
        <time>2021-02-28T08:31:46Z</time>
      </trkpt>
      <trkpt lat="50.22964" lon="4.24755">
        <ele>200</ele>
        <time>2021-02-28T08:31:48Z</time>
      </trkpt>
      <trkpt lat="50.22958" lon="4.2476">
        <ele>199</ele>
        <time>2021-02-28T08:31:50Z</time>
      </trkpt>
      <trkpt lat="50.22951" lon="4.24765">
        <ele>201</ele>
        <time>2021-02-28T08:31:52Z</time>
      </trkpt>
      <trkpt lat="50.22944" lon="4.24771">
        <ele>201</ele>
        <time>2021-02-28T08:31:54Z</time>
      </trkpt>
      <trkpt lat="50.22936" lon="4.24776">
        <ele>201</ele>
        <time>2021-02-28T08:31:56Z</time>
      </trkpt>
      <trkpt lat="50.22928" lon="4.24783">
        <ele>201</ele>
        <time>2021-02-28T08:31:58Z</time>
      </trkpt>
      <trkpt lat="50.2292" lon="4.24789">
        <ele>201</ele>
        <time>2021-02-28T08:32:00Z</time>
      </trkpt>
      <trkpt lat="50.22912" lon="4.24796">
        <ele>200</ele>
        <time>2021-02-28T08:32:02Z</time>
      </trkpt>
      <trkpt lat="50.22904" lon="4.24802">
        <ele>200</ele>
        <time>2021-02-28T08:32:04Z</time>
      </trkpt>
      <trkpt lat="50.22896" lon="4.2481">
        <ele>199</ele>
        <time>2021-02-28T08:32:06Z</time>
      </trkpt>
      <trkpt lat="50.22888" lon="4.24817">
        <ele>199</ele>
        <time>2021-02-28T08:32:08Z</time>
      </trkpt>
      <trkpt lat="50.2288" lon="4.24825">
        <ele>198</ele>
        <time>2021-02-28T08:32:10Z</time>
      </trkpt>
      <trkpt lat="50.22872" lon="4.24833">
        <ele>197</ele>
        <time>2021-02-28T08:32:12Z</time>
      </trkpt>
      <trkpt lat="50.22864" lon="4.24841">
        <ele>197</ele>
        <time>2021-02-28T08:32:14Z</time>
      </trkpt>
      <trkpt lat="50.22856" lon="4.24849">
        <ele>198</ele>
        <time>2021-02-28T08:32:16Z</time>
      </trkpt>
      <trkpt lat="50.22849" lon="4.24857">
        <ele>198</ele>
        <time>2021-02-28T08:32:18Z</time>
      </trkpt>
      <trkpt lat="50.22841" lon="4.24865">
        <ele>197</ele>
        <time>2021-02-28T08:32:20Z</time>
      </trkpt>
      <trkpt lat="50.22833" lon="4.24874">
        <ele>197</ele>
        <time>2021-02-28T08:32:22Z</time>
      </trkpt>
      <trkpt lat="50.22824" lon="4.24882">
        <ele>198</ele>
        <time>2021-02-28T08:32:24Z</time>
      </trkpt>
      <trkpt lat="50.22816" lon="4.24891">
        <ele>197</ele>
        <time>2021-02-28T08:32:26Z</time>
      </trkpt>
      <trkpt lat="50.22808" lon="4.249">
        <ele>197</ele>
        <time>2021-02-28T08:32:28Z</time>
      </trkpt>
      <trkpt lat="50.228" lon="4.2491">
        <ele>197</ele>
        <time>2021-02-28T08:32:30Z</time>
      </trkpt>
      <trkpt lat="50.22792" lon="4.24923">
        <ele>197</ele>
        <time>2021-02-28T08:32:32Z</time>
      </trkpt>
      <trkpt lat="50.22786" lon="4.24937">
        <ele>197</ele>
        <time>2021-02-28T08:32:34Z</time>
      </trkpt>
      <trkpt lat="50.22781" lon="4.24952">
        <ele>197</ele>
        <time>2021-02-28T08:32:36Z</time>
      </trkpt>
      <trkpt lat="50.22777" lon="4.24968">
        <ele>196</ele>
        <time>2021-02-28T08:32:38Z</time>
      </trkpt>
      <trkpt lat="50.22773" lon="4.24985">
        <ele>196</ele>
        <time>2021-02-28T08:32:40Z</time>
      </trkpt>
      <trkpt lat="50.22769" lon="4.25002">
        <ele>196</ele>
        <time>2021-02-28T08:32:42Z</time>
      </trkpt>
      <trkpt lat="50.22765" lon="4.2502">
        <ele>196</ele>
        <time>2021-02-28T08:32:44Z</time>
      </trkpt>
      <trkpt lat="50.22761" lon="4.25039">
        <ele>195</ele>
        <time>2021-02-28T08:32:46Z</time>
      </trkpt>
      <trkpt lat="50.22757" lon="4.25058">
        <ele>194</ele>
        <time>2021-02-28T08:32:48Z</time>
      </trkpt>
      <trkpt lat="50.22751" lon="4.25077">
        <ele>194</ele>
        <time>2021-02-28T08:32:50Z</time>
      </trkpt>
      <trkpt lat="50.22745" lon="4.25096">
        <ele>194</ele>
        <time>2021-02-28T08:32:52Z</time>
      </trkpt>
      <trkpt lat="50.22736" lon="4.25112">
        <ele>193</ele>
        <time>2021-02-28T08:32:54Z</time>
      </trkpt>
      <trkpt lat="50.22725" lon="4.25124">
        <ele>193</ele>
        <time>2021-02-28T08:32:56Z</time>
      </trkpt>
      <trkpt lat="50.22713" lon="4.25133">
        <ele>192</ele>
        <time>2021-02-28T08:32:58Z</time>
      </trkpt>
      <trkpt lat="50.22699" lon="4.25137">
        <ele>190</ele>
        <time>2021-02-28T08:33:00Z</time>
      </trkpt>
      <trkpt lat="50.22686" lon="4.25139">
        <ele>190</ele>
        <time>2021-02-28T08:33:02Z</time>
      </trkpt>
      <trkpt lat="50.22675" lon="4.25139">
        <ele>188</ele>
        <time>2021-02-28T08:33:04Z</time>
      </trkpt>
      <trkpt lat="50.22668" lon="4.25141">
        <ele>188</ele>
        <time>2021-02-28T08:33:06Z</time>
      </trkpt>
      <trkpt lat="50.22665" lon="4.25145">
        <ele>188</ele>
        <time>2021-02-28T08:33:08Z</time>
      </trkpt>
      <trkpt lat="50.22667" lon="4.25149">
        <ele>188</ele>
        <time>2021-02-28T08:33:10Z</time>
      </trkpt>
      <trkpt lat="50.22674" lon="4.25154">
        <ele>185</ele>
        <time>2021-02-28T08:33:12Z</time>
      </trkpt>
      <trkpt lat="50.22683" lon="4.25159">
        <ele>189</ele>
        <time>2021-02-28T08:33:14Z</time>
      </trkpt>
      <trkpt lat="50.22691" lon="4.25164">
        <ele>189</ele>
        <time>2021-02-28T08:33:16Z</time>
      </trkpt>
      <trkpt lat="50.22699" lon="4.25171">
        <ele>189</ele>
        <time>2021-02-28T08:33:18Z</time>
      </trkpt>
      <trkpt lat="50.22706" lon="4.25179">
        <ele>189</ele>
        <time>2021-02-28T08:33:20Z</time>
      </trkpt>
      <trkpt lat="50.22712" lon="4.25188">
        <ele>190</ele>
        <time>2021-02-28T08:33:22Z</time>
      </trkpt>
      <trkpt lat="50.22718" lon="4.25198">
        <ele>190</ele>
        <time>2021-02-28T08:33:24Z</time>
      </trkpt>
      <trkpt lat="50.22724" lon="4.25208">
        <ele>190</ele>
        <time>2021-02-28T08:33:26Z</time>
      </trkpt>
      <trkpt lat="50.22731" lon="4.25217">
        <ele>191</ele>
        <time>2021-02-28T08:33:28Z</time>
      </trkpt>
      <trkpt lat="50.22738" lon="4.25224">
        <ele>193</ele>
        <time>2021-02-28T08:33:30Z</time>
      </trkpt>
      <trkpt lat="50.22746" lon="4.25229">
        <ele>193</ele>
        <time>2021-02-28T08:33:32Z</time>
      </trkpt>
      <trkpt lat="50.22754" lon="4.25233">
        <ele>193</ele>
        <time>2021-02-28T08:33:34Z</time>
      </trkpt>
      <trkpt lat="50.22761" lon="4.25241">
        <ele>192</ele>
        <time>2021-02-28T08:33:36Z</time>
      </trkpt>
      <trkpt lat="50.22767" lon="4.25248">
        <ele>193</ele>
        <time>2021-02-28T08:33:38Z</time>
      </trkpt>
      <trkpt lat="50.22774" lon="4.25255">
        <ele>193</ele>
        <time>2021-02-28T08:33:40Z</time>
      </trkpt>
      <trkpt lat="50.2278" lon="4.25261">
        <ele>193</ele>
        <time>2021-02-28T08:33:42Z</time>
      </trkpt>
      <trkpt lat="50.22787" lon="4.25268">
        <ele>193</ele>
        <time>2021-02-28T08:33:44Z</time>
      </trkpt>
      <trkpt lat="50.22792" lon="4.25276">
        <ele>191</ele>
        <time>2021-02-28T08:33:46Z</time>
      </trkpt>
      <trkpt lat="50.22799" lon="4.25285">
        <ele>191</ele>
        <time>2021-02-28T08:33:48Z</time>
      </trkpt>
      <trkpt lat="50.22805" lon="4.25293">
        <ele>190</ele>
        <time>2021-02-28T08:33:50Z</time>
      </trkpt>
      <trkpt lat="50.22811" lon="4.25302">
        <ele>190</ele>
        <time>2021-02-28T08:33:52Z</time>
      </trkpt>
      <trkpt lat="50.22817" lon="4.25311">
        <ele>190</ele>
        <time>2021-02-28T08:33:54Z</time>
      </trkpt>
      <trkpt lat="50.22823" lon="4.25321">
        <ele>189</ele>
        <time>2021-02-28T08:33:56Z</time>
      </trkpt>
      <trkpt lat="50.22828" lon="4.25329">
        <ele>189</ele>
        <time>2021-02-28T08:33:58Z</time>
      </trkpt>
      <trkpt lat="50.22836" lon="4.25338">
        <ele>189</ele>
        <time>2021-02-28T08:34:00Z</time>
      </trkpt>
      <trkpt lat="50.22844" lon="4.25346">
        <ele>189</ele>
        <time>2021-02-28T08:34:02Z</time>
      </trkpt>
      <trkpt lat="50.22852" lon="4.25353">
        <ele>188</ele>
        <time>2021-02-28T08:34:04Z</time>
      </trkpt>
      <trkpt lat="50.22864" lon="4.25361">
        <ele>188</ele>
        <time>2021-02-28T08:34:06Z</time>
      </trkpt>
      <trkpt lat="50.22872" lon="4.25367">
        <ele>188</ele>
        <time>2021-02-28T08:34:08Z</time>
      </trkpt>
      <trkpt lat="50.22879" lon="4.25376">
        <ele>186</ele>
        <time>2021-02-28T08:34:10Z</time>
      </trkpt>
      <trkpt lat="50.22889" lon="4.25386">
        <ele>186</ele>
        <time>2021-02-28T08:34:12Z</time>
      </trkpt>
      <trkpt lat="50.22898" lon="4.25394">
        <ele>186</ele>
        <time>2021-02-28T08:34:14Z</time>
      </trkpt>
      <trkpt lat="50.22907" lon="4.25402">
        <ele>189</ele>
        <time>2021-02-28T08:34:16Z</time>
      </trkpt>
      <trkpt lat="50.22916" lon="4.25406">
        <ele>187</ele>
        <time>2021-02-28T08:34:18Z</time>
      </trkpt>
      <trkpt lat="50.22924" lon="4.25409">
        <ele>187</ele>
        <time>2021-02-28T08:34:20Z</time>
      </trkpt>
      <trkpt lat="50.22932" lon="4.25409">
        <ele>188</ele>
        <time>2021-02-28T08:34:22Z</time>
      </trkpt>
      <trkpt lat="50.2294" lon="4.25411">
        <ele>188</ele>
        <time>2021-02-28T08:34:24Z</time>
      </trkpt>
      <trkpt lat="50.22943" lon="4.25421">
        <ele>188</ele>
        <time>2021-02-28T08:34:26Z</time>
      </trkpt>
      <trkpt lat="50.22941" lon="4.25433">
        <ele>185</ele>
        <time>2021-02-28T08:34:28Z</time>
      </trkpt>
      <trkpt lat="50.22939" lon="4.25446">
        <ele>185</ele>
        <time>2021-02-28T08:34:30Z</time>
      </trkpt>
      <trkpt lat="50.22936" lon="4.25458">
        <ele>185</ele>
        <time>2021-02-28T08:34:32Z</time>
      </trkpt>
      <trkpt lat="50.22933" lon="4.25471">
        <ele>187</ele>
        <time>2021-02-28T08:34:34Z</time>
      </trkpt>
      <trkpt lat="50.2293" lon="4.25484">
        <ele>186</ele>
        <time>2021-02-28T08:34:36Z</time>
      </trkpt>
      <trkpt lat="50.22926" lon="4.25498">
        <ele>186</ele>
        <time>2021-02-28T08:34:38Z</time>
      </trkpt>
      <trkpt lat="50.22923" lon="4.25511">
        <ele>186</ele>
        <time>2021-02-28T08:34:40Z</time>
      </trkpt>
      <trkpt lat="50.2292" lon="4.25524">
        <ele>186</ele>
        <time>2021-02-28T08:34:42Z</time>
      </trkpt>
      <trkpt lat="50.22916" lon="4.25538">
        <ele>186</ele>
        <time>2021-02-28T08:34:44Z</time>
      </trkpt>
      <trkpt lat="50.22913" lon="4.25551">
        <ele>187</ele>
        <time>2021-02-28T08:34:46Z</time>
      </trkpt>
      <trkpt lat="50.2291" lon="4.25564">
        <ele>187</ele>
        <time>2021-02-28T08:34:48Z</time>
      </trkpt>
      <trkpt lat="50.22907" lon="4.25578">
        <ele>187</ele>
        <time>2021-02-28T08:34:50Z</time>
      </trkpt>
      <trkpt lat="50.22903" lon="4.25591">
        <ele>187</ele>
        <time>2021-02-28T08:34:52Z</time>
      </trkpt>
      <trkpt lat="50.22899" lon="4.25604">
        <ele>187</ele>
        <time>2021-02-28T08:34:54Z</time>
      </trkpt>
      <trkpt lat="50.22894" lon="4.25616">
        <ele>187</ele>
        <time>2021-02-28T08:34:56Z</time>
      </trkpt>
      <trkpt lat="50.22889" lon="4.25629">
        <ele>189</ele>
        <time>2021-02-28T08:34:58Z</time>
      </trkpt>
      <trkpt lat="50.22885" lon="4.25641">
        <ele>189</ele>
        <time>2021-02-28T08:35:00Z</time>
      </trkpt>
      <trkpt lat="50.22881" lon="4.25653">
        <ele>189</ele>
        <time>2021-02-28T08:35:02Z</time>
      </trkpt>
      <trkpt lat="50.22877" lon="4.25665">
        <ele>190</ele>
        <time>2021-02-28T08:35:04Z</time>
      </trkpt>
      <trkpt lat="50.22874" lon="4.25678">
        <ele>190</ele>
        <time>2021-02-28T08:35:06Z</time>
      </trkpt>
      <trkpt lat="50.22871" lon="4.25691">
        <ele>191</ele>
        <time>2021-02-28T08:35:08Z</time>
      </trkpt>
      <trkpt lat="50.22868" lon="4.25704">
        <ele>191</ele>
        <time>2021-02-28T08:35:10Z</time>
      </trkpt>
      <trkpt lat="50.22864" lon="4.25717">
        <ele>192</ele>
        <time>2021-02-28T08:35:12Z</time>
      </trkpt>
      <trkpt lat="50.22861" lon="4.2573">
        <ele>192</ele>
        <time>2021-02-28T08:35:14Z</time>
      </trkpt>
      <trkpt lat="50.22858" lon="4.25742">
        <ele>192</ele>
        <time>2021-02-28T08:35:16Z</time>
      </trkpt>
      <trkpt lat="50.22854" lon="4.25754">
        <ele>192</ele>
        <time>2021-02-28T08:35:18Z</time>
      </trkpt>
      <trkpt lat="50.22849" lon="4.25766">
        <ele>192</ele>
        <time>2021-02-28T08:35:20Z</time>
      </trkpt>
      <trkpt lat="50.22846" lon="4.25778">
        <ele>192</ele>
        <time>2021-02-28T08:35:22Z</time>
      </trkpt>
      <trkpt lat="50.22842" lon="4.25791">
        <ele>192</ele>
        <time>2021-02-28T08:35:24Z</time>
      </trkpt>
      <trkpt lat="50.22839" lon="4.25804">
        <ele>192</ele>
        <time>2021-02-28T08:35:26Z</time>
      </trkpt>
      <trkpt lat="50.22836" lon="4.25816">
        <ele>192</ele>
        <time>2021-02-28T08:35:28Z</time>
      </trkpt>
      <trkpt lat="50.22833" lon="4.25828">
        <ele>193</ele>
        <time>2021-02-28T08:35:30Z</time>
      </trkpt>
      <trkpt lat="50.22829" lon="4.2584">
        <ele>193</ele>
        <time>2021-02-28T08:35:32Z</time>
      </trkpt>
      <trkpt lat="50.22825" lon="4.25853">
        <ele>194</ele>
        <time>2021-02-28T08:35:34Z</time>
      </trkpt>
      <trkpt lat="50.22821" lon="4.25864">
        <ele>194</ele>
        <time>2021-02-28T08:35:36Z</time>
      </trkpt>
      <trkpt lat="50.22818" lon="4.25877">
        <ele>194</ele>
        <time>2021-02-28T08:35:38Z</time>
      </trkpt>
      <trkpt lat="50.22815" lon="4.25889">
        <ele>194</ele>
        <time>2021-02-28T08:35:40Z</time>
      </trkpt>
      <trkpt lat="50.22812" lon="4.25902">
        <ele>194</ele>
        <time>2021-02-28T08:35:42Z</time>
      </trkpt>
      <trkpt lat="50.22809" lon="4.25914">
        <ele>195</ele>
        <time>2021-02-28T08:35:44Z</time>
      </trkpt>
      <trkpt lat="50.22807" lon="4.25926">
        <ele>195</ele>
        <time>2021-02-28T08:35:46Z</time>
      </trkpt>
      <trkpt lat="50.22805" lon="4.25937">
        <ele>196</ele>
        <time>2021-02-28T08:35:48Z</time>
      </trkpt>
      <trkpt lat="50.22802" lon="4.25948">
        <ele>196</ele>
        <time>2021-02-28T08:35:50Z</time>
      </trkpt>
      <trkpt lat="50.228" lon="4.25959">
        <ele>197</ele>
        <time>2021-02-28T08:35:52Z</time>
      </trkpt>
      <trkpt lat="50.22797" lon="4.2597">
        <ele>197</ele>
        <time>2021-02-28T08:35:54Z</time>
      </trkpt>
      <trkpt lat="50.22794" lon="4.25982">
        <ele>197</ele>
        <time>2021-02-28T08:35:56Z</time>
      </trkpt>
      <trkpt lat="50.22792" lon="4.25993">
        <ele>196</ele>
        <time>2021-02-28T08:35:58Z</time>
      </trkpt>
      <trkpt lat="50.2279" lon="4.26003">
        <ele>198</ele>
        <time>2021-02-28T08:36:00Z</time>
      </trkpt>
      <trkpt lat="50.22788" lon="4.26015">
        <ele>200</ele>
        <time>2021-02-28T08:36:02Z</time>
      </trkpt>
      <trkpt lat="50.22786" lon="4.26027">
        <ele>200</ele>
        <time>2021-02-28T08:36:04Z</time>
      </trkpt>
      <trkpt lat="50.22784" lon="4.26038">
        <ele>200</ele>
        <time>2021-02-28T08:36:06Z</time>
      </trkpt>
      <trkpt lat="50.22783" lon="4.26049">
        <ele>200</ele>
        <time>2021-02-28T08:36:08Z</time>
      </trkpt>
      <trkpt lat="50.22781" lon="4.2606">
        <ele>200</ele>
        <time>2021-02-28T08:36:10Z</time>
      </trkpt>
      <trkpt lat="50.2278" lon="4.26071">
        <ele>201</ele>
        <time>2021-02-28T08:36:12Z</time>
      </trkpt>
      <trkpt lat="50.22778" lon="4.26082">
        <ele>201</ele>
        <time>2021-02-28T08:36:14Z</time>
      </trkpt>
      <trkpt lat="50.22776" lon="4.26093">
        <ele>201</ele>
        <time>2021-02-28T08:36:16Z</time>
      </trkpt>
      <trkpt lat="50.22775" lon="4.26104">
        <ele>201</ele>
        <time>2021-02-28T08:36:18Z</time>
      </trkpt>
      <trkpt lat="50.22773" lon="4.26115">
        <ele>201</ele>
        <time>2021-02-28T08:36:20Z</time>
      </trkpt>
      <trkpt lat="50.22771" lon="4.26125">
        <ele>202</ele>
        <time>2021-02-28T08:36:22Z</time>
      </trkpt>
      <trkpt lat="50.22769" lon="4.26136">
        <ele>202</ele>
        <time>2021-02-28T08:36:24Z</time>
      </trkpt>
      <trkpt lat="50.22767" lon="4.26147">
        <ele>202</ele>
        <time>2021-02-28T08:36:26Z</time>
      </trkpt>
      <trkpt lat="50.22765" lon="4.26157">
        <ele>203</ele>
        <time>2021-02-28T08:36:28Z</time>
      </trkpt>
      <trkpt lat="50.22763" lon="4.26166">
        <ele>203</ele>
        <time>2021-02-28T08:36:30Z</time>
      </trkpt>
      <trkpt lat="50.22761" lon="4.26176">
        <ele>203</ele>
        <time>2021-02-28T08:36:32Z</time>
      </trkpt>
      <trkpt lat="50.22759" lon="4.26186">
        <ele>204</ele>
        <time>2021-02-28T08:36:34Z</time>
      </trkpt>
      <trkpt lat="50.22757" lon="4.26196">
        <ele>204</ele>
        <time>2021-02-28T08:36:36Z</time>
      </trkpt>
      <trkpt lat="50.22755" lon="4.26206">
        <ele>204</ele>
        <time>2021-02-28T08:36:38Z</time>
      </trkpt>
      <trkpt lat="50.22754" lon="4.26217">
        <ele>205</ele>
        <time>2021-02-28T08:36:40Z</time>
      </trkpt>
      <trkpt lat="50.22753" lon="4.26228">
        <ele>205</ele>
        <time>2021-02-28T08:36:42Z</time>
      </trkpt>
      <trkpt lat="50.22753" lon="4.26239">
        <ele>206</ele>
        <time>2021-02-28T08:36:44Z</time>
      </trkpt>
      <trkpt lat="50.22752" lon="4.26249">
        <ele>206</ele>
        <time>2021-02-28T08:36:46Z</time>
      </trkpt>
      <trkpt lat="50.22751" lon="4.26259">
        <ele>206</ele>
        <time>2021-02-28T08:36:48Z</time>
      </trkpt>
      <trkpt lat="50.2275" lon="4.26269">
        <ele>207</ele>
        <time>2021-02-28T08:36:50Z</time>
      </trkpt>
      <trkpt lat="50.22749" lon="4.2628">
        <ele>207</ele>
        <time>2021-02-28T08:36:52Z</time>
      </trkpt>
      <trkpt lat="50.22747" lon="4.2629">
        <ele>207</ele>
        <time>2021-02-28T08:36:54Z</time>
      </trkpt>
      <trkpt lat="50.22746" lon="4.263">
        <ele>207</ele>
        <time>2021-02-28T08:36:56Z</time>
      </trkpt>
      <trkpt lat="50.22745" lon="4.26311">
        <ele>207</ele>
        <time>2021-02-28T08:36:58Z</time>
      </trkpt>
      <trkpt lat="50.22743" lon="4.26321">
        <ele>209</ele>
        <time>2021-02-28T08:37:00Z</time>
      </trkpt>
      <trkpt lat="50.22741" lon="4.2633">
        <ele>209</ele>
        <time>2021-02-28T08:37:02Z</time>
      </trkpt>
      <trkpt lat="50.22739" lon="4.2634">
        <ele>209</ele>
        <time>2021-02-28T08:37:04Z</time>
      </trkpt>
      <trkpt lat="50.22737" lon="4.26349">
        <ele>209</ele>
        <time>2021-02-28T08:37:06Z</time>
      </trkpt>
      <trkpt lat="50.22735" lon="4.26359">
        <ele>209</ele>
        <time>2021-02-28T08:37:08Z</time>
      </trkpt>
      <trkpt lat="50.22732" lon="4.26369">
        <ele>209</ele>
        <time>2021-02-28T08:37:10Z</time>
      </trkpt>
      <trkpt lat="50.2273" lon="4.26379">
        <ele>209</ele>
        <time>2021-02-28T08:37:12Z</time>
      </trkpt>
      <trkpt lat="50.22728" lon="4.26389">
        <ele>209</ele>
        <time>2021-02-28T08:37:14Z</time>
      </trkpt>
      <trkpt lat="50.22726" lon="4.26399">
        <ele>209</ele>
        <time>2021-02-28T08:37:16Z</time>
      </trkpt>
      <trkpt lat="50.22723" lon="4.26408">
        <ele>211</ele>
        <time>2021-02-28T08:37:18Z</time>
      </trkpt>
      <trkpt lat="50.22721" lon="4.26417">
        <ele>211</ele>
        <time>2021-02-28T08:37:20Z</time>
      </trkpt>
      <trkpt lat="50.22719" lon="4.26426">
        <ele>211</ele>
        <time>2021-02-28T08:37:22Z</time>
      </trkpt>
      <trkpt lat="50.22715" lon="4.26435">
        <ele>211</ele>
        <time>2021-02-28T08:37:24Z</time>
      </trkpt>
      <trkpt lat="50.22712" lon="4.26445">
        <ele>211</ele>
        <time>2021-02-28T08:37:26Z</time>
      </trkpt>
      <trkpt lat="50.22708" lon="4.26455">
        <ele>212</ele>
        <time>2021-02-28T08:37:28Z</time>
      </trkpt>
      <trkpt lat="50.22704" lon="4.26465">
        <ele>212</ele>
        <time>2021-02-28T08:37:30Z</time>
      </trkpt>
      <trkpt lat="50.227" lon="4.26475">
        <ele>212</ele>
        <time>2021-02-28T08:37:32Z</time>
      </trkpt>
      <trkpt lat="50.22696" lon="4.26484">
        <ele>212</ele>
        <time>2021-02-28T08:37:34Z</time>
      </trkpt>
      <trkpt lat="50.22692" lon="4.26494">
        <ele>213</ele>
        <time>2021-02-28T08:37:36Z</time>
      </trkpt>
      <trkpt lat="50.22688" lon="4.26503">
        <ele>213</ele>
        <time>2021-02-28T08:37:38Z</time>
      </trkpt>
      <trkpt lat="50.22684" lon="4.26513">
        <ele>213</ele>
        <time>2021-02-28T08:37:40Z</time>
      </trkpt>
      <trkpt lat="50.2268" lon="4.26523">
        <ele>212</ele>
        <time>2021-02-28T08:37:42Z</time>
      </trkpt>
      <trkpt lat="50.22675" lon="4.26533">
        <ele>212</ele>
        <time>2021-02-28T08:37:44Z</time>
      </trkpt>
      <trkpt lat="50.2267" lon="4.26544">
        <ele>213</ele>
        <time>2021-02-28T08:37:46Z</time>
      </trkpt>
      <trkpt lat="50.22666" lon="4.26554">
        <ele>213</ele>
        <time>2021-02-28T08:37:48Z</time>
      </trkpt>
      <trkpt lat="50.22661" lon="4.26564">
        <ele>213</ele>
        <time>2021-02-28T08:37:50Z</time>
      </trkpt>
      <trkpt lat="50.22656" lon="4.26573">
        <ele>213</ele>
        <time>2021-02-28T08:37:52Z</time>
      </trkpt>
      <trkpt lat="50.22651" lon="4.26583">
        <ele>212</ele>
        <time>2021-02-28T08:37:54Z</time>
      </trkpt>
      <trkpt lat="50.22647" lon="4.26593">
        <ele>212</ele>
        <time>2021-02-28T08:37:56Z</time>
      </trkpt>
      <trkpt lat="50.22642" lon="4.26603">
        <ele>212</ele>
        <time>2021-02-28T08:37:58Z</time>
      </trkpt>
      <trkpt lat="50.22638" lon="4.26613">
        <ele>212</ele>
        <time>2021-02-28T08:38:00Z</time>
      </trkpt>
      <trkpt lat="50.22633" lon="4.26624">
        <ele>212</ele>
        <time>2021-02-28T08:38:02Z</time>
      </trkpt>
      <trkpt lat="50.22628" lon="4.26635">
        <ele>212</ele>
        <time>2021-02-28T08:38:04Z</time>
      </trkpt>
      <trkpt lat="50.22622" lon="4.26648">
        <ele>211</ele>
        <time>2021-02-28T08:38:06Z</time>
      </trkpt>
      <trkpt lat="50.22617" lon="4.26662">
        <ele>211</ele>
        <time>2021-02-28T08:38:08Z</time>
      </trkpt>
      <trkpt lat="50.22612" lon="4.26676">
        <ele>211</ele>
        <time>2021-02-28T08:38:10Z</time>
      </trkpt>
      <trkpt lat="50.22606" lon="4.26692">
        <ele>209</ele>
        <time>2021-02-28T08:38:12Z</time>
      </trkpt>
      <trkpt lat="50.22599" lon="4.26708">
        <ele>209</ele>
        <time>2021-02-28T08:38:14Z</time>
      </trkpt>
      <trkpt lat="50.22591" lon="4.26723">
        <ele>207</ele>
        <time>2021-02-28T08:38:16Z</time>
      </trkpt>
      <trkpt lat="50.22582" lon="4.2674">
        <ele>205</ele>
        <time>2021-02-28T08:38:18Z</time>
      </trkpt>
      <trkpt lat="50.22572" lon="4.2676">
        <ele>205</ele>
        <time>2021-02-28T08:38:20Z</time>
      </trkpt>
      <trkpt lat="50.22561" lon="4.26783">
        <ele>200</ele>
        <time>2021-02-28T08:38:22Z</time>
      </trkpt>
      <trkpt lat="50.22549" lon="4.26808">
        <ele>200</ele>
        <time>2021-02-28T08:38:24Z</time>
      </trkpt>
      <trkpt lat="50.22538" lon="4.26832">
        <ele>199</ele>
        <time>2021-02-28T08:38:26Z</time>
      </trkpt>
      <trkpt lat="50.22529" lon="4.26853">
        <ele>200</ele>
        <time>2021-02-28T08:38:28Z</time>
      </trkpt>
      <trkpt lat="50.22521" lon="4.26872">
        <ele>200</ele>
        <time>2021-02-28T08:38:30Z</time>
      </trkpt>
      <trkpt lat="50.22514" lon="4.26889">
        <ele>202</ele>
        <time>2021-02-28T08:38:32Z</time>
      </trkpt>
      <trkpt lat="50.22509" lon="4.26904">
        <ele>202</ele>
        <time>2021-02-28T08:38:34Z</time>
      </trkpt>
      <trkpt lat="50.22505" lon="4.26918">
        <ele>202</ele>
        <time>2021-02-28T08:38:36Z</time>
      </trkpt>
      <trkpt lat="50.225" lon="4.26929">
        <ele>202</ele>
        <time>2021-02-28T08:38:38Z</time>
      </trkpt>
      <trkpt lat="50.22495" lon="4.26941">
        <ele>202</ele>
        <time>2021-02-28T08:38:40Z</time>
      </trkpt>
      <trkpt lat="50.2249" lon="4.26953">
        <ele>202</ele>
        <time>2021-02-28T08:38:42Z</time>
      </trkpt>
      <trkpt lat="50.22485" lon="4.26965">
        <ele>203</ele>
        <time>2021-02-28T08:38:44Z</time>
      </trkpt>
      <trkpt lat="50.2248" lon="4.26977">
        <ele>203</ele>
        <time>2021-02-28T08:38:46Z</time>
      </trkpt>
      <trkpt lat="50.22477" lon="4.2699">
        <ele>201</ele>
        <time>2021-02-28T08:38:48Z</time>
      </trkpt>
      <trkpt lat="50.22471" lon="4.27002">
        <ele>201</ele>
        <time>2021-02-28T08:38:50Z</time>
      </trkpt>
      <trkpt lat="50.22466" lon="4.27014">
        <ele>204</ele>
        <time>2021-02-28T08:38:52Z</time>
      </trkpt>
      <trkpt lat="50.2246" lon="4.27025">
        <ele>204</ele>
        <time>2021-02-28T08:38:54Z</time>
      </trkpt>
      <trkpt lat="50.22455" lon="4.27035">
        <ele>206</ele>
        <time>2021-02-28T08:38:56Z</time>
      </trkpt>
      <trkpt lat="50.2245" lon="4.27045">
        <ele>207</ele>
        <time>2021-02-28T08:38:58Z</time>
      </trkpt>
      <trkpt lat="50.22445" lon="4.27054">
        <ele>207</ele>
        <time>2021-02-28T08:39:00Z</time>
      </trkpt>
      <trkpt lat="50.22439" lon="4.27062">
        <ele>207</ele>
        <time>2021-02-28T08:39:02Z</time>
      </trkpt>
      <trkpt lat="50.22433" lon="4.2707">
        <ele>207</ele>
        <time>2021-02-28T08:39:04Z</time>
      </trkpt>
      <trkpt lat="50.22429" lon="4.27079">
        <ele>208</ele>
        <time>2021-02-28T08:39:06Z</time>
      </trkpt>
      <trkpt lat="50.22424" lon="4.27088">
        <ele>208</ele>
        <time>2021-02-28T08:39:08Z</time>
      </trkpt>
      <trkpt lat="50.22419" lon="4.27096">
        <ele>208</ele>
        <time>2021-02-28T08:39:10Z</time>
      </trkpt>
      <trkpt lat="50.22415" lon="4.27104">
        <ele>210</ele>
        <time>2021-02-28T08:39:12Z</time>
      </trkpt>
      <trkpt lat="50.22411" lon="4.27113">
        <ele>210</ele>
        <time>2021-02-28T08:39:14Z</time>
      </trkpt>
      <trkpt lat="50.22406" lon="4.27121">
        <ele>210</ele>
        <time>2021-02-28T08:39:16Z</time>
      </trkpt>
      <trkpt lat="50.22402" lon="4.27129">
        <ele>210</ele>
        <time>2021-02-28T08:39:18Z</time>
      </trkpt>
      <trkpt lat="50.22397" lon="4.27138">
        <ele>210</ele>
        <time>2021-02-28T08:39:20Z</time>
      </trkpt>
      <trkpt lat="50.22393" lon="4.27147">
        <ele>210</ele>
        <time>2021-02-28T08:39:22Z</time>
      </trkpt>
      <trkpt lat="50.22388" lon="4.27155">
        <ele>210</ele>
        <time>2021-02-28T08:39:24Z</time>
      </trkpt>
      <trkpt lat="50.22384" lon="4.27163">
        <ele>210</ele>
        <time>2021-02-28T08:39:26Z</time>
      </trkpt>
      <trkpt lat="50.22379" lon="4.27171">
        <ele>210</ele>
        <time>2021-02-28T08:39:28Z</time>
      </trkpt>
      <trkpt lat="50.22375" lon="4.27178">
        <ele>210</ele>
        <time>2021-02-28T08:39:30Z</time>
      </trkpt>
      <trkpt lat="50.22371" lon="4.27184">
        <ele>213</ele>
        <time>2021-02-28T08:39:32Z</time>
      </trkpt>
      <trkpt lat="50.22367" lon="4.27191">
        <ele>213</ele>
        <time>2021-02-28T08:39:34Z</time>
      </trkpt>
      <trkpt lat="50.22363" lon="4.27197">
        <ele>213</ele>
        <time>2021-02-28T08:39:36Z</time>
      </trkpt>
      <trkpt lat="50.2236" lon="4.27204">
        <ele>213</ele>
        <time>2021-02-28T08:39:38Z</time>
      </trkpt>
      <trkpt lat="50.22356" lon="4.27212">
        <ele>213</ele>
        <time>2021-02-28T08:39:40Z</time>
      </trkpt>
      <trkpt lat="50.22353" lon="4.27219">
        <ele>213</ele>
        <time>2021-02-28T08:39:42Z</time>
      </trkpt>
      <trkpt lat="50.22349" lon="4.27227">
        <ele>213</ele>
        <time>2021-02-28T08:39:44Z</time>
      </trkpt>
      <trkpt lat="50.22345" lon="4.27234">
        <ele>215</ele>
        <time>2021-02-28T08:39:46Z</time>
      </trkpt>
      <trkpt lat="50.22342" lon="4.27241">
        <ele>215</ele>
        <time>2021-02-28T08:39:48Z</time>
      </trkpt>
      <trkpt lat="50.22338" lon="4.27249">
        <ele>215</ele>
        <time>2021-02-28T08:39:50Z</time>
      </trkpt>
      <trkpt lat="50.22334" lon="4.27257">
        <ele>215</ele>
        <time>2021-02-28T08:39:52Z</time>
      </trkpt>
      <trkpt lat="50.22331" lon="4.27265">
        <ele>216</ele>
        <time>2021-02-28T08:39:54Z</time>
      </trkpt>
      <trkpt lat="50.22327" lon="4.27272">
        <ele>216</ele>
        <time>2021-02-28T08:39:56Z</time>
      </trkpt>
      <trkpt lat="50.22322" lon="4.27279">
        <ele>216</ele>
        <time>2021-02-28T08:39:58Z</time>
      </trkpt>
      <trkpt lat="50.22318" lon="4.27287">
        <ele>216</ele>
        <time>2021-02-28T08:40:00Z</time>
      </trkpt>
      <trkpt lat="50.22313" lon="4.27294">
        <ele>215</ele>
        <time>2021-02-28T08:40:02Z</time>
      </trkpt>
      <trkpt lat="50.22308" lon="4.27301">
        <ele>215</ele>
        <time>2021-02-28T08:40:04Z</time>
      </trkpt>
      <trkpt lat="50.22304" lon="4.27309">
        <ele>215</ele>
        <time>2021-02-28T08:40:06Z</time>
      </trkpt>
      <trkpt lat="50.22299" lon="4.27316">
        <ele>215</ele>
        <time>2021-02-28T08:40:08Z</time>
      </trkpt>
      <trkpt lat="50.22294" lon="4.27323">
        <ele>216</ele>
        <time>2021-02-28T08:40:10Z</time>
      </trkpt>
      <trkpt lat="50.22289" lon="4.2733">
        <ele>214</ele>
        <time>2021-02-28T08:40:12Z</time>
      </trkpt>
      <trkpt lat="50.22283" lon="4.27336">
        <ele>214</ele>
        <time>2021-02-28T08:40:14Z</time>
      </trkpt>
      <trkpt lat="50.22279" lon="4.27342">
        <ele>214</ele>
        <time>2021-02-28T08:40:16Z</time>
      </trkpt>
      <trkpt lat="50.22274" lon="4.27348">
        <ele>214</ele>
        <time>2021-02-28T08:40:18Z</time>
      </trkpt>
      <trkpt lat="50.22268" lon="4.27354">
        <ele>214</ele>
        <time>2021-02-28T08:40:20Z</time>
      </trkpt>
      <trkpt lat="50.22262" lon="4.2736">
        <ele>213</ele>
        <time>2021-02-28T08:40:22Z</time>
      </trkpt>
      <trkpt lat="50.22256" lon="4.27366">
        <ele>213</ele>
        <time>2021-02-28T08:40:24Z</time>
      </trkpt>
      <trkpt lat="50.2225" lon="4.27374">
        <ele>213</ele>
        <time>2021-02-28T08:40:26Z</time>
      </trkpt>
      <trkpt lat="50.22242" lon="4.2738">
        <ele>212</ele>
        <time>2021-02-28T08:40:28Z</time>
      </trkpt>
      <trkpt lat="50.22234" lon="4.27388">
        <ele>212</ele>
        <time>2021-02-28T08:40:30Z</time>
      </trkpt>
      <trkpt lat="50.22225" lon="4.27395">
        <ele>212</ele>
        <time>2021-02-28T08:40:32Z</time>
      </trkpt>
      <trkpt lat="50.22218" lon="4.27401">
        <ele>212</ele>
        <time>2021-02-28T08:40:34Z</time>
      </trkpt>
      <trkpt lat="50.22213" lon="4.27406">
        <ele>211</ele>
        <time>2021-02-28T08:40:36Z</time>
      </trkpt>
      <trkpt lat="50.22208" lon="4.2741">
        <ele>209</ele>
        <time>2021-02-28T08:40:38Z</time>
      </trkpt>
      <trkpt lat="50.22205" lon="4.27414">
        <ele>209</ele>
        <time>2021-02-28T08:40:40Z</time>
      </trkpt>
      <trkpt lat="50.22202" lon="4.27417">
        <ele>209</ele>
        <time>2021-02-28T08:40:42Z</time>
      </trkpt>
      <trkpt lat="50.22199" lon="4.2742">
        <ele>209</ele>
        <time>2021-02-28T08:40:44Z</time>
      </trkpt>
      <trkpt lat="50.22195" lon="4.27424">
        <ele>209</ele>
        <time>2021-02-28T08:40:46Z</time>
      </trkpt>
      <trkpt lat="50.22192" lon="4.27427">
        <ele>209</ele>
        <time>2021-02-28T08:40:48Z</time>
      </trkpt>
      <trkpt lat="50.22188" lon="4.2743">
        <ele>209</ele>
        <time>2021-02-28T08:40:50Z</time>
      </trkpt>
      <trkpt lat="50.22184" lon="4.27434">
        <ele>209</ele>
        <time>2021-02-28T08:40:52Z</time>
      </trkpt>
      <trkpt lat="50.22181" lon="4.27438">
        <ele>209</ele>
        <time>2021-02-28T08:40:54Z</time>
      </trkpt>
      <trkpt lat="50.22179" lon="4.2744">
        <ele>207</ele>
        <time>2021-02-28T08:40:56Z</time>
      </trkpt>
      <trkpt lat="50.22176" lon="4.27444">
        <ele>207</ele>
        <time>2021-02-28T08:40:58Z</time>
      </trkpt>
      <trkpt lat="50.22173" lon="4.27447">
        <ele>207</ele>
        <time>2021-02-28T08:41:00Z</time>
      </trkpt>
      <trkpt lat="50.2217" lon="4.27452">
        <ele>207</ele>
        <time>2021-02-28T08:41:02Z</time>
      </trkpt>
      <trkpt lat="50.22166" lon="4.27455">
        <ele>207</ele>
        <time>2021-02-28T08:41:04Z</time>
      </trkpt>
      <trkpt lat="50.22163" lon="4.27459">
        <ele>206</ele>
        <time>2021-02-28T08:41:06Z</time>
      </trkpt>
      <trkpt lat="50.22161" lon="4.27462">
        <ele>206</ele>
        <time>2021-02-28T08:41:08Z</time>
      </trkpt>
      <trkpt lat="50.22158" lon="4.27467">
        <ele>206</ele>
        <time>2021-02-28T08:41:10Z</time>
      </trkpt>
      <trkpt lat="50.22155" lon="4.27471">
        <ele>206</ele>
        <time>2021-02-28T08:41:12Z</time>
      </trkpt>
      <trkpt lat="50.22153" lon="4.27476">
        <ele>204</ele>
        <time>2021-02-28T08:41:14Z</time>
      </trkpt>
      <trkpt lat="50.2215" lon="4.27481">
        <ele>204</ele>
        <time>2021-02-28T08:41:16Z</time>
      </trkpt>
      <trkpt lat="50.22147" lon="4.27486">
        <ele>204</ele>
        <time>2021-02-28T08:41:18Z</time>
      </trkpt>
      <trkpt lat="50.22144" lon="4.27491">
        <ele>203</ele>
        <time>2021-02-28T08:41:20Z</time>
      </trkpt>
      <trkpt lat="50.22141" lon="4.27498">
        <ele>203</ele>
        <time>2021-02-28T08:41:22Z</time>
      </trkpt>
      <trkpt lat="50.22138" lon="4.27506">
        <ele>203</ele>
        <time>2021-02-28T08:41:24Z</time>
      </trkpt>
      <trkpt lat="50.22136" lon="4.27513">
        <ele>203</ele>
        <time>2021-02-28T08:41:26Z</time>
      </trkpt>
      <trkpt lat="50.22133" lon="4.27521">
        <ele>202</ele>
        <time>2021-02-28T08:41:28Z</time>
      </trkpt>
      <trkpt lat="50.22131" lon="4.27529">
        <ele>202</ele>
        <time>2021-02-28T08:41:30Z</time>
      </trkpt>
      <trkpt lat="50.22129" lon="4.27536">
        <ele>202</ele>
        <time>2021-02-28T08:41:32Z</time>
      </trkpt>
      <trkpt lat="50.22126" lon="4.27544">
        <ele>200</ele>
        <time>2021-02-28T08:41:34Z</time>
      </trkpt>
      <trkpt lat="50.22124" lon="4.27551">
        <ele>200</ele>
        <time>2021-02-28T08:41:36Z</time>
      </trkpt>
      <trkpt lat="50.22122" lon="4.27559">
        <ele>200</ele>
        <time>2021-02-28T08:41:38Z</time>
      </trkpt>
      <trkpt lat="50.22119" lon="4.27568">
        <ele>200</ele>
        <time>2021-02-28T08:41:40Z</time>
      </trkpt>
      <trkpt lat="50.22117" lon="4.27577">
        <ele>199</ele>
        <time>2021-02-28T08:41:42Z</time>
      </trkpt>
      <trkpt lat="50.22113" lon="4.27587">
        <ele>199</ele>
        <time>2021-02-28T08:41:44Z</time>
      </trkpt>
      <trkpt lat="50.2211" lon="4.27598">
        <ele>198</ele>
        <time>2021-02-28T08:41:46Z</time>
      </trkpt>
      <trkpt lat="50.22107" lon="4.2761">
        <ele>198</ele>
        <time>2021-02-28T08:41:48Z</time>
      </trkpt>
      <trkpt lat="50.22103" lon="4.27623">
        <ele>198</ele>
        <time>2021-02-28T08:41:50Z</time>
      </trkpt>
      <trkpt lat="50.22098" lon="4.27637">
        <ele>198</ele>
        <time>2021-02-28T08:41:52Z</time>
      </trkpt>
      <trkpt lat="50.22094" lon="4.27653">
        <ele>196</ele>
        <time>2021-02-28T08:41:54Z</time>
      </trkpt>
      <trkpt lat="50.22089" lon="4.27672">
        <ele>196</ele>
        <time>2021-02-28T08:41:56Z</time>
      </trkpt>
      <trkpt lat="50.22084" lon="4.27692">
        <ele>195</ele>
        <time>2021-02-28T08:41:58Z</time>
      </trkpt>
      <trkpt lat="50.22078" lon="4.27713">
        <ele>194</ele>
        <time>2021-02-28T08:42:00Z</time>
      </trkpt>
      <trkpt lat="50.2207" lon="4.27735">
        <ele>194</ele>
        <time>2021-02-28T08:42:02Z</time>
      </trkpt>
      <trkpt lat="50.22062" lon="4.27757">
        <ele>192</ele>
        <time>2021-02-28T08:42:04Z</time>
      </trkpt>
      <trkpt lat="50.22052" lon="4.27779">
        <ele>192</ele>
        <time>2021-02-28T08:42:06Z</time>
      </trkpt>
      <trkpt lat="50.22042" lon="4.27798">
        <ele>193</ele>
        <time>2021-02-28T08:42:08Z</time>
      </trkpt>
      <trkpt lat="50.22031" lon="4.27816">
        <ele>193</ele>
        <time>2021-02-28T08:42:10Z</time>
      </trkpt>
      <trkpt lat="50.22022" lon="4.27832">
        <ele>196</ele>
        <time>2021-02-28T08:42:12Z</time>
      </trkpt>
      <trkpt lat="50.22014" lon="4.27843">
        <ele>196</ele>
        <time>2021-02-28T08:42:14Z</time>
      </trkpt>
      <trkpt lat="50.22007" lon="4.27851">
        <ele>197</ele>
        <time>2021-02-28T08:42:16Z</time>
      </trkpt>
      <trkpt lat="50.22001" lon="4.2786">
        <ele>197</ele>
        <time>2021-02-28T08:42:18Z</time>
      </trkpt>
      <trkpt lat="50.21996" lon="4.27869">
        <ele>197</ele>
        <time>2021-02-28T08:42:20Z</time>
      </trkpt>
      <trkpt lat="50.21993" lon="4.27882">
        <ele>200</ele>
        <time>2021-02-28T08:42:22Z</time>
      </trkpt>
      <trkpt lat="50.21991" lon="4.27894">
        <ele>200</ele>
        <time>2021-02-28T08:42:24Z</time>
      </trkpt>
      <trkpt lat="50.21988" lon="4.27907">
        <ele>200</ele>
        <time>2021-02-28T08:42:26Z</time>
      </trkpt>
      <trkpt lat="50.21987" lon="4.2792">
        <ele>200</ele>
        <time>2021-02-28T08:42:28Z</time>
      </trkpt>
      <trkpt lat="50.21986" lon="4.27934">
        <ele>197</ele>
        <time>2021-02-28T08:42:30Z</time>
      </trkpt>
      <trkpt lat="50.21986" lon="4.27947">
        <ele>203</ele>
        <time>2021-02-28T08:42:32Z</time>
      </trkpt>
      <trkpt lat="50.21988" lon="4.27961">
        <ele>201</ele>
        <time>2021-02-28T08:42:34Z</time>
      </trkpt>
      <trkpt lat="50.21992" lon="4.27973">
        <ele>201</ele>
        <time>2021-02-28T08:42:36Z</time>
      </trkpt>
      <trkpt lat="50.21998" lon="4.27984">
        <ele>201</ele>
        <time>2021-02-28T08:42:38Z</time>
      </trkpt>
      <trkpt lat="50.22005" lon="4.27994">
        <ele>201</ele>
        <time>2021-02-28T08:42:40Z</time>
      </trkpt>
      <trkpt lat="50.22012" lon="4.28002">
        <ele>201</ele>
        <time>2021-02-28T08:42:42Z</time>
      </trkpt>
      <trkpt lat="50.2202" lon="4.28008">
        <ele>203</ele>
        <time>2021-02-28T08:42:44Z</time>
      </trkpt>
      <trkpt lat="50.22028" lon="4.28014">
        <ele>203</ele>
        <time>2021-02-28T08:42:46Z</time>
      </trkpt>
      <trkpt lat="50.22036" lon="4.28018">
        <ele>203</ele>
        <time>2021-02-28T08:42:48Z</time>
      </trkpt>
      <trkpt lat="50.22042" lon="4.28022">
        <ele>205</ele>
        <time>2021-02-28T08:42:50Z</time>
      </trkpt>
      <trkpt lat="50.22046" lon="4.28025">
        <ele>205</ele>
        <time>2021-02-28T08:42:52Z</time>
      </trkpt>
      <trkpt lat="50.22046" lon="4.28031">
        <ele>205</ele>
        <time>2021-02-28T08:42:54Z</time>
      </trkpt>
      <trkpt lat="50.22043" lon="4.28038">
        <ele>205</ele>
        <time>2021-02-28T08:42:56Z</time>
      </trkpt>
      <trkpt lat="50.22038" lon="4.28046">
        <ele>203</ele>
        <time>2021-02-28T08:42:58Z</time>
      </trkpt>
      <trkpt lat="50.22034" lon="4.28054">
        <ele>203</ele>
        <time>2021-02-28T08:43:00Z</time>
      </trkpt>
      <trkpt lat="50.2203" lon="4.28063">
        <ele>203</ele>
        <time>2021-02-28T08:43:02Z</time>
      </trkpt>
      <trkpt lat="50.22028" lon="4.28074">
        <ele>202</ele>
        <time>2021-02-28T08:43:04Z</time>
      </trkpt>
      <trkpt lat="50.22026" lon="4.28084">
        <ele>202</ele>
        <time>2021-02-28T08:43:06Z</time>
      </trkpt>
      <trkpt lat="50.22025" lon="4.28094">
        <ele>202</ele>
        <time>2021-02-28T08:43:08Z</time>
      </trkpt>
      <trkpt lat="50.22026" lon="4.28102">
        <ele>201</ele>
        <time>2021-02-28T08:43:10Z</time>
      </trkpt>
      <trkpt lat="50.22026" lon="4.28105">
        <ele>201</ele>
        <time>2021-02-28T08:43:12Z</time>
      </trkpt>
      <trkpt lat="50.22022" lon="4.28108">
        <ele>201</ele>
        <time>2021-02-28T08:43:14Z</time>
      </trkpt>
      <trkpt lat="50.22017" lon="4.2811">
        <ele>201</ele>
        <time>2021-02-28T08:43:16Z</time>
      </trkpt>
      <trkpt lat="50.2201" lon="4.28114">
        <ele>198</ele>
        <time>2021-02-28T08:43:18Z</time>
      </trkpt>
      <trkpt lat="50.22003" lon="4.2812">
        <ele>198</ele>
        <time>2021-02-28T08:43:20Z</time>
      </trkpt>
      <trkpt lat="50.21999" lon="4.2813">
        <ele>197</ele>
        <time>2021-02-28T08:43:22Z</time>
      </trkpt>
      <trkpt lat="50.22001" lon="4.28141">
        <ele>197</ele>
        <time>2021-02-28T08:43:24Z</time>
      </trkpt>
      <trkpt lat="50.22004" lon="4.28152">
        <ele>197</ele>
        <time>2021-02-28T08:43:26Z</time>
      </trkpt>
      <trkpt lat="50.22006" lon="4.28162">
        <ele>197</ele>
        <time>2021-02-28T08:43:28Z</time>
      </trkpt>
      <trkpt lat="50.22004" lon="4.28173">
        <ele>197</ele>
        <time>2021-02-28T08:43:30Z</time>
      </trkpt>
      <trkpt lat="50.21999" lon="4.28181">
        <ele>194</ele>
        <time>2021-02-28T08:43:32Z</time>
      </trkpt>
      <trkpt lat="50.21992" lon="4.28188">
        <ele>194</ele>
        <time>2021-02-28T08:43:34Z</time>
      </trkpt>
      <trkpt lat="50.21985" lon="4.2819">
        <ele>192</ele>
        <time>2021-02-28T08:43:36Z</time>
      </trkpt>
      <trkpt lat="50.21981" lon="4.28191">
        <ele>192</ele>
        <time>2021-02-28T08:43:38Z</time>
      </trkpt>
      <trkpt lat="50.2198" lon="4.28192">
        <ele>192</ele>
        <time>2021-02-28T08:43:40Z</time>
      </trkpt>
      <trkpt lat="50.21978" lon="4.282">
        <ele>192</ele>
        <time>2021-02-28T08:43:42Z</time>
      </trkpt>
      <trkpt lat="50.21976" lon="4.2821">
        <ele>191</ele>
        <time>2021-02-28T08:43:44Z</time>
      </trkpt>
      <trkpt lat="50.21974" lon="4.28223">
        <ele>191</ele>
        <time>2021-02-28T08:43:46Z</time>
      </trkpt>
      <trkpt lat="50.21973" lon="4.28241">
        <ele>189</ele>
        <time>2021-02-28T08:43:48Z</time>
      </trkpt>
      <trkpt lat="50.21976" lon="4.28257">
        <ele>189</ele>
        <time>2021-02-28T08:43:50Z</time>
      </trkpt>
      <trkpt lat="50.21981" lon="4.28267">
        <ele>188</ele>
        <time>2021-02-28T08:43:52Z</time>
      </trkpt>
      <trkpt lat="50.21986" lon="4.28274">
        <ele>188</ele>
        <time>2021-02-28T08:43:54Z</time>
      </trkpt>
      <trkpt lat="50.21994" lon="4.2828">
        <ele>188</ele>
        <time>2021-02-28T08:43:56Z</time>
      </trkpt>
      <trkpt lat="50.22001" lon="4.28287">
        <ele>188</ele>
        <time>2021-02-28T08:43:58Z</time>
      </trkpt>
      <trkpt lat="50.22008" lon="4.28295">
        <ele>188</ele>
        <time>2021-02-28T08:44:00Z</time>
      </trkpt>
      <trkpt lat="50.22015" lon="4.28302">
        <ele>190</ele>
        <time>2021-02-28T08:44:02Z</time>
      </trkpt>
      <trkpt lat="50.22022" lon="4.28309">
        <ele>190</ele>
        <time>2021-02-28T08:44:04Z</time>
      </trkpt>
      <trkpt lat="50.22029" lon="4.28319">
        <ele>190</ele>
        <time>2021-02-28T08:44:06Z</time>
      </trkpt>
      <trkpt lat="50.22035" lon="4.28329">
        <ele>188</ele>
        <time>2021-02-28T08:44:08Z</time>
      </trkpt>
      <trkpt lat="50.2204" lon="4.28342">
        <ele>188</ele>
        <time>2021-02-28T08:44:10Z</time>
      </trkpt>
      <trkpt lat="50.22044" lon="4.28354">
        <ele>192</ele>
        <time>2021-02-28T08:44:12Z</time>
      </trkpt>
      <trkpt lat="50.22047" lon="4.28367">
        <ele>192</ele>
        <time>2021-02-28T08:44:14Z</time>
      </trkpt>
      <trkpt lat="50.22047" lon="4.28381">
        <ele>193</ele>
        <time>2021-02-28T08:44:16Z</time>
      </trkpt>
      <trkpt lat="50.22047" lon="4.28395">
        <ele>193</ele>
        <time>2021-02-28T08:44:18Z</time>
      </trkpt>
      <trkpt lat="50.22048" lon="4.28408">
        <ele>193</ele>
        <time>2021-02-28T08:44:20Z</time>
      </trkpt>
      <trkpt lat="50.22048" lon="4.28422">
        <ele>193</ele>
        <time>2021-02-28T08:44:22Z</time>
      </trkpt>
      <trkpt lat="50.22047" lon="4.28435">
        <ele>196</ele>
        <time>2021-02-28T08:44:24Z</time>
      </trkpt>
      <trkpt lat="50.22044" lon="4.28449">
        <ele>196</ele>
        <time>2021-02-28T08:44:26Z</time>
      </trkpt>
      <trkpt lat="50.22041" lon="4.28463">
        <ele>193</ele>
        <time>2021-02-28T08:44:28Z</time>
      </trkpt>
      <trkpt lat="50.22036" lon="4.28478">
        <ele>193</ele>
        <time>2021-02-28T08:44:30Z</time>
      </trkpt>
      <trkpt lat="50.22031" lon="4.28492">
        <ele>193</ele>
        <time>2021-02-28T08:44:32Z</time>
      </trkpt>
      <trkpt lat="50.22026" lon="4.28505">
        <ele>193</ele>
        <time>2021-02-28T08:44:34Z</time>
      </trkpt>
      <trkpt lat="50.2202" lon="4.28518">
        <ele>195</ele>
        <time>2021-02-28T08:44:36Z</time>
      </trkpt>
      <trkpt lat="50.22014" lon="4.2853">
        <ele>195</ele>
        <time>2021-02-28T08:44:38Z</time>
      </trkpt>
      <trkpt lat="50.22009" lon="4.28541">
        <ele>192</ele>
        <time>2021-02-28T08:44:40Z</time>
      </trkpt>
      <trkpt lat="50.22004" lon="4.28553">
        <ele>192</ele>
        <time>2021-02-28T08:44:42Z</time>
      </trkpt>
      <trkpt lat="50.21999" lon="4.28562">
        <ele>192</ele>
        <time>2021-02-28T08:44:44Z</time>
      </trkpt>
      <trkpt lat="50.21997" lon="4.28572">
        <ele>194</ele>
        <time>2021-02-28T08:44:46Z</time>
      </trkpt>
      <trkpt lat="50.21996" lon="4.28584">
        <ele>194</ele>
        <time>2021-02-28T08:44:48Z</time>
      </trkpt>
      <trkpt lat="50.21999" lon="4.28597">
        <ele>194</ele>
        <time>2021-02-28T08:44:50Z</time>
      </trkpt>
      <trkpt lat="50.22003" lon="4.28607">
        <ele>195</ele>
        <time>2021-02-28T08:44:52Z</time>
      </trkpt>
      <trkpt lat="50.22007" lon="4.28616">
        <ele>195</ele>
        <time>2021-02-28T08:44:54Z</time>
      </trkpt>
      <trkpt lat="50.22014" lon="4.2862">
        <ele>195</ele>
        <time>2021-02-28T08:44:56Z</time>
      </trkpt>
      <trkpt lat="50.2202" lon="4.28621">
        <ele>199</ele>
        <time>2021-02-28T08:44:58Z</time>
      </trkpt>
      <trkpt lat="50.22026" lon="4.28621">
        <ele>199</ele>
        <time>2021-02-28T08:45:00Z</time>
      </trkpt>
      <trkpt lat="50.22034" lon="4.2862">
        <ele>199</ele>
        <time>2021-02-28T08:45:02Z</time>
      </trkpt>
      <trkpt lat="50.22041" lon="4.28621">
        <ele>199</ele>
        <time>2021-02-28T08:45:04Z</time>
      </trkpt>
      <trkpt lat="50.22048" lon="4.28623">
        <ele>201</ele>
        <time>2021-02-28T08:45:06Z</time>
      </trkpt>
      <trkpt lat="50.22055" lon="4.28623">
        <ele>201</ele>
        <time>2021-02-28T08:45:08Z</time>
      </trkpt>
      <trkpt lat="50.22062" lon="4.28623">
        <ele>201</ele>
        <time>2021-02-28T08:45:10Z</time>
      </trkpt>
      <trkpt lat="50.22067" lon="4.28625">
        <ele>198</ele>
        <time>2021-02-28T08:45:12Z</time>
      </trkpt>
      <trkpt lat="50.22076" lon="4.28627">
        <ele>200</ele>
        <time>2021-02-28T08:45:14Z</time>
      </trkpt>
      <trkpt lat="50.22085" lon="4.28626">
        <ele>200</ele>
        <time>2021-02-28T08:45:16Z</time>
      </trkpt>
      <trkpt lat="50.22094" lon="4.2863">
        <ele>200</ele>
        <time>2021-02-28T08:45:18Z</time>
      </trkpt>
      <trkpt lat="50.22103" lon="4.28632">
        <ele>200</ele>
        <time>2021-02-28T08:45:20Z</time>
      </trkpt>
      <trkpt lat="50.22112" lon="4.28636">
        <ele>200</ele>
        <time>2021-02-28T08:45:22Z</time>
      </trkpt>
      <trkpt lat="50.22119" lon="4.2864">
        <ele>200</ele>
        <time>2021-02-28T08:45:24Z</time>
      </trkpt>
      <trkpt lat="50.22126" lon="4.28642">
        <ele>201</ele>
        <time>2021-02-28T08:45:26Z</time>
      </trkpt>
      <trkpt lat="50.22132" lon="4.28644">
        <ele>201</ele>
        <time>2021-02-28T08:45:28Z</time>
      </trkpt>
      <trkpt lat="50.22137" lon="4.28646">
        <ele>201</ele>
        <time>2021-02-28T08:45:30Z</time>
      </trkpt>
      <trkpt lat="50.22143" lon="4.2865">
        <ele>201</ele>
        <time>2021-02-28T08:45:32Z</time>
      </trkpt>
      <trkpt lat="50.22149" lon="4.28653">
        <ele>200</ele>
        <time>2021-02-28T08:45:34Z</time>
      </trkpt>
      <trkpt lat="50.22154" lon="4.28657">
        <ele>202</ele>
        <time>2021-02-28T08:45:36Z</time>
      </trkpt>
      <trkpt lat="50.22157" lon="4.28664">
        <ele>202</ele>
        <time>2021-02-28T08:45:38Z</time>
      </trkpt>
      <trkpt lat="50.22162" lon="4.28671">
        <ele>202</ele>
        <time>2021-02-28T08:45:40Z</time>
      </trkpt>
      <trkpt lat="50.22166" lon="4.28682">
        <ele>201</ele>
        <time>2021-02-28T08:45:42Z</time>
      </trkpt>
      <trkpt lat="50.2217" lon="4.28693">
        <ele>201</ele>
        <time>2021-02-28T08:45:44Z</time>
      </trkpt>
      <trkpt lat="50.22172" lon="4.28705">
        <ele>201</ele>
        <time>2021-02-28T08:45:46Z</time>
      </trkpt>
      <trkpt lat="50.22176" lon="4.28716">
        <ele>202</ele>
        <time>2021-02-28T08:45:48Z</time>
      </trkpt>
      <trkpt lat="50.2218" lon="4.28728">
        <ele>202</ele>
        <time>2021-02-28T08:45:50Z</time>
      </trkpt>
      <trkpt lat="50.22184" lon="4.2874">
        <ele>202</ele>
        <time>2021-02-28T08:45:52Z</time>
      </trkpt>
      <trkpt lat="50.22187" lon="4.28752">
        <ele>202</ele>
        <time>2021-02-28T08:45:54Z</time>
      </trkpt>
      <trkpt lat="50.22191" lon="4.28763">
        <ele>202</ele>
        <time>2021-02-28T08:45:56Z</time>
      </trkpt>
      <trkpt lat="50.22195" lon="4.28774">
        <ele>199</ele>
        <time>2021-02-28T08:45:58Z</time>
      </trkpt>
      <trkpt lat="50.22198" lon="4.28784">
        <ele>199</ele>
        <time>2021-02-28T08:46:00Z</time>
      </trkpt>
      <trkpt lat="50.22201" lon="4.28795">
        <ele>200</ele>
        <time>2021-02-28T08:46:02Z</time>
      </trkpt>
      <trkpt lat="50.22205" lon="4.28806">
        <ele>200</ele>
        <time>2021-02-28T08:46:04Z</time>
      </trkpt>
      <trkpt lat="50.22209" lon="4.28817">
        <ele>200</ele>
        <time>2021-02-28T08:46:06Z</time>
      </trkpt>
      <trkpt lat="50.22212" lon="4.28829">
        <ele>196</ele>
        <time>2021-02-28T08:46:08Z</time>
      </trkpt>
      <trkpt lat="50.22215" lon="4.2884">
        <ele>196</ele>
        <time>2021-02-28T08:46:10Z</time>
      </trkpt>
      <trkpt lat="50.22218" lon="4.28852">
        <ele>198</ele>
        <time>2021-02-28T08:46:12Z</time>
      </trkpt>
      <trkpt lat="50.2222" lon="4.28863">
        <ele>198</ele>
        <time>2021-02-28T08:46:14Z</time>
      </trkpt>
      <trkpt lat="50.22222" lon="4.28875">
        <ele>196</ele>
        <time>2021-02-28T08:46:16Z</time>
      </trkpt>
      <trkpt lat="50.22224" lon="4.28886">
        <ele>196</ele>
        <time>2021-02-28T08:46:18Z</time>
      </trkpt>
      <trkpt lat="50.22228" lon="4.28896">
        <ele>196</ele>
        <time>2021-02-28T08:46:20Z</time>
      </trkpt>
      <trkpt lat="50.22231" lon="4.28906">
        <ele>199</ele>
        <time>2021-02-28T08:46:22Z</time>
      </trkpt>
      <trkpt lat="50.22234" lon="4.28916">
        <ele>199</ele>
        <time>2021-02-28T08:46:24Z</time>
      </trkpt>
      <trkpt lat="50.22236" lon="4.28928">
        <ele>199</ele>
        <time>2021-02-28T08:46:26Z</time>
      </trkpt>
      <trkpt lat="50.22238" lon="4.28939">
        <ele>200</ele>
        <time>2021-02-28T08:46:28Z</time>
      </trkpt>
      <trkpt lat="50.2224" lon="4.28951">
        <ele>200</ele>
        <time>2021-02-28T08:46:30Z</time>
      </trkpt>
      <trkpt lat="50.22242" lon="4.28962">
        <ele>201</ele>
        <time>2021-02-28T08:46:32Z</time>
      </trkpt>
      <trkpt lat="50.22243" lon="4.28974">
        <ele>201</ele>
        <time>2021-02-28T08:46:34Z</time>
      </trkpt>
      <trkpt lat="50.22244" lon="4.28986">
        <ele>201</ele>
        <time>2021-02-28T08:46:36Z</time>
      </trkpt>
      <trkpt lat="50.22245" lon="4.28996">
        <ele>201</ele>
        <time>2021-02-28T08:46:38Z</time>
      </trkpt>
      <trkpt lat="50.22246" lon="4.29007">
        <ele>201</ele>
        <time>2021-02-28T08:46:40Z</time>
      </trkpt>
      <trkpt lat="50.22246" lon="4.29016">
        <ele>201</ele>
        <time>2021-02-28T08:46:42Z</time>
      </trkpt>
      <trkpt lat="50.22247" lon="4.29026">
        <ele>201</ele>
        <time>2021-02-28T08:46:44Z</time>
      </trkpt>
      <trkpt lat="50.22249" lon="4.29038">
        <ele>201</ele>
        <time>2021-02-28T08:46:46Z</time>
      </trkpt>
      <trkpt lat="50.2225" lon="4.2905">
        <ele>202</ele>
        <time>2021-02-28T08:46:48Z</time>
      </trkpt>
      <trkpt lat="50.22251" lon="4.29062">
        <ele>202</ele>
        <time>2021-02-28T08:46:50Z</time>
      </trkpt>
      <trkpt lat="50.22252" lon="4.29074">
        <ele>202</ele>
        <time>2021-02-28T08:46:52Z</time>
      </trkpt>
      <trkpt lat="50.22253" lon="4.29087">
        <ele>202</ele>
        <time>2021-02-28T08:46:54Z</time>
      </trkpt>
      <trkpt lat="50.22254" lon="4.29099">
        <ele>202</ele>
        <time>2021-02-28T08:46:56Z</time>
      </trkpt>
      <trkpt lat="50.22254" lon="4.29112">
        <ele>202</ele>
        <time>2021-02-28T08:46:58Z</time>
      </trkpt>
      <trkpt lat="50.22255" lon="4.29125">
        <ele>202</ele>
        <time>2021-02-28T08:47:00Z</time>
      </trkpt>
      <trkpt lat="50.22257" lon="4.29137">
        <ele>202</ele>
        <time>2021-02-28T08:47:02Z</time>
      </trkpt>
      <trkpt lat="50.22257" lon="4.2915">
        <ele>202</ele>
        <time>2021-02-28T08:47:04Z</time>
      </trkpt>
      <trkpt lat="50.22259" lon="4.29162">
        <ele>200</ele>
        <time>2021-02-28T08:47:06Z</time>
      </trkpt>
      <trkpt lat="50.2226" lon="4.29174">
        <ele>200</ele>
        <time>2021-02-28T08:47:08Z</time>
      </trkpt>
      <trkpt lat="50.22261" lon="4.29185">
        <ele>200</ele>
        <time>2021-02-28T08:47:10Z</time>
      </trkpt>
      <trkpt lat="50.22266" lon="4.29197">
        <ele>202</ele>
        <time>2021-02-28T08:47:12Z</time>
      </trkpt>
      <trkpt lat="50.2227" lon="4.29209">
        <ele>202</ele>
        <time>2021-02-28T08:47:14Z</time>
      </trkpt>
      <trkpt lat="50.22275" lon="4.29221">
        <ele>202</ele>
        <time>2021-02-28T08:47:16Z</time>
      </trkpt>
      <trkpt lat="50.22277" lon="4.29235">
        <ele>202</ele>
        <time>2021-02-28T08:47:18Z</time>
      </trkpt>
      <trkpt lat="50.22277" lon="4.29249">
        <ele>201</ele>
        <time>2021-02-28T08:47:20Z</time>
      </trkpt>
      <trkpt lat="50.22274" lon="4.29262">
        <ele>201</ele>
        <time>2021-02-28T08:47:22Z</time>
      </trkpt>
      <trkpt lat="50.22271" lon="4.29278">
        <ele>202</ele>
        <time>2021-02-28T08:47:24Z</time>
      </trkpt>
      <trkpt lat="50.22271" lon="4.29291">
        <ele>202</ele>
        <time>2021-02-28T08:47:26Z</time>
      </trkpt>
      <trkpt lat="50.22271" lon="4.29304">
        <ele>202</ele>
        <time>2021-02-28T08:47:28Z</time>
      </trkpt>
      <trkpt lat="50.2227" lon="4.29317">
        <ele>202</ele>
        <time>2021-02-28T08:47:30Z</time>
      </trkpt>
      <trkpt lat="50.22269" lon="4.29327">
        <ele>204</ele>
        <time>2021-02-28T08:47:32Z</time>
      </trkpt>
      <trkpt lat="50.22266" lon="4.29338">
        <ele>204</ele>
        <time>2021-02-28T08:47:34Z</time>
      </trkpt>
      <trkpt lat="50.22266" lon="4.29351">
        <ele>204</ele>
        <time>2021-02-28T08:47:36Z</time>
      </trkpt>
      <trkpt lat="50.22268" lon="4.29362">
        <ele>204</ele>
        <time>2021-02-28T08:47:38Z</time>
      </trkpt>
      <trkpt lat="50.22269" lon="4.29372">
        <ele>204</ele>
        <time>2021-02-28T08:47:40Z</time>
      </trkpt>
      <trkpt lat="50.22269" lon="4.29383">
        <ele>207</ele>
        <time>2021-02-28T08:47:42Z</time>
      </trkpt>
      <trkpt lat="50.22266" lon="4.29394">
        <ele>207</ele>
        <time>2021-02-28T08:47:44Z</time>
      </trkpt>
      <trkpt lat="50.22264" lon="4.29405">
        <ele>208</ele>
        <time>2021-02-28T08:47:46Z</time>
      </trkpt>
      <trkpt lat="50.22261" lon="4.29416">
        <ele>208</ele>
        <time>2021-02-28T08:47:48Z</time>
      </trkpt>
      <trkpt lat="50.22258" lon="4.29428">
        <ele>208</ele>
        <time>2021-02-28T08:47:50Z</time>
      </trkpt>
      <trkpt lat="50.22256" lon="4.29438">
        <ele>210</ele>
        <time>2021-02-28T08:47:52Z</time>
      </trkpt>
      <trkpt lat="50.22253" lon="4.29447">
        <ele>210</ele>
        <time>2021-02-28T08:47:54Z</time>
      </trkpt>
      <trkpt lat="50.22251" lon="4.29456">
        <ele>210</ele>
        <time>2021-02-28T08:47:56Z</time>
      </trkpt>
      <trkpt lat="50.22249" lon="4.29466">
        <ele>212</ele>
        <time>2021-02-28T08:47:58Z</time>
      </trkpt>
      <trkpt lat="50.22247" lon="4.29476">
        <ele>212</ele>
        <time>2021-02-28T08:48:00Z</time>
      </trkpt>
      <trkpt lat="50.22245" lon="4.29483">
        <ele>212</ele>
        <time>2021-02-28T08:48:02Z</time>
      </trkpt>
      <trkpt lat="50.22245" lon="4.29494">
        <ele>213</ele>
        <time>2021-02-28T08:48:04Z</time>
      </trkpt>
      <trkpt lat="50.22245" lon="4.29505">
        <ele>213</ele>
        <time>2021-02-28T08:48:06Z</time>
      </trkpt>
      <trkpt lat="50.22245" lon="4.29518">
        <ele>214</ele>
        <time>2021-02-28T08:48:08Z</time>
      </trkpt>
      <trkpt lat="50.22246" lon="4.29528">
        <ele>214</ele>
        <time>2021-02-28T08:48:10Z</time>
      </trkpt>
      <trkpt lat="50.22245" lon="4.29537">
        <ele>214</ele>
        <time>2021-02-28T08:48:11Z</time>
      </trkpt>
      <trkpt lat="50.22245" lon="4.29546">
        <ele>215</ele>
        <time>2021-02-28T08:48:14Z</time>
      </trkpt>
      <trkpt lat="50.22245" lon="4.29556">
        <ele>215</ele>
        <time>2021-02-28T08:48:16Z</time>
      </trkpt>
      <trkpt lat="50.22245" lon="4.29566">
        <ele>215</ele>
        <time>2021-02-28T08:48:18Z</time>
      </trkpt>
      <trkpt lat="50.22246" lon="4.29576">
        <ele>215</ele>
        <time>2021-02-28T08:48:20Z</time>
      </trkpt>
      <trkpt lat="50.22247" lon="4.29586">
        <ele>215</ele>
        <time>2021-02-28T08:48:22Z</time>
      </trkpt>
      <trkpt lat="50.22249" lon="4.29599">
        <ele>215</ele>
        <time>2021-02-28T08:48:24Z</time>
      </trkpt>
      <trkpt lat="50.2225" lon="4.29611">
        <ele>215</ele>
        <time>2021-02-28T08:48:26Z</time>
      </trkpt>
      <trkpt lat="50.2225" lon="4.29623">
        <ele>215</ele>
        <time>2021-02-28T08:48:28Z</time>
      </trkpt>
      <trkpt lat="50.22252" lon="4.29636">
        <ele>215</ele>
        <time>2021-02-28T08:48:30Z</time>
      </trkpt>
      <trkpt lat="50.22253" lon="4.29648">
        <ele>215</ele>
        <time>2021-02-28T08:48:32Z</time>
      </trkpt>
      <trkpt lat="50.22254" lon="4.29659">
        <ele>216</ele>
        <time>2021-02-28T08:48:34Z</time>
      </trkpt>
      <trkpt lat="50.22255" lon="4.29671">
        <ele>216</ele>
        <time>2021-02-28T08:48:36Z</time>
      </trkpt>
      <trkpt lat="50.22256" lon="4.29683">
        <ele>215</ele>
        <time>2021-02-28T08:48:38Z</time>
      </trkpt>
      <trkpt lat="50.22258" lon="4.29695">
        <ele>215</ele>
        <time>2021-02-28T08:48:40Z</time>
      </trkpt>
      <trkpt lat="50.22261" lon="4.29706">
        <ele>215</ele>
        <time>2021-02-28T08:48:42Z</time>
      </trkpt>
      <trkpt lat="50.22262" lon="4.29719">
        <ele>217</ele>
        <time>2021-02-28T08:48:44Z</time>
      </trkpt>
      <trkpt lat="50.22263" lon="4.29732">
        <ele>217</ele>
        <time>2021-02-28T08:48:46Z</time>
      </trkpt>
      <trkpt lat="50.22263" lon="4.29744">
        <ele>217</ele>
        <time>2021-02-28T08:48:48Z</time>
      </trkpt>
      <trkpt lat="50.22262" lon="4.29757">
        <ele>217</ele>
        <time>2021-02-28T08:48:50Z</time>
      </trkpt>
      <trkpt lat="50.22261" lon="4.2977">
        <ele>219</ele>
        <time>2021-02-28T08:48:52Z</time>
      </trkpt>
      <trkpt lat="50.2226" lon="4.29783">
        <ele>219</ele>
        <time>2021-02-28T08:48:54Z</time>
      </trkpt>
      <trkpt lat="50.22258" lon="4.29796">
        <ele>218</ele>
        <time>2021-02-28T08:48:56Z</time>
      </trkpt>
      <trkpt lat="50.22256" lon="4.29808">
        <ele>218</ele>
        <time>2021-02-28T08:48:58Z</time>
      </trkpt>
      <trkpt lat="50.22255" lon="4.29822">
        <ele>220</ele>
        <time>2021-02-28T08:49:00Z</time>
      </trkpt>
      <trkpt lat="50.22253" lon="4.29835">
        <ele>220</ele>
        <time>2021-02-28T08:49:02Z</time>
      </trkpt>
      <trkpt lat="50.22252" lon="4.29849">
        <ele>219</ele>
        <time>2021-02-28T08:49:04Z</time>
      </trkpt>
      <trkpt lat="50.22252" lon="4.29863">
        <ele>219</ele>
        <time>2021-02-28T08:49:06Z</time>
      </trkpt>
      <trkpt lat="50.2225" lon="4.29877">
        <ele>220</ele>
        <time>2021-02-28T08:49:08Z</time>
      </trkpt>
      <trkpt lat="50.2225" lon="4.2989">
        <ele>220</ele>
        <time>2021-02-28T08:49:10Z</time>
      </trkpt>
      <trkpt lat="50.2225" lon="4.29905">
        <ele>220</ele>
        <time>2021-02-28T08:49:12Z</time>
      </trkpt>
      <trkpt lat="50.2225" lon="4.29916">
        <ele>220</ele>
        <time>2021-02-28T08:49:14Z</time>
      </trkpt>
      <trkpt lat="50.22252" lon="4.29932">
        <ele>220</ele>
        <time>2021-02-28T08:49:16Z</time>
      </trkpt>
      <trkpt lat="50.22256" lon="4.29944">
        <ele>220</ele>
        <time>2021-02-28T08:49:18Z</time>
      </trkpt>
      <trkpt lat="50.22261" lon="4.29956">
        <ele>220</ele>
        <time>2021-02-28T08:49:20Z</time>
      </trkpt>
      <trkpt lat="50.22265" lon="4.29968">
        <ele>220</ele>
        <time>2021-02-28T08:49:22Z</time>
      </trkpt>
      <trkpt lat="50.22265" lon="4.29978">
        <ele>220</ele>
        <time>2021-02-28T08:49:24Z</time>
      </trkpt>
      <trkpt lat="50.2226" lon="4.2998">
        <ele>220</ele>
        <time>2021-02-28T08:49:26Z</time>
      </trkpt>
      <trkpt lat="50.22254" lon="4.29978">
        <ele>220</ele>
        <time>2021-02-28T08:49:28Z</time>
      </trkpt>
      <trkpt lat="50.22249" lon="4.29974">
        <ele>220</ele>
        <time>2021-02-28T08:49:30Z</time>
      </trkpt>
      <trkpt lat="50.22242" lon="4.29969">
        <ele>220</ele>
        <time>2021-02-28T08:49:32Z</time>
      </trkpt>
      <trkpt lat="50.22236" lon="4.29962">
        <ele>220</ele>
        <time>2021-02-28T08:49:34Z</time>
      </trkpt>
      <trkpt lat="50.22232" lon="4.29951">
        <ele>219</ele>
        <time>2021-02-28T08:49:36Z</time>
      </trkpt>
      <trkpt lat="50.22229" lon="4.2994">
        <ele>219</ele>
        <time>2021-02-28T08:49:38Z</time>
      </trkpt>
      <trkpt lat="50.22225" lon="4.29929">
        <ele>219</ele>
        <time>2021-02-28T08:49:40Z</time>
      </trkpt>
      <trkpt lat="50.22219" lon="4.2992">
        <ele>219</ele>
        <time>2021-02-28T08:49:42Z</time>
      </trkpt>
      <trkpt lat="50.2221" lon="4.29916">
        <ele>219</ele>
        <time>2021-02-28T08:49:44Z</time>
      </trkpt>
      <trkpt lat="50.22201" lon="4.29913">
        <ele>218</ele>
        <time>2021-02-28T08:49:46Z</time>
      </trkpt>
      <trkpt lat="50.22192" lon="4.29911">
        <ele>218</ele>
        <time>2021-02-28T08:49:48Z</time>
      </trkpt>
      <trkpt lat="50.22183" lon="4.29908">
        <ele>218</ele>
        <time>2021-02-28T08:49:50Z</time>
      </trkpt>
      <trkpt lat="50.22175" lon="4.29904">
        <ele>218</ele>
        <time>2021-02-28T08:49:52Z</time>
      </trkpt>
      <trkpt lat="50.22166" lon="4.299">
        <ele>217</ele>
        <time>2021-02-28T08:49:54Z</time>
      </trkpt>
      <trkpt lat="50.22158" lon="4.29896">
        <ele>217</ele>
        <time>2021-02-28T08:49:56Z</time>
      </trkpt>
      <trkpt lat="50.22149" lon="4.2989">
        <ele>220</ele>
        <time>2021-02-28T08:49:58Z</time>
      </trkpt>
      <trkpt lat="50.22141" lon="4.29884">
        <ele>220</ele>
        <time>2021-02-28T08:50:00Z</time>
      </trkpt>
      <trkpt lat="50.22133" lon="4.29878">
        <ele>220</ele>
        <time>2021-02-28T08:50:02Z</time>
      </trkpt>
      <trkpt lat="50.22125" lon="4.29871">
        <ele>222</ele>
        <time>2021-02-28T08:50:04Z</time>
      </trkpt>
      <trkpt lat="50.22118" lon="4.29864">
        <ele>222</ele>
        <time>2021-02-28T08:50:06Z</time>
      </trkpt>
      <trkpt lat="50.22112" lon="4.29856">
        <ele>222</ele>
        <time>2021-02-28T08:50:08Z</time>
      </trkpt>
      <trkpt lat="50.22109" lon="4.29845">
        <ele>222</ele>
        <time>2021-02-28T08:50:10Z</time>
      </trkpt>
      <trkpt lat="50.22108" lon="4.29833">
        <ele>222</ele>
        <time>2021-02-28T08:50:12Z</time>
      </trkpt>
      <trkpt lat="50.22107" lon="4.2982">
        <ele>222</ele>
        <time>2021-02-28T08:50:14Z</time>
      </trkpt>
      <trkpt lat="50.22107" lon="4.29806">
        <ele>221</ele>
        <time>2021-02-28T08:50:16Z</time>
      </trkpt>
      <trkpt lat="50.22106" lon="4.29791">
        <ele>222</ele>
        <time>2021-02-28T08:50:18Z</time>
      </trkpt>
      <trkpt lat="50.22105" lon="4.29774">
        <ele>222</ele>
        <time>2021-02-28T08:50:20Z</time>
      </trkpt>
      <trkpt lat="50.22104" lon="4.29757">
        <ele>221</ele>
        <time>2021-02-28T08:50:22Z</time>
      </trkpt>
      <trkpt lat="50.22103" lon="4.29739">
        <ele>221</ele>
        <time>2021-02-28T08:50:24Z</time>
      </trkpt>
      <trkpt lat="50.22102" lon="4.2972">
        <ele>222</ele>
        <time>2021-02-28T08:50:26Z</time>
      </trkpt>
      <trkpt lat="50.22102" lon="4.29701">
        <ele>220</ele>
        <time>2021-02-28T08:50:28Z</time>
      </trkpt>
      <trkpt lat="50.22102" lon="4.29682">
        <ele>220</ele>
        <time>2021-02-28T08:50:30Z</time>
      </trkpt>
      <trkpt lat="50.22102" lon="4.29663">
        <ele>220</ele>
        <time>2021-02-28T08:50:32Z</time>
      </trkpt>
      <trkpt lat="50.22102" lon="4.29644">
        <ele>219</ele>
        <time>2021-02-28T08:50:34Z</time>
      </trkpt>
      <trkpt lat="50.22102" lon="4.29625">
        <ele>219</ele>
        <time>2021-02-28T08:50:36Z</time>
      </trkpt>
      <trkpt lat="50.22102" lon="4.29607">
        <ele>219</ele>
        <time>2021-02-28T08:50:38Z</time>
      </trkpt>
      <trkpt lat="50.22102" lon="4.2959">
        <ele>218</ele>
        <time>2021-02-28T08:50:40Z</time>
      </trkpt>
      <trkpt lat="50.221" lon="4.29572">
        <ele>218</ele>
        <time>2021-02-28T08:50:42Z</time>
      </trkpt>
      <trkpt lat="50.22099" lon="4.29554">
        <ele>217</ele>
        <time>2021-02-28T08:50:44Z</time>
      </trkpt>
      <trkpt lat="50.22097" lon="4.29536">
        <ele>220</ele>
        <time>2021-02-28T08:50:46Z</time>
      </trkpt>
      <trkpt lat="50.22094" lon="4.29519">
        <ele>220</ele>
        <time>2021-02-28T08:50:48Z</time>
      </trkpt>
      <trkpt lat="50.2209" lon="4.29502">
        <ele>219</ele>
        <time>2021-02-28T08:50:50Z</time>
      </trkpt>
      <trkpt lat="50.22086" lon="4.29486">
        <ele>218</ele>
        <time>2021-02-28T08:50:52Z</time>
      </trkpt>
      <trkpt lat="50.22084" lon="4.29469">
        <ele>218</ele>
        <time>2021-02-28T08:50:54Z</time>
      </trkpt>
      <trkpt lat="50.22082" lon="4.29453">
        <ele>218</ele>
        <time>2021-02-28T08:50:56Z</time>
      </trkpt>
      <trkpt lat="50.2208" lon="4.29437">
        <ele>218</ele>
        <time>2021-02-28T08:50:58Z</time>
      </trkpt>
      <trkpt lat="50.22078" lon="4.29421">
        <ele>217</ele>
        <time>2021-02-28T08:51:00Z</time>
      </trkpt>
      <trkpt lat="50.22075" lon="4.29406">
        <ele>217</ele>
        <time>2021-02-28T08:51:02Z</time>
      </trkpt>
      <trkpt lat="50.22072" lon="4.29391">
        <ele>220</ele>
        <time>2021-02-28T08:51:04Z</time>
      </trkpt>
      <trkpt lat="50.22067" lon="4.2938">
        <ele>222</ele>
        <time>2021-02-28T08:51:06Z</time>
      </trkpt>
      <trkpt lat="50.22059" lon="4.29374">
        <ele>222</ele>
        <time>2021-02-28T08:51:08Z</time>
      </trkpt>
      <trkpt lat="50.22051" lon="4.29376">
        <ele>222</ele>
        <time>2021-02-28T08:51:10Z</time>
      </trkpt>
      <trkpt lat="50.22044" lon="4.29382">
        <ele>222</ele>
        <time>2021-02-28T08:51:12Z</time>
      </trkpt>
      <trkpt lat="50.22036" lon="4.29386">
        <ele>224</ele>
        <time>2021-02-28T08:51:14Z</time>
      </trkpt>
      <trkpt lat="50.22028" lon="4.29389">
        <ele>224</ele>
        <time>2021-02-28T08:51:16Z</time>
      </trkpt>
      <trkpt lat="50.2202" lon="4.29389">
        <ele>224</ele>
        <time>2021-02-28T08:51:18Z</time>
      </trkpt>
      <trkpt lat="50.22012" lon="4.29386">
        <ele>227</ele>
        <time>2021-02-28T08:51:20Z</time>
      </trkpt>
      <trkpt lat="50.22003" lon="4.29381">
        <ele>227</ele>
        <time>2021-02-28T08:51:22Z</time>
      </trkpt>
      <trkpt lat="50.21997" lon="4.29374">
        <ele>228</ele>
        <time>2021-02-28T08:51:24Z</time>
      </trkpt>
      <trkpt lat="50.21991" lon="4.29368">
        <ele>228</ele>
        <time>2021-02-28T08:51:26Z</time>
      </trkpt>
      <trkpt lat="50.21986" lon="4.29363">
        <ele>231</ele>
        <time>2021-02-28T08:51:28Z</time>
      </trkpt>
      <trkpt lat="50.21981" lon="4.29359">
        <ele>231</ele>
        <time>2021-02-28T08:51:30Z</time>
      </trkpt>
      <trkpt lat="50.21974" lon="4.29357">
        <ele>231</ele>
        <time>2021-02-28T08:51:32Z</time>
      </trkpt>
      <trkpt lat="50.21969" lon="4.2936">
        <ele>231</ele>
        <time>2021-02-28T08:51:34Z</time>
      </trkpt>
      <trkpt lat="50.21964" lon="4.29367">
        <ele>231</ele>
        <time>2021-02-28T08:51:36Z</time>
      </trkpt>
      <trkpt lat="50.2196" lon="4.29376">
        <ele>233</ele>
        <time>2021-02-28T08:51:38Z</time>
      </trkpt>
      <trkpt lat="50.21956" lon="4.29385">
        <ele>235</ele>
        <time>2021-02-28T08:51:40Z</time>
      </trkpt>
      <trkpt lat="50.21954" lon="4.29395">
        <ele>235</ele>
        <time>2021-02-28T08:51:42Z</time>
      </trkpt>
      <trkpt lat="50.2195" lon="4.29404">
        <ele>234</ele>
        <time>2021-02-28T08:51:44Z</time>
      </trkpt>
      <trkpt lat="50.21946" lon="4.29413">
        <ele>234</ele>
        <time>2021-02-28T08:51:46Z</time>
      </trkpt>
      <trkpt lat="50.21943" lon="4.29422">
        <ele>234</ele>
        <time>2021-02-28T08:51:48Z</time>
      </trkpt>
      <trkpt lat="50.21939" lon="4.29431">
        <ele>234</ele>
        <time>2021-02-28T08:51:50Z</time>
      </trkpt>
      <trkpt lat="50.21935" lon="4.2944">
        <ele>234</ele>
        <time>2021-02-28T08:51:52Z</time>
      </trkpt>
      <trkpt lat="50.2193" lon="4.29449">
        <ele>235</ele>
        <time>2021-02-28T08:51:54Z</time>
      </trkpt>
      <trkpt lat="50.21927" lon="4.29458">
        <ele>235</ele>
        <time>2021-02-28T08:51:56Z</time>
      </trkpt>
      <trkpt lat="50.21922" lon="4.29467">
        <ele>234</ele>
        <time>2021-02-28T08:51:58Z</time>
      </trkpt>
      <trkpt lat="50.21918" lon="4.29475">
        <ele>234</ele>
        <time>2021-02-28T08:52:00Z</time>
      </trkpt>
      <trkpt lat="50.21913" lon="4.29483">
        <ele>234</ele>
        <time>2021-02-28T08:52:02Z</time>
      </trkpt>
      <trkpt lat="50.21907" lon="4.2949">
        <ele>233</ele>
        <time>2021-02-28T08:52:04Z</time>
      </trkpt>
      <trkpt lat="50.21902" lon="4.29498">
        <ele>234</ele>
        <time>2021-02-28T08:52:06Z</time>
      </trkpt>
      <trkpt lat="50.21896" lon="4.29504">
        <ele>234</ele>
        <time>2021-02-28T08:52:08Z</time>
      </trkpt>
      <trkpt lat="50.2189" lon="4.29511">
        <ele>234</ele>
        <time>2021-02-28T08:52:10Z</time>
      </trkpt>
      <trkpt lat="50.21884" lon="4.29518">
        <ele>234</ele>
        <time>2021-02-28T08:52:12Z</time>
      </trkpt>
      <trkpt lat="50.21878" lon="4.29524">
        <ele>234</ele>
        <time>2021-02-28T08:52:14Z</time>
      </trkpt>
      <trkpt lat="50.21872" lon="4.2953">
        <ele>235</ele>
        <time>2021-02-28T08:52:16Z</time>
      </trkpt>
      <trkpt lat="50.21866" lon="4.29536">
        <ele>235</ele>
        <time>2021-02-28T08:52:18Z</time>
      </trkpt>
      <trkpt lat="50.2186" lon="4.29542">
        <ele>235</ele>
        <time>2021-02-28T08:52:20Z</time>
      </trkpt>
      <trkpt lat="50.21854" lon="4.29548">
        <ele>235</ele>
        <time>2021-02-28T08:52:22Z</time>
      </trkpt>
      <trkpt lat="50.21848" lon="4.29553">
        <ele>235</ele>
        <time>2021-02-28T08:52:24Z</time>
      </trkpt>
      <trkpt lat="50.21842" lon="4.2956">
        <ele>235</ele>
        <time>2021-02-28T08:52:26Z</time>
      </trkpt>
      <trkpt lat="50.21836" lon="4.29566">
        <ele>235</ele>
        <time>2021-02-28T08:52:28Z</time>
      </trkpt>
      <trkpt lat="50.2183" lon="4.29572">
        <ele>235</ele>
        <time>2021-02-28T08:52:30Z</time>
      </trkpt>
      <trkpt lat="50.21824" lon="4.29578">
        <ele>235</ele>
        <time>2021-02-28T08:52:32Z</time>
      </trkpt>
      <trkpt lat="50.21819" lon="4.29585">
        <ele>235</ele>
        <time>2021-02-28T08:52:34Z</time>
      </trkpt>
      <trkpt lat="50.21813" lon="4.29592">
        <ele>235</ele>
        <time>2021-02-28T08:52:36Z</time>
      </trkpt>
      <trkpt lat="50.21808" lon="4.296">
        <ele>235</ele>
        <time>2021-02-28T08:52:38Z</time>
      </trkpt>
      <trkpt lat="50.21805" lon="4.2961">
        <ele>235</ele>
        <time>2021-02-28T08:52:40Z</time>
      </trkpt>
      <trkpt lat="50.21803" lon="4.29622">
        <ele>235</ele>
        <time>2021-02-28T08:52:42Z</time>
      </trkpt>
      <trkpt lat="50.21803" lon="4.29634">
        <ele>237</ele>
        <time>2021-02-28T08:52:44Z</time>
      </trkpt>
      <trkpt lat="50.21803" lon="4.29645">
        <ele>237</ele>
        <time>2021-02-28T08:52:46Z</time>
      </trkpt>
      <trkpt lat="50.21802" lon="4.29657">
        <ele>237</ele>
        <time>2021-02-28T08:52:48Z</time>
      </trkpt>
      <trkpt lat="50.21801" lon="4.29669">
        <ele>237</ele>
        <time>2021-02-28T08:52:50Z</time>
      </trkpt>
      <trkpt lat="50.21802" lon="4.2968">
        <ele>237</ele>
        <time>2021-02-28T08:52:52Z</time>
      </trkpt>
      <trkpt lat="50.21801" lon="4.29691">
        <ele>237</ele>
        <time>2021-02-28T08:52:54Z</time>
      </trkpt>
      <trkpt lat="50.21801" lon="4.29702">
        <ele>237</ele>
        <time>2021-02-28T08:52:56Z</time>
      </trkpt>
      <trkpt lat="50.218" lon="4.29712">
        <ele>238</ele>
        <time>2021-02-28T08:52:58Z</time>
      </trkpt>
      <trkpt lat="50.218" lon="4.29721">
        <ele>238</ele>
        <time>2021-02-28T08:53:00Z</time>
      </trkpt>
      <trkpt lat="50.21799" lon="4.29731">
        <ele>238</ele>
        <time>2021-02-28T08:53:02Z</time>
      </trkpt>
      <trkpt lat="50.21798" lon="4.29739">
        <ele>237</ele>
        <time>2021-02-28T08:53:04Z</time>
      </trkpt>
      <trkpt lat="50.21797" lon="4.29748">
        <ele>237</ele>
        <time>2021-02-28T08:53:06Z</time>
      </trkpt>
      <trkpt lat="50.21796" lon="4.29758">
        <ele>237</ele>
        <time>2021-02-28T08:53:08Z</time>
      </trkpt>
      <trkpt lat="50.21795" lon="4.29768">
        <ele>236</ele>
        <time>2021-02-28T08:53:10Z</time>
      </trkpt>
      <trkpt lat="50.21795" lon="4.29777">
        <ele>236</ele>
        <time>2021-02-28T08:53:12Z</time>
      </trkpt>
      <trkpt lat="50.21793" lon="4.29787">
        <ele>236</ele>
        <time>2021-02-28T08:53:14Z</time>
      </trkpt>
      <trkpt lat="50.21793" lon="4.29797">
        <ele>236</ele>
        <time>2021-02-28T08:53:16Z</time>
      </trkpt>
      <trkpt lat="50.21792" lon="4.29807">
        <ele>236</ele>
        <time>2021-02-28T08:53:18Z</time>
      </trkpt>
      <trkpt lat="50.21791" lon="4.29819">
        <ele>237</ele>
        <time>2021-02-28T08:53:20Z</time>
      </trkpt>
      <trkpt lat="50.2179" lon="4.29832">
        <ele>237</ele>
        <time>2021-02-28T08:53:22Z</time>
      </trkpt>
      <trkpt lat="50.21789" lon="4.29845">
        <ele>237</ele>
        <time>2021-02-28T08:53:24Z</time>
      </trkpt>
      <trkpt lat="50.21788" lon="4.29857">
        <ele>237</ele>
        <time>2021-02-28T08:53:26Z</time>
      </trkpt>
      <trkpt lat="50.21787" lon="4.29869">
        <ele>237</ele>
        <time>2021-02-28T08:53:28Z</time>
      </trkpt>
      <trkpt lat="50.21785" lon="4.29881">
        <ele>236</ele>
        <time>2021-02-28T08:53:30Z</time>
      </trkpt>
      <trkpt lat="50.21784" lon="4.29893">
        <ele>236</ele>
        <time>2021-02-28T08:53:32Z</time>
      </trkpt>
      <trkpt lat="50.21783" lon="4.29905">
        <ele>235</ele>
        <time>2021-02-28T08:53:34Z</time>
      </trkpt>
      <trkpt lat="50.21782" lon="4.29918">
        <ele>235</ele>
        <time>2021-02-28T08:53:36Z</time>
      </trkpt>
      <trkpt lat="50.2178" lon="4.29931">
        <ele>234</ele>
        <time>2021-02-28T08:53:38Z</time>
      </trkpt>
      <trkpt lat="50.21778" lon="4.29945">
        <ele>234</ele>
        <time>2021-02-28T08:53:40Z</time>
      </trkpt>
      <trkpt lat="50.21777" lon="4.29961">
        <ele>234</ele>
        <time>2021-02-28T08:53:42Z</time>
      </trkpt>
      <trkpt lat="50.21777" lon="4.29978">
        <ele>234</ele>
        <time>2021-02-28T08:53:44Z</time>
      </trkpt>
      <trkpt lat="50.21777" lon="4.29997">
        <ele>233</ele>
        <time>2021-02-28T08:53:46Z</time>
      </trkpt>
      <trkpt lat="50.21776" lon="4.30017">
        <ele>233</ele>
        <time>2021-02-28T08:53:48Z</time>
      </trkpt>
      <trkpt lat="50.21774" lon="4.30037">
        <ele>233</ele>
        <time>2021-02-28T08:53:50Z</time>
      </trkpt>
      <trkpt lat="50.21773" lon="4.30057">
        <ele>232</ele>
        <time>2021-02-28T08:53:52Z</time>
      </trkpt>
      <trkpt lat="50.21771" lon="4.30076">
        <ele>232</ele>
        <time>2021-02-28T08:53:54Z</time>
      </trkpt>
      <trkpt lat="50.21769" lon="4.30094">
        <ele>232</ele>
        <time>2021-02-28T08:53:56Z</time>
      </trkpt>
      <trkpt lat="50.21768" lon="4.30113">
        <ele>230</ele>
        <time>2021-02-28T08:53:58Z</time>
      </trkpt>
      <trkpt lat="50.21765" lon="4.30132">
        <ele>232</ele>
        <time>2021-02-28T08:54:00Z</time>
      </trkpt>
      <trkpt lat="50.21763" lon="4.30149">
        <ele>234</ele>
        <time>2021-02-28T08:54:02Z</time>
      </trkpt>
      <trkpt lat="50.21762" lon="4.30165">
        <ele>234</ele>
        <time>2021-02-28T08:54:04Z</time>
      </trkpt>
      <trkpt lat="50.21763" lon="4.3018">
        <ele>234</ele>
        <time>2021-02-28T08:54:06Z</time>
      </trkpt>
      <trkpt lat="50.21766" lon="4.30195">
        <ele>233</ele>
        <time>2021-02-28T08:54:08Z</time>
      </trkpt>
      <trkpt lat="50.21768" lon="4.30208">
        <ele>233</ele>
        <time>2021-02-28T08:54:10Z</time>
      </trkpt>
      <trkpt lat="50.21769" lon="4.30223">
        <ele>232</ele>
        <time>2021-02-28T08:54:12Z</time>
      </trkpt>
      <trkpt lat="50.21771" lon="4.30237">
        <ele>233</ele>
        <time>2021-02-28T08:54:14Z</time>
      </trkpt>
      <trkpt lat="50.21773" lon="4.30252">
        <ele>233</ele>
        <time>2021-02-28T08:54:16Z</time>
      </trkpt>
      <trkpt lat="50.21775" lon="4.30266">
        <ele>232</ele>
        <time>2021-02-28T08:54:18Z</time>
      </trkpt>
      <trkpt lat="50.21775" lon="4.30281">
        <ele>232</ele>
        <time>2021-02-28T08:54:20Z</time>
      </trkpt>
      <trkpt lat="50.21774" lon="4.30296">
        <ele>232</ele>
        <time>2021-02-28T08:54:22Z</time>
      </trkpt>
      <trkpt lat="50.21774" lon="4.3031">
        <ele>232</ele>
        <time>2021-02-28T08:54:24Z</time>
      </trkpt>
      <trkpt lat="50.21772" lon="4.30325">
        <ele>232</ele>
        <time>2021-02-28T08:54:26Z</time>
      </trkpt>
      <trkpt lat="50.21772" lon="4.30338">
        <ele>232</ele>
        <time>2021-02-28T08:54:28Z</time>
      </trkpt>
      <trkpt lat="50.2177" lon="4.30352">
        <ele>232</ele>
        <time>2021-02-28T08:54:30Z</time>
      </trkpt>
      <trkpt lat="50.21767" lon="4.30366">
        <ele>232</ele>
        <time>2021-02-28T08:54:32Z</time>
      </trkpt>
      <trkpt lat="50.21765" lon="4.3038">
        <ele>233</ele>
        <time>2021-02-28T08:54:34Z</time>
      </trkpt>
      <trkpt lat="50.21763" lon="4.30393">
        <ele>233</ele>
        <time>2021-02-28T08:54:36Z</time>
      </trkpt>
      <trkpt lat="50.21759" lon="4.30406">
        <ele>234</ele>
        <time>2021-02-28T08:54:38Z</time>
      </trkpt>
      <trkpt lat="50.21756" lon="4.30418">
        <ele>234</ele>
        <time>2021-02-28T08:54:40Z</time>
      </trkpt>
      <trkpt lat="50.21753" lon="4.30431">
        <ele>234</ele>
        <time>2021-02-28T08:54:42Z</time>
      </trkpt>
      <trkpt lat="50.2175" lon="4.30443">
        <ele>235</ele>
        <time>2021-02-28T08:54:44Z</time>
      </trkpt>
      <trkpt lat="50.21746" lon="4.30455">
        <ele>235</ele>
        <time>2021-02-28T08:54:46Z</time>
      </trkpt>
      <trkpt lat="50.21743" lon="4.30467">
        <ele>235</ele>
        <time>2021-02-28T08:54:48Z</time>
      </trkpt>
      <trkpt lat="50.2174" lon="4.30478">
        <ele>235</ele>
        <time>2021-02-28T08:54:50Z</time>
      </trkpt>
      <trkpt lat="50.21737" lon="4.30489">
        <ele>235</ele>
        <time>2021-02-28T08:54:52Z</time>
      </trkpt>
      <trkpt lat="50.21734" lon="4.30499">
        <ele>237</ele>
        <time>2021-02-28T08:54:54Z</time>
      </trkpt>
      <trkpt lat="50.21731" lon="4.30511">
        <ele>237</ele>
        <time>2021-02-28T08:54:56Z</time>
      </trkpt>
      <trkpt lat="50.21729" lon="4.30522">
        <ele>237</ele>
        <time>2021-02-28T08:54:58Z</time>
      </trkpt>
      <trkpt lat="50.21726" lon="4.30532">
        <ele>237</ele>
        <time>2021-02-28T08:55:00Z</time>
      </trkpt>
      <trkpt lat="50.21724" lon="4.30543">
        <ele>235</ele>
        <time>2021-02-28T08:55:02Z</time>
      </trkpt>
      <trkpt lat="50.21722" lon="4.30554">
        <ele>235</ele>
        <time>2021-02-28T08:55:04Z</time>
      </trkpt>
      <trkpt lat="50.21721" lon="4.30565">
        <ele>235</ele>
        <time>2021-02-28T08:55:06Z</time>
      </trkpt>
      <trkpt lat="50.21719" lon="4.30577">
        <ele>237</ele>
        <time>2021-02-28T08:55:08Z</time>
      </trkpt>
      <trkpt lat="50.21718" lon="4.30588">
        <ele>237</ele>
        <time>2021-02-28T08:55:10Z</time>
      </trkpt>
      <trkpt lat="50.21717" lon="4.306">
        <ele>237</ele>
        <time>2021-02-28T08:55:12Z</time>
      </trkpt>
      <trkpt lat="50.21716" lon="4.30611">
        <ele>237</ele>
        <time>2021-02-28T08:55:14Z</time>
      </trkpt>
      <trkpt lat="50.21714" lon="4.30622">
        <ele>237</ele>
        <time>2021-02-28T08:55:16Z</time>
      </trkpt>
      <trkpt lat="50.21712" lon="4.30634">
        <ele>238</ele>
        <time>2021-02-28T08:55:18Z</time>
      </trkpt>
      <trkpt lat="50.2171" lon="4.30645">
        <ele>238</ele>
        <time>2021-02-28T08:55:20Z</time>
      </trkpt>
      <trkpt lat="50.21709" lon="4.30656">
        <ele>239</ele>
        <time>2021-02-28T08:55:22Z</time>
      </trkpt>
      <trkpt lat="50.21707" lon="4.30667">
        <ele>241</ele>
        <time>2021-02-28T08:55:24Z</time>
      </trkpt>
      <trkpt lat="50.21706" lon="4.30679">
        <ele>241</ele>
        <time>2021-02-28T08:55:26Z</time>
      </trkpt>
      <trkpt lat="50.21704" lon="4.3069">
        <ele>240</ele>
        <time>2021-02-28T08:55:28Z</time>
      </trkpt>
      <trkpt lat="50.21703" lon="4.30702">
        <ele>240</ele>
        <time>2021-02-28T08:55:30Z</time>
      </trkpt>
      <trkpt lat="50.21701" lon="4.30714">
        <ele>244</ele>
        <time>2021-02-28T08:55:32Z</time>
      </trkpt>
      <trkpt lat="50.21699" lon="4.30725">
        <ele>244</ele>
        <time>2021-02-28T08:55:34Z</time>
      </trkpt>
      <trkpt lat="50.21698" lon="4.30737">
        <ele>242</ele>
        <time>2021-02-28T08:55:36Z</time>
      </trkpt>
      <trkpt lat="50.21696" lon="4.30748">
        <ele>242</ele>
        <time>2021-02-28T08:55:38Z</time>
      </trkpt>
      <trkpt lat="50.21694" lon="4.3076">
        <ele>242</ele>
        <time>2021-02-28T08:55:40Z</time>
      </trkpt>
      <trkpt lat="50.21693" lon="4.30771">
        <ele>244</ele>
        <time>2021-02-28T08:55:42Z</time>
      </trkpt>
      <trkpt lat="50.21692" lon="4.30782">
        <ele>244</ele>
        <time>2021-02-28T08:55:44Z</time>
      </trkpt>
      <trkpt lat="50.21689" lon="4.30792">
        <ele>243</ele>
        <time>2021-02-28T08:55:46Z</time>
      </trkpt>
      <trkpt lat="50.21687" lon="4.30803">
        <ele>243</ele>
        <time>2021-02-28T08:55:48Z</time>
      </trkpt>
      <trkpt lat="50.21683" lon="4.30814">
        <ele>243</ele>
        <time>2021-02-28T08:55:50Z</time>
      </trkpt>
      <trkpt lat="50.21681" lon="4.30824">
        <ele>244</ele>
        <time>2021-02-28T08:55:52Z</time>
      </trkpt>
      <trkpt lat="50.21677" lon="4.30834">
        <ele>244</ele>
        <time>2021-02-28T08:55:54Z</time>
      </trkpt>
      <trkpt lat="50.21675" lon="4.30844">
        <ele>244</ele>
        <time>2021-02-28T08:55:56Z</time>
      </trkpt>
      <trkpt lat="50.21671" lon="4.30853">
        <ele>244</ele>
        <time>2021-02-28T08:55:58Z</time>
      </trkpt>
      <trkpt lat="50.21666" lon="4.3086">
        <ele>244</ele>
        <time>2021-02-28T08:56:00Z</time>
      </trkpt>
      <trkpt lat="50.21662" lon="4.30865">
        <ele>244</ele>
        <time>2021-02-28T08:56:02Z</time>
      </trkpt>
      <trkpt lat="50.21658" lon="4.30871">
        <ele>244</ele>
        <time>2021-02-28T08:56:04Z</time>
      </trkpt>
      <trkpt lat="50.21654" lon="4.30873">
        <ele>244</ele>
        <time>2021-02-28T08:56:06Z</time>
      </trkpt>
      <trkpt lat="50.21651" lon="4.30873">
        <ele>244</ele>
        <time>2021-02-28T08:56:08Z</time>
      </trkpt>
      <trkpt lat="50.21651" lon="4.30875">
        <ele>244</ele>
        <time>2021-02-28T08:56:14Z</time>
      </trkpt>
      <trkpt lat="50.21653" lon="4.30875">
        <ele>244</ele>
        <time>2021-02-28T08:56:16Z</time>
      </trkpt>
      <trkpt lat="50.21655" lon="4.30876">
        <ele>244</ele>
        <time>2021-02-28T08:56:18Z</time>
      </trkpt>
      <trkpt lat="50.21656" lon="4.30877">
        <ele>244</ele>
        <time>2021-02-28T08:56:22Z</time>
      </trkpt>
      <trkpt lat="50.21657" lon="4.30878">
        <ele>244</ele>
        <time>2021-02-28T08:56:24Z</time>
      </trkpt>
      <trkpt lat="50.21659" lon="4.30878">
        <ele>244</ele>
        <time>2021-02-28T08:56:26Z</time>
      </trkpt>
      <trkpt lat="50.21661" lon="4.30877">
        <ele>244</ele>
        <time>2021-02-28T08:56:28Z</time>
      </trkpt>
      <trkpt lat="50.2166" lon="4.30874">
        <ele>244</ele>
        <time>2021-02-28T09:00:29Z</time>
      </trkpt>
      <trkpt lat="50.21658" lon="4.30874">
        <ele>244</ele>
        <time>2021-02-28T09:00:31Z</time>
      </trkpt>
      <trkpt lat="50.21656" lon="4.30875">
        <ele>244</ele>
        <time>2021-02-28T09:00:33Z</time>
      </trkpt>
      <trkpt lat="50.21655" lon="4.30876">
        <ele>244</ele>
        <time>2021-02-28T09:00:35Z</time>
      </trkpt>
      <trkpt lat="50.21653" lon="4.30877">
        <ele>244</ele>
        <time>2021-02-28T09:00:39Z</time>
      </trkpt>
      <trkpt lat="50.2165" lon="4.30879">
        <ele>244</ele>
        <time>2021-02-28T09:01:25Z</time>
      </trkpt>
      <trkpt lat="50.21644" lon="4.30879">
        <ele>244</ele>
        <time>2021-02-28T09:01:27Z</time>
      </trkpt>
      <trkpt lat="50.21639" lon="4.3088">
        <ele>244</ele>
        <time>2021-02-28T09:01:29Z</time>
      </trkpt>
      <trkpt lat="50.21634" lon="4.3088">
        <ele>244</ele>
        <time>2021-02-28T09:01:31Z</time>
      </trkpt>
      <trkpt lat="50.21629" lon="4.3088">
        <ele>244</ele>
        <time>2021-02-28T09:01:33Z</time>
      </trkpt>
      <trkpt lat="50.21623" lon="4.3088">
        <ele>243</ele>
        <time>2021-02-28T09:01:35Z</time>
      </trkpt>
      <trkpt lat="50.21616" lon="4.30879">
        <ele>243</ele>
        <time>2021-02-28T09:01:37Z</time>
      </trkpt>
      <trkpt lat="50.2161" lon="4.30879">
        <ele>243</ele>
        <time>2021-02-28T09:01:39Z</time>
      </trkpt>
      <trkpt lat="50.21603" lon="4.30878">
        <ele>243</ele>
        <time>2021-02-28T09:01:41Z</time>
      </trkpt>
      <trkpt lat="50.21595" lon="4.30877">
        <ele>242</ele>
        <time>2021-02-28T09:01:43Z</time>
      </trkpt>
      <trkpt lat="50.21588" lon="4.30875">
        <ele>244</ele>
        <time>2021-02-28T09:01:45Z</time>
      </trkpt>
      <trkpt lat="50.21581" lon="4.30874">
        <ele>244</ele>
        <time>2021-02-28T09:01:47Z</time>
      </trkpt>
      <trkpt lat="50.21574" lon="4.30872">
        <ele>244</ele>
        <time>2021-02-28T09:01:49Z</time>
      </trkpt>
      <trkpt lat="50.21567" lon="4.30871">
        <ele>244</ele>
        <time>2021-02-28T09:01:51Z</time>
      </trkpt>
      <trkpt lat="50.21559" lon="4.3087">
        <ele>244</ele>
        <time>2021-02-28T09:01:53Z</time>
      </trkpt>
      <trkpt lat="50.21552" lon="4.30869">
        <ele>244</ele>
        <time>2021-02-28T09:01:55Z</time>
      </trkpt>
      <trkpt lat="50.21544" lon="4.30868">
        <ele>244</ele>
        <time>2021-02-28T09:01:57Z</time>
      </trkpt>
      <trkpt lat="50.21536" lon="4.30866">
        <ele>245</ele>
        <time>2021-02-28T09:01:59Z</time>
      </trkpt>
      <trkpt lat="50.21528" lon="4.30864">
        <ele>245</ele>
        <time>2021-02-28T09:02:01Z</time>
      </trkpt>
      <trkpt lat="50.2152" lon="4.30861">
        <ele>245</ele>
        <time>2021-02-28T09:02:03Z</time>
      </trkpt>
      <trkpt lat="50.21512" lon="4.30859">
        <ele>245</ele>
        <time>2021-02-28T09:02:05Z</time>
      </trkpt>
      <trkpt lat="50.21503" lon="4.30856">
        <ele>245</ele>
        <time>2021-02-28T09:02:07Z</time>
      </trkpt>
      <trkpt lat="50.21495" lon="4.30853">
        <ele>245</ele>
        <time>2021-02-28T09:02:09Z</time>
      </trkpt>
      <trkpt lat="50.21486" lon="4.3085">
        <ele>244</ele>
        <time>2021-02-28T09:02:11Z</time>
      </trkpt>
      <trkpt lat="50.21477" lon="4.30848">
        <ele>244</ele>
        <time>2021-02-28T09:02:13Z</time>
      </trkpt>
      <trkpt lat="50.21468" lon="4.30845">
        <ele>245</ele>
        <time>2021-02-28T09:02:15Z</time>
      </trkpt>
      <trkpt lat="50.21459" lon="4.30841">
        <ele>245</ele>
        <time>2021-02-28T09:02:17Z</time>
      </trkpt>
      <trkpt lat="50.2145" lon="4.30838">
        <ele>243</ele>
        <time>2021-02-28T09:02:19Z</time>
      </trkpt>
      <trkpt lat="50.21441" lon="4.30836">
        <ele>243</ele>
        <time>2021-02-28T09:02:21Z</time>
      </trkpt>
      <trkpt lat="50.21432" lon="4.30835">
        <ele>243</ele>
        <time>2021-02-28T09:02:23Z</time>
      </trkpt>
      <trkpt lat="50.21423" lon="4.30835">
        <ele>243</ele>
        <time>2021-02-28T09:02:25Z</time>
      </trkpt>
      <trkpt lat="50.21413" lon="4.30834">
        <ele>243</ele>
        <time>2021-02-28T09:02:27Z</time>
      </trkpt>
      <trkpt lat="50.21404" lon="4.30834">
        <ele>243</ele>
        <time>2021-02-28T09:02:29Z</time>
      </trkpt>
      <trkpt lat="50.21394" lon="4.30833">
        <ele>244</ele>
        <time>2021-02-28T09:02:31Z</time>
      </trkpt>
      <trkpt lat="50.21384" lon="4.30833">
        <ele>244</ele>
        <time>2021-02-28T09:02:33Z</time>
      </trkpt>
      <trkpt lat="50.21375" lon="4.30832">
        <ele>244</ele>
        <time>2021-02-28T09:02:35Z</time>
      </trkpt>
      <trkpt lat="50.21365" lon="4.30832">
        <ele>244</ele>
        <time>2021-02-28T09:02:37Z</time>
      </trkpt>
      <trkpt lat="50.21356" lon="4.30831">
        <ele>244</ele>
        <time>2021-02-28T09:02:39Z</time>
      </trkpt>
      <trkpt lat="50.21347" lon="4.30831">
        <ele>245</ele>
        <time>2021-02-28T09:02:41Z</time>
      </trkpt>
      <trkpt lat="50.21337" lon="4.3083">
        <ele>245</ele>
        <time>2021-02-28T09:02:43Z</time>
      </trkpt>
      <trkpt lat="50.21327" lon="4.3083">
        <ele>245</ele>
        <time>2021-02-28T09:02:45Z</time>
      </trkpt>
      <trkpt lat="50.21318" lon="4.3083">
        <ele>247</ele>
        <time>2021-02-28T09:02:47Z</time>
      </trkpt>
      <trkpt lat="50.21309" lon="4.30829">
        <ele>247</ele>
        <time>2021-02-28T09:02:49Z</time>
      </trkpt>
      <trkpt lat="50.21299" lon="4.30829">
        <ele>247</ele>
        <time>2021-02-28T09:02:51Z</time>
      </trkpt>
      <trkpt lat="50.21289" lon="4.30828">
        <ele>248</ele>
        <time>2021-02-28T09:02:53Z</time>
      </trkpt>
      <trkpt lat="50.21281" lon="4.30828">
        <ele>248</ele>
        <time>2021-02-28T09:02:55Z</time>
      </trkpt>
      <trkpt lat="50.21272" lon="4.30828">
        <ele>248</ele>
        <time>2021-02-28T09:02:57Z</time>
      </trkpt>
      <trkpt lat="50.21262" lon="4.30827">
        <ele>248</ele>
        <time>2021-02-28T09:02:59Z</time>
      </trkpt>
      <trkpt lat="50.21254" lon="4.30826">
        <ele>248</ele>
        <time>2021-02-28T09:03:01Z</time>
      </trkpt>
      <trkpt lat="50.21245" lon="4.30825">
        <ele>248</ele>
        <time>2021-02-28T09:03:03Z</time>
      </trkpt>
      <trkpt lat="50.21236" lon="4.30824">
        <ele>249</ele>
        <time>2021-02-28T09:03:05Z</time>
      </trkpt>
      <trkpt lat="50.21228" lon="4.30823">
        <ele>249</ele>
        <time>2021-02-28T09:03:07Z</time>
      </trkpt>
      <trkpt lat="50.2122" lon="4.30821">
        <ele>249</ele>
        <time>2021-02-28T09:03:09Z</time>
      </trkpt>
      <trkpt lat="50.21211" lon="4.30819">
        <ele>249</ele>
        <time>2021-02-28T09:03:11Z</time>
      </trkpt>
      <trkpt lat="50.21203" lon="4.30818">
        <ele>250</ele>
        <time>2021-02-28T09:03:13Z</time>
      </trkpt>
      <trkpt lat="50.21195" lon="4.30816">
        <ele>250</ele>
        <time>2021-02-28T09:03:15Z</time>
      </trkpt>
      <trkpt lat="50.21187" lon="4.30814">
        <ele>250</ele>
        <time>2021-02-28T09:03:17Z</time>
      </trkpt>
      <trkpt lat="50.21178" lon="4.30812">
        <ele>251</ele>
        <time>2021-02-28T09:03:19Z</time>
      </trkpt>
      <trkpt lat="50.2117" lon="4.30809">
        <ele>251</ele>
        <time>2021-02-28T09:03:21Z</time>
      </trkpt>
      <trkpt lat="50.21163" lon="4.30803">
        <ele>251</ele>
        <time>2021-02-28T09:03:23Z</time>
      </trkpt>
      <trkpt lat="50.21156" lon="4.30796">
        <ele>251</ele>
        <time>2021-02-28T09:03:25Z</time>
      </trkpt>
      <trkpt lat="50.21149" lon="4.30791">
        <ele>251</ele>
        <time>2021-02-28T09:03:27Z</time>
      </trkpt>
      <trkpt lat="50.21141" lon="4.30788">
        <ele>251</ele>
        <time>2021-02-28T09:03:29Z</time>
      </trkpt>
      <trkpt lat="50.21133" lon="4.30787">
        <ele>251</ele>
        <time>2021-02-28T09:03:31Z</time>
      </trkpt>
      <trkpt lat="50.21125" lon="4.30785">
        <ele>251</ele>
        <time>2021-02-28T09:03:33Z</time>
      </trkpt>
      <trkpt lat="50.21116" lon="4.30784">
        <ele>251</ele>
        <time>2021-02-28T09:03:35Z</time>
      </trkpt>
      <trkpt lat="50.21108" lon="4.30782">
        <ele>251</ele>
        <time>2021-02-28T09:03:37Z</time>
      </trkpt>
      <trkpt lat="50.21099" lon="4.3078">
        <ele>251</ele>
        <time>2021-02-28T09:03:39Z</time>
      </trkpt>
      <trkpt lat="50.2109" lon="4.30779">
        <ele>253</ele>
        <time>2021-02-28T09:03:41Z</time>
      </trkpt>
      <trkpt lat="50.21082" lon="4.30777">
        <ele>253</ele>
        <time>2021-02-28T09:03:43Z</time>
      </trkpt>
      <trkpt lat="50.21073" lon="4.30776">
        <ele>253</ele>
        <time>2021-02-28T09:03:45Z</time>
      </trkpt>
      <trkpt lat="50.21065" lon="4.30775">
        <ele>254</ele>
        <time>2021-02-28T09:03:47Z</time>
      </trkpt>
      <trkpt lat="50.21056" lon="4.30775">
        <ele>254</ele>
        <time>2021-02-28T09:03:49Z</time>
      </trkpt>
      <trkpt lat="50.21046" lon="4.30775">
        <ele>254</ele>
        <time>2021-02-28T09:03:51Z</time>
      </trkpt>
      <trkpt lat="50.21038" lon="4.30776">
        <ele>253</ele>
        <time>2021-02-28T09:03:53Z</time>
      </trkpt>
      <trkpt lat="50.21029" lon="4.30778">
        <ele>253</ele>
        <time>2021-02-28T09:03:55Z</time>
      </trkpt>
      <trkpt lat="50.21019" lon="4.30781">
        <ele>253</ele>
        <time>2021-02-28T09:03:57Z</time>
      </trkpt>
      <trkpt lat="50.2101" lon="4.30783">
        <ele>254</ele>
        <time>2021-02-28T09:03:59Z</time>
      </trkpt>
      <trkpt lat="50.21001" lon="4.30785">
        <ele>254</ele>
        <time>2021-02-28T09:04:01Z</time>
      </trkpt>
      <trkpt lat="50.20992" lon="4.30787">
        <ele>254</ele>
        <time>2021-02-28T09:04:03Z</time>
      </trkpt>
      <trkpt lat="50.20982" lon="4.30791">
        <ele>255</ele>
        <time>2021-02-28T09:04:05Z</time>
      </trkpt>
      <trkpt lat="50.20973" lon="4.30794">
        <ele>255</ele>
        <time>2021-02-28T09:04:07Z</time>
      </trkpt>
      <trkpt lat="50.20964" lon="4.30796">
        <ele>255</ele>
        <time>2021-02-28T09:04:09Z</time>
      </trkpt>
      <trkpt lat="50.20955" lon="4.30799">
        <ele>256</ele>
        <time>2021-02-28T09:04:11Z</time>
      </trkpt>
      <trkpt lat="50.20945" lon="4.30803">
        <ele>256</ele>
        <time>2021-02-28T09:04:13Z</time>
      </trkpt>
      <trkpt lat="50.20936" lon="4.30807">
        <ele>256</ele>
        <time>2021-02-28T09:04:15Z</time>
      </trkpt>
      <trkpt lat="50.20927" lon="4.30811">
        <ele>256</ele>
        <time>2021-02-28T09:04:17Z</time>
      </trkpt>
      <trkpt lat="50.20918" lon="4.30814">
        <ele>256</ele>
        <time>2021-02-28T09:04:19Z</time>
      </trkpt>
      <trkpt lat="50.20909" lon="4.30817">
        <ele>256</ele>
        <time>2021-02-28T09:04:21Z</time>
      </trkpt>
      <trkpt lat="50.20899" lon="4.30819">
        <ele>257</ele>
        <time>2021-02-28T09:04:23Z</time>
      </trkpt>
      <trkpt lat="50.20889" lon="4.30823">
        <ele>256</ele>
        <time>2021-02-28T09:04:25Z</time>
      </trkpt>
      <trkpt lat="50.20879" lon="4.30825">
        <ele>256</ele>
        <time>2021-02-28T09:04:27Z</time>
      </trkpt>
      <trkpt lat="50.20869" lon="4.30826">
        <ele>257</ele>
        <time>2021-02-28T09:04:29Z</time>
      </trkpt>
      <trkpt lat="50.20858" lon="4.30825">
        <ele>257</ele>
        <time>2021-02-28T09:04:31Z</time>
      </trkpt>
      <trkpt lat="50.20848" lon="4.30826">
        <ele>257</ele>
        <time>2021-02-28T09:04:33Z</time>
      </trkpt>
      <trkpt lat="50.20838" lon="4.30826">
        <ele>257</ele>
        <time>2021-02-28T09:04:35Z</time>
      </trkpt>
      <trkpt lat="50.20828" lon="4.30827">
        <ele>257</ele>
        <time>2021-02-28T09:04:37Z</time>
      </trkpt>
      <trkpt lat="50.20818" lon="4.30827">
        <ele>258</ele>
        <time>2021-02-28T09:04:39Z</time>
      </trkpt>
      <trkpt lat="50.20808" lon="4.30827">
        <ele>258</ele>
        <time>2021-02-28T09:04:41Z</time>
      </trkpt>
      <trkpt lat="50.20797" lon="4.30826">
        <ele>258</ele>
        <time>2021-02-28T09:04:43Z</time>
      </trkpt>
      <trkpt lat="50.20788" lon="4.30825">
        <ele>259</ele>
        <time>2021-02-28T09:04:45Z</time>
      </trkpt>
      <trkpt lat="50.20778" lon="4.30823">
        <ele>259</ele>
        <time>2021-02-28T09:04:47Z</time>
      </trkpt>
      <trkpt lat="50.20769" lon="4.30822">
        <ele>259</ele>
        <time>2021-02-28T09:04:49Z</time>
      </trkpt>
      <trkpt lat="50.2076" lon="4.30819">
        <ele>260</ele>
        <time>2021-02-28T09:04:51Z</time>
      </trkpt>
      <trkpt lat="50.20751" lon="4.30816">
        <ele>260</ele>
        <time>2021-02-28T09:04:53Z</time>
      </trkpt>
      <trkpt lat="50.20742" lon="4.30814">
        <ele>260</ele>
        <time>2021-02-28T09:04:55Z</time>
      </trkpt>
      <trkpt lat="50.20733" lon="4.30812">
        <ele>260</ele>
        <time>2021-02-28T09:04:57Z</time>
      </trkpt>
      <trkpt lat="50.20724" lon="4.30811">
        <ele>260</ele>
        <time>2021-02-28T09:04:59Z</time>
      </trkpt>
      <trkpt lat="50.20715" lon="4.3081">
        <ele>260</ele>
        <time>2021-02-28T09:05:01Z</time>
      </trkpt>
      <trkpt lat="50.20707" lon="4.30807">
        <ele>259</ele>
        <time>2021-02-28T09:05:03Z</time>
      </trkpt>
      <trkpt lat="50.20698" lon="4.30806">
        <ele>259</ele>
        <time>2021-02-28T09:05:05Z</time>
      </trkpt>
      <trkpt lat="50.20689" lon="4.30803">
        <ele>259</ele>
        <time>2021-02-28T09:05:07Z</time>
      </trkpt>
      <trkpt lat="50.2068" lon="4.30801">
        <ele>258</ele>
        <time>2021-02-28T09:05:09Z</time>
      </trkpt>
      <trkpt lat="50.2067" lon="4.30798">
        <ele>258</ele>
        <time>2021-02-28T09:05:11Z</time>
      </trkpt>
      <trkpt lat="50.2066" lon="4.30795">
        <ele>258</ele>
        <time>2021-02-28T09:05:13Z</time>
      </trkpt>
      <trkpt lat="50.20649" lon="4.30791">
        <ele>257</ele>
        <time>2021-02-28T09:05:15Z</time>
      </trkpt>
      <trkpt lat="50.20638" lon="4.30787">
        <ele>257</ele>
        <time>2021-02-28T09:05:17Z</time>
      </trkpt>
      <trkpt lat="50.20628" lon="4.30782">
        <ele>257</ele>
        <time>2021-02-28T09:05:19Z</time>
      </trkpt>
      <trkpt lat="50.20617" lon="4.30777">
        <ele>256</ele>
        <time>2021-02-28T09:05:21Z</time>
      </trkpt>
      <trkpt lat="50.20606" lon="4.30769">
        <ele>256</ele>
        <time>2021-02-28T09:05:23Z</time>
      </trkpt>
      <trkpt lat="50.20596" lon="4.30761">
        <ele>256</ele>
        <time>2021-02-28T09:05:25Z</time>
      </trkpt>
      <trkpt lat="50.20586" lon="4.30752">
        <ele>256</ele>
        <time>2021-02-28T09:05:27Z</time>
      </trkpt>
      <trkpt lat="50.20578" lon="4.30741">
        <ele>256</ele>
        <time>2021-02-28T09:05:29Z</time>
      </trkpt>
      <trkpt lat="50.20569" lon="4.3073">
        <ele>256</ele>
        <time>2021-02-28T09:05:31Z</time>
      </trkpt>
      <trkpt lat="50.2056" lon="4.3072">
        <ele>256</ele>
        <time>2021-02-28T09:05:33Z</time>
      </trkpt>
      <trkpt lat="50.20552" lon="4.30709">
        <ele>256</ele>
        <time>2021-02-28T09:05:35Z</time>
      </trkpt>
      <trkpt lat="50.20544" lon="4.30698">
        <ele>257</ele>
        <time>2021-02-28T09:05:37Z</time>
      </trkpt>
      <trkpt lat="50.20536" lon="4.30687">
        <ele>257</ele>
        <time>2021-02-28T09:05:39Z</time>
      </trkpt>
      <trkpt lat="50.20528" lon="4.30676">
        <ele>259</ele>
        <time>2021-02-28T09:05:41Z</time>
      </trkpt>
      <trkpt lat="50.2052" lon="4.30664">
        <ele>259</ele>
        <time>2021-02-28T09:05:43Z</time>
      </trkpt>
      <trkpt lat="50.20513" lon="4.30651">
        <ele>257</ele>
        <time>2021-02-28T09:05:45Z</time>
      </trkpt>
      <trkpt lat="50.20506" lon="4.30638">
        <ele>257</ele>
        <time>2021-02-28T09:05:47Z</time>
      </trkpt>
      <trkpt lat="50.20498" lon="4.30625">
        <ele>257</ele>
        <time>2021-02-28T09:05:49Z</time>
      </trkpt>
      <trkpt lat="50.20489" lon="4.30614">
        <ele>257</ele>
        <time>2021-02-28T09:05:51Z</time>
      </trkpt>
      <trkpt lat="50.2048" lon="4.30605">
        <ele>255</ele>
        <time>2021-02-28T09:05:53Z</time>
      </trkpt>
      <trkpt lat="50.2047" lon="4.30596">
        <ele>256</ele>
        <time>2021-02-28T09:05:55Z</time>
      </trkpt>
      <trkpt lat="50.20461" lon="4.30587">
        <ele>256</ele>
        <time>2021-02-28T09:05:57Z</time>
      </trkpt>
      <trkpt lat="50.20451" lon="4.30579">
        <ele>256</ele>
        <time>2021-02-28T09:05:59Z</time>
      </trkpt>
      <trkpt lat="50.20442" lon="4.30571">
        <ele>256</ele>
        <time>2021-02-28T09:06:01Z</time>
      </trkpt>
      <trkpt lat="50.20432" lon="4.30563">
        <ele>256</ele>
        <time>2021-02-28T09:06:03Z</time>
      </trkpt>
      <trkpt lat="50.20421" lon="4.30555">
        <ele>255</ele>
        <time>2021-02-28T09:06:05Z</time>
      </trkpt>
      <trkpt lat="50.2041" lon="4.30548">
        <ele>255</ele>
        <time>2021-02-28T09:06:07Z</time>
      </trkpt>
      <trkpt lat="50.20399" lon="4.30541">
        <ele>255</ele>
        <time>2021-02-28T09:06:09Z</time>
      </trkpt>
      <trkpt lat="50.20388" lon="4.30534">
        <ele>255</ele>
        <time>2021-02-28T09:06:11Z</time>
      </trkpt>
      <trkpt lat="50.20376" lon="4.30527">
        <ele>255</ele>
        <time>2021-02-28T09:06:13Z</time>
      </trkpt>
      <trkpt lat="50.20365" lon="4.3052">
        <ele>254</ele>
        <time>2021-02-28T09:06:15Z</time>
      </trkpt>
      <trkpt lat="50.20355" lon="4.30512">
        <ele>254</ele>
        <time>2021-02-28T09:06:17Z</time>
      </trkpt>
      <trkpt lat="50.20343" lon="4.30504">
        <ele>253</ele>
        <time>2021-02-28T09:06:19Z</time>
      </trkpt>
      <trkpt lat="50.20333" lon="4.30495">
        <ele>253</ele>
        <time>2021-02-28T09:06:21Z</time>
      </trkpt>
      <trkpt lat="50.20322" lon="4.30487">
        <ele>253</ele>
        <time>2021-02-28T09:06:23Z</time>
      </trkpt>
      <trkpt lat="50.20313" lon="4.30477">
        <ele>252</ele>
        <time>2021-02-28T09:06:25Z</time>
      </trkpt>
      <trkpt lat="50.20303" lon="4.30466">
        <ele>252</ele>
        <time>2021-02-28T09:06:27Z</time>
      </trkpt>
      <trkpt lat="50.20293" lon="4.30453">
        <ele>253</ele>
        <time>2021-02-28T09:06:29Z</time>
      </trkpt>
      <trkpt lat="50.20284" lon="4.30439">
        <ele>253</ele>
        <time>2021-02-28T09:06:31Z</time>
      </trkpt>
      <trkpt lat="50.20273" lon="4.30428">
        <ele>252</ele>
        <time>2021-02-28T09:06:33Z</time>
      </trkpt>
      <trkpt lat="50.20263" lon="4.30418">
        <ele>251</ele>
        <time>2021-02-28T09:06:35Z</time>
      </trkpt>
      <trkpt lat="50.20252" lon="4.30408">
        <ele>251</ele>
        <time>2021-02-28T09:06:37Z</time>
      </trkpt>
      <trkpt lat="50.20242" lon="4.30399">
        <ele>251</ele>
        <time>2021-02-28T09:06:39Z</time>
      </trkpt>
      <trkpt lat="50.20232" lon="4.30389">
        <ele>250</ele>
        <time>2021-02-28T09:06:41Z</time>
      </trkpt>
      <trkpt lat="50.20223" lon="4.3038">
        <ele>250</ele>
        <time>2021-02-28T09:06:43Z</time>
      </trkpt>
      <trkpt lat="50.20213" lon="4.30371">
        <ele>250</ele>
        <time>2021-02-28T09:06:45Z</time>
      </trkpt>
      <trkpt lat="50.20202" lon="4.30364">
        <ele>249</ele>
        <time>2021-02-28T09:06:47Z</time>
      </trkpt>
      <trkpt lat="50.20191" lon="4.30357">
        <ele>249</ele>
        <time>2021-02-28T09:06:49Z</time>
      </trkpt>
      <trkpt lat="50.20181" lon="4.3035">
        <ele>248</ele>
        <time>2021-02-28T09:06:51Z</time>
      </trkpt>
      <trkpt lat="50.20168" lon="4.30341">
        <ele>247</ele>
        <time>2021-02-28T09:06:53Z</time>
      </trkpt>
      <trkpt lat="50.20155" lon="4.30333">
        <ele>247</ele>
        <time>2021-02-28T09:06:55Z</time>
      </trkpt>
      <trkpt lat="50.20142" lon="4.30323">
        <ele>249</ele>
        <time>2021-02-28T09:06:57Z</time>
      </trkpt>
      <trkpt lat="50.20128" lon="4.30314">
        <ele>248</ele>
        <time>2021-02-28T09:06:59Z</time>
      </trkpt>
      <trkpt lat="50.20115" lon="4.30303">
        <ele>247</ele>
        <time>2021-02-28T09:07:01Z</time>
      </trkpt>
      <trkpt lat="50.20102" lon="4.30291">
        <ele>248</ele>
        <time>2021-02-28T09:07:03Z</time>
      </trkpt>
      <trkpt lat="50.20091" lon="4.30281">
        <ele>245</ele>
        <time>2021-02-28T09:07:05Z</time>
      </trkpt>
      <trkpt lat="50.20078" lon="4.30273">
        <ele>245</ele>
        <time>2021-02-28T09:07:07Z</time>
      </trkpt>
      <trkpt lat="50.20065" lon="4.30265">
        <ele>244</ele>
        <time>2021-02-28T09:07:09Z</time>
      </trkpt>
      <trkpt lat="50.2005" lon="4.30258">
        <ele>244</ele>
        <time>2021-02-28T09:07:11Z</time>
      </trkpt>
      <trkpt lat="50.20037" lon="4.30251">
        <ele>242</ele>
        <time>2021-02-28T09:07:13Z</time>
      </trkpt>
      <trkpt lat="50.20023" lon="4.30245">
        <ele>242</ele>
        <time>2021-02-28T09:07:15Z</time>
      </trkpt>
      <trkpt lat="50.20009" lon="4.30241">
        <ele>239</ele>
        <time>2021-02-28T09:07:17Z</time>
      </trkpt>
      <trkpt lat="50.19995" lon="4.30236">
        <ele>237</ele>
        <time>2021-02-28T09:07:19Z</time>
      </trkpt>
      <trkpt lat="50.19982" lon="4.30231">
        <ele>234</ele>
        <time>2021-02-28T09:07:21Z</time>
      </trkpt>
      <trkpt lat="50.1997" lon="4.30225">
        <ele>234</ele>
        <time>2021-02-28T09:07:23Z</time>
      </trkpt>
      <trkpt lat="50.1996" lon="4.30221">
        <ele>234</ele>
        <time>2021-02-28T09:07:25Z</time>
      </trkpt>
      <trkpt lat="50.1995" lon="4.30217">
        <ele>232</ele>
        <time>2021-02-28T09:07:27Z</time>
      </trkpt>
      <trkpt lat="50.19941" lon="4.30217">
        <ele>232</ele>
        <time>2021-02-28T09:07:29Z</time>
      </trkpt>
      <trkpt lat="50.19934" lon="4.30227">
        <ele>232</ele>
        <time>2021-02-28T09:07:31Z</time>
      </trkpt>
      <trkpt lat="50.19927" lon="4.30241">
        <ele>229</ele>
        <time>2021-02-28T09:07:33Z</time>
      </trkpt>
      <trkpt lat="50.19919" lon="4.30258">
        <ele>229</ele>
        <time>2021-02-28T09:07:35Z</time>
      </trkpt>
      <trkpt lat="50.1991" lon="4.30275">
        <ele>228</ele>
        <time>2021-02-28T09:07:37Z</time>
      </trkpt>
      <trkpt lat="50.19901" lon="4.30295">
        <ele>226</ele>
        <time>2021-02-28T09:07:39Z</time>
      </trkpt>
      <trkpt lat="50.19892" lon="4.30314">
        <ele>226</ele>
        <time>2021-02-28T09:07:41Z</time>
      </trkpt>
      <trkpt lat="50.19884" lon="4.30333">
        <ele>226</ele>
        <time>2021-02-28T09:07:43Z</time>
      </trkpt>
      <trkpt lat="50.19877" lon="4.30352">
        <ele>226</ele>
        <time>2021-02-28T09:07:45Z</time>
      </trkpt>
      <trkpt lat="50.19874" lon="4.30372">
        <ele>225</ele>
        <time>2021-02-28T09:07:47Z</time>
      </trkpt>
      <trkpt lat="50.19875" lon="4.30392">
        <ele>225</ele>
        <time>2021-02-28T09:07:49Z</time>
      </trkpt>
      <trkpt lat="50.19878" lon="4.30412">
        <ele>228</ele>
        <time>2021-02-28T09:07:51Z</time>
      </trkpt>
      <trkpt lat="50.1988" lon="4.3043">
        <ele>228</ele>
        <time>2021-02-28T09:07:53Z</time>
      </trkpt>
      <trkpt lat="50.19884" lon="4.30447">
        <ele>230</ele>
        <time>2021-02-28T09:07:55Z</time>
      </trkpt>
      <trkpt lat="50.19889" lon="4.30464">
        <ele>229</ele>
        <time>2021-02-28T09:07:57Z</time>
      </trkpt>
      <trkpt lat="50.19894" lon="4.30481">
        <ele>229</ele>
        <time>2021-02-28T09:07:59Z</time>
      </trkpt>
      <trkpt lat="50.19898" lon="4.30498">
        <ele>232</ele>
        <time>2021-02-28T09:08:01Z</time>
      </trkpt>
      <trkpt lat="50.19902" lon="4.30514">
        <ele>231</ele>
        <time>2021-02-28T09:08:03Z</time>
      </trkpt>
      <trkpt lat="50.19905" lon="4.30531">
        <ele>233</ele>
        <time>2021-02-28T09:08:05Z</time>
      </trkpt>
      <trkpt lat="50.19909" lon="4.30547">
        <ele>235</ele>
        <time>2021-02-28T09:08:07Z</time>
      </trkpt>
      <trkpt lat="50.19911" lon="4.30562">
        <ele>235</ele>
        <time>2021-02-28T09:08:09Z</time>
      </trkpt>
      <trkpt lat="50.19913" lon="4.30575">
        <ele>236</ele>
        <time>2021-02-28T09:08:11Z</time>
      </trkpt>
      <trkpt lat="50.19914" lon="4.30587">
        <ele>236</ele>
        <time>2021-02-28T09:08:13Z</time>
      </trkpt>
      <trkpt lat="50.19917" lon="4.30599">
        <ele>237</ele>
        <time>2021-02-28T09:08:15Z</time>
      </trkpt>
      <trkpt lat="50.19918" lon="4.3061">
        <ele>237</ele>
        <time>2021-02-28T09:08:17Z</time>
      </trkpt>
      <trkpt lat="50.1992" lon="4.30622">
        <ele>237</ele>
        <time>2021-02-28T09:08:19Z</time>
      </trkpt>
      <trkpt lat="50.1992" lon="4.30633">
        <ele>237</ele>
        <time>2021-02-28T09:08:21Z</time>
      </trkpt>
      <trkpt lat="50.19922" lon="4.30644">
        <ele>237</ele>
        <time>2021-02-28T09:08:23Z</time>
      </trkpt>
      <trkpt lat="50.19923" lon="4.30655">
        <ele>238</ele>
        <time>2021-02-28T09:08:25Z</time>
      </trkpt>
      <trkpt lat="50.19925" lon="4.30666">
        <ele>238</ele>
        <time>2021-02-28T09:08:27Z</time>
      </trkpt>
      <trkpt lat="50.19927" lon="4.30676">
        <ele>238</ele>
        <time>2021-02-28T09:08:29Z</time>
      </trkpt>
      <trkpt lat="50.19929" lon="4.30686">
        <ele>239</ele>
        <time>2021-02-28T09:08:31Z</time>
      </trkpt>
      <trkpt lat="50.1993" lon="4.30697">
        <ele>239</ele>
        <time>2021-02-28T09:08:33Z</time>
      </trkpt>
      <trkpt lat="50.1993" lon="4.30709">
        <ele>240</ele>
        <time>2021-02-28T09:08:35Z</time>
      </trkpt>
      <trkpt lat="50.1993" lon="4.30719">
        <ele>240</ele>
        <time>2021-02-28T09:08:37Z</time>
      </trkpt>
      <trkpt lat="50.1993" lon="4.3073">
        <ele>240</ele>
        <time>2021-02-28T09:08:39Z</time>
      </trkpt>
      <trkpt lat="50.1993" lon="4.30741">
        <ele>241</ele>
        <time>2021-02-28T09:08:41Z</time>
      </trkpt>
      <trkpt lat="50.19928" lon="4.30753">
        <ele>241</ele>
        <time>2021-02-28T09:08:43Z</time>
      </trkpt>
      <trkpt lat="50.19928" lon="4.30764">
        <ele>243</ele>
        <time>2021-02-28T09:08:45Z</time>
      </trkpt>
      <trkpt lat="50.19928" lon="4.30777">
        <ele>243</ele>
        <time>2021-02-28T09:08:47Z</time>
      </trkpt>
      <trkpt lat="50.19927" lon="4.30789">
        <ele>243</ele>
        <time>2021-02-28T09:08:49Z</time>
      </trkpt>
      <trkpt lat="50.19925" lon="4.30801">
        <ele>243</ele>
        <time>2021-02-28T09:08:51Z</time>
      </trkpt>
      <trkpt lat="50.19925" lon="4.30813">
        <ele>243</ele>
        <time>2021-02-28T09:08:53Z</time>
      </trkpt>
      <trkpt lat="50.19924" lon="4.30825">
        <ele>244</ele>
        <time>2021-02-28T09:08:55Z</time>
      </trkpt>
      <trkpt lat="50.19924" lon="4.30837">
        <ele>244</ele>
        <time>2021-02-28T09:08:57Z</time>
      </trkpt>
      <trkpt lat="50.19923" lon="4.3085">
        <ele>244</ele>
        <time>2021-02-28T09:08:59Z</time>
      </trkpt>
      <trkpt lat="50.19922" lon="4.30862">
        <ele>244</ele>
        <time>2021-02-28T09:09:01Z</time>
      </trkpt>
      <trkpt lat="50.19923" lon="4.30874">
        <ele>244</ele>
        <time>2021-02-28T09:09:03Z</time>
      </trkpt>
      <trkpt lat="50.19923" lon="4.30886">
        <ele>244</ele>
        <time>2021-02-28T09:09:05Z</time>
      </trkpt>
      <trkpt lat="50.19923" lon="4.30899">
        <ele>244</ele>
        <time>2021-02-28T09:09:07Z</time>
      </trkpt>
      <trkpt lat="50.19923" lon="4.30911">
        <ele>245</ele>
        <time>2021-02-28T09:09:09Z</time>
      </trkpt>
      <trkpt lat="50.19923" lon="4.30923">
        <ele>245</ele>
        <time>2021-02-28T09:09:11Z</time>
      </trkpt>
      <trkpt lat="50.19923" lon="4.30936">
        <ele>246</ele>
        <time>2021-02-28T09:09:13Z</time>
      </trkpt>
      <trkpt lat="50.19923" lon="4.30948">
        <ele>246</ele>
        <time>2021-02-28T09:09:15Z</time>
      </trkpt>
      <trkpt lat="50.19924" lon="4.30961">
        <ele>247</ele>
        <time>2021-02-28T09:09:17Z</time>
      </trkpt>
      <trkpt lat="50.19924" lon="4.30973">
        <ele>247</ele>
        <time>2021-02-28T09:09:19Z</time>
      </trkpt>
      <trkpt lat="50.19925" lon="4.30985">
        <ele>247</ele>
        <time>2021-02-28T09:09:21Z</time>
      </trkpt>
      <trkpt lat="50.19925" lon="4.30998">
        <ele>247</ele>
        <time>2021-02-28T09:09:23Z</time>
      </trkpt>
      <trkpt lat="50.19925" lon="4.31011">
        <ele>247</ele>
        <time>2021-02-28T09:09:25Z</time>
      </trkpt>
      <trkpt lat="50.19926" lon="4.31023">
        <ele>247</ele>
        <time>2021-02-28T09:09:27Z</time>
      </trkpt>
      <trkpt lat="50.19927" lon="4.31036">
        <ele>247</ele>
        <time>2021-02-28T09:09:29Z</time>
      </trkpt>
      <trkpt lat="50.19928" lon="4.31049">
        <ele>247</ele>
        <time>2021-02-28T09:09:31Z</time>
      </trkpt>
      <trkpt lat="50.19928" lon="4.31062">
        <ele>247</ele>
        <time>2021-02-28T09:09:33Z</time>
      </trkpt>
      <trkpt lat="50.19929" lon="4.31075">
        <ele>246</ele>
        <time>2021-02-28T09:09:35Z</time>
      </trkpt>
      <trkpt lat="50.1993" lon="4.31089">
        <ele>246</ele>
        <time>2021-02-28T09:09:37Z</time>
      </trkpt>
      <trkpt lat="50.19931" lon="4.31103">
        <ele>247</ele>
        <time>2021-02-28T09:09:39Z</time>
      </trkpt>
      <trkpt lat="50.19932" lon="4.31117">
        <ele>247</ele>
        <time>2021-02-28T09:09:41Z</time>
      </trkpt>
      <trkpt lat="50.19933" lon="4.31131">
        <ele>246</ele>
        <time>2021-02-28T09:09:43Z</time>
      </trkpt>
      <trkpt lat="50.19934" lon="4.31145">
        <ele>246</ele>
        <time>2021-02-28T09:09:45Z</time>
      </trkpt>
      <trkpt lat="50.19935" lon="4.31159">
        <ele>246</ele>
        <time>2021-02-28T09:09:47Z</time>
      </trkpt>
      <trkpt lat="50.19936" lon="4.31173">
        <ele>246</ele>
        <time>2021-02-28T09:09:49Z</time>
      </trkpt>
      <trkpt lat="50.19938" lon="4.31188">
        <ele>245</ele>
        <time>2021-02-28T09:09:51Z</time>
      </trkpt>
      <trkpt lat="50.19937" lon="4.31203">
        <ele>245</ele>
        <time>2021-02-28T09:09:53Z</time>
      </trkpt>
      <trkpt lat="50.19938" lon="4.31217">
        <ele>244</ele>
        <time>2021-02-28T09:09:55Z</time>
      </trkpt>
      <trkpt lat="50.19938" lon="4.31231">
        <ele>244</ele>
        <time>2021-02-28T09:09:57Z</time>
      </trkpt>
      <trkpt lat="50.19939" lon="4.31244">
        <ele>244</ele>
        <time>2021-02-28T09:09:59Z</time>
      </trkpt>
      <trkpt lat="50.1994" lon="4.31257">
        <ele>244</ele>
        <time>2021-02-28T09:10:01Z</time>
      </trkpt>
      <trkpt lat="50.19941" lon="4.3127">
        <ele>244</ele>
        <time>2021-02-28T09:10:03Z</time>
      </trkpt>
      <trkpt lat="50.1994" lon="4.31282">
        <ele>244</ele>
        <time>2021-02-28T09:10:05Z</time>
      </trkpt>
      <trkpt lat="50.19934" lon="4.31289">
        <ele>244</ele>
        <time>2021-02-28T09:10:07Z</time>
      </trkpt>
      <trkpt lat="50.19925" lon="4.31293">
        <ele>243</ele>
        <time>2021-02-28T09:10:09Z</time>
      </trkpt>
      <trkpt lat="50.19914" lon="4.31296">
        <ele>243</ele>
        <time>2021-02-28T09:10:11Z</time>
      </trkpt>
      <trkpt lat="50.19902" lon="4.313">
        <ele>242</ele>
        <time>2021-02-28T09:10:13Z</time>
      </trkpt>
      <trkpt lat="50.19888" lon="4.31304">
        <ele>242</ele>
        <time>2021-02-28T09:10:15Z</time>
      </trkpt>
      <trkpt lat="50.19874" lon="4.31309">
        <ele>240</ele>
        <time>2021-02-28T09:10:17Z</time>
      </trkpt>
      <trkpt lat="50.1986" lon="4.31312">
        <ele>240</ele>
        <time>2021-02-28T09:10:19Z</time>
      </trkpt>
      <trkpt lat="50.19844" lon="4.31315">
        <ele>238</ele>
        <time>2021-02-28T09:10:21Z</time>
      </trkpt>
      <trkpt lat="50.19829" lon="4.31319">
        <ele>238</ele>
        <time>2021-02-28T09:10:23Z</time>
      </trkpt>
      <trkpt lat="50.19814" lon="4.31323">
        <ele>236</ele>
        <time>2021-02-28T09:10:25Z</time>
      </trkpt>
      <trkpt lat="50.19799" lon="4.31327">
        <ele>236</ele>
        <time>2021-02-28T09:10:27Z</time>
      </trkpt>
      <trkpt lat="50.19787" lon="4.31335">
        <ele>236</ele>
        <time>2021-02-28T09:10:29Z</time>
      </trkpt>
      <trkpt lat="50.19778" lon="4.31345">
        <ele>236</ele>
        <time>2021-02-28T09:10:31Z</time>
      </trkpt>
      <trkpt lat="50.19773" lon="4.31357">
        <ele>238</ele>
        <time>2021-02-28T09:10:33Z</time>
      </trkpt>
      <trkpt lat="50.19772" lon="4.31369">
        <ele>238</ele>
        <time>2021-02-28T09:10:35Z</time>
      </trkpt>
      <trkpt lat="50.19774" lon="4.3138">
        <ele>238</ele>
        <time>2021-02-28T09:10:37Z</time>
      </trkpt>
      <trkpt lat="50.19777" lon="4.3139">
        <ele>238</ele>
        <time>2021-02-28T09:10:39Z</time>
      </trkpt>
      <trkpt lat="50.1978" lon="4.31401">
        <ele>238</ele>
        <time>2021-02-28T09:10:41Z</time>
      </trkpt>
      <trkpt lat="50.19784" lon="4.31412">
        <ele>238</ele>
        <time>2021-02-28T09:10:43Z</time>
      </trkpt>
      <trkpt lat="50.19787" lon="4.31423">
        <ele>238</ele>
        <time>2021-02-28T09:10:45Z</time>
      </trkpt>
      <trkpt lat="50.1979" lon="4.31434">
        <ele>238</ele>
        <time>2021-02-28T09:10:47Z</time>
      </trkpt>
      <trkpt lat="50.19792" lon="4.31444">
        <ele>235</ele>
        <time>2021-02-28T09:10:49Z</time>
      </trkpt>
      <trkpt lat="50.19793" lon="4.31454">
        <ele>235</ele>
        <time>2021-02-28T09:10:51Z</time>
      </trkpt>
      <trkpt lat="50.19794" lon="4.31465">
        <ele>236</ele>
        <time>2021-02-28T09:10:53Z</time>
      </trkpt>
      <trkpt lat="50.19795" lon="4.31476">
        <ele>236</ele>
        <time>2021-02-28T09:10:55Z</time>
      </trkpt>
      <trkpt lat="50.19795" lon="4.31487">
        <ele>235</ele>
        <time>2021-02-28T09:10:57Z</time>
      </trkpt>
      <trkpt lat="50.19794" lon="4.31499">
        <ele>235</ele>
        <time>2021-02-28T09:10:59Z</time>
      </trkpt>
      <trkpt lat="50.19793" lon="4.3151">
        <ele>235</ele>
        <time>2021-02-28T09:11:01Z</time>
      </trkpt>
      <trkpt lat="50.19792" lon="4.31521">
        <ele>237</ele>
        <time>2021-02-28T09:11:03Z</time>
      </trkpt>
      <trkpt lat="50.19791" lon="4.31531">
        <ele>239</ele>
        <time>2021-02-28T09:11:05Z</time>
      </trkpt>
      <trkpt lat="50.19791" lon="4.31541">
        <ele>239</ele>
        <time>2021-02-28T09:11:07Z</time>
      </trkpt>
      <trkpt lat="50.19789" lon="4.31549">
        <ele>240</ele>
        <time>2021-02-28T09:11:09Z</time>
      </trkpt>
      <trkpt lat="50.19788" lon="4.31557">
        <ele>240</ele>
        <time>2021-02-28T09:11:11Z</time>
      </trkpt>
      <trkpt lat="50.19787" lon="4.31566">
        <ele>240</ele>
        <time>2021-02-28T09:11:13Z</time>
      </trkpt>
      <trkpt lat="50.19785" lon="4.31574">
        <ele>241</ele>
        <time>2021-02-28T09:11:15Z</time>
      </trkpt>
      <trkpt lat="50.19784" lon="4.31583">
        <ele>241</ele>
        <time>2021-02-28T09:11:17Z</time>
      </trkpt>
      <trkpt lat="50.19783" lon="4.31591">
        <ele>241</ele>
        <time>2021-02-28T09:11:19Z</time>
      </trkpt>
      <trkpt lat="50.19783" lon="4.31599">
        <ele>243</ele>
        <time>2021-02-28T09:11:21Z</time>
      </trkpt>
      <trkpt lat="50.19783" lon="4.31608">
        <ele>243</ele>
        <time>2021-02-28T09:11:23Z</time>
      </trkpt>
      <trkpt lat="50.19781" lon="4.31616">
        <ele>243</ele>
        <time>2021-02-28T09:11:25Z</time>
      </trkpt>
      <trkpt lat="50.1978" lon="4.31624">
        <ele>243</ele>
        <time>2021-02-28T09:11:27Z</time>
      </trkpt>
      <trkpt lat="50.19779" lon="4.31633">
        <ele>243</ele>
        <time>2021-02-28T09:11:29Z</time>
      </trkpt>
      <trkpt lat="50.19777" lon="4.31641">
        <ele>243</ele>
        <time>2021-02-28T09:11:31Z</time>
      </trkpt>
      <trkpt lat="50.19775" lon="4.31649">
        <ele>243</ele>
        <time>2021-02-28T09:11:33Z</time>
      </trkpt>
      <trkpt lat="50.19774" lon="4.31658">
        <ele>241</ele>
        <time>2021-02-28T09:11:35Z</time>
      </trkpt>
      <trkpt lat="50.19772" lon="4.31666">
        <ele>241</ele>
        <time>2021-02-28T09:11:37Z</time>
      </trkpt>
      <trkpt lat="50.1977" lon="4.31675">
        <ele>241</ele>
        <time>2021-02-28T09:11:39Z</time>
      </trkpt>
      <trkpt lat="50.19767" lon="4.31683">
        <ele>242</ele>
        <time>2021-02-28T09:11:41Z</time>
      </trkpt>
      <trkpt lat="50.19765" lon="4.31692">
        <ele>242</ele>
        <time>2021-02-28T09:11:43Z</time>
      </trkpt>
      <trkpt lat="50.19762" lon="4.317">
        <ele>245</ele>
        <time>2021-02-28T09:11:45Z</time>
      </trkpt>
      <trkpt lat="50.19761" lon="4.31708">
        <ele>245</ele>
        <time>2021-02-28T09:11:47Z</time>
      </trkpt>
      <trkpt lat="50.19758" lon="4.31716">
        <ele>245</ele>
        <time>2021-02-28T09:11:49Z</time>
      </trkpt>
      <trkpt lat="50.19755" lon="4.31725">
        <ele>245</ele>
        <time>2021-02-28T09:11:51Z</time>
      </trkpt>
      <trkpt lat="50.19753" lon="4.31733">
        <ele>245</ele>
        <time>2021-02-28T09:11:53Z</time>
      </trkpt>
      <trkpt lat="50.1975" lon="4.31741">
        <ele>244</ele>
        <time>2021-02-28T09:11:55Z</time>
      </trkpt>
      <trkpt lat="50.19747" lon="4.31748">
        <ele>244</ele>
        <time>2021-02-28T09:11:57Z</time>
      </trkpt>
      <trkpt lat="50.19745" lon="4.31756">
        <ele>244</ele>
        <time>2021-02-28T09:11:59Z</time>
      </trkpt>
      <trkpt lat="50.19743" lon="4.31763">
        <ele>244</ele>
        <time>2021-02-28T09:12:01Z</time>
      </trkpt>
      <trkpt lat="50.1974" lon="4.31771">
        <ele>243</ele>
        <time>2021-02-28T09:12:03Z</time>
      </trkpt>
      <trkpt lat="50.19738" lon="4.31779">
        <ele>243</ele>
        <time>2021-02-28T09:12:05Z</time>
      </trkpt>
      <trkpt lat="50.19735" lon="4.31787">
        <ele>248</ele>
        <time>2021-02-28T09:12:07Z</time>
      </trkpt>
      <trkpt lat="50.19733" lon="4.31796">
        <ele>249</ele>
        <time>2021-02-28T09:12:09Z</time>
      </trkpt>
      <trkpt lat="50.19732" lon="4.31805">
        <ele>249</ele>
        <time>2021-02-28T09:12:11Z</time>
      </trkpt>
      <trkpt lat="50.1973" lon="4.31814">
        <ele>249</ele>
        <time>2021-02-28T09:12:13Z</time>
      </trkpt>
      <trkpt lat="50.19728" lon="4.31823">
        <ele>250</ele>
        <time>2021-02-28T09:12:15Z</time>
      </trkpt>
      <trkpt lat="50.19726" lon="4.31831">
        <ele>250</ele>
        <time>2021-02-28T09:12:17Z</time>
      </trkpt>
      <trkpt lat="50.19725" lon="4.3184">
        <ele>250</ele>
        <time>2021-02-28T09:12:19Z</time>
      </trkpt>
      <trkpt lat="50.19724" lon="4.31849">
        <ele>249</ele>
        <time>2021-02-28T09:12:21Z</time>
      </trkpt>
      <trkpt lat="50.19722" lon="4.31858">
        <ele>249</ele>
        <time>2021-02-28T09:12:23Z</time>
      </trkpt>
      <trkpt lat="50.19722" lon="4.31867">
        <ele>249</ele>
        <time>2021-02-28T09:12:25Z</time>
      </trkpt>
      <trkpt lat="50.19721" lon="4.31876">
        <ele>250</ele>
        <time>2021-02-28T09:12:27Z</time>
      </trkpt>
      <trkpt lat="50.1972" lon="4.31886">
        <ele>250</ele>
        <time>2021-02-28T09:12:29Z</time>
      </trkpt>
      <trkpt lat="50.19719" lon="4.31897">
        <ele>250</ele>
        <time>2021-02-28T09:12:31Z</time>
      </trkpt>
      <trkpt lat="50.19718" lon="4.31907">
        <ele>249</ele>
        <time>2021-02-28T09:12:33Z</time>
      </trkpt>
      <trkpt lat="50.19717" lon="4.31918">
        <ele>249</ele>
        <time>2021-02-28T09:12:35Z</time>
      </trkpt>
      <trkpt lat="50.19716" lon="4.31928">
        <ele>249</ele>
        <time>2021-02-28T09:12:37Z</time>
      </trkpt>
      <trkpt lat="50.19715" lon="4.31938">
        <ele>249</ele>
        <time>2021-02-28T09:12:39Z</time>
      </trkpt>
      <trkpt lat="50.19714" lon="4.31949">
        <ele>249</ele>
        <time>2021-02-28T09:12:41Z</time>
      </trkpt>
      <trkpt lat="50.19713" lon="4.31959">
        <ele>249</ele>
        <time>2021-02-28T09:12:43Z</time>
      </trkpt>
      <trkpt lat="50.19712" lon="4.31969">
        <ele>249</ele>
        <time>2021-02-28T09:12:45Z</time>
      </trkpt>
      <trkpt lat="50.19711" lon="4.31979">
        <ele>249</ele>
        <time>2021-02-28T09:12:47Z</time>
      </trkpt>
      <trkpt lat="50.19709" lon="4.31989">
        <ele>248</ele>
        <time>2021-02-28T09:12:49Z</time>
      </trkpt>
      <trkpt lat="50.19708" lon="4.31998">
        <ele>250</ele>
        <time>2021-02-28T09:12:51Z</time>
      </trkpt>
      <trkpt lat="50.19708" lon="4.32008">
        <ele>250</ele>
        <time>2021-02-28T09:12:53Z</time>
      </trkpt>
      <trkpt lat="50.19706" lon="4.32018">
        <ele>250</ele>
        <time>2021-02-28T09:12:55Z</time>
      </trkpt>
      <trkpt lat="50.19706" lon="4.32027">
        <ele>250</ele>
        <time>2021-02-28T09:12:57Z</time>
      </trkpt>
      <trkpt lat="50.19704" lon="4.32037">
        <ele>250</ele>
        <time>2021-02-28T09:12:59Z</time>
      </trkpt>
      <trkpt lat="50.19703" lon="4.32047">
        <ele>249</ele>
        <time>2021-02-28T09:13:01Z</time>
      </trkpt>
      <trkpt lat="50.19702" lon="4.32057">
        <ele>249</ele>
        <time>2021-02-28T09:13:03Z</time>
      </trkpt>
      <trkpt lat="50.19701" lon="4.32067">
        <ele>249</ele>
        <time>2021-02-28T09:13:05Z</time>
      </trkpt>
      <trkpt lat="50.197" lon="4.32076">
        <ele>248</ele>
        <time>2021-02-28T09:13:07Z</time>
      </trkpt>
      <trkpt lat="50.19698" lon="4.32086">
        <ele>248</ele>
        <time>2021-02-28T09:13:09Z</time>
      </trkpt>
      <trkpt lat="50.19697" lon="4.32095">
        <ele>248</ele>
        <time>2021-02-28T09:13:11Z</time>
      </trkpt>
      <trkpt lat="50.19696" lon="4.32106">
        <ele>248</ele>
        <time>2021-02-28T09:13:13Z</time>
      </trkpt>
      <trkpt lat="50.19694" lon="4.32116">
        <ele>248</ele>
        <time>2021-02-28T09:13:15Z</time>
      </trkpt>
      <trkpt lat="50.19693" lon="4.32127">
        <ele>248</ele>
        <time>2021-02-28T09:13:17Z</time>
      </trkpt>
      <trkpt lat="50.19691" lon="4.32137">
        <ele>248</ele>
        <time>2021-02-28T09:13:19Z</time>
      </trkpt>
      <trkpt lat="50.19689" lon="4.32147">
        <ele>248</ele>
        <time>2021-02-28T09:13:21Z</time>
      </trkpt>
      <trkpt lat="50.19688" lon="4.32159">
        <ele>248</ele>
        <time>2021-02-28T09:13:23Z</time>
      </trkpt>
      <trkpt lat="50.19687" lon="4.32169">
        <ele>248</ele>
        <time>2021-02-28T09:13:25Z</time>
      </trkpt>
      <trkpt lat="50.19685" lon="4.3218">
        <ele>248</ele>
        <time>2021-02-28T09:13:27Z</time>
      </trkpt>
      <trkpt lat="50.19684" lon="4.32191">
        <ele>248</ele>
        <time>2021-02-28T09:13:29Z</time>
      </trkpt>
      <trkpt lat="50.19682" lon="4.32202">
        <ele>248</ele>
        <time>2021-02-28T09:13:31Z</time>
      </trkpt>
      <trkpt lat="50.1968" lon="4.32212">
        <ele>250</ele>
        <time>2021-02-28T09:13:33Z</time>
      </trkpt>
      <trkpt lat="50.19678" lon="4.32223">
        <ele>250</ele>
        <time>2021-02-28T09:13:35Z</time>
      </trkpt>
      <trkpt lat="50.19676" lon="4.32233">
        <ele>250</ele>
        <time>2021-02-28T09:13:37Z</time>
      </trkpt>
      <trkpt lat="50.19674" lon="4.32244">
        <ele>250</ele>
        <time>2021-02-28T09:13:39Z</time>
      </trkpt>
      <trkpt lat="50.19672" lon="4.32254">
        <ele>250</ele>
        <time>2021-02-28T09:13:41Z</time>
      </trkpt>
      <trkpt lat="50.19671" lon="4.32264">
        <ele>250</ele>
        <time>2021-02-28T09:13:43Z</time>
      </trkpt>
      <trkpt lat="50.1967" lon="4.32274">
        <ele>251</ele>
        <time>2021-02-28T09:13:45Z</time>
      </trkpt>
      <trkpt lat="50.19669" lon="4.32284">
        <ele>251</ele>
        <time>2021-02-28T09:13:47Z</time>
      </trkpt>
      <trkpt lat="50.19668" lon="4.32294">
        <ele>251</ele>
        <time>2021-02-28T09:13:49Z</time>
      </trkpt>
      <trkpt lat="50.19667" lon="4.32304">
        <ele>251</ele>
        <time>2021-02-28T09:13:51Z</time>
      </trkpt>
      <trkpt lat="50.19666" lon="4.32314">
        <ele>251</ele>
        <time>2021-02-28T09:13:53Z</time>
      </trkpt>
      <trkpt lat="50.19665" lon="4.32323">
        <ele>252</ele>
        <time>2021-02-28T09:13:55Z</time>
      </trkpt>
      <trkpt lat="50.19664" lon="4.32331">
        <ele>252</ele>
        <time>2021-02-28T09:13:57Z</time>
      </trkpt>
      <trkpt lat="50.19664" lon="4.32338">
        <ele>252</ele>
        <time>2021-02-28T09:13:59Z</time>
      </trkpt>
      <trkpt lat="50.19664" lon="4.32348">
        <ele>251</ele>
        <time>2021-02-28T09:14:01Z</time>
      </trkpt>
      <trkpt lat="50.19663" lon="4.32358">
        <ele>251</ele>
        <time>2021-02-28T09:14:03Z</time>
      </trkpt>
      <trkpt lat="50.19662" lon="4.32368">
        <ele>251</ele>
        <time>2021-02-28T09:14:05Z</time>
      </trkpt>
      <trkpt lat="50.19661" lon="4.32378">
        <ele>251</ele>
        <time>2021-02-28T09:14:07Z</time>
      </trkpt>
      <trkpt lat="50.19659" lon="4.32387">
        <ele>251</ele>
        <time>2021-02-28T09:14:09Z</time>
      </trkpt>
      <trkpt lat="50.19659" lon="4.32397">
        <ele>251</ele>
        <time>2021-02-28T09:14:11Z</time>
      </trkpt>
      <trkpt lat="50.19658" lon="4.32406">
        <ele>251</ele>
        <time>2021-02-28T09:14:13Z</time>
      </trkpt>
      <trkpt lat="50.19657" lon="4.32416">
        <ele>251</ele>
        <time>2021-02-28T09:14:15Z</time>
      </trkpt>
      <trkpt lat="50.19656" lon="4.32426">
        <ele>251</ele>
        <time>2021-02-28T09:14:17Z</time>
      </trkpt>
      <trkpt lat="50.19656" lon="4.32436">
        <ele>251</ele>
        <time>2021-02-28T09:14:19Z</time>
      </trkpt>
      <trkpt lat="50.19655" lon="4.32445">
        <ele>251</ele>
        <time>2021-02-28T09:14:21Z</time>
      </trkpt>
      <trkpt lat="50.19654" lon="4.32455">
        <ele>251</ele>
        <time>2021-02-28T09:14:23Z</time>
      </trkpt>
      <trkpt lat="50.19653" lon="4.32464">
        <ele>251</ele>
        <time>2021-02-28T09:14:25Z</time>
      </trkpt>
      <trkpt lat="50.19651" lon="4.32474">
        <ele>252</ele>
        <time>2021-02-28T09:14:27Z</time>
      </trkpt>
      <trkpt lat="50.1965" lon="4.32483">
        <ele>252</ele>
        <time>2021-02-28T09:14:29Z</time>
      </trkpt>
      <trkpt lat="50.19648" lon="4.32493">
        <ele>252</ele>
        <time>2021-02-28T09:14:31Z</time>
      </trkpt>
      <trkpt lat="50.19646" lon="4.32502">
        <ele>252</ele>
        <time>2021-02-28T09:14:33Z</time>
      </trkpt>
      <trkpt lat="50.19643" lon="4.32511">
        <ele>252</ele>
        <time>2021-02-28T09:14:35Z</time>
      </trkpt>
      <trkpt lat="50.19641" lon="4.3252">
        <ele>253</ele>
        <time>2021-02-28T09:14:37Z</time>
      </trkpt>
      <trkpt lat="50.19638" lon="4.32529">
        <ele>253</ele>
        <time>2021-02-28T09:14:39Z</time>
      </trkpt>
      <trkpt lat="50.19636" lon="4.32538">
        <ele>253</ele>
        <time>2021-02-28T09:14:41Z</time>
      </trkpt>
      <trkpt lat="50.19634" lon="4.32548">
        <ele>253</ele>
        <time>2021-02-28T09:14:43Z</time>
      </trkpt>
      <trkpt lat="50.19632" lon="4.32557">
        <ele>253</ele>
        <time>2021-02-28T09:14:45Z</time>
      </trkpt>
      <trkpt lat="50.1963" lon="4.32566">
        <ele>253</ele>
        <time>2021-02-28T09:14:47Z</time>
      </trkpt>
      <trkpt lat="50.19628" lon="4.32575">
        <ele>253</ele>
        <time>2021-02-28T09:14:49Z</time>
      </trkpt>
      <trkpt lat="50.19627" lon="4.32585">
        <ele>253</ele>
        <time>2021-02-28T09:14:51Z</time>
      </trkpt>
      <trkpt lat="50.19625" lon="4.32594">
        <ele>255</ele>
        <time>2021-02-28T09:14:53Z</time>
      </trkpt>
      <trkpt lat="50.19622" lon="4.32602">
        <ele>256</ele>
        <time>2021-02-28T09:14:55Z</time>
      </trkpt>
      <trkpt lat="50.19619" lon="4.32609">
        <ele>256</ele>
        <time>2021-02-28T09:14:57Z</time>
      </trkpt>
      <trkpt lat="50.19617" lon="4.32615">
        <ele>256</ele>
        <time>2021-02-28T09:14:59Z</time>
      </trkpt>
      <trkpt lat="50.19615" lon="4.32623">
        <ele>256</ele>
        <time>2021-02-28T09:15:01Z</time>
      </trkpt>
      <trkpt lat="50.19614" lon="4.32632">
        <ele>256</ele>
        <time>2021-02-28T09:15:03Z</time>
      </trkpt>
      <trkpt lat="50.19613" lon="4.32642">
        <ele>256</ele>
        <time>2021-02-28T09:15:05Z</time>
      </trkpt>
      <trkpt lat="50.19613" lon="4.32651">
        <ele>256</ele>
        <time>2021-02-28T09:15:07Z</time>
      </trkpt>
      <trkpt lat="50.19611" lon="4.3266">
        <ele>256</ele>
        <time>2021-02-28T09:15:09Z</time>
      </trkpt>
      <trkpt lat="50.19609" lon="4.3267">
        <ele>256</ele>
        <time>2021-02-28T09:15:11Z</time>
      </trkpt>
      <trkpt lat="50.19607" lon="4.32678">
        <ele>256</ele>
        <time>2021-02-28T09:15:13Z</time>
      </trkpt>
      <trkpt lat="50.19604" lon="4.32686">
        <ele>257</ele>
        <time>2021-02-28T09:15:15Z</time>
      </trkpt>
      <trkpt lat="50.19601" lon="4.32693">
        <ele>257</ele>
        <time>2021-02-28T09:15:17Z</time>
      </trkpt>
      <trkpt lat="50.19597" lon="4.327">
        <ele>258</ele>
        <time>2021-02-28T09:15:19Z</time>
      </trkpt>
      <trkpt lat="50.19592" lon="4.32706">
        <ele>258</ele>
        <time>2021-02-28T09:15:21Z</time>
      </trkpt>
      <trkpt lat="50.19587" lon="4.32711">
        <ele>258</ele>
        <time>2021-02-28T09:15:23Z</time>
      </trkpt>
      <trkpt lat="50.19582" lon="4.32718">
        <ele>258</ele>
        <time>2021-02-28T09:15:25Z</time>
      </trkpt>
      <trkpt lat="50.19576" lon="4.32725">
        <ele>258</ele>
        <time>2021-02-28T09:15:27Z</time>
      </trkpt>
      <trkpt lat="50.19571" lon="4.32732">
        <ele>258</ele>
        <time>2021-02-28T09:15:29Z</time>
      </trkpt>
      <trkpt lat="50.19566" lon="4.32739">
        <ele>259</ele>
        <time>2021-02-28T09:15:31Z</time>
      </trkpt>
      <trkpt lat="50.1956" lon="4.32746">
        <ele>259</ele>
        <time>2021-02-28T09:15:33Z</time>
      </trkpt>
      <trkpt lat="50.19555" lon="4.32753">
        <ele>259</ele>
        <time>2021-02-28T09:15:35Z</time>
      </trkpt>
      <trkpt lat="50.1955" lon="4.32761">
        <ele>259</ele>
        <time>2021-02-28T09:15:37Z</time>
      </trkpt>
      <trkpt lat="50.19545" lon="4.32769">
        <ele>260</ele>
        <time>2021-02-28T09:15:39Z</time>
      </trkpt>
      <trkpt lat="50.19541" lon="4.32778">
        <ele>261</ele>
        <time>2021-02-28T09:15:41Z</time>
      </trkpt>
      <trkpt lat="50.19537" lon="4.32787">
        <ele>261</ele>
        <time>2021-02-28T09:15:43Z</time>
      </trkpt>
      <trkpt lat="50.19533" lon="4.32797">
        <ele>262</ele>
        <time>2021-02-28T09:15:45Z</time>
      </trkpt>
      <trkpt lat="50.19529" lon="4.32806">
        <ele>262</ele>
        <time>2021-02-28T09:15:47Z</time>
      </trkpt>
      <trkpt lat="50.19525" lon="4.32815">
        <ele>262</ele>
        <time>2021-02-28T09:15:49Z</time>
      </trkpt>
      <trkpt lat="50.19522" lon="4.32825">
        <ele>263</ele>
        <time>2021-02-28T09:15:51Z</time>
      </trkpt>
      <trkpt lat="50.19519" lon="4.32836">
        <ele>263</ele>
        <time>2021-02-28T09:15:53Z</time>
      </trkpt>
      <trkpt lat="50.19516" lon="4.32848">
        <ele>263</ele>
        <time>2021-02-28T09:15:55Z</time>
      </trkpt>
      <trkpt lat="50.19515" lon="4.3286">
        <ele>263</ele>
        <time>2021-02-28T09:15:57Z</time>
      </trkpt>
      <trkpt lat="50.19512" lon="4.32873">
        <ele>263</ele>
        <time>2021-02-28T09:15:59Z</time>
      </trkpt>
      <trkpt lat="50.1951" lon="4.32886">
        <ele>264</ele>
        <time>2021-02-28T09:16:01Z</time>
      </trkpt>
      <trkpt lat="50.19507" lon="4.32898">
        <ele>264</ele>
        <time>2021-02-28T09:16:03Z</time>
      </trkpt>
      <trkpt lat="50.19504" lon="4.32911">
        <ele>263</ele>
        <time>2021-02-28T09:16:05Z</time>
      </trkpt>
      <trkpt lat="50.19501" lon="4.32924">
        <ele>263</ele>
        <time>2021-02-28T09:16:07Z</time>
      </trkpt>
      <trkpt lat="50.19498" lon="4.32937">
        <ele>263</ele>
        <time>2021-02-28T09:16:09Z</time>
      </trkpt>
      <trkpt lat="50.19495" lon="4.3295">
        <ele>263</ele>
        <time>2021-02-28T09:16:11Z</time>
      </trkpt>
      <trkpt lat="50.19492" lon="4.32963">
        <ele>262</ele>
        <time>2021-02-28T09:16:13Z</time>
      </trkpt>
      <trkpt lat="50.19489" lon="4.32975">
        <ele>262</ele>
        <time>2021-02-28T09:16:15Z</time>
      </trkpt>
      <trkpt lat="50.19484" lon="4.32989">
        <ele>260</ele>
        <time>2021-02-28T09:16:17Z</time>
      </trkpt>
      <trkpt lat="50.19481" lon="4.33002">
        <ele>260</ele>
        <time>2021-02-28T09:16:19Z</time>
      </trkpt>
      <trkpt lat="50.19479" lon="4.33015">
        <ele>261</ele>
        <time>2021-02-28T09:16:21Z</time>
      </trkpt>
      <trkpt lat="50.19479" lon="4.33029">
        <ele>261</ele>
        <time>2021-02-28T09:16:23Z</time>
      </trkpt>
      <trkpt lat="50.19481" lon="4.33044">
        <ele>261</ele>
        <time>2021-02-28T09:16:25Z</time>
      </trkpt>
      <trkpt lat="50.19483" lon="4.33057">
        <ele>261</ele>
        <time>2021-02-28T09:16:27Z</time>
      </trkpt>
      <trkpt lat="50.19486" lon="4.33071">
        <ele>261</ele>
        <time>2021-02-28T09:16:29Z</time>
      </trkpt>
      <trkpt lat="50.19488" lon="4.33084">
        <ele>261</ele>
        <time>2021-02-28T09:16:31Z</time>
      </trkpt>
      <trkpt lat="50.1949" lon="4.33098">
        <ele>261</ele>
        <time>2021-02-28T09:16:33Z</time>
      </trkpt>
      <trkpt lat="50.19492" lon="4.33112">
        <ele>261</ele>
        <time>2021-02-28T09:16:35Z</time>
      </trkpt>
      <trkpt lat="50.19494" lon="4.33126">
        <ele>261</ele>
        <time>2021-02-28T09:16:37Z</time>
      </trkpt>
      <trkpt lat="50.19495" lon="4.33141">
        <ele>261</ele>
        <time>2021-02-28T09:16:39Z</time>
      </trkpt>
      <trkpt lat="50.19497" lon="4.33156">
        <ele>260</ele>
        <time>2021-02-28T09:16:41Z</time>
      </trkpt>
      <trkpt lat="50.19498" lon="4.33171">
        <ele>260</ele>
        <time>2021-02-28T09:16:43Z</time>
      </trkpt>
      <trkpt lat="50.19498" lon="4.33186">
        <ele>260</ele>
        <time>2021-02-28T09:16:45Z</time>
      </trkpt>
      <trkpt lat="50.19499" lon="4.33201">
        <ele>260</ele>
        <time>2021-02-28T09:16:47Z</time>
      </trkpt>
      <trkpt lat="50.19499" lon="4.33216">
        <ele>260</ele>
        <time>2021-02-28T09:16:49Z</time>
      </trkpt>
      <trkpt lat="50.195" lon="4.33231">
        <ele>260</ele>
        <time>2021-02-28T09:16:51Z</time>
      </trkpt>
      <trkpt lat="50.195" lon="4.33247">
        <ele>259</ele>
        <time>2021-02-28T09:16:53Z</time>
      </trkpt>
      <trkpt lat="50.195" lon="4.33262">
        <ele>259</ele>
        <time>2021-02-28T09:16:55Z</time>
      </trkpt>
      <trkpt lat="50.19501" lon="4.33278">
        <ele>259</ele>
        <time>2021-02-28T09:16:57Z</time>
      </trkpt>
      <trkpt lat="50.19501" lon="4.33294">
        <ele>258</ele>
        <time>2021-02-28T09:16:59Z</time>
      </trkpt>
      <trkpt lat="50.19501" lon="4.3331">
        <ele>258</ele>
        <time>2021-02-28T09:17:01Z</time>
      </trkpt>
      <trkpt lat="50.19501" lon="4.33325">
        <ele>258</ele>
        <time>2021-02-28T09:17:03Z</time>
      </trkpt>
      <trkpt lat="50.19502" lon="4.33341">
        <ele>258</ele>
        <time>2021-02-28T09:17:05Z</time>
      </trkpt>
      <trkpt lat="50.19502" lon="4.33356">
        <ele>258</ele>
        <time>2021-02-28T09:17:07Z</time>
      </trkpt>
      <trkpt lat="50.19502" lon="4.33371">
        <ele>258</ele>
        <time>2021-02-28T09:17:09Z</time>
      </trkpt>
      <trkpt lat="50.19502" lon="4.33387">
        <ele>259</ele>
        <time>2021-02-28T09:17:11Z</time>
      </trkpt>
      <trkpt lat="50.19503" lon="4.33402">
        <ele>259</ele>
        <time>2021-02-28T09:17:13Z</time>
      </trkpt>
      <trkpt lat="50.19503" lon="4.33417">
        <ele>259</ele>
        <time>2021-02-28T09:17:15Z</time>
      </trkpt>
      <trkpt lat="50.19503" lon="4.33433">
        <ele>259</ele>
        <time>2021-02-28T09:17:17Z</time>
      </trkpt>
      <trkpt lat="50.19503" lon="4.33448">
        <ele>259</ele>
        <time>2021-02-28T09:17:19Z</time>
      </trkpt>
      <trkpt lat="50.19503" lon="4.33464">
        <ele>259</ele>
        <time>2021-02-28T09:17:21Z</time>
      </trkpt>
      <trkpt lat="50.19502" lon="4.33479">
        <ele>259</ele>
        <time>2021-02-28T09:17:23Z</time>
      </trkpt>
      <trkpt lat="50.19501" lon="4.33493">
        <ele>258</ele>
        <time>2021-02-28T09:17:25Z</time>
      </trkpt>
      <trkpt lat="50.195" lon="4.33508">
        <ele>258</ele>
        <time>2021-02-28T09:17:27Z</time>
      </trkpt>
      <trkpt lat="50.19498" lon="4.33524">
        <ele>258</ele>
        <time>2021-02-28T09:17:29Z</time>
      </trkpt>
      <trkpt lat="50.19497" lon="4.33539">
        <ele>258</ele>
        <time>2021-02-28T09:17:31Z</time>
      </trkpt>
      <trkpt lat="50.19495" lon="4.33554">
        <ele>258</ele>
        <time>2021-02-28T09:17:33Z</time>
      </trkpt>
      <trkpt lat="50.19492" lon="4.33569">
        <ele>258</ele>
        <time>2021-02-28T09:17:35Z</time>
      </trkpt>
      <trkpt lat="50.1949" lon="4.33585">
        <ele>257</ele>
        <time>2021-02-28T09:17:37Z</time>
      </trkpt>
      <trkpt lat="50.19488" lon="4.33601">
        <ele>258</ele>
        <time>2021-02-28T09:17:39Z</time>
      </trkpt>
      <trkpt lat="50.19486" lon="4.33618">
        <ele>259</ele>
        <time>2021-02-28T09:17:41Z</time>
      </trkpt>
      <trkpt lat="50.19484" lon="4.33634">
        <ele>258</ele>
        <time>2021-02-28T09:17:43Z</time>
      </trkpt>
      <trkpt lat="50.19482" lon="4.3365">
        <ele>258</ele>
        <time>2021-02-28T09:17:45Z</time>
      </trkpt>
      <trkpt lat="50.19479" lon="4.33665">
        <ele>260</ele>
        <time>2021-02-28T09:17:47Z</time>
      </trkpt>
      <trkpt lat="50.19478" lon="4.33681">
        <ele>260</ele>
        <time>2021-02-28T09:17:49Z</time>
      </trkpt>
      <trkpt lat="50.19475" lon="4.33696">
        <ele>259</ele>
        <time>2021-02-28T09:17:51Z</time>
      </trkpt>
      <trkpt lat="50.19473" lon="4.33712">
        <ele>260</ele>
        <time>2021-02-28T09:17:53Z</time>
      </trkpt>
      <trkpt lat="50.19471" lon="4.33728">
        <ele>260</ele>
        <time>2021-02-28T09:17:55Z</time>
      </trkpt>
      <trkpt lat="50.19469" lon="4.33745">
        <ele>259</ele>
        <time>2021-02-28T09:17:57Z</time>
      </trkpt>
      <trkpt lat="50.19467" lon="4.33762">
        <ele>259</ele>
        <time>2021-02-28T09:17:59Z</time>
      </trkpt>
      <trkpt lat="50.19465" lon="4.33778">
        <ele>260</ele>
        <time>2021-02-28T09:18:01Z</time>
      </trkpt>
      <trkpt lat="50.19462" lon="4.33794">
        <ele>259</ele>
        <time>2021-02-28T09:18:03Z</time>
      </trkpt>
      <trkpt lat="50.19461" lon="4.33808">
        <ele>259</ele>
        <time>2021-02-28T09:18:05Z</time>
      </trkpt>
      <trkpt lat="50.19459" lon="4.33821">
        <ele>259</ele>
        <time>2021-02-28T09:18:07Z</time>
      </trkpt>
      <trkpt lat="50.19457" lon="4.33833">
        <ele>259</ele>
        <time>2021-02-28T09:18:09Z</time>
      </trkpt>
      <trkpt lat="50.19455" lon="4.33845">
        <ele>259</ele>
        <time>2021-02-28T09:18:11Z</time>
      </trkpt>
      <trkpt lat="50.19453" lon="4.33856">
        <ele>260</ele>
        <time>2021-02-28T09:18:13Z</time>
      </trkpt>
      <trkpt lat="50.19452" lon="4.33866">
        <ele>260</ele>
        <time>2021-02-28T09:18:15Z</time>
      </trkpt>
      <trkpt lat="50.1945" lon="4.33877">
        <ele>259</ele>
        <time>2021-02-28T09:18:17Z</time>
      </trkpt>
      <trkpt lat="50.19449" lon="4.33889">
        <ele>259</ele>
        <time>2021-02-28T09:18:19Z</time>
      </trkpt>
      <trkpt lat="50.19448" lon="4.33899">
        <ele>259</ele>
        <time>2021-02-28T09:18:21Z</time>
      </trkpt>
      <trkpt lat="50.19449" lon="4.3391">
        <ele>260</ele>
        <time>2021-02-28T09:18:23Z</time>
      </trkpt>
      <trkpt lat="50.1945" lon="4.3392">
        <ele>260</ele>
        <time>2021-02-28T09:18:25Z</time>
      </trkpt>
      <trkpt lat="50.19455" lon="4.3393">
        <ele>260</ele>
        <time>2021-02-28T09:18:27Z</time>
      </trkpt>
      <trkpt lat="50.1946" lon="4.33938">
        <ele>258</ele>
        <time>2021-02-28T09:18:29Z</time>
      </trkpt>
      <trkpt lat="50.19466" lon="4.33946">
        <ele>258</ele>
        <time>2021-02-28T09:18:31Z</time>
      </trkpt>
      <trkpt lat="50.1947" lon="4.33953">
        <ele>258</ele>
        <time>2021-02-28T09:18:33Z</time>
      </trkpt>
      <trkpt lat="50.19473" lon="4.33959">
        <ele>257</ele>
        <time>2021-02-28T09:18:35Z</time>
      </trkpt>
      <trkpt lat="50.19476" lon="4.33964">
        <ele>257</ele>
        <time>2021-02-28T09:18:37Z</time>
      </trkpt>
      <trkpt lat="50.19479" lon="4.3397">
        <ele>257</ele>
        <time>2021-02-28T09:18:39Z</time>
      </trkpt>
      <trkpt lat="50.19483" lon="4.33978">
        <ele>257</ele>
        <time>2021-02-28T09:18:41Z</time>
      </trkpt>
      <trkpt lat="50.19487" lon="4.33986">
        <ele>256</ele>
        <time>2021-02-28T09:18:43Z</time>
      </trkpt>
      <trkpt lat="50.1949" lon="4.33994">
        <ele>256</ele>
        <time>2021-02-28T09:18:45Z</time>
      </trkpt>
      <trkpt lat="50.19493" lon="4.34001">
        <ele>256</ele>
        <time>2021-02-28T09:18:47Z</time>
      </trkpt>
      <trkpt lat="50.19495" lon="4.34008">
        <ele>256</ele>
        <time>2021-02-28T09:18:49Z</time>
      </trkpt>
      <trkpt lat="50.19498" lon="4.34015">
        <ele>256</ele>
        <time>2021-02-28T09:18:51Z</time>
      </trkpt>
      <trkpt lat="50.195" lon="4.34022">
        <ele>256</ele>
        <time>2021-02-28T09:18:53Z</time>
      </trkpt>
      <trkpt lat="50.19503" lon="4.34029">
        <ele>256</ele>
        <time>2021-02-28T09:18:55Z</time>
      </trkpt>
      <trkpt lat="50.19505" lon="4.34035">
        <ele>256</ele>
        <time>2021-02-28T09:18:57Z</time>
      </trkpt>
      <trkpt lat="50.19507" lon="4.34042">
        <ele>256</ele>
        <time>2021-02-28T09:18:59Z</time>
      </trkpt>
      <trkpt lat="50.19508" lon="4.34048">
        <ele>258</ele>
        <time>2021-02-28T09:19:01Z</time>
      </trkpt>
      <trkpt lat="50.19509" lon="4.34054">
        <ele>258</ele>
        <time>2021-02-28T09:19:03Z</time>
      </trkpt>
      <trkpt lat="50.1951" lon="4.34059">
        <ele>258</ele>
        <time>2021-02-28T09:19:05Z</time>
      </trkpt>
      <trkpt lat="50.1951" lon="4.34065">
        <ele>258</ele>
        <time>2021-02-28T09:19:07Z</time>
      </trkpt>
      <trkpt lat="50.19511" lon="4.34072">
        <ele>257</ele>
        <time>2021-02-28T09:19:09Z</time>
      </trkpt>
      <trkpt lat="50.19511" lon="4.34078">
        <ele>257</ele>
        <time>2021-02-28T09:19:11Z</time>
      </trkpt>
      <trkpt lat="50.19512" lon="4.34084">
        <ele>257</ele>
        <time>2021-02-28T09:19:13Z</time>
      </trkpt>
      <trkpt lat="50.19513" lon="4.34091">
        <ele>257</ele>
        <time>2021-02-28T09:19:15Z</time>
      </trkpt>
      <trkpt lat="50.19513" lon="4.34098">
        <ele>258</ele>
        <time>2021-02-28T09:19:17Z</time>
      </trkpt>
      <trkpt lat="50.19515" lon="4.34104">
        <ele>258</ele>
        <time>2021-02-28T09:19:19Z</time>
      </trkpt>
      <trkpt lat="50.19515" lon="4.34111">
        <ele>258</ele>
        <time>2021-02-28T09:19:21Z</time>
      </trkpt>
      <trkpt lat="50.19517" lon="4.34118">
        <ele>258</ele>
        <time>2021-02-28T09:19:23Z</time>
      </trkpt>
      <trkpt lat="50.19519" lon="4.34124">
        <ele>258</ele>
        <time>2021-02-28T09:19:25Z</time>
      </trkpt>
      <trkpt lat="50.19523" lon="4.34131">
        <ele>256</ele>
        <time>2021-02-28T09:19:27Z</time>
      </trkpt>
      <trkpt lat="50.19529" lon="4.34138">
        <ele>256</ele>
        <time>2021-02-28T09:19:29Z</time>
      </trkpt>
      <trkpt lat="50.19537" lon="4.3414">
        <ele>256</ele>
        <time>2021-02-28T09:19:31Z</time>
      </trkpt>
      <trkpt lat="50.19546" lon="4.3414">
        <ele>255</ele>
        <time>2021-02-28T09:19:33Z</time>
      </trkpt>
      <trkpt lat="50.19553" lon="4.34143">
        <ele>255</ele>
        <time>2021-02-28T09:19:35Z</time>
      </trkpt>
      <trkpt lat="50.19561" lon="4.34146">
        <ele>255</ele>
        <time>2021-02-28T09:19:37Z</time>
      </trkpt>
      <trkpt lat="50.19568" lon="4.34149">
        <ele>255</ele>
        <time>2021-02-28T09:19:39Z</time>
      </trkpt>
      <trkpt lat="50.19578" lon="4.34155">
        <ele>253</ele>
        <time>2021-02-28T09:19:41Z</time>
      </trkpt>
      <trkpt lat="50.19589" lon="4.34163">
        <ele>253</ele>
        <time>2021-02-28T09:19:43Z</time>
      </trkpt>
      <trkpt lat="50.19598" lon="4.34178">
        <ele>253</ele>
        <time>2021-02-28T09:19:45Z</time>
      </trkpt>
      <trkpt lat="50.19603" lon="4.34197">
        <ele>253</ele>
        <time>2021-02-28T09:19:47Z</time>
      </trkpt>
      <trkpt lat="50.19606" lon="4.34216">
        <ele>252</ele>
        <time>2021-02-28T09:19:49Z</time>
      </trkpt>
      <trkpt lat="50.19609" lon="4.34233">
        <ele>252</ele>
        <time>2021-02-28T09:19:51Z</time>
      </trkpt>
      <trkpt lat="50.19612" lon="4.34248">
        <ele>252</ele>
        <time>2021-02-28T09:19:53Z</time>
      </trkpt>
      <trkpt lat="50.19615" lon="4.34262">
        <ele>252</ele>
        <time>2021-02-28T09:19:55Z</time>
      </trkpt>
      <trkpt lat="50.19618" lon="4.34276">
        <ele>252</ele>
        <time>2021-02-28T09:19:57Z</time>
      </trkpt>
      <trkpt lat="50.1962" lon="4.34287">
        <ele>252</ele>
        <time>2021-02-28T09:19:59Z</time>
      </trkpt>
      <trkpt lat="50.19626" lon="4.34296">
        <ele>254</ele>
        <time>2021-02-28T09:20:01Z</time>
      </trkpt>
      <trkpt lat="50.19634" lon="4.34302">
        <ele>254</ele>
        <time>2021-02-28T09:20:03Z</time>
      </trkpt>
      <trkpt lat="50.19642" lon="4.34304">
        <ele>254</ele>
        <time>2021-02-28T09:20:05Z</time>
      </trkpt>
      <trkpt lat="50.19651" lon="4.34306">
        <ele>254</ele>
        <time>2021-02-28T09:20:07Z</time>
      </trkpt>
      <trkpt lat="50.1966" lon="4.34307">
        <ele>254</ele>
        <time>2021-02-28T09:20:09Z</time>
      </trkpt>
      <trkpt lat="50.19669" lon="4.34311">
        <ele>254</ele>
        <time>2021-02-28T09:20:11Z</time>
      </trkpt>
      <trkpt lat="50.19677" lon="4.34316">
        <ele>254</ele>
        <time>2021-02-28T09:20:13Z</time>
      </trkpt>
      <trkpt lat="50.19686" lon="4.34322">
        <ele>257</ele>
        <time>2021-02-28T09:20:15Z</time>
      </trkpt>
      <trkpt lat="50.19694" lon="4.34327">
        <ele>257</ele>
        <time>2021-02-28T09:20:17Z</time>
      </trkpt>
      <trkpt lat="50.19702" lon="4.34333">
        <ele>257</ele>
        <time>2021-02-28T09:20:19Z</time>
      </trkpt>
      <trkpt lat="50.19711" lon="4.34338">
        <ele>258</ele>
        <time>2021-02-28T09:20:21Z</time>
      </trkpt>
      <trkpt lat="50.19719" lon="4.34343">
        <ele>258</ele>
        <time>2021-02-28T09:20:23Z</time>
      </trkpt>
      <trkpt lat="50.19727" lon="4.34347">
        <ele>257</ele>
        <time>2021-02-28T09:20:25Z</time>
      </trkpt>
      <trkpt lat="50.19735" lon="4.34352">
        <ele>257</ele>
        <time>2021-02-28T09:20:27Z</time>
      </trkpt>
      <trkpt lat="50.19742" lon="4.34357">
        <ele>256</ele>
        <time>2021-02-28T09:20:29Z</time>
      </trkpt>
      <trkpt lat="50.19749" lon="4.34362">
        <ele>256</ele>
        <time>2021-02-28T09:20:31Z</time>
      </trkpt>
      <trkpt lat="50.19755" lon="4.34366">
        <ele>256</ele>
        <time>2021-02-28T09:20:33Z</time>
      </trkpt>
      <trkpt lat="50.19758" lon="4.34371">
        <ele>256</ele>
        <time>2021-02-28T09:20:35Z</time>
      </trkpt>
      <trkpt lat="50.19756" lon="4.34375">
        <ele>256</ele>
        <time>2021-02-28T09:20:37Z</time>
      </trkpt>
      <trkpt lat="50.19753" lon="4.34376">
        <ele>259</ele>
        <time>2021-02-28T09:20:39Z</time>
      </trkpt>
      <trkpt lat="50.19748" lon="4.3438">
        <ele>259</ele>
        <time>2021-02-28T09:20:41Z</time>
      </trkpt>
      <trkpt lat="50.19742" lon="4.34386">
        <ele>259</ele>
        <time>2021-02-28T09:20:43Z</time>
      </trkpt>
      <trkpt lat="50.19737" lon="4.34391">
        <ele>259</ele>
        <time>2021-02-28T09:20:45Z</time>
      </trkpt>
      <trkpt lat="50.19734" lon="4.34398">
        <ele>260</ele>
        <time>2021-02-28T09:20:47Z</time>
      </trkpt>
      <trkpt lat="50.19732" lon="4.34407">
        <ele>260</ele>
        <time>2021-02-28T09:20:49Z</time>
      </trkpt>
      <trkpt lat="50.1973" lon="4.34417">
        <ele>260</ele>
        <time>2021-02-28T09:20:51Z</time>
      </trkpt>
      <trkpt lat="50.1973" lon="4.34428">
        <ele>260</ele>
        <time>2021-02-28T09:20:53Z</time>
      </trkpt>
      <trkpt lat="50.19729" lon="4.34437">
        <ele>262</ele>
        <time>2021-02-28T09:20:55Z</time>
      </trkpt>
      <trkpt lat="50.19727" lon="4.34444">
        <ele>262</ele>
        <time>2021-02-28T09:20:57Z</time>
      </trkpt>
      <trkpt lat="50.19726" lon="4.34454">
        <ele>262</ele>
        <time>2021-02-28T09:20:59Z</time>
      </trkpt>
      <trkpt lat="50.19725" lon="4.34464">
        <ele>263</ele>
        <time>2021-02-28T09:21:01Z</time>
      </trkpt>
      <trkpt lat="50.19727" lon="4.34474">
        <ele>263</ele>
        <time>2021-02-28T09:21:03Z</time>
      </trkpt>
      <trkpt lat="50.19726" lon="4.34486">
        <ele>263</ele>
        <time>2021-02-28T09:21:05Z</time>
      </trkpt>
      <trkpt lat="50.19725" lon="4.34496">
        <ele>264</ele>
        <time>2021-02-28T09:21:07Z</time>
      </trkpt>
      <trkpt lat="50.19724" lon="4.34507">
        <ele>264</ele>
        <time>2021-02-28T09:21:09Z</time>
      </trkpt>
      <trkpt lat="50.19723" lon="4.34519">
        <ele>264</ele>
        <time>2021-02-28T09:21:11Z</time>
      </trkpt>
      <trkpt lat="50.19721" lon="4.34532">
        <ele>264</ele>
        <time>2021-02-28T09:21:13Z</time>
      </trkpt>
      <trkpt lat="50.19719" lon="4.34545">
        <ele>263</ele>
        <time>2021-02-28T09:21:15Z</time>
      </trkpt>
      <trkpt lat="50.19718" lon="4.34554">
        <ele>263</ele>
        <time>2021-02-28T09:21:17Z</time>
      </trkpt>
      <trkpt lat="50.19717" lon="4.34565">
        <ele>263</ele>
        <time>2021-02-28T09:21:19Z</time>
      </trkpt>
      <trkpt lat="50.19716" lon="4.34576">
        <ele>263</ele>
        <time>2021-02-28T09:21:21Z</time>
      </trkpt>
      <trkpt lat="50.19716" lon="4.34587">
        <ele>263</ele>
        <time>2021-02-28T09:21:23Z</time>
      </trkpt>
      <trkpt lat="50.19715" lon="4.34595">
        <ele>263</ele>
        <time>2021-02-28T09:21:25Z</time>
      </trkpt>
      <trkpt lat="50.19715" lon="4.34602">
        <ele>261</ele>
        <time>2021-02-28T09:21:27Z</time>
      </trkpt>
      <trkpt lat="50.19714" lon="4.34609">
        <ele>261</ele>
        <time>2021-02-28T09:21:29Z</time>
      </trkpt>
      <trkpt lat="50.19712" lon="4.34618">
        <ele>261</ele>
        <time>2021-02-28T09:21:31Z</time>
      </trkpt>
      <trkpt lat="50.19712" lon="4.34624">
        <ele>261</ele>
        <time>2021-02-28T09:21:33Z</time>
      </trkpt>
      <trkpt lat="50.19712" lon="4.34633">
        <ele>261</ele>
        <time>2021-02-28T09:21:35Z</time>
      </trkpt>
      <trkpt lat="50.19711" lon="4.34641">
        <ele>261</ele>
        <time>2021-02-28T09:21:37Z</time>
      </trkpt>
      <trkpt lat="50.19709" lon="4.34648">
        <ele>261</ele>
        <time>2021-02-28T09:21:39Z</time>
      </trkpt>
      <trkpt lat="50.19704" lon="4.34654">
        <ele>263</ele>
        <time>2021-02-28T09:21:41Z</time>
      </trkpt>
      <trkpt lat="50.19701" lon="4.34662">
        <ele>263</ele>
        <time>2021-02-28T09:21:43Z</time>
      </trkpt>
      <trkpt lat="50.19698" lon="4.34669">
        <ele>263</ele>
        <time>2021-02-28T09:21:45Z</time>
      </trkpt>
      <trkpt lat="50.19697" lon="4.34674">
        <ele>263</ele>
        <time>2021-02-28T09:21:47Z</time>
      </trkpt>
      <trkpt lat="50.19695" lon="4.3468">
        <ele>263</ele>
        <time>2021-02-28T09:21:49Z</time>
      </trkpt>
      <trkpt lat="50.19693" lon="4.34684">
        <ele>264</ele>
        <time>2021-02-28T09:21:51Z</time>
      </trkpt>
      <trkpt lat="50.1969" lon="4.34689">
        <ele>264</ele>
        <time>2021-02-28T09:21:53Z</time>
      </trkpt>
      <trkpt lat="50.19687" lon="4.34694">
        <ele>264</ele>
        <time>2021-02-28T09:21:55Z</time>
      </trkpt>
      <trkpt lat="50.19684" lon="4.347">
        <ele>264</ele>
        <time>2021-02-28T09:21:57Z</time>
      </trkpt>
      <trkpt lat="50.19682" lon="4.34704">
        <ele>264</ele>
        <time>2021-02-28T09:21:59Z</time>
      </trkpt>
      <trkpt lat="50.19679" lon="4.3471">
        <ele>268</ele>
        <time>2021-02-28T09:22:01Z</time>
      </trkpt>
      <trkpt lat="50.19679" lon="4.34714">
        <ele>268</ele>
        <time>2021-02-28T09:22:03Z</time>
      </trkpt>
      <trkpt lat="50.19678" lon="4.34716">
        <ele>268</ele>
        <time>2021-02-28T09:22:05Z</time>
      </trkpt>
      <trkpt lat="50.19677" lon="4.34719">
        <ele>268</ele>
        <time>2021-02-28T09:22:07Z</time>
      </trkpt>
      <trkpt lat="50.19675" lon="4.34723">
        <ele>268</ele>
        <time>2021-02-28T09:22:09Z</time>
      </trkpt>
      <trkpt lat="50.19673" lon="4.34726">
        <ele>268</ele>
        <time>2021-02-28T09:22:11Z</time>
      </trkpt>
      <trkpt lat="50.19672" lon="4.3473">
        <ele>268</ele>
        <time>2021-02-28T09:22:13Z</time>
      </trkpt>
      <trkpt lat="50.1967" lon="4.34734">
        <ele>268</ele>
        <time>2021-02-28T09:22:15Z</time>
      </trkpt>
      <trkpt lat="50.19668" lon="4.34736">
        <ele>268</ele>
        <time>2021-02-28T09:22:17Z</time>
      </trkpt>
      <trkpt lat="50.19667" lon="4.34739">
        <ele>268</ele>
        <time>2021-02-28T09:22:19Z</time>
      </trkpt>
      <trkpt lat="50.19664" lon="4.34744">
        <ele>268</ele>
        <time>2021-02-28T09:22:21Z</time>
      </trkpt>
      <trkpt lat="50.19663" lon="4.34748">
        <ele>268</ele>
        <time>2021-02-28T09:22:23Z</time>
      </trkpt>
      <trkpt lat="50.19661" lon="4.34752">
        <ele>268</ele>
        <time>2021-02-28T09:22:25Z</time>
      </trkpt>
      <trkpt lat="50.19658" lon="4.34755">
        <ele>268</ele>
        <time>2021-02-28T09:22:27Z</time>
      </trkpt>
      <trkpt lat="50.19656" lon="4.3476">
        <ele>268</ele>
        <time>2021-02-28T09:22:29Z</time>
      </trkpt>
      <trkpt lat="50.19652" lon="4.34766">
        <ele>269</ele>
        <time>2021-02-28T09:22:31Z</time>
      </trkpt>
      <trkpt lat="50.19648" lon="4.34772">
        <ele>269</ele>
        <time>2021-02-28T09:22:33Z</time>
      </trkpt>
      <trkpt lat="50.19635" lon="4.34791">
        <ele>269</ele>
        <time>2021-02-28T09:22:35Z</time>
      </trkpt>
      <trkpt lat="50.1963" lon="4.34794">
        <ele>268</ele>
        <time>2021-02-28T09:22:37Z</time>
      </trkpt>
      <trkpt lat="50.19625" lon="4.34798">
        <ele>268</ele>
        <time>2021-02-28T09:22:39Z</time>
      </trkpt>
      <trkpt lat="50.19621" lon="4.34804">
        <ele>268</ele>
        <time>2021-02-28T09:22:41Z</time>
      </trkpt>
      <trkpt lat="50.19616" lon="4.34809">
        <ele>268</ele>
        <time>2021-02-28T09:22:43Z</time>
      </trkpt>
      <trkpt lat="50.19611" lon="4.34816">
        <ele>268</ele>
        <time>2021-02-28T09:22:45Z</time>
      </trkpt>
      <trkpt lat="50.19608" lon="4.3482">
        <ele>269</ele>
        <time>2021-02-28T09:22:47Z</time>
      </trkpt>
      <trkpt lat="50.19602" lon="4.34824">
        <ele>269</ele>
        <time>2021-02-28T09:22:49Z</time>
      </trkpt>
      <trkpt lat="50.19599" lon="4.3483">
        <ele>269</ele>
        <time>2021-02-28T09:22:51Z</time>
      </trkpt>
      <trkpt lat="50.19593" lon="4.34836">
        <ele>269</ele>
        <time>2021-02-28T09:22:53Z</time>
      </trkpt>
      <trkpt lat="50.19588" lon="4.34842">
        <ele>269</ele>
        <time>2021-02-28T09:22:55Z</time>
      </trkpt>
      <trkpt lat="50.19582" lon="4.34848">
        <ele>268</ele>
        <time>2021-02-28T09:22:57Z</time>
      </trkpt>
      <trkpt lat="50.19574" lon="4.34853">
        <ele>268</ele>
        <time>2021-02-28T09:22:59Z</time>
      </trkpt>
      <trkpt lat="50.19569" lon="4.34856">
        <ele>267</ele>
        <time>2021-02-28T09:23:01Z</time>
      </trkpt>
      <trkpt lat="50.19564" lon="4.34859">
        <ele>267</ele>
        <time>2021-02-28T09:23:03Z</time>
      </trkpt>
      <trkpt lat="50.19558" lon="4.34861">
        <ele>267</ele>
        <time>2021-02-28T09:23:05Z</time>
      </trkpt>
      <trkpt lat="50.19553" lon="4.34863">
        <ele>267</ele>
        <time>2021-02-28T09:23:07Z</time>
      </trkpt>
      <trkpt lat="50.19547" lon="4.34865">
        <ele>267</ele>
        <time>2021-02-28T09:23:09Z</time>
      </trkpt>
      <trkpt lat="50.19542" lon="4.34866">
        <ele>266</ele>
        <time>2021-02-28T09:23:11Z</time>
      </trkpt>
      <trkpt lat="50.19535" lon="4.34868">
        <ele>266</ele>
        <time>2021-02-28T09:23:13Z</time>
      </trkpt>
      <trkpt lat="50.19528" lon="4.34871">
        <ele>266</ele>
        <time>2021-02-28T09:23:15Z</time>
      </trkpt>
      <trkpt lat="50.19523" lon="4.34874">
        <ele>266</ele>
        <time>2021-02-28T09:23:17Z</time>
      </trkpt>
      <trkpt lat="50.19518" lon="4.34879">
        <ele>266</ele>
        <time>2021-02-28T09:23:19Z</time>
      </trkpt>
      <trkpt lat="50.19515" lon="4.34886">
        <ele>266</ele>
        <time>2021-02-28T09:23:21Z</time>
      </trkpt>
      <trkpt lat="50.19511" lon="4.34891">
        <ele>266</ele>
        <time>2021-02-28T09:23:23Z</time>
      </trkpt>
      <trkpt lat="50.19506" lon="4.34895">
        <ele>266</ele>
        <time>2021-02-28T09:23:25Z</time>
      </trkpt>
      <trkpt lat="50.195" lon="4.34896">
        <ele>266</ele>
        <time>2021-02-28T09:23:27Z</time>
      </trkpt>
      <trkpt lat="50.19492" lon="4.34895">
        <ele>266</ele>
        <time>2021-02-28T09:23:29Z</time>
      </trkpt>
      <trkpt lat="50.19487" lon="4.34894">
        <ele>266</ele>
        <time>2021-02-28T09:23:31Z</time>
      </trkpt>
      <trkpt lat="50.19482" lon="4.34895">
        <ele>266</ele>
        <time>2021-02-28T09:23:33Z</time>
      </trkpt>
      <trkpt lat="50.19476" lon="4.34898">
        <ele>266</ele>
        <time>2021-02-28T09:23:35Z</time>
      </trkpt>
      <trkpt lat="50.19468" lon="4.34901">
        <ele>266</ele>
        <time>2021-02-28T09:23:37Z</time>
      </trkpt>
      <trkpt lat="50.19461" lon="4.34904">
        <ele>269</ele>
        <time>2021-02-28T09:23:39Z</time>
      </trkpt>
      <trkpt lat="50.19456" lon="4.34906">
        <ele>272</ele>
        <time>2021-02-28T09:23:41Z</time>
      </trkpt>
      <trkpt lat="50.1945" lon="4.34908">
        <ele>272</ele>
        <time>2021-02-28T09:23:43Z</time>
      </trkpt>
      <trkpt lat="50.19444" lon="4.34912">
        <ele>272</ele>
        <time>2021-02-28T09:23:45Z</time>
      </trkpt>
      <trkpt lat="50.19437" lon="4.34917">
        <ele>272</ele>
        <time>2021-02-28T09:23:47Z</time>
      </trkpt>
      <trkpt lat="50.1943" lon="4.34921">
        <ele>274</ele>
        <time>2021-02-28T09:23:49Z</time>
      </trkpt>
      <trkpt lat="50.19423" lon="4.34924">
        <ele>274</ele>
        <time>2021-02-28T09:23:51Z</time>
      </trkpt>
      <trkpt lat="50.19417" lon="4.34928">
        <ele>274</ele>
        <time>2021-02-28T09:23:53Z</time>
      </trkpt>
      <trkpt lat="50.1941" lon="4.34933">
        <ele>275</ele>
        <time>2021-02-28T09:23:55Z</time>
      </trkpt>
      <trkpt lat="50.19404" lon="4.34938">
        <ele>275</ele>
        <time>2021-02-28T09:23:57Z</time>
      </trkpt>
      <trkpt lat="50.19397" lon="4.34943">
        <ele>275</ele>
        <time>2021-02-28T09:23:59Z</time>
      </trkpt>
      <trkpt lat="50.19391" lon="4.34946">
        <ele>275</ele>
        <time>2021-02-28T09:24:01Z</time>
      </trkpt>
      <trkpt lat="50.19383" lon="4.34943">
        <ele>275</ele>
        <time>2021-02-28T09:24:03Z</time>
      </trkpt>
      <trkpt lat="50.19377" lon="4.3494">
        <ele>275</ele>
        <time>2021-02-28T09:24:05Z</time>
      </trkpt>
      <trkpt lat="50.19371" lon="4.34937">
        <ele>275</ele>
        <time>2021-02-28T09:24:07Z</time>
      </trkpt>
      <trkpt lat="50.19364" lon="4.34932">
        <ele>275</ele>
        <time>2021-02-28T09:24:09Z</time>
      </trkpt>
      <trkpt lat="50.19357" lon="4.34928">
        <ele>273</ele>
        <time>2021-02-28T09:24:11Z</time>
      </trkpt>
      <trkpt lat="50.19351" lon="4.34925">
        <ele>273</ele>
        <time>2021-02-28T09:24:13Z</time>
      </trkpt>
      <trkpt lat="50.19347" lon="4.34923">
        <ele>271</ele>
        <time>2021-02-28T09:24:15Z</time>
      </trkpt>
      <trkpt lat="50.19342" lon="4.34922">
        <ele>271</ele>
        <time>2021-02-28T09:24:17Z</time>
      </trkpt>
      <trkpt lat="50.19337" lon="4.34921">
        <ele>271</ele>
        <time>2021-02-28T09:24:19Z</time>
      </trkpt>
      <trkpt lat="50.19331" lon="4.34919">
        <ele>271</ele>
        <time>2021-02-28T09:24:21Z</time>
      </trkpt>
      <trkpt lat="50.19325" lon="4.34915">
        <ele>271</ele>
        <time>2021-02-28T09:24:23Z</time>
      </trkpt>
      <trkpt lat="50.19318" lon="4.34912">
        <ele>268</ele>
        <time>2021-02-28T09:24:25Z</time>
      </trkpt>
      <trkpt lat="50.19309" lon="4.34907">
        <ele>268</ele>
        <time>2021-02-28T09:24:27Z</time>
      </trkpt>
      <trkpt lat="50.19302" lon="4.34904">
        <ele>268</ele>
        <time>2021-02-28T09:24:29Z</time>
      </trkpt>
      <trkpt lat="50.19294" lon="4.349">
        <ele>266</ele>
        <time>2021-02-28T09:24:31Z</time>
      </trkpt>
      <trkpt lat="50.19284" lon="4.34895">
        <ele>266</ele>
        <time>2021-02-28T09:24:33Z</time>
      </trkpt>
      <trkpt lat="50.19277" lon="4.34891">
        <ele>266</ele>
        <time>2021-02-28T09:24:35Z</time>
      </trkpt>
      <trkpt lat="50.19272" lon="4.34886">
        <ele>266</ele>
        <time>2021-02-28T09:24:37Z</time>
      </trkpt>
      <trkpt lat="50.19267" lon="4.34879">
        <ele>266</ele>
        <time>2021-02-28T09:24:39Z</time>
      </trkpt>
      <trkpt lat="50.19263" lon="4.34872">
        <ele>266</ele>
        <time>2021-02-28T09:24:41Z</time>
      </trkpt>
      <trkpt lat="50.19258" lon="4.34867">
        <ele>266</ele>
        <time>2021-02-28T09:24:43Z</time>
      </trkpt>
      <trkpt lat="50.19251" lon="4.34864">
        <ele>266</ele>
        <time>2021-02-28T09:24:45Z</time>
      </trkpt>
      <trkpt lat="50.19243" lon="4.3486">
        <ele>266</ele>
        <time>2021-02-28T09:24:47Z</time>
      </trkpt>
      <trkpt lat="50.19235" lon="4.34857">
        <ele>265</ele>
        <time>2021-02-28T09:24:49Z</time>
      </trkpt>
      <trkpt lat="50.19225" lon="4.34855">
        <ele>265</ele>
        <time>2021-02-28T09:24:51Z</time>
      </trkpt>
      <trkpt lat="50.19218" lon="4.34849">
        <ele>265</ele>
        <time>2021-02-28T09:24:53Z</time>
      </trkpt>
      <trkpt lat="50.19213" lon="4.34842">
        <ele>267</ele>
        <time>2021-02-28T09:24:55Z</time>
      </trkpt>
      <trkpt lat="50.19208" lon="4.34832">
        <ele>268</ele>
        <time>2021-02-28T09:24:57Z</time>
      </trkpt>
      <trkpt lat="50.19203" lon="4.34824">
        <ele>268</ele>
        <time>2021-02-28T09:24:59Z</time>
      </trkpt>
      <trkpt lat="50.19198" lon="4.34816">
        <ele>268</ele>
        <time>2021-02-28T09:25:01Z</time>
      </trkpt>
      <trkpt lat="50.19194" lon="4.34807">
        <ele>268</ele>
        <time>2021-02-28T09:25:03Z</time>
      </trkpt>
      <trkpt lat="50.19189" lon="4.34799">
        <ele>268</ele>
        <time>2021-02-28T09:25:05Z</time>
      </trkpt>
      <trkpt lat="50.19185" lon="4.34792">
        <ele>268</ele>
        <time>2021-02-28T09:25:07Z</time>
      </trkpt>
      <trkpt lat="50.19183" lon="4.34783">
        <ele>270</ele>
        <time>2021-02-28T09:25:09Z</time>
      </trkpt>
      <trkpt lat="50.19181" lon="4.34769">
        <ele>270</ele>
        <time>2021-02-28T09:25:11Z</time>
      </trkpt>
      <trkpt lat="50.19179" lon="4.34757">
        <ele>271</ele>
        <time>2021-02-28T09:25:13Z</time>
      </trkpt>
      <trkpt lat="50.19178" lon="4.34742">
        <ele>271</ele>
        <time>2021-02-28T09:25:15Z</time>
      </trkpt>
      <trkpt lat="50.19177" lon="4.34728">
        <ele>271</ele>
        <time>2021-02-28T09:25:17Z</time>
      </trkpt>
      <trkpt lat="50.19175" lon="4.34712">
        <ele>271</ele>
        <time>2021-02-28T09:25:19Z</time>
      </trkpt>
      <trkpt lat="50.19172" lon="4.34698">
        <ele>272</ele>
        <time>2021-02-28T09:25:21Z</time>
      </trkpt>
      <trkpt lat="50.19167" lon="4.34688">
        <ele>272</ele>
        <time>2021-02-28T09:25:23Z</time>
      </trkpt>
      <trkpt lat="50.19161" lon="4.34678">
        <ele>271</ele>
        <time>2021-02-28T09:25:25Z</time>
      </trkpt>
      <trkpt lat="50.1916" lon="4.34664">
        <ele>271</ele>
        <time>2021-02-28T09:25:27Z</time>
      </trkpt>
      <trkpt lat="50.19159" lon="4.3465">
        <ele>273</ele>
        <time>2021-02-28T09:25:29Z</time>
      </trkpt>
      <trkpt lat="50.19157" lon="4.34638">
        <ele>273</ele>
        <time>2021-02-28T09:25:31Z</time>
      </trkpt>
      <trkpt lat="50.19154" lon="4.34621">
        <ele>274</ele>
        <time>2021-02-28T09:25:33Z</time>
      </trkpt>
      <trkpt lat="50.19148" lon="4.34609">
        <ele>274</ele>
        <time>2021-02-28T09:25:35Z</time>
      </trkpt>
      <trkpt lat="50.19144" lon="4.34599">
        <ele>274</ele>
        <time>2021-02-28T09:25:37Z</time>
      </trkpt>
      <trkpt lat="50.19139" lon="4.34588">
        <ele>275</ele>
        <time>2021-02-28T09:25:39Z</time>
      </trkpt>
      <trkpt lat="50.19137" lon="4.34577">
        <ele>275</ele>
        <time>2021-02-28T09:25:41Z</time>
      </trkpt>
      <trkpt lat="50.1914" lon="4.34569">
        <ele>276</ele>
        <time>2021-02-28T09:25:43Z</time>
      </trkpt>
      <trkpt lat="50.1914" lon="4.34564">
        <ele>276</ele>
        <time>2021-02-28T09:25:45Z</time>
      </trkpt>
      <trkpt lat="50.1914" lon="4.34558">
        <ele>276</ele>
        <time>2021-02-28T09:25:47Z</time>
      </trkpt>
      <trkpt lat="50.1914" lon="4.34553">
        <ele>276</ele>
        <time>2021-02-28T09:25:49Z</time>
      </trkpt>
      <trkpt lat="50.19139" lon="4.34549">
        <ele>276</ele>
        <time>2021-02-28T09:25:51Z</time>
      </trkpt>
      <trkpt lat="50.19139" lon="4.34545">
        <ele>276</ele>
        <time>2021-02-28T09:25:53Z</time>
      </trkpt>
      <trkpt lat="50.19138" lon="4.34539">
        <ele>275</ele>
        <time>2021-02-28T09:25:55Z</time>
      </trkpt>
      <trkpt lat="50.19137" lon="4.3453">
        <ele>275</ele>
        <time>2021-02-28T09:25:57Z</time>
      </trkpt>
      <trkpt lat="50.19135" lon="4.3452">
        <ele>275</ele>
        <time>2021-02-28T09:25:59Z</time>
      </trkpt>
      <trkpt lat="50.19133" lon="4.3451">
        <ele>275</ele>
        <time>2021-02-28T09:26:01Z</time>
      </trkpt>
      <trkpt lat="50.19133" lon="4.34499">
        <ele>275</ele>
        <time>2021-02-28T09:26:03Z</time>
      </trkpt>
      <trkpt lat="50.19132" lon="4.34485">
        <ele>274</ele>
        <time>2021-02-28T09:26:05Z</time>
      </trkpt>
      <trkpt lat="50.1913" lon="4.34472">
        <ele>274</ele>
        <time>2021-02-28T09:26:07Z</time>
      </trkpt>
      <trkpt lat="50.19126" lon="4.34462">
        <ele>274</ele>
        <time>2021-02-28T09:26:09Z</time>
      </trkpt>
      <trkpt lat="50.19127" lon="4.34456">
        <ele>274</ele>
        <time>2021-02-28T09:26:11Z</time>
      </trkpt>
      <trkpt lat="50.19125" lon="4.34446">
        <ele>276</ele>
        <time>2021-02-28T09:26:13Z</time>
      </trkpt>
      <trkpt lat="50.19121" lon="4.34434">
        <ele>276</ele>
        <time>2021-02-28T09:26:15Z</time>
      </trkpt>
      <trkpt lat="50.19116" lon="4.34425">
        <ele>275</ele>
        <time>2021-02-28T09:26:17Z</time>
      </trkpt>
      <trkpt lat="50.19107" lon="4.34413">
        <ele>275</ele>
        <time>2021-02-28T09:26:19Z</time>
      </trkpt>
      <trkpt lat="50.19103" lon="4.34405">
        <ele>275</ele>
        <time>2021-02-28T09:26:21Z</time>
      </trkpt>
      <trkpt lat="50.19099" lon="4.34395">
        <ele>275</ele>
        <time>2021-02-28T09:26:23Z</time>
      </trkpt>
      <trkpt lat="50.19093" lon="4.34387">
        <ele>276</ele>
        <time>2021-02-28T09:26:25Z</time>
      </trkpt>
      <trkpt lat="50.19085" lon="4.34379">
        <ele>276</ele>
        <time>2021-02-28T09:26:27Z</time>
      </trkpt>
      <trkpt lat="50.19077" lon="4.34374">
        <ele>275</ele>
        <time>2021-02-28T09:26:29Z</time>
      </trkpt>
      <trkpt lat="50.1907" lon="4.34371">
        <ele>275</ele>
        <time>2021-02-28T09:26:31Z</time>
      </trkpt>
      <trkpt lat="50.19064" lon="4.34366">
        <ele>274</ele>
        <time>2021-02-28T09:26:33Z</time>
      </trkpt>
      <trkpt lat="50.19056" lon="4.34361">
        <ele>274</ele>
        <time>2021-02-28T09:26:35Z</time>
      </trkpt>
      <trkpt lat="50.19047" lon="4.34356">
        <ele>274</ele>
        <time>2021-02-28T09:26:37Z</time>
      </trkpt>
      <trkpt lat="50.19039" lon="4.34353">
        <ele>272</ele>
        <time>2021-02-28T09:26:39Z</time>
      </trkpt>
      <trkpt lat="50.19029" lon="4.34352">
        <ele>272</ele>
        <time>2021-02-28T09:26:41Z</time>
      </trkpt>
      <trkpt lat="50.19018" lon="4.34349">
        <ele>272</ele>
        <time>2021-02-28T09:26:43Z</time>
      </trkpt>
      <trkpt lat="50.19009" lon="4.34344">
        <ele>270</ele>
        <time>2021-02-28T09:26:45Z</time>
      </trkpt>
      <trkpt lat="50.19002" lon="4.34339">
        <ele>270</ele>
        <time>2021-02-28T09:26:47Z</time>
      </trkpt>
      <trkpt lat="50.18992" lon="4.34335">
        <ele>270</ele>
        <time>2021-02-28T09:26:49Z</time>
      </trkpt>
      <trkpt lat="50.18981" lon="4.3433">
        <ele>270</ele>
        <time>2021-02-28T09:26:51Z</time>
      </trkpt>
      <trkpt lat="50.18971" lon="4.34327">
        <ele>270</ele>
        <time>2021-02-28T09:26:53Z</time>
      </trkpt>
      <trkpt lat="50.18963" lon="4.34323">
        <ele>270</ele>
        <time>2021-02-28T09:26:55Z</time>
      </trkpt>
      <trkpt lat="50.18955" lon="4.34322">
        <ele>270</ele>
        <time>2021-02-28T09:26:57Z</time>
      </trkpt>
      <trkpt lat="50.18947" lon="4.34322">
        <ele>270</ele>
        <time>2021-02-28T09:26:59Z</time>
      </trkpt>
      <trkpt lat="50.18936" lon="4.34322">
        <ele>270</ele>
        <time>2021-02-28T09:27:01Z</time>
      </trkpt>
      <trkpt lat="50.18923" lon="4.34319">
        <ele>267</ele>
        <time>2021-02-28T09:27:03Z</time>
      </trkpt>
      <trkpt lat="50.18909" lon="4.34314">
        <ele>267</ele>
        <time>2021-02-28T09:27:05Z</time>
      </trkpt>
      <trkpt lat="50.18895" lon="4.34311">
        <ele>264</ele>
        <time>2021-02-28T09:27:07Z</time>
      </trkpt>
      <trkpt lat="50.18883" lon="4.34307">
        <ele>264</ele>
        <time>2021-02-28T09:27:09Z</time>
      </trkpt>
      <trkpt lat="50.18873" lon="4.34304">
        <ele>260</ele>
        <time>2021-02-28T09:27:11Z</time>
      </trkpt>
      <trkpt lat="50.18865" lon="4.34302">
        <ele>260</ele>
        <time>2021-02-28T09:27:13Z</time>
      </trkpt>
      <trkpt lat="50.18858" lon="4.34302">
        <ele>260</ele>
        <time>2021-02-28T09:27:15Z</time>
      </trkpt>
      <trkpt lat="50.18852" lon="4.343">
        <ele>260</ele>
        <time>2021-02-28T09:27:17Z</time>
      </trkpt>
      <trkpt lat="50.18844" lon="4.34295">
        <ele>256</ele>
        <time>2021-02-28T09:27:19Z</time>
      </trkpt>
      <trkpt lat="50.18839" lon="4.34289">
        <ele>256</ele>
        <time>2021-02-28T09:27:21Z</time>
      </trkpt>
      <trkpt lat="50.18836" lon="4.34281">
        <ele>256</ele>
        <time>2021-02-28T09:27:23Z</time>
      </trkpt>
      <trkpt lat="50.18834" lon="4.34271">
        <ele>256</ele>
        <time>2021-02-28T09:27:25Z</time>
      </trkpt>
      <trkpt lat="50.18832" lon="4.3426">
        <ele>258</ele>
        <time>2021-02-28T09:27:27Z</time>
      </trkpt>
      <trkpt lat="50.18829" lon="4.3425">
        <ele>258</ele>
        <time>2021-02-28T09:27:29Z</time>
      </trkpt>
      <trkpt lat="50.18826" lon="4.34237">
        <ele>258</ele>
        <time>2021-02-28T09:27:31Z</time>
      </trkpt>
      <trkpt lat="50.18825" lon="4.34226">
        <ele>259</ele>
        <time>2021-02-28T09:27:33Z</time>
      </trkpt>
      <trkpt lat="50.18825" lon="4.34214">
        <ele>259</ele>
        <time>2021-02-28T09:27:35Z</time>
      </trkpt>
      <trkpt lat="50.18825" lon="4.342">
        <ele>260</ele>
        <time>2021-02-28T09:27:37Z</time>
      </trkpt>
      <trkpt lat="50.18824" lon="4.34186">
        <ele>260</ele>
        <time>2021-02-28T09:27:39Z</time>
      </trkpt>
      <trkpt lat="50.18825" lon="4.34173">
        <ele>261</ele>
        <time>2021-02-28T09:27:41Z</time>
      </trkpt>
      <trkpt lat="50.18825" lon="4.34161">
        <ele>261</ele>
        <time>2021-02-28T09:27:43Z</time>
      </trkpt>
      <trkpt lat="50.18823" lon="4.34149">
        <ele>262</ele>
        <time>2021-02-28T09:27:45Z</time>
      </trkpt>
      <trkpt lat="50.18817" lon="4.34133">
        <ele>258</ele>
        <time>2021-02-28T09:27:47Z</time>
      </trkpt>
      <trkpt lat="50.18812" lon="4.34121">
        <ele>258</ele>
        <time>2021-02-28T09:27:49Z</time>
      </trkpt>
      <trkpt lat="50.18806" lon="4.34106">
        <ele>258</ele>
        <time>2021-02-28T09:27:51Z</time>
      </trkpt>
      <trkpt lat="50.18802" lon="4.34092">
        <ele>259</ele>
        <time>2021-02-28T09:27:53Z</time>
      </trkpt>
      <trkpt lat="50.18798" lon="4.3408">
        <ele>259</ele>
        <time>2021-02-28T09:27:55Z</time>
      </trkpt>
      <trkpt lat="50.18794" lon="4.34068">
        <ele>259</ele>
        <time>2021-02-28T09:27:57Z</time>
      </trkpt>
      <trkpt lat="50.1879" lon="4.34056">
        <ele>255</ele>
        <time>2021-02-28T09:27:59Z</time>
      </trkpt>
      <trkpt lat="50.18787" lon="4.34044">
        <ele>255</ele>
        <time>2021-02-28T09:28:01Z</time>
      </trkpt>
      <trkpt lat="50.18786" lon="4.34032">
        <ele>256</ele>
        <time>2021-02-28T09:28:03Z</time>
      </trkpt>
      <trkpt lat="50.18786" lon="4.3402">
        <ele>256</ele>
        <time>2021-02-28T09:28:05Z</time>
      </trkpt>
      <trkpt lat="50.18784" lon="4.34007">
        <ele>255</ele>
        <time>2021-02-28T09:28:07Z</time>
      </trkpt>
      <trkpt lat="50.18784" lon="4.33992">
        <ele>255</ele>
        <time>2021-02-28T09:28:09Z</time>
      </trkpt>
      <trkpt lat="50.18784" lon="4.33977">
        <ele>257</ele>
        <time>2021-02-28T09:28:11Z</time>
      </trkpt>
      <trkpt lat="50.18784" lon="4.33963">
        <ele>257</ele>
        <time>2021-02-28T09:28:13Z</time>
      </trkpt>
      <trkpt lat="50.18782" lon="4.33952">
        <ele>258</ele>
        <time>2021-02-28T09:28:15Z</time>
      </trkpt>
      <trkpt lat="50.18779" lon="4.3394">
        <ele>258</ele>
        <time>2021-02-28T09:28:17Z</time>
      </trkpt>
      <trkpt lat="50.18776" lon="4.33934">
        <ele>258</ele>
        <time>2021-02-28T09:28:19Z</time>
      </trkpt>
      <trkpt lat="50.18771" lon="4.33929">
        <ele>260</ele>
        <time>2021-02-28T09:28:21Z</time>
      </trkpt>
      <trkpt lat="50.18766" lon="4.33924">
        <ele>260</ele>
        <time>2021-02-28T09:28:23Z</time>
      </trkpt>
      <trkpt lat="50.18762" lon="4.33922">
        <ele>259</ele>
        <time>2021-02-28T09:28:25Z</time>
      </trkpt>
      <trkpt lat="50.18757" lon="4.33918">
        <ele>259</ele>
        <time>2021-02-28T09:28:27Z</time>
      </trkpt>
      <trkpt lat="50.18751" lon="4.33917">
        <ele>259</ele>
        <time>2021-02-28T09:28:29Z</time>
      </trkpt>
      <trkpt lat="50.18742" lon="4.33918">
        <ele>259</ele>
        <time>2021-02-28T09:28:31Z</time>
      </trkpt>
      <trkpt lat="50.18736" lon="4.33917">
        <ele>258</ele>
        <time>2021-02-28T09:28:33Z</time>
      </trkpt>
      <trkpt lat="50.18733" lon="4.33916">
        <ele>258</ele>
        <time>2021-02-28T09:28:35Z</time>
      </trkpt>
      <trkpt lat="50.18728" lon="4.33917">
        <ele>258</ele>
        <time>2021-02-28T09:28:37Z</time>
      </trkpt>
      <trkpt lat="50.18722" lon="4.33916">
        <ele>258</ele>
        <time>2021-02-28T09:28:39Z</time>
      </trkpt>
      <trkpt lat="50.18715" lon="4.33915">
        <ele>258</ele>
        <time>2021-02-28T09:28:41Z</time>
      </trkpt>
      <trkpt lat="50.18708" lon="4.33914">
        <ele>257</ele>
        <time>2021-02-28T09:29:16Z</time>
      </trkpt>
      <trkpt lat="50.18705" lon="4.33913">
        <ele>257</ele>
        <time>2021-02-28T09:29:18Z</time>
      </trkpt>
      <trkpt lat="50.18699" lon="4.3391">
        <ele>257</ele>
        <time>2021-02-28T09:29:24Z</time>
      </trkpt>
      <trkpt lat="50.18687" lon="4.33902">
        <ele>257</ele>
        <time>2021-02-28T09:29:26Z</time>
      </trkpt>
      <trkpt lat="50.18684" lon="4.339">
        <ele>257</ele>
        <time>2021-02-28T09:29:30Z</time>
      </trkpt>
      <trkpt lat="50.18682" lon="4.33898">
        <ele>257</ele>
        <time>2021-02-28T09:32:07Z</time>
      </trkpt>
      <trkpt lat="50.18687" lon="4.33901">
        <ele>257</ele>
        <time>2021-02-28T09:34:06Z</time>
      </trkpt>
      <trkpt lat="50.18694" lon="4.33903">
        <ele>257</ele>
        <time>2021-02-28T09:34:08Z</time>
      </trkpt>
      <trkpt lat="50.18696" lon="4.33903">
        <ele>257</ele>
        <time>2021-02-28T09:34:10Z</time>
      </trkpt>
      <trkpt lat="50.187" lon="4.33902">
        <ele>257</ele>
        <time>2021-02-28T09:34:12Z</time>
      </trkpt>
      <trkpt lat="50.18703" lon="4.33901">
        <ele>257</ele>
        <time>2021-02-28T09:34:14Z</time>
      </trkpt>
      <trkpt lat="50.18707" lon="4.33902">
        <ele>257</ele>
        <time>2021-02-28T09:34:16Z</time>
      </trkpt>
      <trkpt lat="50.18711" lon="4.339">
        <ele>260</ele>
        <time>2021-02-28T09:34:18Z</time>
      </trkpt>
      <trkpt lat="50.18715" lon="4.33897">
        <ele>260</ele>
        <time>2021-02-28T09:34:20Z</time>
      </trkpt>
      <trkpt lat="50.18717" lon="4.33897">
        <ele>260</ele>
        <time>2021-02-28T09:34:22Z</time>
      </trkpt>
      <trkpt lat="50.18721" lon="4.33897">
        <ele>260</ele>
        <time>2021-02-28T09:34:24Z</time>
      </trkpt>
      <trkpt lat="50.1873" lon="4.33897">
        <ele>260</ele>
        <time>2021-02-28T09:34:30Z</time>
      </trkpt>
      <trkpt lat="50.18738" lon="4.339">
        <ele>260</ele>
        <time>2021-02-28T09:34:34Z</time>
      </trkpt>
      <trkpt lat="50.18744" lon="4.33907">
        <ele>259</ele>
        <time>2021-02-28T09:34:36Z</time>
      </trkpt>
      <trkpt lat="50.1875" lon="4.33917">
        <ele>259</ele>
        <time>2021-02-28T09:34:38Z</time>
      </trkpt>
      <trkpt lat="50.18754" lon="4.33927">
        <ele>259</ele>
        <time>2021-02-28T09:34:40Z</time>
      </trkpt>
      <trkpt lat="50.18758" lon="4.33937">
        <ele>258</ele>
        <time>2021-02-28T09:34:42Z</time>
      </trkpt>
      <trkpt lat="50.18761" lon="4.33948">
        <ele>258</ele>
        <time>2021-02-28T09:34:44Z</time>
      </trkpt>
      <trkpt lat="50.18765" lon="4.33958">
        <ele>258</ele>
        <time>2021-02-28T09:34:46Z</time>
      </trkpt>
      <trkpt lat="50.1877" lon="4.33967">
        <ele>257</ele>
        <time>2021-02-28T09:34:48Z</time>
      </trkpt>
      <trkpt lat="50.18775" lon="4.33977">
        <ele>257</ele>
        <time>2021-02-28T09:34:50Z</time>
      </trkpt>
      <trkpt lat="50.1878" lon="4.33986">
        <ele>257</ele>
        <time>2021-02-28T09:34:52Z</time>
      </trkpt>
      <trkpt lat="50.18784" lon="4.33993">
        <ele>255</ele>
        <time>2021-02-28T09:34:54Z</time>
      </trkpt>
      <trkpt lat="50.18789" lon="4.34002">
        <ele>255</ele>
        <time>2021-02-28T09:34:56Z</time>
      </trkpt>
      <trkpt lat="50.18794" lon="4.34009">
        <ele>258</ele>
        <time>2021-02-28T09:34:58Z</time>
      </trkpt>
      <trkpt lat="50.18799" lon="4.34017">
        <ele>259</ele>
        <time>2021-02-28T09:35:00Z</time>
      </trkpt>
      <trkpt lat="50.18804" lon="4.34026">
        <ele>259</ele>
        <time>2021-02-28T09:35:02Z</time>
      </trkpt>
      <trkpt lat="50.18808" lon="4.34036">
        <ele>259</ele>
        <time>2021-02-28T09:35:04Z</time>
      </trkpt>
      <trkpt lat="50.18811" lon="4.34046">
        <ele>259</ele>
        <time>2021-02-28T09:35:06Z</time>
      </trkpt>
      <trkpt lat="50.18813" lon="4.34056">
        <ele>259</ele>
        <time>2021-02-28T09:35:08Z</time>
      </trkpt>
      <trkpt lat="50.18815" lon="4.34067">
        <ele>259</ele>
        <time>2021-02-28T09:35:10Z</time>
      </trkpt>
      <trkpt lat="50.18817" lon="4.34076">
        <ele>259</ele>
        <time>2021-02-28T09:35:12Z</time>
      </trkpt>
      <trkpt lat="50.18818" lon="4.34086">
        <ele>259</ele>
        <time>2021-02-28T09:35:14Z</time>
      </trkpt>
      <trkpt lat="50.18817" lon="4.34096">
        <ele>259</ele>
        <time>2021-02-28T09:35:16Z</time>
      </trkpt>
      <trkpt lat="50.18815" lon="4.34106">
        <ele>258</ele>
        <time>2021-02-28T09:35:18Z</time>
      </trkpt>
      <trkpt lat="50.18817" lon="4.34118">
        <ele>258</ele>
        <time>2021-02-28T09:35:20Z</time>
      </trkpt>
      <trkpt lat="50.18817" lon="4.3413">
        <ele>258</ele>
        <time>2021-02-28T09:35:22Z</time>
      </trkpt>
      <trkpt lat="50.18817" lon="4.34142">
        <ele>258</ele>
        <time>2021-02-28T09:35:24Z</time>
      </trkpt>
      <trkpt lat="50.18817" lon="4.34155">
        <ele>257</ele>
        <time>2021-02-28T09:35:26Z</time>
      </trkpt>
      <trkpt lat="50.18817" lon="4.34168">
        <ele>257</ele>
        <time>2021-02-28T09:35:28Z</time>
      </trkpt>
      <trkpt lat="50.18816" lon="4.34181">
        <ele>256</ele>
        <time>2021-02-28T09:35:30Z</time>
      </trkpt>
      <trkpt lat="50.18816" lon="4.34195">
        <ele>256</ele>
        <time>2021-02-28T09:35:32Z</time>
      </trkpt>
      <trkpt lat="50.18817" lon="4.34207">
        <ele>256</ele>
        <time>2021-02-28T09:35:34Z</time>
      </trkpt>
      <trkpt lat="50.1882" lon="4.34218">
        <ele>259</ele>
        <time>2021-02-28T09:35:36Z</time>
      </trkpt>
      <trkpt lat="50.18823" lon="4.3423">
        <ele>259</ele>
        <time>2021-02-28T09:35:38Z</time>
      </trkpt>
      <trkpt lat="50.18826" lon="4.34243">
        <ele>258</ele>
        <time>2021-02-28T09:35:40Z</time>
      </trkpt>
      <trkpt lat="50.18829" lon="4.34258">
        <ele>258</ele>
        <time>2021-02-28T09:35:42Z</time>
      </trkpt>
      <trkpt lat="50.18833" lon="4.3427">
        <ele>256</ele>
        <time>2021-02-28T09:35:44Z</time>
      </trkpt>
      <trkpt lat="50.18837" lon="4.34281">
        <ele>256</ele>
        <time>2021-02-28T09:35:46Z</time>
      </trkpt>
      <trkpt lat="50.18837" lon="4.34305">
        <ele>256</ele>
        <time>2021-02-28T09:35:50Z</time>
      </trkpt>
      <trkpt lat="50.18815" lon="4.3423">
        <ele>256</ele>
        <time>2021-02-28T09:42:51Z</time>
      </trkpt>
      <trkpt lat="50.18818" lon="4.3422">
        <ele>256</ele>
        <time>2021-02-28T09:42:53Z</time>
      </trkpt>
      <trkpt lat="50.18818" lon="4.34208">
        <ele>256</ele>
        <time>2021-02-28T09:42:55Z</time>
      </trkpt>
      <trkpt lat="50.18819" lon="4.34197">
        <ele>256</ele>
        <time>2021-02-28T09:42:57Z</time>
      </trkpt>
      <trkpt lat="50.1882" lon="4.34185">
        <ele>260</ele>
        <time>2021-02-28T09:42:59Z</time>
      </trkpt>
      <trkpt lat="50.18822" lon="4.34173">
        <ele>261</ele>
        <time>2021-02-28T09:43:01Z</time>
      </trkpt>
      <trkpt lat="50.18819" lon="4.34158">
        <ele>257</ele>
        <time>2021-02-28T09:43:03Z</time>
      </trkpt>
      <trkpt lat="50.18816" lon="4.34144">
        <ele>258</ele>
        <time>2021-02-28T09:43:05Z</time>
      </trkpt>
      <trkpt lat="50.18812" lon="4.34131">
        <ele>258</ele>
        <time>2021-02-28T09:43:07Z</time>
      </trkpt>
      <trkpt lat="50.18809" lon="4.34121">
        <ele>258</ele>
        <time>2021-02-28T09:43:09Z</time>
      </trkpt>
      <trkpt lat="50.18807" lon="4.34108">
        <ele>258</ele>
        <time>2021-02-28T09:43:11Z</time>
      </trkpt>
      <trkpt lat="50.188" lon="4.34093">
        <ele>259</ele>
        <time>2021-02-28T09:43:13Z</time>
      </trkpt>
      <trkpt lat="50.18797" lon="4.34079">
        <ele>259</ele>
        <time>2021-02-28T09:43:15Z</time>
      </trkpt>
      <trkpt lat="50.18793" lon="4.34066">
        <ele>259</ele>
        <time>2021-02-28T09:43:17Z</time>
      </trkpt>
      <trkpt lat="50.18789" lon="4.34053">
        <ele>255</ele>
        <time>2021-02-28T09:43:19Z</time>
      </trkpt>
      <trkpt lat="50.18786" lon="4.34041">
        <ele>256</ele>
        <time>2021-02-28T09:43:21Z</time>
      </trkpt>
      <trkpt lat="50.18787" lon="4.34029">
        <ele>256</ele>
        <time>2021-02-28T09:43:23Z</time>
      </trkpt>
      <trkpt lat="50.18787" lon="4.34018">
        <ele>256</ele>
        <time>2021-02-28T09:43:25Z</time>
      </trkpt>
      <trkpt lat="50.18788" lon="4.34004">
        <ele>255</ele>
        <time>2021-02-28T09:43:27Z</time>
      </trkpt>
      <trkpt lat="50.18789" lon="4.33992">
        <ele>255</ele>
        <time>2021-02-28T09:43:29Z</time>
      </trkpt>
      <trkpt lat="50.18788" lon="4.33977">
        <ele>257</ele>
        <time>2021-02-28T09:43:31Z</time>
      </trkpt>
      <trkpt lat="50.18789" lon="4.33964">
        <ele>257</ele>
        <time>2021-02-28T09:43:33Z</time>
      </trkpt>
      <trkpt lat="50.18789" lon="4.33955">
        <ele>258</ele>
        <time>2021-02-28T09:43:35Z</time>
      </trkpt>
      <trkpt lat="50.18782" lon="4.3394">
        <ele>258</ele>
        <time>2021-02-28T09:43:38Z</time>
      </trkpt>
      <trkpt lat="50.18776" lon="4.33933">
        <ele>258</ele>
        <time>2021-02-28T09:43:40Z</time>
      </trkpt>
      <trkpt lat="50.1877" lon="4.33929">
        <ele>260</ele>
        <time>2021-02-28T09:43:42Z</time>
      </trkpt>
      <trkpt lat="50.18765" lon="4.33926">
        <ele>260</ele>
        <time>2021-02-28T09:43:44Z</time>
      </trkpt>
      <trkpt lat="50.18758" lon="4.33922">
        <ele>259</ele>
        <time>2021-02-28T09:43:46Z</time>
      </trkpt>
      <trkpt lat="50.18755" lon="4.33921">
        <ele>259</ele>
        <time>2021-02-28T09:43:48Z</time>
      </trkpt>
      <trkpt lat="50.18749" lon="4.33921">
        <ele>259</ele>
        <time>2021-02-28T09:43:50Z</time>
      </trkpt>
      <trkpt lat="50.1874" lon="4.33919">
        <ele>259</ele>
        <time>2021-02-28T09:43:52Z</time>
      </trkpt>
      <trkpt lat="50.18732" lon="4.33917">
        <ele>258</ele>
        <time>2021-02-28T09:43:54Z</time>
      </trkpt>
      <trkpt lat="50.18726" lon="4.33917">
        <ele>258</ele>
        <time>2021-02-28T09:43:56Z</time>
      </trkpt>
      <trkpt lat="50.1872" lon="4.33915">
        <ele>258</ele>
        <time>2021-02-28T09:43:58Z</time>
      </trkpt>
      <trkpt lat="50.18715" lon="4.33913">
        <ele>258</ele>
        <time>2021-02-28T09:44:00Z</time>
      </trkpt>
      <trkpt lat="50.18708" lon="4.33909">
        <ele>258</ele>
        <time>2021-02-28T09:44:02Z</time>
      </trkpt>
      <trkpt lat="50.18705" lon="4.33907">
        <ele>257</ele>
        <time>2021-02-28T09:44:04Z</time>
      </trkpt>
      <trkpt lat="50.18699" lon="4.33903">
        <ele>257</ele>
        <time>2021-02-28T09:44:06Z</time>
      </trkpt>
      <trkpt lat="50.18694" lon="4.33896">
        <ele>257</ele>
        <time>2021-02-28T09:44:08Z</time>
      </trkpt>
      <trkpt lat="50.18686" lon="4.33886">
        <ele>257</ele>
        <time>2021-02-28T09:44:10Z</time>
      </trkpt>
      <trkpt lat="50.18683" lon="4.3388">
        <ele>257</ele>
        <time>2021-02-28T09:44:12Z</time>
      </trkpt>
      <trkpt lat="50.18679" lon="4.33874">
        <ele>260</ele>
        <time>2021-02-28T09:44:14Z</time>
      </trkpt>
      <trkpt lat="50.18673" lon="4.33869">
        <ele>260</ele>
        <time>2021-02-28T09:44:16Z</time>
      </trkpt>
      <trkpt lat="50.18671" lon="4.33863">
        <ele>260</ele>
        <time>2021-02-28T09:44:18Z</time>
      </trkpt>
      <trkpt lat="50.18667" lon="4.33855">
        <ele>260</ele>
        <time>2021-02-28T09:44:20Z</time>
      </trkpt>
      <trkpt lat="50.18664" lon="4.33849">
        <ele>260</ele>
        <time>2021-02-28T09:44:22Z</time>
      </trkpt>
      <trkpt lat="50.18661" lon="4.33845">
        <ele>260</ele>
        <time>2021-02-28T09:44:24Z</time>
      </trkpt>
      <trkpt lat="50.18658" lon="4.33841">
        <ele>260</ele>
        <time>2021-02-28T09:44:26Z</time>
      </trkpt>
      <trkpt lat="50.18655" lon="4.33837">
        <ele>260</ele>
        <time>2021-02-28T09:44:28Z</time>
      </trkpt>
      <trkpt lat="50.18652" lon="4.33836">
        <ele>261</ele>
        <time>2021-02-28T09:44:30Z</time>
      </trkpt>
      <trkpt lat="50.1865" lon="4.33834">
        <ele>261</ele>
        <time>2021-02-28T09:44:32Z</time>
      </trkpt>
      <trkpt lat="50.18647" lon="4.33832">
        <ele>261</ele>
        <time>2021-02-28T09:44:34Z</time>
      </trkpt>
      <trkpt lat="50.18644" lon="4.33829">
        <ele>261</ele>
        <time>2021-02-28T09:44:36Z</time>
      </trkpt>
      <trkpt lat="50.18641" lon="4.33827">
        <ele>261</ele>
        <time>2021-02-28T09:44:38Z</time>
      </trkpt>
      <trkpt lat="50.18638" lon="4.33825">
        <ele>261</ele>
        <time>2021-02-28T09:44:40Z</time>
      </trkpt>
      <trkpt lat="50.18634" lon="4.33823">
        <ele>261</ele>
        <time>2021-02-28T09:44:42Z</time>
      </trkpt>
      <trkpt lat="50.18631" lon="4.33821">
        <ele>261</ele>
        <time>2021-02-28T09:44:44Z</time>
      </trkpt>
      <trkpt lat="50.18628" lon="4.33819">
        <ele>262</ele>
        <time>2021-02-28T09:44:46Z</time>
      </trkpt>
      <trkpt lat="50.18617" lon="4.33811">
        <ele>263</ele>
        <time>2021-02-28T09:45:00Z</time>
      </trkpt>
      <trkpt lat="50.18615" lon="4.33808">
        <ele>263</ele>
        <time>2021-02-28T09:45:02Z</time>
      </trkpt>
      <trkpt lat="50.18613" lon="4.33806">
        <ele>263</ele>
        <time>2021-02-28T09:45:06Z</time>
      </trkpt>
      <trkpt lat="50.18612" lon="4.33805">
        <ele>263</ele>
        <time>2021-02-28T09:45:08Z</time>
      </trkpt>
      <trkpt lat="50.18609" lon="4.33805">
        <ele>263</ele>
        <time>2021-02-28T09:45:10Z</time>
      </trkpt>
      <trkpt lat="50.18604" lon="4.33805">
        <ele>263</ele>
        <time>2021-02-28T09:45:12Z</time>
      </trkpt>
      <trkpt lat="50.18603" lon="4.33805">
        <ele>263</ele>
        <time>2021-02-28T09:45:14Z</time>
      </trkpt>
      <trkpt lat="50.18602" lon="4.33806">
        <ele>263</ele>
        <time>2021-02-28T09:45:16Z</time>
      </trkpt>
      <trkpt lat="50.18597" lon="4.33807">
        <ele>263</ele>
        <time>2021-02-28T09:45:24Z</time>
      </trkpt>
      <trkpt lat="50.18595" lon="4.33807">
        <ele>263</ele>
        <time>2021-02-28T09:45:26Z</time>
      </trkpt>
      <trkpt lat="50.18594" lon="4.33808">
        <ele>263</ele>
        <time>2021-02-28T09:45:28Z</time>
      </trkpt>
      <trkpt lat="50.18591" lon="4.3381">
        <ele>263</ele>
        <time>2021-02-28T09:45:32Z</time>
      </trkpt>
      <trkpt lat="50.18591" lon="4.33814">
        <ele>263</ele>
        <time>2021-02-28T09:45:36Z</time>
      </trkpt>
      <trkpt lat="50.18589" lon="4.33815">
        <ele>263</ele>
        <time>2021-02-28T09:45:40Z</time>
      </trkpt>
      <trkpt lat="50.18584" lon="4.33816">
        <ele>263</ele>
        <time>2021-02-28T09:46:02Z</time>
      </trkpt>
      <trkpt lat="50.18585" lon="4.33816">
        <ele>263</ele>
        <time>2021-02-28T09:46:04Z</time>
      </trkpt>
      <trkpt lat="50.18586" lon="4.33818">
        <ele>263</ele>
        <time>2021-02-28T09:46:06Z</time>
      </trkpt>
      <trkpt lat="50.18588" lon="4.3382">
        <ele>261</ele>
        <time>2021-02-28T09:46:08Z</time>
      </trkpt>
      <trkpt lat="50.1859" lon="4.33824">
        <ele>261</ele>
        <time>2021-02-28T09:46:10Z</time>
      </trkpt>
      <trkpt lat="50.18592" lon="4.3383">
        <ele>261</ele>
        <time>2021-02-28T09:46:12Z</time>
      </trkpt>
      <trkpt lat="50.18593" lon="4.33838">
        <ele>261</ele>
        <time>2021-02-28T09:46:14Z</time>
      </trkpt>
      <trkpt lat="50.18594" lon="4.33845">
        <ele>261</ele>
        <time>2021-02-28T09:46:16Z</time>
      </trkpt>
      <trkpt lat="50.1859" lon="4.33849">
        <ele>260</ele>
        <time>2021-02-28T09:46:18Z</time>
      </trkpt>
      <trkpt lat="50.18585" lon="4.33851">
        <ele>260</ele>
        <time>2021-02-28T09:46:20Z</time>
      </trkpt>
      <trkpt lat="50.18581" lon="4.33854">
        <ele>260</ele>
        <time>2021-02-28T09:46:22Z</time>
      </trkpt>
      <trkpt lat="50.18579" lon="4.33857">
        <ele>260</ele>
        <time>2021-02-28T09:46:24Z</time>
      </trkpt>
      <trkpt lat="50.18576" lon="4.33859">
        <ele>260</ele>
        <time>2021-02-28T09:46:26Z</time>
      </trkpt>
      <trkpt lat="50.18574" lon="4.33861">
        <ele>260</ele>
        <time>2021-02-28T09:46:28Z</time>
      </trkpt>
      <trkpt lat="50.18572" lon="4.33868">
        <ele>260</ele>
        <time>2021-02-28T09:46:30Z</time>
      </trkpt>
      <trkpt lat="50.1857" lon="4.33876">
        <ele>259</ele>
        <time>2021-02-28T09:46:32Z</time>
      </trkpt>
      <trkpt lat="50.18568" lon="4.33882">
        <ele>262</ele>
        <time>2021-02-28T09:46:34Z</time>
      </trkpt>
      <trkpt lat="50.18572" lon="4.33889">
        <ele>259</ele>
        <time>2021-02-28T09:46:36Z</time>
      </trkpt>
      <trkpt lat="50.18572" lon="4.33897">
        <ele>259</ele>
        <time>2021-02-28T09:46:38Z</time>
      </trkpt>
      <trkpt lat="50.18568" lon="4.33902">
        <ele>262</ele>
        <time>2021-02-28T09:46:40Z</time>
      </trkpt>
      <trkpt lat="50.18565" lon="4.3391">
        <ele>258</ele>
        <time>2021-02-28T09:46:42Z</time>
      </trkpt>
      <trkpt lat="50.18564" lon="4.33916">
        <ele>258</ele>
        <time>2021-02-28T09:46:44Z</time>
      </trkpt>
      <trkpt lat="50.1856" lon="4.3392">
        <ele>258</ele>
        <time>2021-02-28T09:46:46Z</time>
      </trkpt>
      <trkpt lat="50.18558" lon="4.33922">
        <ele>258</ele>
        <time>2021-02-28T09:46:48Z</time>
      </trkpt>
      <trkpt lat="50.18555" lon="4.33924">
        <ele>258</ele>
        <time>2021-02-28T09:46:49Z</time>
      </trkpt>
      <trkpt lat="50.18552" lon="4.33928">
        <ele>258</ele>
        <time>2021-02-28T09:46:52Z</time>
      </trkpt>
      <trkpt lat="50.18549" lon="4.33932">
        <ele>259</ele>
        <time>2021-02-28T09:46:54Z</time>
      </trkpt>
      <trkpt lat="50.18548" lon="4.33935">
        <ele>259</ele>
        <time>2021-02-28T09:46:56Z</time>
      </trkpt>
      <trkpt lat="50.18548" lon="4.3394">
        <ele>259</ele>
        <time>2021-02-28T09:46:58Z</time>
      </trkpt>
      <trkpt lat="50.18548" lon="4.33944">
        <ele>259</ele>
        <time>2021-02-28T09:47:00Z</time>
      </trkpt>
      <trkpt lat="50.18549" lon="4.3395">
        <ele>259</ele>
        <time>2021-02-28T09:47:02Z</time>
      </trkpt>
      <trkpt lat="50.18547" lon="4.33953">
        <ele>259</ele>
        <time>2021-02-28T09:47:04Z</time>
      </trkpt>
      <trkpt lat="50.18545" lon="4.3396">
        <ele>256</ele>
        <time>2021-02-28T09:47:06Z</time>
      </trkpt>
      <trkpt lat="50.18546" lon="4.33968">
        <ele>256</ele>
        <time>2021-02-28T09:47:08Z</time>
      </trkpt>
      <trkpt lat="50.18546" lon="4.33974">
        <ele>256</ele>
        <time>2021-02-28T09:47:10Z</time>
      </trkpt>
      <trkpt lat="50.18546" lon="4.3398">
        <ele>256</ele>
        <time>2021-02-28T09:47:12Z</time>
      </trkpt>
      <trkpt lat="50.18544" lon="4.33985">
        <ele>256</ele>
        <time>2021-02-28T09:47:14Z</time>
      </trkpt>
      <trkpt lat="50.18543" lon="4.33989">
        <ele>258</ele>
        <time>2021-02-28T09:47:16Z</time>
      </trkpt>
      <trkpt lat="50.1854" lon="4.33996">
        <ele>264</ele>
        <time>2021-02-28T09:47:18Z</time>
      </trkpt>
      <trkpt lat="50.18538" lon="4.34001">
        <ele>264</ele>
        <time>2021-02-28T09:47:20Z</time>
      </trkpt>
      <trkpt lat="50.18536" lon="4.34006">
        <ele>264</ele>
        <time>2021-02-28T09:47:22Z</time>
      </trkpt>
      <trkpt lat="50.18534" lon="4.34011">
        <ele>264</ele>
        <time>2021-02-28T09:47:24Z</time>
      </trkpt>
      <trkpt lat="50.18534" lon="4.34017">
        <ele>261</ele>
        <time>2021-02-28T09:47:26Z</time>
      </trkpt>
      <trkpt lat="50.18537" lon="4.34024">
        <ele>261</ele>
        <time>2021-02-28T09:47:28Z</time>
      </trkpt>
      <trkpt lat="50.18535" lon="4.3403">
        <ele>261</ele>
        <time>2021-02-28T09:47:30Z</time>
      </trkpt>
      <trkpt lat="50.18532" lon="4.34037">
        <ele>261</ele>
        <time>2021-02-28T09:47:32Z</time>
      </trkpt>
      <trkpt lat="50.18535" lon="4.34051">
        <ele>261</ele>
        <time>2021-02-28T09:47:35Z</time>
      </trkpt>
      <trkpt lat="50.18535" lon="4.34057">
        <ele>261</ele>
        <time>2021-02-28T09:47:37Z</time>
      </trkpt>
      <trkpt lat="50.18532" lon="4.34063">
        <ele>261</ele>
        <time>2021-02-28T09:47:39Z</time>
      </trkpt>
      <trkpt lat="50.1853" lon="4.3407">
        <ele>259</ele>
        <time>2021-02-28T09:47:41Z</time>
      </trkpt>
      <trkpt lat="50.18527" lon="4.34081">
        <ele>259</ele>
        <time>2021-02-28T09:47:43Z</time>
      </trkpt>
      <trkpt lat="50.18527" lon="4.34091">
        <ele>259</ele>
        <time>2021-02-28T09:47:45Z</time>
      </trkpt>
      <trkpt lat="50.18525" lon="4.34103">
        <ele>263</ele>
        <time>2021-02-28T09:47:47Z</time>
      </trkpt>
      <trkpt lat="50.18523" lon="4.34113">
        <ele>263</ele>
        <time>2021-02-28T09:47:49Z</time>
      </trkpt>
      <trkpt lat="50.18518" lon="4.34124">
        <ele>263</ele>
        <time>2021-02-28T09:47:51Z</time>
      </trkpt>
      <trkpt lat="50.18514" lon="4.34135">
        <ele>261</ele>
        <time>2021-02-28T09:47:53Z</time>
      </trkpt>
      <trkpt lat="50.18516" lon="4.34146">
        <ele>256</ele>
        <time>2021-02-28T09:47:55Z</time>
      </trkpt>
      <trkpt lat="50.18513" lon="4.34158">
        <ele>265</ele>
        <time>2021-02-28T09:47:57Z</time>
      </trkpt>
      <trkpt lat="50.1851" lon="4.34169">
        <ele>265</ele>
        <time>2021-02-28T09:47:59Z</time>
      </trkpt>
      <trkpt lat="50.18507" lon="4.34178">
        <ele>265</ele>
        <time>2021-02-28T09:48:01Z</time>
      </trkpt>
      <trkpt lat="50.18506" lon="4.34189">
        <ele>257</ele>
        <time>2021-02-28T09:48:03Z</time>
      </trkpt>
      <trkpt lat="50.18502" lon="4.34201">
        <ele>257</ele>
        <time>2021-02-28T09:48:05Z</time>
      </trkpt>
      <trkpt lat="50.18495" lon="4.3421">
        <ele>247</ele>
        <time>2021-02-28T09:48:07Z</time>
      </trkpt>
      <trkpt lat="50.18491" lon="4.34216">
        <ele>247</ele>
        <time>2021-02-28T09:48:09Z</time>
      </trkpt>
      <trkpt lat="50.18482" lon="4.34221">
        <ele>262</ele>
        <time>2021-02-28T09:48:11Z</time>
      </trkpt>
      <trkpt lat="50.18474" lon="4.34225">
        <ele>262</ele>
        <time>2021-02-28T09:48:13Z</time>
      </trkpt>
      <trkpt lat="50.18467" lon="4.3423">
        <ele>262</ele>
        <time>2021-02-28T09:48:15Z</time>
      </trkpt>
      <trkpt lat="50.18459" lon="4.34234">
        <ele>262</ele>
        <time>2021-02-28T09:48:17Z</time>
      </trkpt>
      <trkpt lat="50.18449" lon="4.34236">
        <ele>263</ele>
        <time>2021-02-28T09:48:19Z</time>
      </trkpt>
      <trkpt lat="50.1844" lon="4.34239">
        <ele>257</ele>
        <time>2021-02-28T09:48:21Z</time>
      </trkpt>
      <trkpt lat="50.18432" lon="4.34239">
        <ele>257</ele>
        <time>2021-02-28T09:48:23Z</time>
      </trkpt>
      <trkpt lat="50.18424" lon="4.34239">
        <ele>259</ele>
        <time>2021-02-28T09:48:25Z</time>
      </trkpt>
      <trkpt lat="50.1842" lon="4.34236">
        <ele>261</ele>
        <time>2021-02-28T09:48:27Z</time>
      </trkpt>
      <trkpt lat="50.18418" lon="4.34232">
        <ele>261</ele>
        <time>2021-02-28T09:48:29Z</time>
      </trkpt>
      <trkpt lat="50.18417" lon="4.34228">
        <ele>261</ele>
        <time>2021-02-28T09:48:31Z</time>
      </trkpt>
      <trkpt lat="50.18416" lon="4.34226">
        <ele>261</ele>
        <time>2021-02-28T09:48:33Z</time>
      </trkpt>
      <trkpt lat="50.18412" lon="4.34224">
        <ele>261</ele>
        <time>2021-02-28T09:48:35Z</time>
      </trkpt>
      <trkpt lat="50.18407" lon="4.34228">
        <ele>261</ele>
        <time>2021-02-28T09:48:37Z</time>
      </trkpt>
      <trkpt lat="50.184" lon="4.34233">
        <ele>261</ele>
        <time>2021-02-28T09:48:39Z</time>
      </trkpt>
      <trkpt lat="50.18392" lon="4.3424">
        <ele>260</ele>
        <time>2021-02-28T09:48:41Z</time>
      </trkpt>
      <trkpt lat="50.18387" lon="4.34245">
        <ele>260</ele>
        <time>2021-02-28T09:48:43Z</time>
      </trkpt>
      <trkpt lat="50.1838" lon="4.34251">
        <ele>260</ele>
        <time>2021-02-28T09:48:45Z</time>
      </trkpt>
      <trkpt lat="50.18373" lon="4.34257">
        <ele>261</ele>
        <time>2021-02-28T09:48:47Z</time>
      </trkpt>
      <trkpt lat="50.18364" lon="4.34258">
        <ele>261</ele>
        <time>2021-02-28T09:48:49Z</time>
      </trkpt>
      <trkpt lat="50.18356" lon="4.34257">
        <ele>261</ele>
        <time>2021-02-28T09:48:51Z</time>
      </trkpt>
      <trkpt lat="50.1835" lon="4.34259">
        <ele>261</ele>
        <time>2021-02-28T09:48:53Z</time>
      </trkpt>
      <trkpt lat="50.18342" lon="4.34264">
        <ele>262</ele>
        <time>2021-02-28T09:48:55Z</time>
      </trkpt>
      <trkpt lat="50.18335" lon="4.34265">
        <ele>262</ele>
        <time>2021-02-28T09:48:57Z</time>
      </trkpt>
      <trkpt lat="50.18331" lon="4.34265">
        <ele>262</ele>
        <time>2021-02-28T09:48:59Z</time>
      </trkpt>
      <trkpt lat="50.18327" lon="4.34271">
        <ele>262</ele>
        <time>2021-02-28T09:49:01Z</time>
      </trkpt>
      <trkpt lat="50.18321" lon="4.34275">
        <ele>262</ele>
        <time>2021-02-28T09:49:03Z</time>
      </trkpt>
      <trkpt lat="50.18313" lon="4.34275">
        <ele>262</ele>
        <time>2021-02-28T09:49:05Z</time>
      </trkpt>
      <trkpt lat="50.18308" lon="4.34273">
        <ele>262</ele>
        <time>2021-02-28T09:49:07Z</time>
      </trkpt>
      <trkpt lat="50.18301" lon="4.34271">
        <ele>262</ele>
        <time>2021-02-28T09:49:09Z</time>
      </trkpt>
      <trkpt lat="50.18296" lon="4.34271">
        <ele>262</ele>
        <time>2021-02-28T09:49:11Z</time>
      </trkpt>
      <trkpt lat="50.18292" lon="4.34271">
        <ele>262</ele>
        <time>2021-02-28T09:49:13Z</time>
      </trkpt>
      <trkpt lat="50.18288" lon="4.34269">
        <ele>263</ele>
        <time>2021-02-28T09:49:15Z</time>
      </trkpt>
      <trkpt lat="50.18284" lon="4.34267">
        <ele>263</ele>
        <time>2021-02-28T09:49:17Z</time>
      </trkpt>
      <trkpt lat="50.18281" lon="4.34267">
        <ele>263</ele>
        <time>2021-02-28T09:49:19Z</time>
      </trkpt>
      <trkpt lat="50.18278" lon="4.34267">
        <ele>263</ele>
        <time>2021-02-28T09:49:21Z</time>
      </trkpt>
      <trkpt lat="50.18273" lon="4.34269">
        <ele>263</ele>
        <time>2021-02-28T09:49:23Z</time>
      </trkpt>
      <trkpt lat="50.1827" lon="4.34269">
        <ele>263</ele>
        <time>2021-02-28T09:49:25Z</time>
      </trkpt>
      <trkpt lat="50.18265" lon="4.34273">
        <ele>263</ele>
        <time>2021-02-28T09:49:27Z</time>
      </trkpt>
      <trkpt lat="50.18261" lon="4.34278">
        <ele>265</ele>
        <time>2021-02-28T09:49:29Z</time>
      </trkpt>
      <trkpt lat="50.18258" lon="4.34282">
        <ele>265</ele>
        <time>2021-02-28T09:49:31Z</time>
      </trkpt>
      <trkpt lat="50.18256" lon="4.34286">
        <ele>265</ele>
        <time>2021-02-28T09:49:33Z</time>
      </trkpt>
      <trkpt lat="50.18255" lon="4.34291">
        <ele>265</ele>
        <time>2021-02-28T09:49:35Z</time>
      </trkpt>
      <trkpt lat="50.18258" lon="4.34299">
        <ele>264</ele>
        <time>2021-02-28T09:49:37Z</time>
      </trkpt>
      <trkpt lat="50.18261" lon="4.34306">
        <ele>264</ele>
        <time>2021-02-28T09:49:39Z</time>
      </trkpt>
      <trkpt lat="50.18262" lon="4.34313">
        <ele>264</ele>
        <time>2021-02-28T09:49:41Z</time>
      </trkpt>
      <trkpt lat="50.18266" lon="4.3432">
        <ele>261</ele>
        <time>2021-02-28T09:49:43Z</time>
      </trkpt>
      <trkpt lat="50.18268" lon="4.34324">
        <ele>261</ele>
        <time>2021-02-28T09:49:45Z</time>
      </trkpt>
      <trkpt lat="50.1827" lon="4.34328">
        <ele>261</ele>
        <time>2021-02-28T09:49:47Z</time>
      </trkpt>
      <trkpt lat="50.18272" lon="4.34331">
        <ele>261</ele>
        <time>2021-02-28T09:49:49Z</time>
      </trkpt>
      <trkpt lat="50.18275" lon="4.34336">
        <ele>261</ele>
        <time>2021-02-28T09:49:51Z</time>
      </trkpt>
      <trkpt lat="50.1828" lon="4.34344">
        <ele>261</ele>
        <time>2021-02-28T09:49:53Z</time>
      </trkpt>
      <trkpt lat="50.18282" lon="4.34352">
        <ele>261</ele>
        <time>2021-02-28T09:49:55Z</time>
      </trkpt>
      <trkpt lat="50.18285" lon="4.34359">
        <ele>261</ele>
        <time>2021-02-28T09:49:57Z</time>
      </trkpt>
      <trkpt lat="50.1829" lon="4.34368">
        <ele>261</ele>
        <time>2021-02-28T09:49:59Z</time>
      </trkpt>
      <trkpt lat="50.18295" lon="4.34377">
        <ele>260</ele>
        <time>2021-02-28T09:50:01Z</time>
      </trkpt>
      <trkpt lat="50.18298" lon="4.34388">
        <ele>260</ele>
        <time>2021-02-28T09:50:03Z</time>
      </trkpt>
      <trkpt lat="50.18299" lon="4.34398">
        <ele>260</ele>
        <time>2021-02-28T09:50:05Z</time>
      </trkpt>
      <trkpt lat="50.18296" lon="4.34408">
        <ele>257</ele>
        <time>2021-02-28T09:50:07Z</time>
      </trkpt>
      <trkpt lat="50.1829" lon="4.34413">
        <ele>259</ele>
        <time>2021-02-28T09:50:09Z</time>
      </trkpt>
      <trkpt lat="50.18284" lon="4.34421">
        <ele>259</ele>
        <time>2021-02-28T09:50:11Z</time>
      </trkpt>
      <trkpt lat="50.18281" lon="4.34433">
        <ele>259</ele>
        <time>2021-02-28T09:50:13Z</time>
      </trkpt>
      <trkpt lat="50.18277" lon="4.34448">
        <ele>259</ele>
        <time>2021-02-28T09:50:15Z</time>
      </trkpt>
      <trkpt lat="50.18276" lon="4.34463">
        <ele>255</ele>
        <time>2021-02-28T09:50:17Z</time>
      </trkpt>
      <trkpt lat="50.18272" lon="4.34476">
        <ele>255</ele>
        <time>2021-02-28T09:50:19Z</time>
      </trkpt>
      <trkpt lat="50.18267" lon="4.3449">
        <ele>253</ele>
        <time>2021-02-28T09:50:21Z</time>
      </trkpt>
      <trkpt lat="50.18264" lon="4.34503">
        <ele>253</ele>
        <time>2021-02-28T09:50:23Z</time>
      </trkpt>
      <trkpt lat="50.1826" lon="4.34515">
        <ele>252</ele>
        <time>2021-02-28T09:50:25Z</time>
      </trkpt>
      <trkpt lat="50.18256" lon="4.34526">
        <ele>252</ele>
        <time>2021-02-28T09:50:27Z</time>
      </trkpt>
      <trkpt lat="50.18253" lon="4.34538">
        <ele>252</ele>
        <time>2021-02-28T09:50:29Z</time>
      </trkpt>
      <trkpt lat="50.18249" lon="4.34549">
        <ele>252</ele>
        <time>2021-02-28T09:50:31Z</time>
      </trkpt>
      <trkpt lat="50.18245" lon="4.34559">
        <ele>252</ele>
        <time>2021-02-28T09:50:33Z</time>
      </trkpt>
      <trkpt lat="50.18242" lon="4.34569">
        <ele>252</ele>
        <time>2021-02-28T09:50:35Z</time>
      </trkpt>
      <trkpt lat="50.18238" lon="4.34578">
        <ele>251</ele>
        <time>2021-02-28T09:50:37Z</time>
      </trkpt>
      <trkpt lat="50.18233" lon="4.34588">
        <ele>252</ele>
        <time>2021-02-28T09:50:39Z</time>
      </trkpt>
      <trkpt lat="50.18228" lon="4.34596">
        <ele>252</ele>
        <time>2021-02-28T09:50:41Z</time>
      </trkpt>
      <trkpt lat="50.18222" lon="4.34603">
        <ele>253</ele>
        <time>2021-02-28T09:50:43Z</time>
      </trkpt>
      <trkpt lat="50.18214" lon="4.34606">
        <ele>253</ele>
        <time>2021-02-28T09:50:45Z</time>
      </trkpt>
      <trkpt lat="50.18207" lon="4.34608">
        <ele>253</ele>
        <time>2021-02-28T09:50:47Z</time>
      </trkpt>
      <trkpt lat="50.18199" lon="4.34608">
        <ele>253</ele>
        <time>2021-02-28T09:50:49Z</time>
      </trkpt>
      <trkpt lat="50.18191" lon="4.34607">
        <ele>253</ele>
        <time>2021-02-28T09:50:51Z</time>
      </trkpt>
      <trkpt lat="50.18184" lon="4.34606">
        <ele>253</ele>
        <time>2021-02-28T09:50:53Z</time>
      </trkpt>
      <trkpt lat="50.18176" lon="4.34605">
        <ele>254</ele>
        <time>2021-02-28T09:50:55Z</time>
      </trkpt>
      <trkpt lat="50.18168" lon="4.34602">
        <ele>254</ele>
        <time>2021-02-28T09:50:57Z</time>
      </trkpt>
      <trkpt lat="50.1816" lon="4.346">
        <ele>254</ele>
        <time>2021-02-28T09:50:59Z</time>
      </trkpt>
      <trkpt lat="50.18153" lon="4.34596">
        <ele>256</ele>
        <time>2021-02-28T09:51:01Z</time>
      </trkpt>
      <trkpt lat="50.18145" lon="4.34592">
        <ele>256</ele>
        <time>2021-02-28T09:51:03Z</time>
      </trkpt>
      <trkpt lat="50.18138" lon="4.3459">
        <ele>256</ele>
        <time>2021-02-28T09:51:05Z</time>
      </trkpt>
      <trkpt lat="50.18131" lon="4.3459">
        <ele>256</ele>
        <time>2021-02-28T09:51:07Z</time>
      </trkpt>
      <trkpt lat="50.18123" lon="4.34594">
        <ele>258</ele>
        <time>2021-02-28T09:51:09Z</time>
      </trkpt>
      <trkpt lat="50.18116" lon="4.34599">
        <ele>256</ele>
        <time>2021-02-28T09:51:11Z</time>
      </trkpt>
      <trkpt lat="50.18108" lon="4.34606">
        <ele>256</ele>
        <time>2021-02-28T09:51:13Z</time>
      </trkpt>
      <trkpt lat="50.18101" lon="4.34615">
        <ele>256</ele>
        <time>2021-02-28T09:51:15Z</time>
      </trkpt>
      <trkpt lat="50.18095" lon="4.34627">
        <ele>258</ele>
        <time>2021-02-28T09:51:17Z</time>
      </trkpt>
      <trkpt lat="50.18091" lon="4.34643">
        <ele>258</ele>
        <time>2021-02-28T09:51:19Z</time>
      </trkpt>
      <trkpt lat="50.1809" lon="4.34662">
        <ele>258</ele>
        <time>2021-02-28T09:51:21Z</time>
      </trkpt>
      <trkpt lat="50.1809" lon="4.3468">
        <ele>258</ele>
        <time>2021-02-28T09:51:23Z</time>
      </trkpt>
      <trkpt lat="50.18092" lon="4.34697">
        <ele>257</ele>
        <time>2021-02-28T09:51:25Z</time>
      </trkpt>
      <trkpt lat="50.18095" lon="4.34711">
        <ele>256</ele>
        <time>2021-02-28T09:51:27Z</time>
      </trkpt>
      <trkpt lat="50.18098" lon="4.34724">
        <ele>253</ele>
        <time>2021-02-28T09:51:29Z</time>
      </trkpt>
      <trkpt lat="50.18103" lon="4.34734">
        <ele>253</ele>
        <time>2021-02-28T09:51:31Z</time>
      </trkpt>
      <trkpt lat="50.1811" lon="4.34742">
        <ele>253</ele>
        <time>2021-02-28T09:51:33Z</time>
      </trkpt>
      <trkpt lat="50.18118" lon="4.34748">
        <ele>253</ele>
        <time>2021-02-28T09:51:35Z</time>
      </trkpt>
      <trkpt lat="50.18126" lon="4.34754">
        <ele>252</ele>
        <time>2021-02-28T09:51:37Z</time>
      </trkpt>
      <trkpt lat="50.18136" lon="4.34761">
        <ele>252</ele>
        <time>2021-02-28T09:51:39Z</time>
      </trkpt>
      <trkpt lat="50.18148" lon="4.34767">
        <ele>252</ele>
        <time>2021-02-28T09:51:41Z</time>
      </trkpt>
      <trkpt lat="50.18161" lon="4.34774">
        <ele>251</ele>
        <time>2021-02-28T09:51:43Z</time>
      </trkpt>
      <trkpt lat="50.18173" lon="4.34784">
        <ele>251</ele>
        <time>2021-02-28T09:51:45Z</time>
      </trkpt>
      <trkpt lat="50.18185" lon="4.34797">
        <ele>249</ele>
        <time>2021-02-28T09:51:47Z</time>
      </trkpt>
      <trkpt lat="50.18195" lon="4.34813">
        <ele>249</ele>
        <time>2021-02-28T09:51:49Z</time>
      </trkpt>
      <trkpt lat="50.18203" lon="4.34832">
        <ele>250</ele>
        <time>2021-02-28T09:51:51Z</time>
      </trkpt>
      <trkpt lat="50.18208" lon="4.34851">
        <ele>250</ele>
        <time>2021-02-28T09:51:53Z</time>
      </trkpt>
      <trkpt lat="50.1821" lon="4.3487">
        <ele>249</ele>
        <time>2021-02-28T09:51:55Z</time>
      </trkpt>
      <trkpt lat="50.18209" lon="4.3489">
        <ele>249</ele>
        <time>2021-02-28T09:51:57Z</time>
      </trkpt>
      <trkpt lat="50.18204" lon="4.3491">
        <ele>249</ele>
        <time>2021-02-28T09:51:59Z</time>
      </trkpt>
      <trkpt lat="50.18196" lon="4.34926">
        <ele>249</ele>
        <time>2021-02-28T09:52:01Z</time>
      </trkpt>
      <trkpt lat="50.18187" lon="4.34939">
        <ele>249</ele>
        <time>2021-02-28T09:52:03Z</time>
      </trkpt>
      <trkpt lat="50.18179" lon="4.3495">
        <ele>249</ele>
        <time>2021-02-28T09:52:05Z</time>
      </trkpt>
      <trkpt lat="50.1817" lon="4.34959">
        <ele>249</ele>
        <time>2021-02-28T09:52:07Z</time>
      </trkpt>
      <trkpt lat="50.18159" lon="4.34962">
        <ele>249</ele>
        <time>2021-02-28T09:52:09Z</time>
      </trkpt>
      <trkpt lat="50.18148" lon="4.34962">
        <ele>249</ele>
        <time>2021-02-28T09:52:11Z</time>
      </trkpt>
      <trkpt lat="50.18137" lon="4.34961">
        <ele>249</ele>
        <time>2021-02-28T09:52:13Z</time>
      </trkpt>
      <trkpt lat="50.18126" lon="4.34959">
        <ele>249</ele>
        <time>2021-02-28T09:52:15Z</time>
      </trkpt>
      <trkpt lat="50.18115" lon="4.34958">
        <ele>251</ele>
        <time>2021-02-28T09:52:17Z</time>
      </trkpt>
      <trkpt lat="50.18105" lon="4.34957">
        <ele>251</ele>
        <time>2021-02-28T09:52:19Z</time>
      </trkpt>
      <trkpt lat="50.18094" lon="4.34955">
        <ele>251</ele>
        <time>2021-02-28T09:52:21Z</time>
      </trkpt>
      <trkpt lat="50.18084" lon="4.34954">
        <ele>251</ele>
        <time>2021-02-28T09:52:23Z</time>
      </trkpt>
      <trkpt lat="50.18073" lon="4.34953">
        <ele>251</ele>
        <time>2021-02-28T09:52:25Z</time>
      </trkpt>
      <trkpt lat="50.18063" lon="4.34951">
        <ele>250</ele>
        <time>2021-02-28T09:52:27Z</time>
      </trkpt>
      <trkpt lat="50.18052" lon="4.3495">
        <ele>250</ele>
        <time>2021-02-28T09:52:29Z</time>
      </trkpt>
      <trkpt lat="50.18041" lon="4.34948">
        <ele>250</ele>
        <time>2021-02-28T09:52:31Z</time>
      </trkpt>
      <trkpt lat="50.18031" lon="4.34947">
        <ele>250</ele>
        <time>2021-02-28T09:52:33Z</time>
      </trkpt>
      <trkpt lat="50.1802" lon="4.34945">
        <ele>250</ele>
        <time>2021-02-28T09:52:35Z</time>
      </trkpt>
      <trkpt lat="50.18009" lon="4.34943">
        <ele>251</ele>
        <time>2021-02-28T09:52:37Z</time>
      </trkpt>
      <trkpt lat="50.17999" lon="4.34941">
        <ele>251</ele>
        <time>2021-02-28T09:52:39Z</time>
      </trkpt>
      <trkpt lat="50.17989" lon="4.34938">
        <ele>251</ele>
        <time>2021-02-28T09:52:41Z</time>
      </trkpt>
      <trkpt lat="50.17979" lon="4.34932">
        <ele>252</ele>
        <time>2021-02-28T09:52:43Z</time>
      </trkpt>
      <trkpt lat="50.1797" lon="4.34924">
        <ele>252</ele>
        <time>2021-02-28T09:52:45Z</time>
      </trkpt>
      <trkpt lat="50.1796" lon="4.34915">
        <ele>252</ele>
        <time>2021-02-28T09:52:47Z</time>
      </trkpt>
      <trkpt lat="50.17951" lon="4.34904">
        <ele>251</ele>
        <time>2021-02-28T09:52:49Z</time>
      </trkpt>
      <trkpt lat="50.17944" lon="4.34889">
        <ele>252</ele>
        <time>2021-02-28T09:52:51Z</time>
      </trkpt>
      <trkpt lat="50.17938" lon="4.34874">
        <ele>251</ele>
        <time>2021-02-28T09:52:53Z</time>
      </trkpt>
      <trkpt lat="50.17933" lon="4.34858">
        <ele>251</ele>
        <time>2021-02-28T09:52:55Z</time>
      </trkpt>
      <trkpt lat="50.17928" lon="4.34843">
        <ele>249</ele>
        <time>2021-02-28T09:52:57Z</time>
      </trkpt>
      <trkpt lat="50.17924" lon="4.34827">
        <ele>249</ele>
        <time>2021-02-28T09:52:59Z</time>
      </trkpt>
      <trkpt lat="50.17922" lon="4.34811">
        <ele>250</ele>
        <time>2021-02-28T09:53:01Z</time>
      </trkpt>
      <trkpt lat="50.17918" lon="4.34795">
        <ele>250</ele>
        <time>2021-02-28T09:53:03Z</time>
      </trkpt>
      <trkpt lat="50.17914" lon="4.3478">
        <ele>251</ele>
        <time>2021-02-28T09:53:05Z</time>
      </trkpt>
      <trkpt lat="50.17909" lon="4.34764">
        <ele>251</ele>
        <time>2021-02-28T09:53:07Z</time>
      </trkpt>
      <trkpt lat="50.17905" lon="4.34748">
        <ele>252</ele>
        <time>2021-02-28T09:53:09Z</time>
      </trkpt>
      <trkpt lat="50.179" lon="4.34731">
        <ele>251</ele>
        <time>2021-02-28T09:53:11Z</time>
      </trkpt>
      <trkpt lat="50.17895" lon="4.34714">
        <ele>251</ele>
        <time>2021-02-28T09:53:13Z</time>
      </trkpt>
      <trkpt lat="50.17889" lon="4.34697">
        <ele>252</ele>
        <time>2021-02-28T09:53:15Z</time>
      </trkpt>
      <trkpt lat="50.17883" lon="4.34681">
        <ele>254</ele>
        <time>2021-02-28T09:53:17Z</time>
      </trkpt>
      <trkpt lat="50.17875" lon="4.34667">
        <ele>250</ele>
        <time>2021-02-28T09:53:19Z</time>
      </trkpt>
      <trkpt lat="50.17865" lon="4.34656">
        <ele>250</ele>
        <time>2021-02-28T09:53:21Z</time>
      </trkpt>
      <trkpt lat="50.17854" lon="4.34645">
        <ele>252</ele>
        <time>2021-02-28T09:53:23Z</time>
      </trkpt>
      <trkpt lat="50.17844" lon="4.34633">
        <ele>251</ele>
        <time>2021-02-28T09:53:25Z</time>
      </trkpt>
      <trkpt lat="50.17833" lon="4.34622">
        <ele>252</ele>
        <time>2021-02-28T09:53:27Z</time>
      </trkpt>
      <trkpt lat="50.17823" lon="4.34612">
        <ele>252</ele>
        <time>2021-02-28T09:53:29Z</time>
      </trkpt>
      <trkpt lat="50.17812" lon="4.34602">
        <ele>250</ele>
        <time>2021-02-28T09:53:31Z</time>
      </trkpt>
      <trkpt lat="50.17802" lon="4.34591">
        <ele>252</ele>
        <time>2021-02-28T09:53:33Z</time>
      </trkpt>
      <trkpt lat="50.17792" lon="4.34582">
        <ele>252</ele>
        <time>2021-02-28T09:53:35Z</time>
      </trkpt>
      <trkpt lat="50.17779" lon="4.34582">
        <ele>251</ele>
        <time>2021-02-28T09:53:37Z</time>
      </trkpt>
      <trkpt lat="50.17766" lon="4.34592">
        <ele>251</ele>
        <time>2021-02-28T09:53:39Z</time>
      </trkpt>
      <trkpt lat="50.17758" lon="4.34606">
        <ele>252</ele>
        <time>2021-02-28T09:53:41Z</time>
      </trkpt>
      <trkpt lat="50.17758" lon="4.34625">
        <ele>252</ele>
        <time>2021-02-28T09:53:43Z</time>
      </trkpt>
      <trkpt lat="50.17761" lon="4.34644">
        <ele>254</ele>
        <time>2021-02-28T09:53:45Z</time>
      </trkpt>
      <trkpt lat="50.17763" lon="4.34662">
        <ele>256</ele>
        <time>2021-02-28T09:53:47Z</time>
      </trkpt>
      <trkpt lat="50.17766" lon="4.34678">
        <ele>254</ele>
        <time>2021-02-28T09:53:49Z</time>
      </trkpt>
      <trkpt lat="50.17768" lon="4.34695">
        <ele>254</ele>
        <time>2021-02-28T09:53:51Z</time>
      </trkpt>
      <trkpt lat="50.1777" lon="4.34712">
        <ele>253</ele>
        <time>2021-02-28T09:53:53Z</time>
      </trkpt>
      <trkpt lat="50.17773" lon="4.34729">
        <ele>253</ele>
        <time>2021-02-28T09:53:55Z</time>
      </trkpt>
      <trkpt lat="50.17775" lon="4.34746">
        <ele>255</ele>
        <time>2021-02-28T09:53:57Z</time>
      </trkpt>
      <trkpt lat="50.17778" lon="4.34765">
        <ele>253</ele>
        <time>2021-02-28T09:53:59Z</time>
      </trkpt>
      <trkpt lat="50.1778" lon="4.34783">
        <ele>253</ele>
        <time>2021-02-28T09:54:01Z</time>
      </trkpt>
      <trkpt lat="50.17783" lon="4.34802">
        <ele>255</ele>
        <time>2021-02-28T09:54:03Z</time>
      </trkpt>
      <trkpt lat="50.17787" lon="4.3482">
        <ele>254</ele>
        <time>2021-02-28T09:54:05Z</time>
      </trkpt>
      <trkpt lat="50.1779" lon="4.34838">
        <ele>254</ele>
        <time>2021-02-28T09:54:07Z</time>
      </trkpt>
      <trkpt lat="50.17794" lon="4.34857">
        <ele>253</ele>
        <time>2021-02-28T09:54:09Z</time>
      </trkpt>
      <trkpt lat="50.17798" lon="4.34875">
        <ele>253</ele>
        <time>2021-02-28T09:54:11Z</time>
      </trkpt>
      <trkpt lat="50.17802" lon="4.34892">
        <ele>254</ele>
        <time>2021-02-28T09:54:13Z</time>
      </trkpt>
      <trkpt lat="50.17806" lon="4.34909">
        <ele>255</ele>
        <time>2021-02-28T09:54:15Z</time>
      </trkpt>
      <trkpt lat="50.17809" lon="4.34924">
        <ele>255</ele>
        <time>2021-02-28T09:54:17Z</time>
      </trkpt>
      <trkpt lat="50.17811" lon="4.34938">
        <ele>256</ele>
        <time>2021-02-28T09:54:19Z</time>
      </trkpt>
      <trkpt lat="50.17812" lon="4.34949">
        <ele>256</ele>
        <time>2021-02-28T09:54:21Z</time>
      </trkpt>
      <trkpt lat="50.17813" lon="4.34959">
        <ele>256</ele>
        <time>2021-02-28T09:54:23Z</time>
      </trkpt>
      <trkpt lat="50.17813" lon="4.34969">
        <ele>256</ele>
        <time>2021-02-28T09:54:25Z</time>
      </trkpt>
      <trkpt lat="50.17812" lon="4.34979">
        <ele>256</ele>
        <time>2021-02-28T09:54:27Z</time>
      </trkpt>
      <trkpt lat="50.17811" lon="4.34989">
        <ele>256</ele>
        <time>2021-02-28T09:54:29Z</time>
      </trkpt>
      <trkpt lat="50.17808" lon="4.34997">
        <ele>256</ele>
        <time>2021-02-28T09:54:31Z</time>
      </trkpt>
      <trkpt lat="50.17804" lon="4.35003">
        <ele>256</ele>
        <time>2021-02-28T09:54:33Z</time>
      </trkpt>
      <trkpt lat="50.17799" lon="4.35008">
        <ele>256</ele>
        <time>2021-02-28T09:54:35Z</time>
      </trkpt>
      <trkpt lat="50.17795" lon="4.35012">
        <ele>256</ele>
        <time>2021-02-28T09:54:37Z</time>
      </trkpt>
      <trkpt lat="50.1779" lon="4.35014">
        <ele>260</ele>
        <time>2021-02-28T09:54:39Z</time>
      </trkpt>
      <trkpt lat="50.17786" lon="4.35018">
        <ele>260</ele>
        <time>2021-02-28T09:54:41Z</time>
      </trkpt>
      <trkpt lat="50.17782" lon="4.35022">
        <ele>260</ele>
        <time>2021-02-28T09:54:43Z</time>
      </trkpt>
      <trkpt lat="50.17778" lon="4.35026">
        <ele>260</ele>
        <time>2021-02-28T09:54:45Z</time>
      </trkpt>
      <trkpt lat="50.17775" lon="4.35029">
        <ele>260</ele>
        <time>2021-02-28T09:54:47Z</time>
      </trkpt>
      <trkpt lat="50.17773" lon="4.35034">
        <ele>260</ele>
        <time>2021-02-28T09:54:49Z</time>
      </trkpt>
      <trkpt lat="50.1777" lon="4.35037">
        <ele>260</ele>
        <time>2021-02-28T09:54:51Z</time>
      </trkpt>
      <trkpt lat="50.17767" lon="4.35036">
        <ele>260</ele>
        <time>2021-02-28T09:54:53Z</time>
      </trkpt>
      <trkpt lat="50.17764" lon="4.35033">
        <ele>263</ele>
        <time>2021-02-28T09:54:55Z</time>
      </trkpt>
      <trkpt lat="50.1776" lon="4.35028">
        <ele>263</ele>
        <time>2021-02-28T09:54:57Z</time>
      </trkpt>
      <trkpt lat="50.17756" lon="4.35022">
        <ele>263</ele>
        <time>2021-02-28T09:54:59Z</time>
      </trkpt>
      <trkpt lat="50.17753" lon="4.35018">
        <ele>263</ele>
        <time>2021-02-28T09:55:01Z</time>
      </trkpt>
      <trkpt lat="50.17749" lon="4.35011">
        <ele>262</ele>
        <time>2021-02-28T09:55:03Z</time>
      </trkpt>
      <trkpt lat="50.17746" lon="4.35005">
        <ele>262</ele>
        <time>2021-02-28T09:55:05Z</time>
      </trkpt>
      <trkpt lat="50.17742" lon="4.34998">
        <ele>262</ele>
        <time>2021-02-28T09:55:07Z</time>
      </trkpt>
      <trkpt lat="50.17738" lon="4.3499">
        <ele>262</ele>
        <time>2021-02-28T09:55:09Z</time>
      </trkpt>
      <trkpt lat="50.17734" lon="4.34983">
        <ele>264</ele>
        <time>2021-02-28T09:55:11Z</time>
      </trkpt>
      <trkpt lat="50.17729" lon="4.34976">
        <ele>264</ele>
        <time>2021-02-28T09:55:13Z</time>
      </trkpt>
      <trkpt lat="50.17725" lon="4.34968">
        <ele>264</ele>
        <time>2021-02-28T09:55:15Z</time>
      </trkpt>
      <trkpt lat="50.1772" lon="4.3496">
        <ele>264</ele>
        <time>2021-02-28T09:55:17Z</time>
      </trkpt>
      <trkpt lat="50.17715" lon="4.34952">
        <ele>265</ele>
        <time>2021-02-28T09:55:19Z</time>
      </trkpt>
      <trkpt lat="50.17711" lon="4.34944">
        <ele>265</ele>
        <time>2021-02-28T09:55:21Z</time>
      </trkpt>
      <trkpt lat="50.17706" lon="4.34935">
        <ele>267</ele>
        <time>2021-02-28T09:55:23Z</time>
      </trkpt>
      <trkpt lat="50.17701" lon="4.34927">
        <ele>266</ele>
        <time>2021-02-28T09:55:25Z</time>
      </trkpt>
      <trkpt lat="50.17696" lon="4.34918">
        <ele>266</ele>
        <time>2021-02-28T09:55:27Z</time>
      </trkpt>
      <trkpt lat="50.17691" lon="4.34909">
        <ele>266</ele>
        <time>2021-02-28T09:55:29Z</time>
      </trkpt>
      <trkpt lat="50.17685" lon="4.349">
        <ele>265</ele>
        <time>2021-02-28T09:55:31Z</time>
      </trkpt>
      <trkpt lat="50.1768" lon="4.34891">
        <ele>268</ele>
        <time>2021-02-28T09:55:33Z</time>
      </trkpt>
      <trkpt lat="50.17675" lon="4.34881">
        <ele>268</ele>
        <time>2021-02-28T09:55:35Z</time>
      </trkpt>
      <trkpt lat="50.1767" lon="4.34871">
        <ele>267</ele>
        <time>2021-02-28T09:55:37Z</time>
      </trkpt>
      <trkpt lat="50.17664" lon="4.34861">
        <ele>267</ele>
        <time>2021-02-28T09:55:39Z</time>
      </trkpt>
      <trkpt lat="50.17659" lon="4.3485">
        <ele>267</ele>
        <time>2021-02-28T09:55:41Z</time>
      </trkpt>
      <trkpt lat="50.17654" lon="4.34839">
        <ele>265</ele>
        <time>2021-02-28T09:55:43Z</time>
      </trkpt>
      <trkpt lat="50.17648" lon="4.34827">
        <ele>269</ele>
        <time>2021-02-28T09:55:45Z</time>
      </trkpt>
      <trkpt lat="50.17644" lon="4.34815">
        <ele>268</ele>
        <time>2021-02-28T09:55:47Z</time>
      </trkpt>
      <trkpt lat="50.17639" lon="4.34803">
        <ele>268</ele>
        <time>2021-02-28T09:55:49Z</time>
      </trkpt>
      <trkpt lat="50.17635" lon="4.3479">
        <ele>267</ele>
        <time>2021-02-28T09:55:51Z</time>
      </trkpt>
      <trkpt lat="50.1763" lon="4.34778">
        <ele>267</ele>
        <time>2021-02-28T09:55:53Z</time>
      </trkpt>
      <trkpt lat="50.17625" lon="4.34765">
        <ele>269</ele>
        <time>2021-02-28T09:55:55Z</time>
      </trkpt>
      <trkpt lat="50.17621" lon="4.34752">
        <ele>269</ele>
        <time>2021-02-28T09:55:57Z</time>
      </trkpt>
      <trkpt lat="50.17615" lon="4.34739">
        <ele>269</ele>
        <time>2021-02-28T09:55:59Z</time>
      </trkpt>
      <trkpt lat="50.1761" lon="4.34726">
        <ele>268</ele>
        <time>2021-02-28T09:56:01Z</time>
      </trkpt>
      <trkpt lat="50.17604" lon="4.34713">
        <ele>268</ele>
        <time>2021-02-28T09:56:03Z</time>
      </trkpt>
      <trkpt lat="50.176" lon="4.347">
        <ele>268</ele>
        <time>2021-02-28T09:56:05Z</time>
      </trkpt>
      <trkpt lat="50.17594" lon="4.34686">
        <ele>269</ele>
        <time>2021-02-28T09:56:07Z</time>
      </trkpt>
      <trkpt lat="50.17589" lon="4.34673">
        <ele>268</ele>
        <time>2021-02-28T09:56:09Z</time>
      </trkpt>
      <trkpt lat="50.17584" lon="4.3466">
        <ele>268</ele>
        <time>2021-02-28T09:56:11Z</time>
      </trkpt>
      <trkpt lat="50.17579" lon="4.34646">
        <ele>267</ele>
        <time>2021-02-28T09:56:13Z</time>
      </trkpt>
      <trkpt lat="50.17573" lon="4.34632">
        <ele>267</ele>
        <time>2021-02-28T09:56:15Z</time>
      </trkpt>
      <trkpt lat="50.17568" lon="4.34618">
        <ele>268</ele>
        <time>2021-02-28T09:56:17Z</time>
      </trkpt>
      <trkpt lat="50.17563" lon="4.34604">
        <ele>268</ele>
        <time>2021-02-28T09:56:19Z</time>
      </trkpt>
      <trkpt lat="50.17558" lon="4.3459">
        <ele>268</ele>
        <time>2021-02-28T09:56:21Z</time>
      </trkpt>
      <trkpt lat="50.17553" lon="4.34576">
        <ele>268</ele>
        <time>2021-02-28T09:56:23Z</time>
      </trkpt>
      <trkpt lat="50.17549" lon="4.3456">
        <ele>269</ele>
        <time>2021-02-28T09:56:25Z</time>
      </trkpt>
      <trkpt lat="50.17546" lon="4.34543">
        <ele>269</ele>
        <time>2021-02-28T09:56:27Z</time>
      </trkpt>
      <trkpt lat="50.17545" lon="4.34527">
        <ele>269</ele>
        <time>2021-02-28T09:56:29Z</time>
      </trkpt>
      <trkpt lat="50.17545" lon="4.34511">
        <ele>270</ele>
        <time>2021-02-28T09:56:31Z</time>
      </trkpt>
      <trkpt lat="50.17545" lon="4.34495">
        <ele>270</ele>
        <time>2021-02-28T09:56:33Z</time>
      </trkpt>
      <trkpt lat="50.17545" lon="4.34479">
        <ele>269</ele>
        <time>2021-02-28T09:56:35Z</time>
      </trkpt>
      <trkpt lat="50.17545" lon="4.34463">
        <ele>269</ele>
        <time>2021-02-28T09:56:37Z</time>
      </trkpt>
      <trkpt lat="50.17545" lon="4.34447">
        <ele>269</ele>
        <time>2021-02-28T09:56:39Z</time>
      </trkpt>
      <trkpt lat="50.17544" lon="4.34431">
        <ele>269</ele>
        <time>2021-02-28T09:56:41Z</time>
      </trkpt>
      <trkpt lat="50.17543" lon="4.34415">
        <ele>268</ele>
        <time>2021-02-28T09:56:43Z</time>
      </trkpt>
      <trkpt lat="50.17542" lon="4.34399">
        <ele>270</ele>
        <time>2021-02-28T09:56:45Z</time>
      </trkpt>
      <trkpt lat="50.1754" lon="4.34383">
        <ele>270</ele>
        <time>2021-02-28T09:56:47Z</time>
      </trkpt>
      <trkpt lat="50.17538" lon="4.34368">
        <ele>270</ele>
        <time>2021-02-28T09:56:49Z</time>
      </trkpt>
      <trkpt lat="50.17535" lon="4.34352">
        <ele>270</ele>
        <time>2021-02-28T09:56:51Z</time>
      </trkpt>
      <trkpt lat="50.17533" lon="4.34337">
        <ele>272</ele>
        <time>2021-02-28T09:56:53Z</time>
      </trkpt>
      <trkpt lat="50.1753" lon="4.34324">
        <ele>272</ele>
        <time>2021-02-28T09:56:55Z</time>
      </trkpt>
      <trkpt lat="50.17526" lon="4.34313">
        <ele>270</ele>
        <time>2021-02-28T09:56:57Z</time>
      </trkpt>
      <trkpt lat="50.17519" lon="4.34304">
        <ele>270</ele>
        <time>2021-02-28T09:56:59Z</time>
      </trkpt>
      <trkpt lat="50.1751" lon="4.34299">
        <ele>273</ele>
        <time>2021-02-28T09:57:01Z</time>
      </trkpt>
      <trkpt lat="50.17499" lon="4.34296">
        <ele>273</ele>
        <time>2021-02-28T09:57:03Z</time>
      </trkpt>
      <trkpt lat="50.17489" lon="4.34294">
        <ele>273</ele>
        <time>2021-02-28T09:57:05Z</time>
      </trkpt>
      <trkpt lat="50.17479" lon="4.3429">
        <ele>273</ele>
        <time>2021-02-28T09:57:07Z</time>
      </trkpt>
      <trkpt lat="50.17468" lon="4.34285">
        <ele>273</ele>
        <time>2021-02-28T09:57:09Z</time>
      </trkpt>
      <trkpt lat="50.17456" lon="4.34278">
        <ele>275</ele>
        <time>2021-02-28T09:57:11Z</time>
      </trkpt>
      <trkpt lat="50.17443" lon="4.3427">
        <ele>275</ele>
        <time>2021-02-28T09:57:13Z</time>
      </trkpt>
      <trkpt lat="50.1743" lon="4.34262">
        <ele>277</ele>
        <time>2021-02-28T09:57:15Z</time>
      </trkpt>
      <trkpt lat="50.17417" lon="4.34254">
        <ele>277</ele>
        <time>2021-02-28T09:57:17Z</time>
      </trkpt>
      <trkpt lat="50.17405" lon="4.34246">
        <ele>277</ele>
        <time>2021-02-28T09:57:19Z</time>
      </trkpt>
      <trkpt lat="50.17392" lon="4.34239">
        <ele>279</ele>
        <time>2021-02-28T09:57:21Z</time>
      </trkpt>
      <trkpt lat="50.1738" lon="4.34231">
        <ele>277</ele>
        <time>2021-02-28T09:57:23Z</time>
      </trkpt>
      <trkpt lat="50.17368" lon="4.34224">
        <ele>277</ele>
        <time>2021-02-28T09:57:25Z</time>
      </trkpt>
      <trkpt lat="50.17356" lon="4.34217">
        <ele>277</ele>
        <time>2021-02-28T09:57:27Z</time>
      </trkpt>
      <trkpt lat="50.17345" lon="4.3421">
        <ele>279</ele>
        <time>2021-02-28T09:57:29Z</time>
      </trkpt>
      <trkpt lat="50.17334" lon="4.34203">
        <ele>275</ele>
        <time>2021-02-28T09:57:31Z</time>
      </trkpt>
      <trkpt lat="50.17322" lon="4.34197">
        <ele>275</ele>
        <time>2021-02-28T09:57:33Z</time>
      </trkpt>
      <trkpt lat="50.17311" lon="4.3419">
        <ele>276</ele>
        <time>2021-02-28T09:57:35Z</time>
      </trkpt>
      <trkpt lat="50.173" lon="4.34184">
        <ele>276</ele>
        <time>2021-02-28T09:57:37Z</time>
      </trkpt>
      <trkpt lat="50.1729" lon="4.34178">
        <ele>274</ele>
        <time>2021-02-28T09:57:39Z</time>
      </trkpt>
      <trkpt lat="50.17279" lon="4.34171">
        <ele>274</ele>
        <time>2021-02-28T09:57:41Z</time>
      </trkpt>
      <trkpt lat="50.17267" lon="4.34165">
        <ele>274</ele>
        <time>2021-02-28T09:57:43Z</time>
      </trkpt>
      <trkpt lat="50.17255" lon="4.34158">
        <ele>275</ele>
        <time>2021-02-28T09:57:45Z</time>
      </trkpt>
      <trkpt lat="50.17243" lon="4.34152">
        <ele>273</ele>
        <time>2021-02-28T09:57:47Z</time>
      </trkpt>
      <trkpt lat="50.17231" lon="4.34146">
        <ele>272</ele>
        <time>2021-02-28T09:57:49Z</time>
      </trkpt>
      <trkpt lat="50.1722" lon="4.34142">
        <ele>272</ele>
        <time>2021-02-28T09:57:51Z</time>
      </trkpt>
      <trkpt lat="50.17211" lon="4.34143">
        <ele>272</ele>
        <time>2021-02-28T09:57:53Z</time>
      </trkpt>
      <trkpt lat="50.17203" lon="4.34152">
        <ele>271</ele>
        <time>2021-02-28T09:57:55Z</time>
      </trkpt>
      <trkpt lat="50.17198" lon="4.34167">
        <ele>271</ele>
        <time>2021-02-28T09:57:57Z</time>
      </trkpt>
      <trkpt lat="50.17194" lon="4.34184">
        <ele>272</ele>
        <time>2021-02-28T09:57:59Z</time>
      </trkpt>
      <trkpt lat="50.17191" lon="4.34203">
        <ele>272</ele>
        <time>2021-02-28T09:58:01Z</time>
      </trkpt>
      <trkpt lat="50.17189" lon="4.34223">
        <ele>275</ele>
        <time>2021-02-28T09:58:03Z</time>
      </trkpt>
      <trkpt lat="50.17186" lon="4.34242">
        <ele>273</ele>
        <time>2021-02-28T09:58:05Z</time>
      </trkpt>
      <trkpt lat="50.17183" lon="4.34262">
        <ele>273</ele>
        <time>2021-02-28T09:58:07Z</time>
      </trkpt>
      <trkpt lat="50.1718" lon="4.34281">
        <ele>270</ele>
        <time>2021-02-28T09:58:09Z</time>
      </trkpt>
      <trkpt lat="50.17178" lon="4.34301">
        <ele>272</ele>
        <time>2021-02-28T09:58:11Z</time>
      </trkpt>
      <trkpt lat="50.17176" lon="4.3432">
        <ele>272</ele>
        <time>2021-02-28T09:58:13Z</time>
      </trkpt>
      <trkpt lat="50.17174" lon="4.34339">
        <ele>272</ele>
        <time>2021-02-28T09:58:15Z</time>
      </trkpt>
      <trkpt lat="50.17172" lon="4.34357">
        <ele>274</ele>
        <time>2021-02-28T09:58:17Z</time>
      </trkpt>
      <trkpt lat="50.1717" lon="4.34372">
        <ele>274</ele>
        <time>2021-02-28T09:58:19Z</time>
      </trkpt>
      <trkpt lat="50.17162" lon="4.34379">
        <ele>276</ele>
        <time>2021-02-28T09:58:21Z</time>
      </trkpt>
      <trkpt lat="50.17152" lon="4.34382">
        <ele>273</ele>
        <time>2021-02-28T09:58:23Z</time>
      </trkpt>
      <trkpt lat="50.17143" lon="4.34384">
        <ele>273</ele>
        <time>2021-02-28T09:58:25Z</time>
      </trkpt>
      <trkpt lat="50.17133" lon="4.34385">
        <ele>273</ele>
        <time>2021-02-28T09:58:27Z</time>
      </trkpt>
      <trkpt lat="50.17124" lon="4.34384">
        <ele>272</ele>
        <time>2021-02-28T09:58:29Z</time>
      </trkpt>
      <trkpt lat="50.17115" lon="4.3438">
        <ele>272</ele>
        <time>2021-02-28T09:58:31Z</time>
      </trkpt>
      <trkpt lat="50.17107" lon="4.34373">
        <ele>271</ele>
        <time>2021-02-28T09:58:33Z</time>
      </trkpt>
      <trkpt lat="50.17099" lon="4.34364">
        <ele>271</ele>
        <time>2021-02-28T09:58:35Z</time>
      </trkpt>
      <trkpt lat="50.1709" lon="4.34354">
        <ele>270</ele>
        <time>2021-02-28T09:58:37Z</time>
      </trkpt>
      <trkpt lat="50.17081" lon="4.34343">
        <ele>270</ele>
        <time>2021-02-28T09:58:39Z</time>
      </trkpt>
      <trkpt lat="50.17072" lon="4.34331">
        <ele>270</ele>
        <time>2021-02-28T09:58:41Z</time>
      </trkpt>
      <trkpt lat="50.17062" lon="4.34319">
        <ele>268</ele>
        <time>2021-02-28T09:58:43Z</time>
      </trkpt>
      <trkpt lat="50.17053" lon="4.34307">
        <ele>268</ele>
        <time>2021-02-28T09:58:45Z</time>
      </trkpt>
      <trkpt lat="50.17041" lon="4.34295">
        <ele>268</ele>
        <time>2021-02-28T09:58:47Z</time>
      </trkpt>
      <trkpt lat="50.1703" lon="4.34284">
        <ele>268</ele>
        <time>2021-02-28T09:58:49Z</time>
      </trkpt>
      <trkpt lat="50.17018" lon="4.34272">
        <ele>268</ele>
        <time>2021-02-28T09:58:51Z</time>
      </trkpt>
      <trkpt lat="50.17006" lon="4.34261">
        <ele>267</ele>
        <time>2021-02-28T09:58:53Z</time>
      </trkpt>
      <trkpt lat="50.16993" lon="4.34251">
        <ele>267</ele>
        <time>2021-02-28T09:58:55Z</time>
      </trkpt>
      <trkpt lat="50.1698" lon="4.34242">
        <ele>267</ele>
        <time>2021-02-28T09:58:57Z</time>
      </trkpt>
      <trkpt lat="50.16968" lon="4.34231">
        <ele>267</ele>
        <time>2021-02-28T09:58:59Z</time>
      </trkpt>
      <trkpt lat="50.16955" lon="4.34222">
        <ele>266</ele>
        <time>2021-02-28T09:59:01Z</time>
      </trkpt>
      <trkpt lat="50.16943" lon="4.34213">
        <ele>266</ele>
        <time>2021-02-28T09:59:03Z</time>
      </trkpt>
      <trkpt lat="50.1693" lon="4.34205">
        <ele>264</ele>
        <time>2021-02-28T09:59:05Z</time>
      </trkpt>
      <trkpt lat="50.16918" lon="4.34197">
        <ele>264</ele>
        <time>2021-02-28T09:59:07Z</time>
      </trkpt>
      <trkpt lat="50.16906" lon="4.34189">
        <ele>264</ele>
        <time>2021-02-28T09:59:09Z</time>
      </trkpt>
      <trkpt lat="50.16894" lon="4.34182">
        <ele>265</ele>
        <time>2021-02-28T09:59:11Z</time>
      </trkpt>
      <trkpt lat="50.16882" lon="4.34175">
        <ele>265</ele>
        <time>2021-02-28T09:59:13Z</time>
      </trkpt>
      <trkpt lat="50.16869" lon="4.34168">
        <ele>265</ele>
        <time>2021-02-28T09:59:15Z</time>
      </trkpt>
      <trkpt lat="50.16856" lon="4.34161">
        <ele>265</ele>
        <time>2021-02-28T09:59:17Z</time>
      </trkpt>
      <trkpt lat="50.16844" lon="4.34153">
        <ele>263</ele>
        <time>2021-02-28T09:59:19Z</time>
      </trkpt>
      <trkpt lat="50.16832" lon="4.34144">
        <ele>263</ele>
        <time>2021-02-28T09:59:21Z</time>
      </trkpt>
      <trkpt lat="50.1682" lon="4.34134">
        <ele>263</ele>
        <time>2021-02-28T09:59:23Z</time>
      </trkpt>
      <trkpt lat="50.16809" lon="4.34122">
        <ele>262</ele>
        <time>2021-02-28T09:59:25Z</time>
      </trkpt>
      <trkpt lat="50.16798" lon="4.34109">
        <ele>262</ele>
        <time>2021-02-28T09:59:27Z</time>
      </trkpt>
      <trkpt lat="50.16787" lon="4.34096">
        <ele>262</ele>
        <time>2021-02-28T09:59:29Z</time>
      </trkpt>
      <trkpt lat="50.16777" lon="4.34083">
        <ele>262</ele>
        <time>2021-02-28T09:59:31Z</time>
      </trkpt>
      <trkpt lat="50.16766" lon="4.34069">
        <ele>261</ele>
        <time>2021-02-28T09:59:33Z</time>
      </trkpt>
      <trkpt lat="50.16756" lon="4.34055">
        <ele>262</ele>
        <time>2021-02-28T09:59:35Z</time>
      </trkpt>
      <trkpt lat="50.16745" lon="4.34041">
        <ele>260</ele>
        <time>2021-02-28T09:59:37Z</time>
      </trkpt>
      <trkpt lat="50.16735" lon="4.34026">
        <ele>260</ele>
        <time>2021-02-28T09:59:39Z</time>
      </trkpt>
      <trkpt lat="50.16725" lon="4.34011">
        <ele>259</ele>
        <time>2021-02-28T09:59:41Z</time>
      </trkpt>
      <trkpt lat="50.16715" lon="4.33997">
        <ele>259</ele>
        <time>2021-02-28T09:59:43Z</time>
      </trkpt>
      <trkpt lat="50.16707" lon="4.33982">
        <ele>258</ele>
        <time>2021-02-28T09:59:45Z</time>
      </trkpt>
      <trkpt lat="50.16697" lon="4.33968">
        <ele>258</ele>
        <time>2021-02-28T09:59:47Z</time>
      </trkpt>
      <trkpt lat="50.16688" lon="4.33953">
        <ele>257</ele>
        <time>2021-02-28T09:59:49Z</time>
      </trkpt>
      <trkpt lat="50.16678" lon="4.33938">
        <ele>256</ele>
        <time>2021-02-28T09:59:51Z</time>
      </trkpt>
      <trkpt lat="50.16666" lon="4.33924">
        <ele>255</ele>
        <time>2021-02-28T09:59:53Z</time>
      </trkpt>
      <trkpt lat="50.16653" lon="4.3391">
        <ele>255</ele>
        <time>2021-02-28T09:59:55Z</time>
      </trkpt>
      <trkpt lat="50.16641" lon="4.33899">
        <ele>253</ele>
        <time>2021-02-28T09:59:57Z</time>
      </trkpt>
      <trkpt lat="50.16626" lon="4.33889">
        <ele>253</ele>
        <time>2021-02-28T09:59:59Z</time>
      </trkpt>
      <trkpt lat="50.16612" lon="4.33884">
        <ele>253</ele>
        <time>2021-02-28T10:00:01Z</time>
      </trkpt>
      <trkpt lat="50.16596" lon="4.33884">
        <ele>253</ele>
        <time>2021-02-28T10:00:03Z</time>
      </trkpt>
      <trkpt lat="50.16579" lon="4.33889">
        <ele>253</ele>
        <time>2021-02-28T10:00:05Z</time>
      </trkpt>
      <trkpt lat="50.16564" lon="4.33898">
        <ele>252</ele>
        <time>2021-02-28T10:00:07Z</time>
      </trkpt>
      <trkpt lat="50.16551" lon="4.33913">
        <ele>253</ele>
        <time>2021-02-28T10:00:09Z</time>
      </trkpt>
      <trkpt lat="50.1654" lon="4.3393">
        <ele>253</ele>
        <time>2021-02-28T10:00:11Z</time>
      </trkpt>
      <trkpt lat="50.1653" lon="4.3395">
        <ele>250</ele>
        <time>2021-02-28T10:00:13Z</time>
      </trkpt>
      <trkpt lat="50.16521" lon="4.33969">
        <ele>250</ele>
        <time>2021-02-28T10:00:15Z</time>
      </trkpt>
      <trkpt lat="50.16511" lon="4.33987">
        <ele>244</ele>
        <time>2021-02-28T10:00:17Z</time>
      </trkpt>
      <trkpt lat="50.165" lon="4.34005">
        <ele>244</ele>
        <time>2021-02-28T10:00:19Z</time>
      </trkpt>
      <trkpt lat="50.16487" lon="4.3402">
        <ele>243</ele>
        <time>2021-02-28T10:00:21Z</time>
      </trkpt>
      <trkpt lat="50.16472" lon="4.34031">
        <ele>241</ele>
        <time>2021-02-28T10:00:23Z</time>
      </trkpt>
      <trkpt lat="50.16457" lon="4.34041">
        <ele>239</ele>
        <time>2021-02-28T10:00:25Z</time>
      </trkpt>
      <trkpt lat="50.16443" lon="4.34048">
        <ele>237</ele>
        <time>2021-02-28T10:00:27Z</time>
      </trkpt>
      <trkpt lat="50.16428" lon="4.34054">
        <ele>236</ele>
        <time>2021-02-28T10:00:29Z</time>
      </trkpt>
      <trkpt lat="50.16413" lon="4.34056">
        <ele>236</ele>
        <time>2021-02-28T10:00:31Z</time>
      </trkpt>
      <trkpt lat="50.16398" lon="4.34052">
        <ele>235</ele>
        <time>2021-02-28T10:00:33Z</time>
      </trkpt>
      <trkpt lat="50.16384" lon="4.34042">
        <ele>235</ele>
        <time>2021-02-28T10:00:35Z</time>
      </trkpt>
      <trkpt lat="50.1637" lon="4.34031">
        <ele>235</ele>
        <time>2021-02-28T10:00:37Z</time>
      </trkpt>
      <trkpt lat="50.16359" lon="4.34017">
        <ele>235</ele>
        <time>2021-02-28T10:00:39Z</time>
      </trkpt>
      <trkpt lat="50.16349" lon="4.34003">
        <ele>234</ele>
        <time>2021-02-28T10:00:41Z</time>
      </trkpt>
      <trkpt lat="50.1634" lon="4.3399">
        <ele>235</ele>
        <time>2021-02-28T10:00:43Z</time>
      </trkpt>
      <trkpt lat="50.16332" lon="4.33979">
        <ele>234</ele>
        <time>2021-02-28T10:00:45Z</time>
      </trkpt>
      <trkpt lat="50.16325" lon="4.3397">
        <ele>234</ele>
        <time>2021-02-28T10:00:47Z</time>
      </trkpt>
      <trkpt lat="50.16319" lon="4.33961">
        <ele>235</ele>
        <time>2021-02-28T10:00:49Z</time>
      </trkpt>
      <trkpt lat="50.16313" lon="4.33954">
        <ele>234</ele>
        <time>2021-02-28T10:00:51Z</time>
      </trkpt>
      <trkpt lat="50.16307" lon="4.33946">
        <ele>234</ele>
        <time>2021-02-28T10:00:53Z</time>
      </trkpt>
      <trkpt lat="50.163" lon="4.33938">
        <ele>234</ele>
        <time>2021-02-28T10:00:55Z</time>
      </trkpt>
      <trkpt lat="50.16293" lon="4.3393">
        <ele>234</ele>
        <time>2021-02-28T10:00:57Z</time>
      </trkpt>
      <trkpt lat="50.16285" lon="4.3392">
        <ele>236</ele>
        <time>2021-02-28T10:00:59Z</time>
      </trkpt>
      <trkpt lat="50.16279" lon="4.33911">
        <ele>236</ele>
        <time>2021-02-28T10:01:01Z</time>
      </trkpt>
      <trkpt lat="50.16271" lon="4.33901">
        <ele>234</ele>
        <time>2021-02-28T10:01:03Z</time>
      </trkpt>
      <trkpt lat="50.16264" lon="4.33891">
        <ele>234</ele>
        <time>2021-02-28T10:01:05Z</time>
      </trkpt>
      <trkpt lat="50.16257" lon="4.33881">
        <ele>238</ele>
        <time>2021-02-28T10:01:07Z</time>
      </trkpt>
      <trkpt lat="50.1625" lon="4.33872">
        <ele>237</ele>
        <time>2021-02-28T10:01:09Z</time>
      </trkpt>
      <trkpt lat="50.16242" lon="4.33863">
        <ele>237</ele>
        <time>2021-02-28T10:01:11Z</time>
      </trkpt>
      <trkpt lat="50.16233" lon="4.33856">
        <ele>239</ele>
        <time>2021-02-28T10:01:13Z</time>
      </trkpt>
      <trkpt lat="50.16224" lon="4.3385">
        <ele>239</ele>
        <time>2021-02-28T10:01:15Z</time>
      </trkpt>
      <trkpt lat="50.16216" lon="4.33843">
        <ele>238</ele>
        <time>2021-02-28T10:01:17Z</time>
      </trkpt>
      <trkpt lat="50.16208" lon="4.33837">
        <ele>240</ele>
        <time>2021-02-28T10:01:19Z</time>
      </trkpt>
      <trkpt lat="50.162" lon="4.33829">
        <ele>240</ele>
        <time>2021-02-28T10:01:21Z</time>
      </trkpt>
      <trkpt lat="50.16193" lon="4.33822">
        <ele>240</ele>
        <time>2021-02-28T10:01:23Z</time>
      </trkpt>
      <trkpt lat="50.16185" lon="4.33815">
        <ele>240</ele>
        <time>2021-02-28T10:01:25Z</time>
      </trkpt>
      <trkpt lat="50.16178" lon="4.33808">
        <ele>242</ele>
        <time>2021-02-28T10:01:27Z</time>
      </trkpt>
      <trkpt lat="50.1617" lon="4.33801">
        <ele>242</ele>
        <time>2021-02-28T10:01:29Z</time>
      </trkpt>
      <trkpt lat="50.16163" lon="4.33795">
        <ele>242</ele>
        <time>2021-02-28T10:01:31Z</time>
      </trkpt>
      <trkpt lat="50.16155" lon="4.33787">
        <ele>242</ele>
        <time>2021-02-28T10:01:33Z</time>
      </trkpt>
      <trkpt lat="50.16147" lon="4.33779">
        <ele>243</ele>
        <time>2021-02-28T10:01:35Z</time>
      </trkpt>
      <trkpt lat="50.1614" lon="4.3377">
        <ele>243</ele>
        <time>2021-02-28T10:01:37Z</time>
      </trkpt>
      <trkpt lat="50.16134" lon="4.33762">
        <ele>242</ele>
        <time>2021-02-28T10:01:39Z</time>
      </trkpt>
      <trkpt lat="50.16128" lon="4.33754">
        <ele>242</ele>
        <time>2021-02-28T10:01:41Z</time>
      </trkpt>
      <trkpt lat="50.16122" lon="4.33746">
        <ele>243</ele>
        <time>2021-02-28T10:01:43Z</time>
      </trkpt>
      <trkpt lat="50.16119" lon="4.33738">
        <ele>243</ele>
        <time>2021-02-28T10:01:45Z</time>
      </trkpt>
      <trkpt lat="50.16121" lon="4.33731">
        <ele>243</ele>
        <time>2021-02-28T10:01:47Z</time>
      </trkpt>
      <trkpt lat="50.16127" lon="4.3372">
        <ele>243</ele>
        <time>2021-02-28T10:02:43Z</time>
      </trkpt>
      <trkpt lat="50.16134" lon="4.3371">
        <ele>243</ele>
        <time>2021-02-28T10:02:45Z</time>
      </trkpt>
      <trkpt lat="50.16141" lon="4.33702">
        <ele>241</ele>
        <time>2021-02-28T10:02:47Z</time>
      </trkpt>
      <trkpt lat="50.16149" lon="4.33692">
        <ele>241</ele>
        <time>2021-02-28T10:02:49Z</time>
      </trkpt>
      <trkpt lat="50.16158" lon="4.33681">
        <ele>240</ele>
        <time>2021-02-28T10:02:51Z</time>
      </trkpt>
      <trkpt lat="50.16167" lon="4.33669">
        <ele>239</ele>
        <time>2021-02-28T10:02:53Z</time>
      </trkpt>
      <trkpt lat="50.16178" lon="4.33656">
        <ele>239</ele>
        <time>2021-02-28T10:02:55Z</time>
      </trkpt>
      <trkpt lat="50.16188" lon="4.33642">
        <ele>235</ele>
        <time>2021-02-28T10:02:57Z</time>
      </trkpt>
      <trkpt lat="50.16199" lon="4.33628">
        <ele>235</ele>
        <time>2021-02-28T10:02:59Z</time>
      </trkpt>
      <trkpt lat="50.16209" lon="4.33613">
        <ele>232</ele>
        <time>2021-02-28T10:03:01Z</time>
      </trkpt>
      <trkpt lat="50.16218" lon="4.33596">
        <ele>230</ele>
        <time>2021-02-28T10:03:03Z</time>
      </trkpt>
      <trkpt lat="50.16226" lon="4.33576">
        <ele>230</ele>
        <time>2021-02-28T10:03:05Z</time>
      </trkpt>
      <trkpt lat="50.16233" lon="4.33556">
        <ele>229</ele>
        <time>2021-02-28T10:03:07Z</time>
      </trkpt>
      <trkpt lat="50.16239" lon="4.33534">
        <ele>226</ele>
        <time>2021-02-28T10:03:09Z</time>
      </trkpt>
      <trkpt lat="50.16245" lon="4.3351">
        <ele>226</ele>
        <time>2021-02-28T10:03:11Z</time>
      </trkpt>
      <trkpt lat="50.16252" lon="4.33484">
        <ele>226</ele>
        <time>2021-02-28T10:03:13Z</time>
      </trkpt>
      <trkpt lat="50.16259" lon="4.33458">
        <ele>227</ele>
        <time>2021-02-28T10:03:15Z</time>
      </trkpt>
      <trkpt lat="50.16267" lon="4.33432">
        <ele>224</ele>
        <time>2021-02-28T10:03:17Z</time>
      </trkpt>
      <trkpt lat="50.16274" lon="4.33408">
        <ele>225</ele>
        <time>2021-02-28T10:03:19Z</time>
      </trkpt>
      <trkpt lat="50.1628" lon="4.33389">
        <ele>224</ele>
        <time>2021-02-28T10:03:21Z</time>
      </trkpt>
      <trkpt lat="50.16285" lon="4.33371">
        <ele>224</ele>
        <time>2021-02-28T10:03:23Z</time>
      </trkpt>
      <trkpt lat="50.16289" lon="4.33357">
        <ele>224</ele>
        <time>2021-02-28T10:03:25Z</time>
      </trkpt>
      <trkpt lat="50.16288" lon="4.33344">
        <ele>224</ele>
        <time>2021-02-28T10:03:27Z</time>
      </trkpt>
      <trkpt lat="50.16284" lon="4.33335">
        <ele>224</ele>
        <time>2021-02-28T10:03:29Z</time>
      </trkpt>
      <trkpt lat="50.16278" lon="4.33327">
        <ele>224</ele>
        <time>2021-02-28T10:03:31Z</time>
      </trkpt>
      <trkpt lat="50.16272" lon="4.3332">
        <ele>224</ele>
        <time>2021-02-28T10:03:33Z</time>
      </trkpt>
      <trkpt lat="50.16267" lon="4.33314">
        <ele>224</ele>
        <time>2021-02-28T10:03:35Z</time>
      </trkpt>
      <trkpt lat="50.1626" lon="4.33306">
        <ele>224</ele>
        <time>2021-02-28T10:03:37Z</time>
      </trkpt>
      <trkpt lat="50.16254" lon="4.33294">
        <ele>224</ele>
        <time>2021-02-28T10:03:39Z</time>
      </trkpt>
      <trkpt lat="50.16251" lon="4.33281">
        <ele>223</ele>
        <time>2021-02-28T10:03:41Z</time>
      </trkpt>
      <trkpt lat="50.16247" lon="4.33268">
        <ele>223</ele>
        <time>2021-02-28T10:03:43Z</time>
      </trkpt>
      <trkpt lat="50.16242" lon="4.33256">
        <ele>224</ele>
        <time>2021-02-28T10:03:45Z</time>
      </trkpt>
      <trkpt lat="50.16234" lon="4.33245">
        <ele>224</ele>
        <time>2021-02-28T10:03:47Z</time>
      </trkpt>
      <trkpt lat="50.16227" lon="4.33234">
        <ele>222</ele>
        <time>2021-02-28T10:03:49Z</time>
      </trkpt>
      <trkpt lat="50.16217" lon="4.33223">
        <ele>222</ele>
        <time>2021-02-28T10:03:51Z</time>
      </trkpt>
      <trkpt lat="50.16209" lon="4.33208">
        <ele>225</ele>
        <time>2021-02-28T10:03:53Z</time>
      </trkpt>
      <trkpt lat="50.16202" lon="4.33193">
        <ele>224</ele>
        <time>2021-02-28T10:03:55Z</time>
      </trkpt>
      <trkpt lat="50.16197" lon="4.33178">
        <ele>224</ele>
        <time>2021-02-28T10:03:57Z</time>
      </trkpt>
      <trkpt lat="50.16191" lon="4.33165">
        <ele>224</ele>
        <time>2021-02-28T10:03:59Z</time>
      </trkpt>
      <trkpt lat="50.16185" lon="4.33152">
        <ele>225</ele>
        <time>2021-02-28T10:04:01Z</time>
      </trkpt>
      <trkpt lat="50.16181" lon="4.33142">
        <ele>225</ele>
        <time>2021-02-28T10:04:03Z</time>
      </trkpt>
      <trkpt lat="50.16177" lon="4.33133">
        <ele>224</ele>
        <time>2021-02-28T10:04:05Z</time>
      </trkpt>
      <trkpt lat="50.16174" lon="4.33136">
        <ele>224</ele>
        <time>2021-02-28T10:04:07Z</time>
      </trkpt>
      <trkpt lat="50.16171" lon="4.33142">
        <ele>224</ele>
        <time>2021-02-28T10:04:09Z</time>
      </trkpt>
      <trkpt lat="50.16167" lon="4.3315">
        <ele>224</ele>
        <time>2021-02-28T10:04:11Z</time>
      </trkpt>
      <trkpt lat="50.16163" lon="4.33156">
        <ele>224</ele>
        <time>2021-02-28T10:04:13Z</time>
      </trkpt>
      <trkpt lat="50.16159" lon="4.3316">
        <ele>224</ele>
        <time>2021-02-28T10:04:15Z</time>
      </trkpt>
      <trkpt lat="50.16156" lon="4.33164">
        <ele>224</ele>
        <time>2021-02-28T10:04:17Z</time>
      </trkpt>
      <trkpt lat="50.16151" lon="4.33168">
        <ele>225</ele>
        <time>2021-02-28T10:04:19Z</time>
      </trkpt>
      <trkpt lat="50.16146" lon="4.33167">
        <ele>225</ele>
        <time>2021-02-28T10:04:21Z</time>
      </trkpt>
      <trkpt lat="50.16141" lon="4.33163">
        <ele>225</ele>
        <time>2021-02-28T10:04:23Z</time>
      </trkpt>
      <trkpt lat="50.16135" lon="4.33159">
        <ele>225</ele>
        <time>2021-02-28T10:04:25Z</time>
      </trkpt>
      <trkpt lat="50.16129" lon="4.33154">
        <ele>225</ele>
        <time>2021-02-28T10:04:27Z</time>
      </trkpt>
      <trkpt lat="50.16124" lon="4.33148">
        <ele>227</ele>
        <time>2021-02-28T10:04:29Z</time>
      </trkpt>
      <trkpt lat="50.16118" lon="4.33143">
        <ele>227</ele>
        <time>2021-02-28T10:04:31Z</time>
      </trkpt>
      <trkpt lat="50.16112" lon="4.33137">
        <ele>227</ele>
        <time>2021-02-28T10:04:33Z</time>
      </trkpt>
      <trkpt lat="50.16106" lon="4.33129">
        <ele>227</ele>
        <time>2021-02-28T10:04:35Z</time>
      </trkpt>
      <trkpt lat="50.16094" lon="4.3312">
        <ele>227</ele>
        <time>2021-02-28T10:04:37Z</time>
      </trkpt>
      <trkpt lat="50.16087" lon="4.33115">
        <ele>227</ele>
        <time>2021-02-28T10:04:39Z</time>
      </trkpt>
      <trkpt lat="50.16079" lon="4.33109">
        <ele>227</ele>
        <time>2021-02-28T10:04:41Z</time>
      </trkpt>
      <trkpt lat="50.16074" lon="4.33102">
        <ele>227</ele>
        <time>2021-02-28T10:04:43Z</time>
      </trkpt>
      <trkpt lat="50.16067" lon="4.33095">
        <ele>226</ele>
        <time>2021-02-28T10:04:45Z</time>
      </trkpt>
      <trkpt lat="50.16059" lon="4.33089">
        <ele>226</ele>
        <time>2021-02-28T10:04:47Z</time>
      </trkpt>
      <trkpt lat="50.16048" lon="4.33083">
        <ele>226</ele>
        <time>2021-02-28T10:04:49Z</time>
      </trkpt>
      <trkpt lat="50.16038" lon="4.33078">
        <ele>227</ele>
        <time>2021-02-28T10:04:51Z</time>
      </trkpt>
      <trkpt lat="50.1603" lon="4.33076">
        <ele>227</ele>
        <time>2021-02-28T10:04:53Z</time>
      </trkpt>
      <trkpt lat="50.16022" lon="4.33074">
        <ele>227</ele>
        <time>2021-02-28T10:04:55Z</time>
      </trkpt>
      <trkpt lat="50.16014" lon="4.3307">
        <ele>227</ele>
        <time>2021-02-28T10:04:57Z</time>
      </trkpt>
      <trkpt lat="50.16006" lon="4.33065">
        <ele>226</ele>
        <time>2021-02-28T10:04:59Z</time>
      </trkpt>
      <trkpt lat="50.15998" lon="4.33059">
        <ele>226</ele>
        <time>2021-02-28T10:05:01Z</time>
      </trkpt>
      <trkpt lat="50.15991" lon="4.33053">
        <ele>226</ele>
        <time>2021-02-28T10:05:03Z</time>
      </trkpt>
      <trkpt lat="50.15985" lon="4.33047">
        <ele>227</ele>
        <time>2021-02-28T10:05:05Z</time>
      </trkpt>
      <trkpt lat="50.15978" lon="4.33042">
        <ele>227</ele>
        <time>2021-02-28T10:05:07Z</time>
      </trkpt>
      <trkpt lat="50.15971" lon="4.3304">
        <ele>226</ele>
        <time>2021-02-28T10:05:09Z</time>
      </trkpt>
      <trkpt lat="50.15962" lon="4.33037">
        <ele>226</ele>
        <time>2021-02-28T10:05:11Z</time>
      </trkpt>
      <trkpt lat="50.15954" lon="4.33035">
        <ele>228</ele>
        <time>2021-02-28T10:05:13Z</time>
      </trkpt>
      <trkpt lat="50.15946" lon="4.33033">
        <ele>228</ele>
        <time>2021-02-28T10:05:15Z</time>
      </trkpt>
      <trkpt lat="50.1594" lon="4.33032">
        <ele>228</ele>
        <time>2021-02-28T10:05:17Z</time>
      </trkpt>
      <trkpt lat="50.15934" lon="4.33031">
        <ele>228</ele>
        <time>2021-02-28T10:05:19Z</time>
      </trkpt>
      <trkpt lat="50.15928" lon="4.33031">
        <ele>228</ele>
        <time>2021-02-28T10:05:21Z</time>
      </trkpt>
      <trkpt lat="50.15922" lon="4.3303">
        <ele>228</ele>
        <time>2021-02-28T10:05:23Z</time>
      </trkpt>
      <trkpt lat="50.15916" lon="4.33029">
        <ele>228</ele>
        <time>2021-02-28T10:05:25Z</time>
      </trkpt>
      <trkpt lat="50.15909" lon="4.33027">
        <ele>228</ele>
        <time>2021-02-28T10:05:27Z</time>
      </trkpt>
      <trkpt lat="50.15902" lon="4.33026">
        <ele>228</ele>
        <time>2021-02-28T10:05:29Z</time>
      </trkpt>
      <trkpt lat="50.15896" lon="4.33025">
        <ele>228</ele>
        <time>2021-02-28T10:05:31Z</time>
      </trkpt>
      <trkpt lat="50.15889" lon="4.33024">
        <ele>228</ele>
        <time>2021-02-28T10:05:33Z</time>
      </trkpt>
      <trkpt lat="50.15883" lon="4.33023">
        <ele>228</ele>
        <time>2021-02-28T10:05:35Z</time>
      </trkpt>
      <trkpt lat="50.15877" lon="4.33022">
        <ele>228</ele>
        <time>2021-02-28T10:05:37Z</time>
      </trkpt>
      <trkpt lat="50.15871" lon="4.33019">
        <ele>226</ele>
        <time>2021-02-28T10:05:39Z</time>
      </trkpt>
      <trkpt lat="50.15865" lon="4.33015">
        <ele>226</ele>
        <time>2021-02-28T10:05:41Z</time>
      </trkpt>
      <trkpt lat="50.15857" lon="4.33011">
        <ele>228</ele>
        <time>2021-02-28T10:05:43Z</time>
      </trkpt>
      <trkpt lat="50.15849" lon="4.33005">
        <ele>228</ele>
        <time>2021-02-28T10:05:45Z</time>
      </trkpt>
      <trkpt lat="50.15838" lon="4.32998">
        <ele>226</ele>
        <time>2021-02-28T10:05:47Z</time>
      </trkpt>
      <trkpt lat="50.15827" lon="4.3299">
        <ele>226</ele>
        <time>2021-02-28T10:05:49Z</time>
      </trkpt>
      <trkpt lat="50.15816" lon="4.32982">
        <ele>225</ele>
        <time>2021-02-28T10:05:51Z</time>
      </trkpt>
      <trkpt lat="50.15807" lon="4.32974">
        <ele>225</ele>
        <time>2021-02-28T10:05:53Z</time>
      </trkpt>
      <trkpt lat="50.15797" lon="4.32968">
        <ele>225</ele>
        <time>2021-02-28T10:05:55Z</time>
      </trkpt>
      <trkpt lat="50.15788" lon="4.32964">
        <ele>225</ele>
        <time>2021-02-28T10:05:57Z</time>
      </trkpt>
      <trkpt lat="50.15776" lon="4.32967">
        <ele>225</ele>
        <time>2021-02-28T10:05:59Z</time>
      </trkpt>
      <trkpt lat="50.15764" lon="4.32971">
        <ele>226</ele>
        <time>2021-02-28T10:06:01Z</time>
      </trkpt>
      <trkpt lat="50.15754" lon="4.32967">
        <ele>226</ele>
        <time>2021-02-28T10:06:03Z</time>
      </trkpt>
      <trkpt lat="50.15747" lon="4.32957">
        <ele>223</ele>
        <time>2021-02-28T10:06:05Z</time>
      </trkpt>
      <trkpt lat="50.15741" lon="4.32945">
        <ele>223</ele>
        <time>2021-02-28T10:06:07Z</time>
      </trkpt>
      <trkpt lat="50.15736" lon="4.32934">
        <ele>226</ele>
        <time>2021-02-28T10:06:09Z</time>
      </trkpt>
      <trkpt lat="50.15731" lon="4.32924">
        <ele>224</ele>
        <time>2021-02-28T10:06:11Z</time>
      </trkpt>
      <trkpt lat="50.15726" lon="4.32914">
        <ele>224</ele>
        <time>2021-02-28T10:06:13Z</time>
      </trkpt>
      <trkpt lat="50.15722" lon="4.32905">
        <ele>224</ele>
        <time>2021-02-28T10:06:15Z</time>
      </trkpt>
      <trkpt lat="50.15717" lon="4.32898">
        <ele>220</ele>
        <time>2021-02-28T10:06:17Z</time>
      </trkpt>
      <trkpt lat="50.15712" lon="4.32892">
        <ele>220</ele>
        <time>2021-02-28T10:06:19Z</time>
      </trkpt>
      <trkpt lat="50.15708" lon="4.32887">
        <ele>224</ele>
        <time>2021-02-28T10:06:21Z</time>
      </trkpt>
      <trkpt lat="50.15704" lon="4.32883">
        <ele>224</ele>
        <time>2021-02-28T10:06:23Z</time>
      </trkpt>
      <trkpt lat="50.15701" lon="4.32882">
        <ele>224</ele>
        <time>2021-02-28T10:06:25Z</time>
      </trkpt>
      <trkpt lat="50.15696" lon="4.32881">
        <ele>224</ele>
        <time>2021-02-28T10:07:01Z</time>
      </trkpt>
      <trkpt lat="50.1569" lon="4.32882">
        <ele>224</ele>
        <time>2021-02-28T10:07:03Z</time>
      </trkpt>
      <trkpt lat="50.15685" lon="4.32883">
        <ele>224</ele>
        <time>2021-02-28T10:07:05Z</time>
      </trkpt>
      <trkpt lat="50.1568" lon="4.32885">
        <ele>227</ele>
        <time>2021-02-28T10:07:07Z</time>
      </trkpt>
      <trkpt lat="50.15674" lon="4.32888">
        <ele>227</ele>
        <time>2021-02-28T10:07:09Z</time>
      </trkpt>
      <trkpt lat="50.15668" lon="4.32891">
        <ele>227</ele>
        <time>2021-02-28T10:07:11Z</time>
      </trkpt>
      <trkpt lat="50.15662" lon="4.32894">
        <ele>227</ele>
        <time>2021-02-28T10:07:13Z</time>
      </trkpt>
      <trkpt lat="50.15656" lon="4.32898">
        <ele>227</ele>
        <time>2021-02-28T10:07:15Z</time>
      </trkpt>
      <trkpt lat="50.1565" lon="4.32901">
        <ele>227</ele>
        <time>2021-02-28T10:07:17Z</time>
      </trkpt>
      <trkpt lat="50.15644" lon="4.32905">
        <ele>228</ele>
        <time>2021-02-28T10:07:19Z</time>
      </trkpt>
      <trkpt lat="50.15637" lon="4.32909">
        <ele>228</ele>
        <time>2021-02-28T10:07:21Z</time>
      </trkpt>
      <trkpt lat="50.15631" lon="4.32915">
        <ele>228</ele>
        <time>2021-02-28T10:07:23Z</time>
      </trkpt>
      <trkpt lat="50.15626" lon="4.32922">
        <ele>228</ele>
        <time>2021-02-28T10:07:25Z</time>
      </trkpt>
      <trkpt lat="50.15622" lon="4.3293">
        <ele>226</ele>
        <time>2021-02-28T10:07:27Z</time>
      </trkpt>
      <trkpt lat="50.15619" lon="4.32939">
        <ele>228</ele>
        <time>2021-02-28T10:07:29Z</time>
      </trkpt>
      <trkpt lat="50.15616" lon="4.32948">
        <ele>228</ele>
        <time>2021-02-28T10:07:31Z</time>
      </trkpt>
      <trkpt lat="50.15613" lon="4.32957">
        <ele>228</ele>
        <time>2021-02-28T10:07:33Z</time>
      </trkpt>
      <trkpt lat="50.1561" lon="4.32967">
        <ele>230</ele>
        <time>2021-02-28T10:07:35Z</time>
      </trkpt>
      <trkpt lat="50.15607" lon="4.32976">
        <ele>230</ele>
        <time>2021-02-28T10:07:37Z</time>
      </trkpt>
      <trkpt lat="50.15604" lon="4.32986">
        <ele>233</ele>
        <time>2021-02-28T10:07:39Z</time>
      </trkpt>
      <trkpt lat="50.15603" lon="4.32996">
        <ele>233</ele>
        <time>2021-02-28T10:07:41Z</time>
      </trkpt>
      <trkpt lat="50.15601" lon="4.33006">
        <ele>233</ele>
        <time>2021-02-28T10:07:43Z</time>
      </trkpt>
      <trkpt lat="50.15599" lon="4.33016">
        <ele>233</ele>
        <time>2021-02-28T10:07:45Z</time>
      </trkpt>
      <trkpt lat="50.15598" lon="4.33026">
        <ele>233</ele>
        <time>2021-02-28T10:07:47Z</time>
      </trkpt>
      <trkpt lat="50.15596" lon="4.33041">
        <ele>230</ele>
        <time>2021-02-28T10:07:50Z</time>
      </trkpt>
      <trkpt lat="50.15596" lon="4.33051">
        <ele>233</ele>
        <time>2021-02-28T10:07:52Z</time>
      </trkpt>
      <trkpt lat="50.15595" lon="4.33061">
        <ele>233</ele>
        <time>2021-02-28T10:07:54Z</time>
      </trkpt>
      <trkpt lat="50.15594" lon="4.33071">
        <ele>232</ele>
        <time>2021-02-28T10:07:56Z</time>
      </trkpt>
      <trkpt lat="50.15593" lon="4.33081">
        <ele>232</ele>
        <time>2021-02-28T10:07:58Z</time>
      </trkpt>
      <trkpt lat="50.15593" lon="4.33091">
        <ele>232</ele>
        <time>2021-02-28T10:08:00Z</time>
      </trkpt>
      <trkpt lat="50.15593" lon="4.33101">
        <ele>234</ele>
        <time>2021-02-28T10:08:02Z</time>
      </trkpt>
      <trkpt lat="50.15592" lon="4.33111">
        <ele>234</ele>
        <time>2021-02-28T10:08:04Z</time>
      </trkpt>
      <trkpt lat="50.15591" lon="4.3312">
        <ele>234</ele>
        <time>2021-02-28T10:08:06Z</time>
      </trkpt>
      <trkpt lat="50.15591" lon="4.33127">
        <ele>233</ele>
        <time>2021-02-28T10:08:08Z</time>
      </trkpt>
      <trkpt lat="50.15592" lon="4.33133">
        <ele>233</ele>
        <time>2021-02-28T10:08:10Z</time>
      </trkpt>
      <trkpt lat="50.15592" lon="4.33142">
        <ele>233</ele>
        <time>2021-02-28T10:08:12Z</time>
      </trkpt>
      <trkpt lat="50.15591" lon="4.33151">
        <ele>233</ele>
        <time>2021-02-28T10:08:14Z</time>
      </trkpt>
      <trkpt lat="50.1559" lon="4.33159">
        <ele>234</ele>
        <time>2021-02-28T10:08:16Z</time>
      </trkpt>
      <trkpt lat="50.1559" lon="4.33168">
        <ele>234</ele>
        <time>2021-02-28T10:08:18Z</time>
      </trkpt>
      <trkpt lat="50.1559" lon="4.33176">
        <ele>234</ele>
        <time>2021-02-28T10:08:20Z</time>
      </trkpt>
      <trkpt lat="50.1559" lon="4.33185">
        <ele>236</ele>
        <time>2021-02-28T10:08:22Z</time>
      </trkpt>
      <trkpt lat="50.15589" lon="4.33195">
        <ele>236</ele>
        <time>2021-02-28T10:08:24Z</time>
      </trkpt>
      <trkpt lat="50.15588" lon="4.33204">
        <ele>236</ele>
        <time>2021-02-28T10:08:26Z</time>
      </trkpt>
      <trkpt lat="50.15588" lon="4.33212">
        <ele>240</ele>
        <time>2021-02-28T10:08:28Z</time>
      </trkpt>
      <trkpt lat="50.15587" lon="4.3322">
        <ele>240</ele>
        <time>2021-02-28T10:08:30Z</time>
      </trkpt>
      <trkpt lat="50.15585" lon="4.33228">
        <ele>240</ele>
        <time>2021-02-28T10:08:32Z</time>
      </trkpt>
      <trkpt lat="50.15583" lon="4.33235">
        <ele>240</ele>
        <time>2021-02-28T10:08:34Z</time>
      </trkpt>
      <trkpt lat="50.15582" lon="4.33242">
        <ele>241</ele>
        <time>2021-02-28T10:08:36Z</time>
      </trkpt>
      <trkpt lat="50.1558" lon="4.33248">
        <ele>241</ele>
        <time>2021-02-28T10:08:38Z</time>
      </trkpt>
      <trkpt lat="50.15579" lon="4.33254">
        <ele>241</ele>
        <time>2021-02-28T10:08:40Z</time>
      </trkpt>
      <trkpt lat="50.15578" lon="4.33261">
        <ele>241</ele>
        <time>2021-02-28T10:08:42Z</time>
      </trkpt>
      <trkpt lat="50.15577" lon="4.33269">
        <ele>246</ele>
        <time>2021-02-28T10:08:44Z</time>
      </trkpt>
      <trkpt lat="50.15575" lon="4.33276">
        <ele>246</ele>
        <time>2021-02-28T10:08:46Z</time>
      </trkpt>
      <trkpt lat="50.15575" lon="4.33282">
        <ele>246</ele>
        <time>2021-02-28T10:08:48Z</time>
      </trkpt>
      <trkpt lat="50.15574" lon="4.33289">
        <ele>246</ele>
        <time>2021-02-28T10:08:50Z</time>
      </trkpt>
      <trkpt lat="50.15572" lon="4.33294">
        <ele>245</ele>
        <time>2021-02-28T10:08:52Z</time>
      </trkpt>
      <trkpt lat="50.1557" lon="4.333">
        <ele>245</ele>
        <time>2021-02-28T10:08:54Z</time>
      </trkpt>
      <trkpt lat="50.15567" lon="4.33305">
        <ele>242</ele>
        <time>2021-02-28T10:08:56Z</time>
      </trkpt>
      <trkpt lat="50.15564" lon="4.33309">
        <ele>242</ele>
        <time>2021-02-28T10:08:58Z</time>
      </trkpt>
      <trkpt lat="50.15561" lon="4.33311">
        <ele>242</ele>
        <time>2021-02-28T10:09:00Z</time>
      </trkpt>
      <trkpt lat="50.15556" lon="4.33312">
        <ele>242</ele>
        <time>2021-02-28T10:09:02Z</time>
      </trkpt>
      <trkpt lat="50.15551" lon="4.33313">
        <ele>242</ele>
        <time>2021-02-28T10:09:04Z</time>
      </trkpt>
      <trkpt lat="50.15545" lon="4.33316">
        <ele>242</ele>
        <time>2021-02-28T10:09:06Z</time>
      </trkpt>
      <trkpt lat="50.15537" lon="4.3332">
        <ele>241</ele>
        <time>2021-02-28T10:09:08Z</time>
      </trkpt>
      <trkpt lat="50.1553" lon="4.33326">
        <ele>241</ele>
        <time>2021-02-28T10:09:10Z</time>
      </trkpt>
      <trkpt lat="50.15521" lon="4.33333">
        <ele>241</ele>
        <time>2021-02-28T10:09:12Z</time>
      </trkpt>
      <trkpt lat="50.15513" lon="4.33342">
        <ele>234</ele>
        <time>2021-02-28T10:09:14Z</time>
      </trkpt>
      <trkpt lat="50.15503" lon="4.33351">
        <ele>238</ele>
        <time>2021-02-28T10:09:16Z</time>
      </trkpt>
      <trkpt lat="50.15493" lon="4.3336">
        <ele>238</ele>
        <time>2021-02-28T10:09:18Z</time>
      </trkpt>
      <trkpt lat="50.15483" lon="4.3337">
        <ele>233</ele>
        <time>2021-02-28T10:09:20Z</time>
      </trkpt>
      <trkpt lat="50.15472" lon="4.3338">
        <ele>234</ele>
        <time>2021-02-28T10:09:22Z</time>
      </trkpt>
      <trkpt lat="50.15461" lon="4.3339">
        <ele>234</ele>
        <time>2021-02-28T10:09:24Z</time>
      </trkpt>
      <trkpt lat="50.15448" lon="4.334">
        <ele>230</ele>
        <time>2021-02-28T10:09:26Z</time>
      </trkpt>
      <trkpt lat="50.15435" lon="4.33409">
        <ele>234</ele>
        <time>2021-02-28T10:09:28Z</time>
      </trkpt>
      <trkpt lat="50.15421" lon="4.33419">
        <ele>228</ele>
        <time>2021-02-28T10:09:30Z</time>
      </trkpt>
      <trkpt lat="50.1541" lon="4.33427">
        <ele>228</ele>
        <time>2021-02-28T10:09:32Z</time>
      </trkpt>
      <trkpt lat="50.15398" lon="4.33436">
        <ele>224</ele>
        <time>2021-02-28T10:09:34Z</time>
      </trkpt>
      <trkpt lat="50.1539" lon="4.33445">
        <ele>224</ele>
        <time>2021-02-28T10:09:36Z</time>
      </trkpt>
      <trkpt lat="50.15379" lon="4.3345">
        <ele>224</ele>
        <time>2021-02-28T10:09:38Z</time>
      </trkpt>
      <trkpt lat="50.15369" lon="4.33444">
        <ele>219</ele>
        <time>2021-02-28T10:09:40Z</time>
      </trkpt>
      <trkpt lat="50.1536" lon="4.33432">
        <ele>219</ele>
        <time>2021-02-28T10:09:42Z</time>
      </trkpt>
      <trkpt lat="50.15352" lon="4.33419">
        <ele>220</ele>
        <time>2021-02-28T10:09:44Z</time>
      </trkpt>
      <trkpt lat="50.15345" lon="4.33409">
        <ele>219</ele>
        <time>2021-02-28T10:09:46Z</time>
      </trkpt>
      <trkpt lat="50.15338" lon="4.33401">
        <ele>218</ele>
        <time>2021-02-28T10:09:48Z</time>
      </trkpt>
      <trkpt lat="50.15332" lon="4.33394">
        <ele>218</ele>
        <time>2021-02-28T10:09:50Z</time>
      </trkpt>
      <trkpt lat="50.15326" lon="4.33386">
        <ele>218</ele>
        <time>2021-02-28T10:09:52Z</time>
      </trkpt>
      <trkpt lat="50.15319" lon="4.33378">
        <ele>220</ele>
        <time>2021-02-28T10:09:54Z</time>
      </trkpt>
      <trkpt lat="50.15313" lon="4.3337">
        <ele>223</ele>
        <time>2021-02-28T10:09:56Z</time>
      </trkpt>
      <trkpt lat="50.15307" lon="4.33363">
        <ele>223</ele>
        <time>2021-02-28T10:09:58Z</time>
      </trkpt>
      <trkpt lat="50.15302" lon="4.33355">
        <ele>223</ele>
        <time>2021-02-28T10:10:00Z</time>
      </trkpt>
      <trkpt lat="50.15296" lon="4.33348">
        <ele>223</ele>
        <time>2021-02-28T10:10:02Z</time>
      </trkpt>
      <trkpt lat="50.1529" lon="4.3334">
        <ele>228</ele>
        <time>2021-02-28T10:10:04Z</time>
      </trkpt>
      <trkpt lat="50.15284" lon="4.33332">
        <ele>228</ele>
        <time>2021-02-28T10:10:06Z</time>
      </trkpt>
      <trkpt lat="50.15279" lon="4.33325">
        <ele>228</ele>
        <time>2021-02-28T10:10:08Z</time>
      </trkpt>
      <trkpt lat="50.15273" lon="4.33317">
        <ele>230</ele>
        <time>2021-02-28T10:10:10Z</time>
      </trkpt>
      <trkpt lat="50.15267" lon="4.3331">
        <ele>230</ele>
        <time>2021-02-28T10:10:12Z</time>
      </trkpt>
      <trkpt lat="50.15262" lon="4.33303">
        <ele>233</ele>
        <time>2021-02-28T10:10:14Z</time>
      </trkpt>
      <trkpt lat="50.15257" lon="4.33297">
        <ele>233</ele>
        <time>2021-02-28T10:10:16Z</time>
      </trkpt>
      <trkpt lat="50.15251" lon="4.3329">
        <ele>234</ele>
        <time>2021-02-28T10:10:18Z</time>
      </trkpt>
      <trkpt lat="50.15246" lon="4.33283">
        <ele>234</ele>
        <time>2021-02-28T10:10:20Z</time>
      </trkpt>
      <trkpt lat="50.15241" lon="4.33276">
        <ele>234</ele>
        <time>2021-02-28T10:10:22Z</time>
      </trkpt>
      <trkpt lat="50.15237" lon="4.33269">
        <ele>234</ele>
        <time>2021-02-28T10:10:24Z</time>
      </trkpt>
      <trkpt lat="50.15232" lon="4.33263">
        <ele>237</ele>
        <time>2021-02-28T10:10:26Z</time>
      </trkpt>
      <trkpt lat="50.15228" lon="4.33256">
        <ele>237</ele>
        <time>2021-02-28T10:10:28Z</time>
      </trkpt>
      <trkpt lat="50.15223" lon="4.33249">
        <ele>237</ele>
        <time>2021-02-28T10:10:30Z</time>
      </trkpt>
      <trkpt lat="50.15219" lon="4.33242">
        <ele>237</ele>
        <time>2021-02-28T10:10:32Z</time>
      </trkpt>
      <trkpt lat="50.15215" lon="4.33235">
        <ele>234</ele>
        <time>2021-02-28T10:10:34Z</time>
      </trkpt>
      <trkpt lat="50.15211" lon="4.33228">
        <ele>234</ele>
        <time>2021-02-28T10:10:36Z</time>
      </trkpt>
      <trkpt lat="50.15206" lon="4.33221">
        <ele>237</ele>
        <time>2021-02-28T10:10:38Z</time>
      </trkpt>
      <trkpt lat="50.15202" lon="4.33215">
        <ele>237</ele>
        <time>2021-02-28T10:10:40Z</time>
      </trkpt>
      <trkpt lat="50.15198" lon="4.33209">
        <ele>237</ele>
        <time>2021-02-28T10:10:42Z</time>
      </trkpt>
      <trkpt lat="50.15194" lon="4.33203">
        <ele>240</ele>
        <time>2021-02-28T10:10:44Z</time>
      </trkpt>
      <trkpt lat="50.15191" lon="4.33197">
        <ele>240</ele>
        <time>2021-02-28T10:10:46Z</time>
      </trkpt>
      <trkpt lat="50.15186" lon="4.33191">
        <ele>240</ele>
        <time>2021-02-28T10:10:48Z</time>
      </trkpt>
      <trkpt lat="50.15183" lon="4.33185">
        <ele>240</ele>
        <time>2021-02-28T10:10:50Z</time>
      </trkpt>
      <trkpt lat="50.15178" lon="4.33181">
        <ele>243</ele>
        <time>2021-02-28T10:10:52Z</time>
      </trkpt>
      <trkpt lat="50.15173" lon="4.33176">
        <ele>242</ele>
        <time>2021-02-28T10:10:54Z</time>
      </trkpt>
      <trkpt lat="50.15168" lon="4.33171">
        <ele>242</ele>
        <time>2021-02-28T10:10:56Z</time>
      </trkpt>
      <trkpt lat="50.15163" lon="4.33167">
        <ele>242</ele>
        <time>2021-02-28T10:10:58Z</time>
      </trkpt>
      <trkpt lat="50.15159" lon="4.33162">
        <ele>242</ele>
        <time>2021-02-28T10:11:00Z</time>
      </trkpt>
      <trkpt lat="50.15155" lon="4.33157">
        <ele>242</ele>
        <time>2021-02-28T10:11:02Z</time>
      </trkpt>
      <trkpt lat="50.15151" lon="4.33151">
        <ele>245</ele>
        <time>2021-02-28T10:11:04Z</time>
      </trkpt>
      <trkpt lat="50.15147" lon="4.33147">
        <ele>245</ele>
        <time>2021-02-28T10:11:06Z</time>
      </trkpt>
      <trkpt lat="50.15143" lon="4.33141">
        <ele>245</ele>
        <time>2021-02-28T10:11:08Z</time>
      </trkpt>
      <trkpt lat="50.15139" lon="4.33138">
        <ele>245</ele>
        <time>2021-02-28T10:11:10Z</time>
      </trkpt>
      <trkpt lat="50.15134" lon="4.33137">
        <ele>245</ele>
        <time>2021-02-28T10:11:12Z</time>
      </trkpt>
      <trkpt lat="50.1513" lon="4.3314">
        <ele>245</ele>
        <time>2021-02-28T10:11:14Z</time>
      </trkpt>
      <trkpt lat="50.15127" lon="4.33147">
        <ele>245</ele>
        <time>2021-02-28T10:11:16Z</time>
      </trkpt>
      <trkpt lat="50.15125" lon="4.33154">
        <ele>247</ele>
        <time>2021-02-28T10:11:18Z</time>
      </trkpt>
      <trkpt lat="50.15122" lon="4.33161">
        <ele>247</ele>
        <time>2021-02-28T10:11:20Z</time>
      </trkpt>
      <trkpt lat="50.1512" lon="4.33169">
        <ele>247</ele>
        <time>2021-02-28T10:11:22Z</time>
      </trkpt>
      <trkpt lat="50.15118" lon="4.33178">
        <ele>247</ele>
        <time>2021-02-28T10:11:24Z</time>
      </trkpt>
      <trkpt lat="50.15116" lon="4.33186">
        <ele>246</ele>
        <time>2021-02-28T10:11:26Z</time>
      </trkpt>
      <trkpt lat="50.15114" lon="4.33195">
        <ele>246</ele>
        <time>2021-02-28T10:11:28Z</time>
      </trkpt>
      <trkpt lat="50.15112" lon="4.33204">
        <ele>246</ele>
        <time>2021-02-28T10:11:30Z</time>
      </trkpt>
      <trkpt lat="50.15109" lon="4.33212">
        <ele>247</ele>
        <time>2021-02-28T10:11:32Z</time>
      </trkpt>
      <trkpt lat="50.15107" lon="4.33221">
        <ele>247</ele>
        <time>2021-02-28T10:11:34Z</time>
      </trkpt>
      <trkpt lat="50.15105" lon="4.3323">
        <ele>247</ele>
        <time>2021-02-28T10:11:36Z</time>
      </trkpt>
      <trkpt lat="50.15103" lon="4.33239">
        <ele>246</ele>
        <time>2021-02-28T10:11:38Z</time>
      </trkpt>
      <trkpt lat="50.15101" lon="4.33248">
        <ele>246</ele>
        <time>2021-02-28T10:11:40Z</time>
      </trkpt>
      <trkpt lat="50.15099" lon="4.33257">
        <ele>246</ele>
        <time>2021-02-28T10:11:42Z</time>
      </trkpt>
      <trkpt lat="50.15097" lon="4.33265">
        <ele>246</ele>
        <time>2021-02-28T10:11:44Z</time>
      </trkpt>
      <trkpt lat="50.15096" lon="4.33274">
        <ele>246</ele>
        <time>2021-02-28T10:11:46Z</time>
      </trkpt>
      <trkpt lat="50.15094" lon="4.33283">
        <ele>246</ele>
        <time>2021-02-28T10:11:48Z</time>
      </trkpt>
      <trkpt lat="50.15092" lon="4.33293">
        <ele>246</ele>
        <time>2021-02-28T10:11:50Z</time>
      </trkpt>
      <trkpt lat="50.15089" lon="4.33302">
        <ele>246</ele>
        <time>2021-02-28T10:11:52Z</time>
      </trkpt>
      <trkpt lat="50.15088" lon="4.33312">
        <ele>246</ele>
        <time>2021-02-28T10:11:54Z</time>
      </trkpt>
      <trkpt lat="50.15086" lon="4.33322">
        <ele>247</ele>
        <time>2021-02-28T10:11:56Z</time>
      </trkpt>
      <trkpt lat="50.15084" lon="4.33332">
        <ele>247</ele>
        <time>2021-02-28T10:11:58Z</time>
      </trkpt>
      <trkpt lat="50.15083" lon="4.33342">
        <ele>247</ele>
        <time>2021-02-28T10:12:00Z</time>
      </trkpt>
      <trkpt lat="50.15081" lon="4.33352">
        <ele>246</ele>
        <time>2021-02-28T10:12:02Z</time>
      </trkpt>
      <trkpt lat="50.15079" lon="4.33361">
        <ele>246</ele>
        <time>2021-02-28T10:12:04Z</time>
      </trkpt>
      <trkpt lat="50.15076" lon="4.3337">
        <ele>246</ele>
        <time>2021-02-28T10:12:06Z</time>
      </trkpt>
      <trkpt lat="50.15074" lon="4.33379">
        <ele>246</ele>
        <time>2021-02-28T10:12:08Z</time>
      </trkpt>
      <trkpt lat="50.15072" lon="4.33389">
        <ele>246</ele>
        <time>2021-02-28T10:12:10Z</time>
      </trkpt>
      <trkpt lat="50.15069" lon="4.33399">
        <ele>248</ele>
        <time>2021-02-28T10:12:12Z</time>
      </trkpt>
      <trkpt lat="50.15067" lon="4.33409">
        <ele>246</ele>
        <time>2021-02-28T10:12:14Z</time>
      </trkpt>
      <trkpt lat="50.15064" lon="4.33419">
        <ele>246</ele>
        <time>2021-02-28T10:12:16Z</time>
      </trkpt>
      <trkpt lat="50.1506" lon="4.33429">
        <ele>246</ele>
        <time>2021-02-28T10:12:18Z</time>
      </trkpt>
      <trkpt lat="50.15056" lon="4.33439">
        <ele>246</ele>
        <time>2021-02-28T10:12:20Z</time>
      </trkpt>
      <trkpt lat="50.1505" lon="4.33448">
        <ele>246</ele>
        <time>2021-02-28T10:12:22Z</time>
      </trkpt>
      <trkpt lat="50.15044" lon="4.33457">
        <ele>246</ele>
        <time>2021-02-28T10:12:24Z</time>
      </trkpt>
      <trkpt lat="50.15039" lon="4.33466">
        <ele>246</ele>
        <time>2021-02-28T10:12:26Z</time>
      </trkpt>
      <trkpt lat="50.15033" lon="4.33475">
        <ele>246</ele>
        <time>2021-02-28T10:12:28Z</time>
      </trkpt>
      <trkpt lat="50.15026" lon="4.33484">
        <ele>246</ele>
        <time>2021-02-28T10:12:30Z</time>
      </trkpt>
      <trkpt lat="50.1502" lon="4.33494">
        <ele>246</ele>
        <time>2021-02-28T10:12:32Z</time>
      </trkpt>
      <trkpt lat="50.15014" lon="4.33505">
        <ele>248</ele>
        <time>2021-02-28T10:12:34Z</time>
      </trkpt>
      <trkpt lat="50.15007" lon="4.33514">
        <ele>248</ele>
        <time>2021-02-28T10:12:36Z</time>
      </trkpt>
      <trkpt lat="50.15002" lon="4.33523">
        <ele>248</ele>
        <time>2021-02-28T10:12:38Z</time>
      </trkpt>
      <trkpt lat="50.14996" lon="4.33533">
        <ele>248</ele>
        <time>2021-02-28T10:12:40Z</time>
      </trkpt>
      <trkpt lat="50.1499" lon="4.33542">
        <ele>249</ele>
        <time>2021-02-28T10:12:42Z</time>
      </trkpt>
      <trkpt lat="50.14985" lon="4.33551">
        <ele>251</ele>
        <time>2021-02-28T10:12:44Z</time>
      </trkpt>
      <trkpt lat="50.14979" lon="4.33561">
        <ele>251</ele>
        <time>2021-02-28T10:12:46Z</time>
      </trkpt>
      <trkpt lat="50.14974" lon="4.33572">
        <ele>251</ele>
        <time>2021-02-28T10:12:48Z</time>
      </trkpt>
      <trkpt lat="50.1497" lon="4.33583">
        <ele>251</ele>
        <time>2021-02-28T10:12:50Z</time>
      </trkpt>
      <trkpt lat="50.14966" lon="4.33595">
        <ele>251</ele>
        <time>2021-02-28T10:12:52Z</time>
      </trkpt>
      <trkpt lat="50.14963" lon="4.33608">
        <ele>253</ele>
        <time>2021-02-28T10:12:54Z</time>
      </trkpt>
      <trkpt lat="50.14959" lon="4.3362">
        <ele>253</ele>
        <time>2021-02-28T10:12:56Z</time>
      </trkpt>
      <trkpt lat="50.14956" lon="4.33632">
        <ele>253</ele>
        <time>2021-02-28T10:12:58Z</time>
      </trkpt>
      <trkpt lat="50.14951" lon="4.33643">
        <ele>253</ele>
        <time>2021-02-28T10:13:00Z</time>
      </trkpt>
      <trkpt lat="50.14946" lon="4.33654">
        <ele>254</ele>
        <time>2021-02-28T10:13:02Z</time>
      </trkpt>
      <trkpt lat="50.14939" lon="4.33663">
        <ele>254</ele>
        <time>2021-02-28T10:13:04Z</time>
      </trkpt>
      <trkpt lat="50.14932" lon="4.33666">
        <ele>254</ele>
        <time>2021-02-28T10:13:06Z</time>
      </trkpt>
      <trkpt lat="50.14923" lon="4.33665">
        <ele>255</ele>
        <time>2021-02-28T10:13:08Z</time>
      </trkpt>
      <trkpt lat="50.14916" lon="4.3366">
        <ele>255</ele>
        <time>2021-02-28T10:13:10Z</time>
      </trkpt>
      <trkpt lat="50.14911" lon="4.33653">
        <ele>254</ele>
        <time>2021-02-28T10:13:12Z</time>
      </trkpt>
      <trkpt lat="50.14905" lon="4.33645">
        <ele>254</ele>
        <time>2021-02-28T10:13:14Z</time>
      </trkpt>
      <trkpt lat="50.149" lon="4.33637">
        <ele>255</ele>
        <time>2021-02-28T10:13:16Z</time>
      </trkpt>
      <trkpt lat="50.14895" lon="4.33629">
        <ele>255</ele>
        <time>2021-02-28T10:13:18Z</time>
      </trkpt>
      <trkpt lat="50.1489" lon="4.33621">
        <ele>255</ele>
        <time>2021-02-28T10:13:20Z</time>
      </trkpt>
      <trkpt lat="50.14885" lon="4.33614">
        <ele>255</ele>
        <time>2021-02-28T10:13:22Z</time>
      </trkpt>
      <trkpt lat="50.1488" lon="4.33607">
        <ele>255</ele>
        <time>2021-02-28T10:13:24Z</time>
      </trkpt>
      <trkpt lat="50.14875" lon="4.336">
        <ele>257</ele>
        <time>2021-02-28T10:13:26Z</time>
      </trkpt>
      <trkpt lat="50.14869" lon="4.33593">
        <ele>257</ele>
        <time>2021-02-28T10:13:28Z</time>
      </trkpt>
      <trkpt lat="50.14863" lon="4.33588">
        <ele>257</ele>
        <time>2021-02-28T10:13:30Z</time>
      </trkpt>
      <trkpt lat="50.14858" lon="4.33582">
        <ele>257</ele>
        <time>2021-02-28T10:13:32Z</time>
      </trkpt>
      <trkpt lat="50.14851" lon="4.33576">
        <ele>257</ele>
        <time>2021-02-28T10:13:34Z</time>
      </trkpt>
      <trkpt lat="50.14845" lon="4.3357">
        <ele>258</ele>
        <time>2021-02-28T10:13:36Z</time>
      </trkpt>
      <trkpt lat="50.14838" lon="4.33564">
        <ele>259</ele>
        <time>2021-02-28T10:13:38Z</time>
      </trkpt>
      <trkpt lat="50.14832" lon="4.33557">
        <ele>259</ele>
        <time>2021-02-28T10:13:40Z</time>
      </trkpt>
      <trkpt lat="50.14825" lon="4.3355">
        <ele>259</ele>
        <time>2021-02-28T10:13:42Z</time>
      </trkpt>
      <trkpt lat="50.14818" lon="4.33543">
        <ele>260</ele>
        <time>2021-02-28T10:13:44Z</time>
      </trkpt>
      <trkpt lat="50.14808" lon="4.33533">
        <ele>260</ele>
        <time>2021-02-28T10:13:47Z</time>
      </trkpt>
      <trkpt lat="50.14801" lon="4.33527">
        <ele>260</ele>
        <time>2021-02-28T10:13:49Z</time>
      </trkpt>
      <trkpt lat="50.14794" lon="4.3352">
        <ele>260</ele>
        <time>2021-02-28T10:13:51Z</time>
      </trkpt>
      <trkpt lat="50.14787" lon="4.33513">
        <ele>261</ele>
        <time>2021-02-28T10:13:53Z</time>
      </trkpt>
      <trkpt lat="50.14779" lon="4.33506">
        <ele>261</ele>
        <time>2021-02-28T10:13:55Z</time>
      </trkpt>
      <trkpt lat="50.14772" lon="4.33499">
        <ele>261</ele>
        <time>2021-02-28T10:13:57Z</time>
      </trkpt>
      <trkpt lat="50.14765" lon="4.33493">
        <ele>261</ele>
        <time>2021-02-28T10:13:59Z</time>
      </trkpt>
      <trkpt lat="50.14757" lon="4.33487">
        <ele>261</ele>
        <time>2021-02-28T10:14:01Z</time>
      </trkpt>
      <trkpt lat="50.1475" lon="4.33482">
        <ele>261</ele>
        <time>2021-02-28T10:14:03Z</time>
      </trkpt>
      <trkpt lat="50.14742" lon="4.33477">
        <ele>261</ele>
        <time>2021-02-28T10:14:05Z</time>
      </trkpt>
      <trkpt lat="50.14735" lon="4.33473">
        <ele>261</ele>
        <time>2021-02-28T10:14:07Z</time>
      </trkpt>
      <trkpt lat="50.14727" lon="4.33469">
        <ele>261</ele>
        <time>2021-02-28T10:14:09Z</time>
      </trkpt>
      <trkpt lat="50.14719" lon="4.33465">
        <ele>261</ele>
        <time>2021-02-28T10:14:11Z</time>
      </trkpt>
      <trkpt lat="50.14711" lon="4.33459">
        <ele>261</ele>
        <time>2021-02-28T10:14:13Z</time>
      </trkpt>
      <trkpt lat="50.14703" lon="4.33454">
        <ele>261</ele>
        <time>2021-02-28T10:14:15Z</time>
      </trkpt>
      <trkpt lat="50.14694" lon="4.33448">
        <ele>261</ele>
        <time>2021-02-28T10:14:17Z</time>
      </trkpt>
      <trkpt lat="50.14685" lon="4.33441">
        <ele>261</ele>
        <time>2021-02-28T10:14:19Z</time>
      </trkpt>
      <trkpt lat="50.14677" lon="4.33434">
        <ele>261</ele>
        <time>2021-02-28T10:14:21Z</time>
      </trkpt>
      <trkpt lat="50.14668" lon="4.33427">
        <ele>261</ele>
        <time>2021-02-28T10:14:23Z</time>
      </trkpt>
      <trkpt lat="50.1466" lon="4.3342">
        <ele>261</ele>
        <time>2021-02-28T10:14:25Z</time>
      </trkpt>
      <trkpt lat="50.14652" lon="4.33414">
        <ele>261</ele>
        <time>2021-02-28T10:14:27Z</time>
      </trkpt>
      <trkpt lat="50.14644" lon="4.33407">
        <ele>261</ele>
        <time>2021-02-28T10:14:29Z</time>
      </trkpt>
      <trkpt lat="50.14637" lon="4.33401">
        <ele>261</ele>
        <time>2021-02-28T10:14:31Z</time>
      </trkpt>
      <trkpt lat="50.14629" lon="4.33395">
        <ele>261</ele>
        <time>2021-02-28T10:14:33Z</time>
      </trkpt>
      <trkpt lat="50.14622" lon="4.33389">
        <ele>263</ele>
        <time>2021-02-28T10:14:35Z</time>
      </trkpt>
      <trkpt lat="50.14615" lon="4.33382">
        <ele>263</ele>
        <time>2021-02-28T10:14:37Z</time>
      </trkpt>
      <trkpt lat="50.14607" lon="4.33375">
        <ele>260</ele>
        <time>2021-02-28T10:14:39Z</time>
      </trkpt>
      <trkpt lat="50.146" lon="4.33368">
        <ele>260</ele>
        <time>2021-02-28T10:14:41Z</time>
      </trkpt>
      <trkpt lat="50.14592" lon="4.33361">
        <ele>261</ele>
        <time>2021-02-28T10:14:43Z</time>
      </trkpt>
      <trkpt lat="50.14585" lon="4.33355">
        <ele>261</ele>
        <time>2021-02-28T10:14:45Z</time>
      </trkpt>
      <trkpt lat="50.14578" lon="4.33348">
        <ele>261</ele>
        <time>2021-02-28T10:14:47Z</time>
      </trkpt>
      <trkpt lat="50.1457" lon="4.33342">
        <ele>260</ele>
        <time>2021-02-28T10:14:49Z</time>
      </trkpt>
      <trkpt lat="50.14563" lon="4.33336">
        <ele>261</ele>
        <time>2021-02-28T10:14:51Z</time>
      </trkpt>
      <trkpt lat="50.14558" lon="4.33332">
        <ele>261</ele>
        <time>2021-02-28T10:14:53Z</time>
      </trkpt>
      <trkpt lat="50.14552" lon="4.33329">
        <ele>261</ele>
        <time>2021-02-28T10:14:55Z</time>
      </trkpt>
      <trkpt lat="50.14543" lon="4.3332">
        <ele>261</ele>
        <time>2021-02-28T10:15:47Z</time>
      </trkpt>
      <trkpt lat="50.14537" lon="4.33315">
        <ele>260</ele>
        <time>2021-02-28T10:15:49Z</time>
      </trkpt>
      <trkpt lat="50.14531" lon="4.33309">
        <ele>260</ele>
        <time>2021-02-28T10:15:51Z</time>
      </trkpt>
      <trkpt lat="50.14525" lon="4.33304">
        <ele>260</ele>
        <time>2021-02-28T10:15:53Z</time>
      </trkpt>
      <trkpt lat="50.14518" lon="4.33298">
        <ele>260</ele>
        <time>2021-02-28T10:15:55Z</time>
      </trkpt>
      <trkpt lat="50.1451" lon="4.33293">
        <ele>261</ele>
        <time>2021-02-28T10:15:57Z</time>
      </trkpt>
      <trkpt lat="50.14503" lon="4.33286">
        <ele>261</ele>
        <time>2021-02-28T10:15:59Z</time>
      </trkpt>
      <trkpt lat="50.14495" lon="4.33279">
        <ele>261</ele>
        <time>2021-02-28T10:16:01Z</time>
      </trkpt>
      <trkpt lat="50.14488" lon="4.33271">
        <ele>261</ele>
        <time>2021-02-28T10:16:03Z</time>
      </trkpt>
      <trkpt lat="50.14479" lon="4.33264">
        <ele>261</ele>
        <time>2021-02-28T10:16:05Z</time>
      </trkpt>
      <trkpt lat="50.14471" lon="4.33254">
        <ele>261</ele>
        <time>2021-02-28T10:16:07Z</time>
      </trkpt>
      <trkpt lat="50.14463" lon="4.33244">
        <ele>261</ele>
        <time>2021-02-28T10:16:09Z</time>
      </trkpt>
      <trkpt lat="50.14455" lon="4.33234">
        <ele>261</ele>
        <time>2021-02-28T10:16:11Z</time>
      </trkpt>
      <trkpt lat="50.14448" lon="4.3322">
        <ele>261</ele>
        <time>2021-02-28T10:16:13Z</time>
      </trkpt>
      <trkpt lat="50.14441" lon="4.33206">
        <ele>261</ele>
        <time>2021-02-28T10:16:15Z</time>
      </trkpt>
      <trkpt lat="50.14434" lon="4.33192">
        <ele>261</ele>
        <time>2021-02-28T10:16:17Z</time>
      </trkpt>
      <trkpt lat="50.14427" lon="4.33177">
        <ele>261</ele>
        <time>2021-02-28T10:16:19Z</time>
      </trkpt>
      <trkpt lat="50.1442" lon="4.33162">
        <ele>261</ele>
        <time>2021-02-28T10:16:21Z</time>
      </trkpt>
      <trkpt lat="50.14412" lon="4.33146">
        <ele>260</ele>
        <time>2021-02-28T10:16:23Z</time>
      </trkpt>
      <trkpt lat="50.14404" lon="4.33129">
        <ele>260</ele>
        <time>2021-02-28T10:16:25Z</time>
      </trkpt>
      <trkpt lat="50.14396" lon="4.33113">
        <ele>260</ele>
        <time>2021-02-28T10:16:27Z</time>
      </trkpt>
      <trkpt lat="50.14389" lon="4.33095">
        <ele>259</ele>
        <time>2021-02-28T10:16:29Z</time>
      </trkpt>
      <trkpt lat="50.14381" lon="4.33077">
        <ele>259</ele>
        <time>2021-02-28T10:16:31Z</time>
      </trkpt>
      <trkpt lat="50.14374" lon="4.33058">
        <ele>259</ele>
        <time>2021-02-28T10:16:33Z</time>
      </trkpt>
      <trkpt lat="50.14368" lon="4.33038">
        <ele>258</ele>
        <time>2021-02-28T10:16:35Z</time>
      </trkpt>
      <trkpt lat="50.14362" lon="4.33018">
        <ele>258</ele>
        <time>2021-02-28T10:16:37Z</time>
      </trkpt>
      <trkpt lat="50.14356" lon="4.32998">
        <ele>259</ele>
        <time>2021-02-28T10:16:39Z</time>
      </trkpt>
      <trkpt lat="50.14349" lon="4.32978">
        <ele>258</ele>
        <time>2021-02-28T10:16:41Z</time>
      </trkpt>
      <trkpt lat="50.14342" lon="4.32959">
        <ele>257</ele>
        <time>2021-02-28T10:16:43Z</time>
      </trkpt>
      <trkpt lat="50.14333" lon="4.32941">
        <ele>258</ele>
        <time>2021-02-28T10:16:45Z</time>
      </trkpt>
      <trkpt lat="50.14323" lon="4.32925">
        <ele>257</ele>
        <time>2021-02-28T10:16:47Z</time>
      </trkpt>
      <trkpt lat="50.14313" lon="4.32908">
        <ele>257</ele>
        <time>2021-02-28T10:16:49Z</time>
      </trkpt>
      <trkpt lat="50.14302" lon="4.32891">
        <ele>257</ele>
        <time>2021-02-28T10:16:51Z</time>
      </trkpt>
      <trkpt lat="50.14292" lon="4.32875">
        <ele>257</ele>
        <time>2021-02-28T10:16:53Z</time>
      </trkpt>
      <trkpt lat="50.14281" lon="4.3286">
        <ele>255</ele>
        <time>2021-02-28T10:16:55Z</time>
      </trkpt>
      <trkpt lat="50.1427" lon="4.32846">
        <ele>255</ele>
        <time>2021-02-28T10:16:57Z</time>
      </trkpt>
      <trkpt lat="50.1426" lon="4.32834">
        <ele>254</ele>
        <time>2021-02-28T10:16:59Z</time>
      </trkpt>
      <trkpt lat="50.14253" lon="4.32823">
        <ele>254</ele>
        <time>2021-02-28T10:17:01Z</time>
      </trkpt>
      <trkpt lat="50.14247" lon="4.32815">
        <ele>252</ele>
        <time>2021-02-28T10:17:03Z</time>
      </trkpt>
      <trkpt lat="50.14241" lon="4.32809">
        <ele>252</ele>
        <time>2021-02-28T10:17:05Z</time>
      </trkpt>
      <trkpt lat="50.14233" lon="4.32803">
        <ele>252</ele>
        <time>2021-02-28T10:17:07Z</time>
      </trkpt>
      <trkpt lat="50.14225" lon="4.32796">
        <ele>252</ele>
        <time>2021-02-28T10:17:09Z</time>
      </trkpt>
      <trkpt lat="50.14217" lon="4.32787">
        <ele>251</ele>
        <time>2021-02-28T10:17:11Z</time>
      </trkpt>
      <trkpt lat="50.14209" lon="4.32778">
        <ele>251</ele>
        <time>2021-02-28T10:17:13Z</time>
      </trkpt>
      <trkpt lat="50.14199" lon="4.32769">
        <ele>251</ele>
        <time>2021-02-28T10:17:15Z</time>
      </trkpt>
      <trkpt lat="50.14189" lon="4.32759">
        <ele>251</ele>
        <time>2021-02-28T10:17:17Z</time>
      </trkpt>
      <trkpt lat="50.14179" lon="4.32748">
        <ele>250</ele>
        <time>2021-02-28T10:17:19Z</time>
      </trkpt>
      <trkpt lat="50.14168" lon="4.32737">
        <ele>250</ele>
        <time>2021-02-28T10:17:21Z</time>
      </trkpt>
      <trkpt lat="50.14156" lon="4.32726">
        <ele>249</ele>
        <time>2021-02-28T10:17:23Z</time>
      </trkpt>
      <trkpt lat="50.14145" lon="4.32713">
        <ele>249</ele>
        <time>2021-02-28T10:17:25Z</time>
      </trkpt>
      <trkpt lat="50.14136" lon="4.32696">
        <ele>249</ele>
        <time>2021-02-28T10:17:27Z</time>
      </trkpt>
      <trkpt lat="50.14131" lon="4.32674">
        <ele>249</ele>
        <time>2021-02-28T10:17:29Z</time>
      </trkpt>
      <trkpt lat="50.14129" lon="4.3265">
        <ele>249</ele>
        <time>2021-02-28T10:17:31Z</time>
      </trkpt>
      <trkpt lat="50.14128" lon="4.32626">
        <ele>249</ele>
        <time>2021-02-28T10:17:33Z</time>
      </trkpt>
      <trkpt lat="50.14127" lon="4.32602">
        <ele>250</ele>
        <time>2021-02-28T10:17:35Z</time>
      </trkpt>
      <trkpt lat="50.14127" lon="4.32578">
        <ele>248</ele>
        <time>2021-02-28T10:17:37Z</time>
      </trkpt>
      <trkpt lat="50.14126" lon="4.32554">
        <ele>247</ele>
        <time>2021-02-28T10:17:39Z</time>
      </trkpt>
      <trkpt lat="50.14125" lon="4.32531">
        <ele>246</ele>
        <time>2021-02-28T10:17:41Z</time>
      </trkpt>
      <trkpt lat="50.14125" lon="4.32509">
        <ele>245</ele>
        <time>2021-02-28T10:17:43Z</time>
      </trkpt>
      <trkpt lat="50.14124" lon="4.32488">
        <ele>245</ele>
        <time>2021-02-28T10:17:45Z</time>
      </trkpt>
      <trkpt lat="50.14124" lon="4.32469">
        <ele>245</ele>
        <time>2021-02-28T10:17:47Z</time>
      </trkpt>
      <trkpt lat="50.14125" lon="4.32456">
        <ele>245</ele>
        <time>2021-02-28T10:17:49Z</time>
      </trkpt>
      <trkpt lat="50.14123" lon="4.32444">
        <ele>245</ele>
        <time>2021-02-28T10:17:51Z</time>
      </trkpt>
      <trkpt lat="50.14119" lon="4.32433">
        <ele>245</ele>
        <time>2021-02-28T10:17:53Z</time>
      </trkpt>
      <trkpt lat="50.14113" lon="4.32421">
        <ele>245</ele>
        <time>2021-02-28T10:17:55Z</time>
      </trkpt>
      <trkpt lat="50.14109" lon="4.32408">
        <ele>245</ele>
        <time>2021-02-28T10:17:57Z</time>
      </trkpt>
      <trkpt lat="50.14105" lon="4.32393">
        <ele>245</ele>
        <time>2021-02-28T10:17:59Z</time>
      </trkpt>
      <trkpt lat="50.14103" lon="4.32376">
        <ele>245</ele>
        <time>2021-02-28T10:18:01Z</time>
      </trkpt>
      <trkpt lat="50.14101" lon="4.32358">
        <ele>245</ele>
        <time>2021-02-28T10:18:03Z</time>
      </trkpt>
      <trkpt lat="50.141" lon="4.32339">
        <ele>245</ele>
        <time>2021-02-28T10:18:05Z</time>
      </trkpt>
      <trkpt lat="50.14099" lon="4.3232">
        <ele>245</ele>
        <time>2021-02-28T10:18:07Z</time>
      </trkpt>
      <trkpt lat="50.14098" lon="4.323">
        <ele>245</ele>
        <time>2021-02-28T10:18:09Z</time>
      </trkpt>
      <trkpt lat="50.14097" lon="4.32281">
        <ele>244</ele>
        <time>2021-02-28T10:18:11Z</time>
      </trkpt>
      <trkpt lat="50.14096" lon="4.32261">
        <ele>245</ele>
        <time>2021-02-28T10:18:13Z</time>
      </trkpt>
      <trkpt lat="50.14095" lon="4.3224">
        <ele>245</ele>
        <time>2021-02-28T10:18:15Z</time>
      </trkpt>
      <trkpt lat="50.14094" lon="4.3222">
        <ele>245</ele>
        <time>2021-02-28T10:18:17Z</time>
      </trkpt>
      <trkpt lat="50.14094" lon="4.32201">
        <ele>246</ele>
        <time>2021-02-28T10:18:19Z</time>
      </trkpt>
      <trkpt lat="50.14093" lon="4.32187">
        <ele>246</ele>
        <time>2021-02-28T10:18:21Z</time>
      </trkpt>
      <trkpt lat="50.14092" lon="4.32177">
        <ele>245</ele>
        <time>2021-02-28T10:18:23Z</time>
      </trkpt>
      <trkpt lat="50.14088" lon="4.32174">
        <ele>245</ele>
        <time>2021-02-28T10:18:25Z</time>
      </trkpt>
      <trkpt lat="50.1408" lon="4.32175">
        <ele>245</ele>
        <time>2021-02-28T10:18:27Z</time>
      </trkpt>
      <trkpt lat="50.14074" lon="4.32175">
        <ele>245</ele>
        <time>2021-02-28T10:18:29Z</time>
      </trkpt>
      <trkpt lat="50.14066" lon="4.32176">
        <ele>249</ele>
        <time>2021-02-28T10:18:31Z</time>
      </trkpt>
      <trkpt lat="50.14059" lon="4.32179">
        <ele>249</ele>
        <time>2021-02-28T10:18:33Z</time>
      </trkpt>
      <trkpt lat="50.14051" lon="4.3218">
        <ele>249</ele>
        <time>2021-02-28T10:18:35Z</time>
      </trkpt>
      <trkpt lat="50.14045" lon="4.32182">
        <ele>248</ele>
        <time>2021-02-28T10:18:37Z</time>
      </trkpt>
      <trkpt lat="50.14039" lon="4.32183">
        <ele>251</ele>
        <time>2021-02-28T10:18:39Z</time>
      </trkpt>
      <trkpt lat="50.14031" lon="4.32186">
        <ele>251</ele>
        <time>2021-02-28T10:18:41Z</time>
      </trkpt>
      <trkpt lat="50.14021" lon="4.32189">
        <ele>251</ele>
        <time>2021-02-28T10:18:43Z</time>
      </trkpt>
      <trkpt lat="50.14014" lon="4.32195">
        <ele>253</ele>
        <time>2021-02-28T10:18:45Z</time>
      </trkpt>
      <trkpt lat="50.14005" lon="4.32202">
        <ele>253</ele>
        <time>2021-02-28T10:18:47Z</time>
      </trkpt>
      <trkpt lat="50.13997" lon="4.3221">
        <ele>253</ele>
        <time>2021-02-28T10:18:49Z</time>
      </trkpt>
      <trkpt lat="50.13991" lon="4.32216">
        <ele>253</ele>
        <time>2021-02-28T10:18:51Z</time>
      </trkpt>
      <trkpt lat="50.13987" lon="4.3222">
        <ele>253</ele>
        <time>2021-02-28T10:18:53Z</time>
      </trkpt>
      <trkpt lat="50.13984" lon="4.32225">
        <ele>253</ele>
        <time>2021-02-28T10:18:55Z</time>
      </trkpt>
      <trkpt lat="50.13979" lon="4.32231">
        <ele>253</ele>
        <time>2021-02-28T10:18:57Z</time>
      </trkpt>
      <trkpt lat="50.13975" lon="4.32237">
        <ele>253</ele>
        <time>2021-02-28T10:18:59Z</time>
      </trkpt>
      <trkpt lat="50.13971" lon="4.32245">
        <ele>253</ele>
        <time>2021-02-28T10:19:01Z</time>
      </trkpt>
      <trkpt lat="50.13968" lon="4.32253">
        <ele>253</ele>
        <time>2021-02-28T10:19:03Z</time>
      </trkpt>
      <trkpt lat="50.13962" lon="4.3226">
        <ele>253</ele>
        <time>2021-02-28T10:19:05Z</time>
      </trkpt>
      <trkpt lat="50.13958" lon="4.32267">
        <ele>253</ele>
        <time>2021-02-28T10:19:07Z</time>
      </trkpt>
      <trkpt lat="50.13953" lon="4.32275">
        <ele>253</ele>
        <time>2021-02-28T10:19:09Z</time>
      </trkpt>
      <trkpt lat="50.13944" lon="4.32283">
        <ele>253</ele>
        <time>2021-02-28T10:19:11Z</time>
      </trkpt>
      <trkpt lat="50.13937" lon="4.32291">
        <ele>253</ele>
        <time>2021-02-28T10:19:13Z</time>
      </trkpt>
      <trkpt lat="50.13931" lon="4.32297">
        <ele>254</ele>
        <time>2021-02-28T10:19:15Z</time>
      </trkpt>
      <trkpt lat="50.13925" lon="4.32304">
        <ele>255</ele>
        <time>2021-02-28T10:19:17Z</time>
      </trkpt>
      <trkpt lat="50.13922" lon="4.32311">
        <ele>255</ele>
        <time>2021-02-28T10:19:19Z</time>
      </trkpt>
      <trkpt lat="50.13917" lon="4.32319">
        <ele>255</ele>
        <time>2021-02-28T10:19:21Z</time>
      </trkpt>
      <trkpt lat="50.13911" lon="4.32326">
        <ele>255</ele>
        <time>2021-02-28T10:19:23Z</time>
      </trkpt>
      <trkpt lat="50.13907" lon="4.32333">
        <ele>255</ele>
        <time>2021-02-28T10:19:25Z</time>
      </trkpt>
      <trkpt lat="50.13903" lon="4.32338">
        <ele>256</ele>
        <time>2021-02-28T10:19:27Z</time>
      </trkpt>
      <trkpt lat="50.13897" lon="4.32339">
        <ele>256</ele>
        <time>2021-02-28T10:19:29Z</time>
      </trkpt>
      <trkpt lat="50.13894" lon="4.3234">
        <ele>256</ele>
        <time>2021-02-28T10:19:31Z</time>
      </trkpt>
      <trkpt lat="50.1389" lon="4.32339">
        <ele>256</ele>
        <time>2021-02-28T10:19:33Z</time>
      </trkpt>
      <trkpt lat="50.13886" lon="4.32335">
        <ele>256</ele>
        <time>2021-02-28T10:19:35Z</time>
      </trkpt>
      <trkpt lat="50.1388" lon="4.32331">
        <ele>256</ele>
        <time>2021-02-28T10:19:37Z</time>
      </trkpt>
      <trkpt lat="50.13875" lon="4.32326">
        <ele>257</ele>
        <time>2021-02-28T10:19:39Z</time>
      </trkpt>
      <trkpt lat="50.13871" lon="4.3232">
        <ele>257</ele>
        <time>2021-02-28T10:19:41Z</time>
      </trkpt>
      <trkpt lat="50.13867" lon="4.32315">
        <ele>257</ele>
        <time>2021-02-28T10:19:43Z</time>
      </trkpt>
      <trkpt lat="50.13864" lon="4.32309">
        <ele>257</ele>
        <time>2021-02-28T10:19:45Z</time>
      </trkpt>
      <trkpt lat="50.13862" lon="4.32306">
        <ele>257</ele>
        <time>2021-02-28T10:19:47Z</time>
      </trkpt>
      <trkpt lat="50.1386" lon="4.32302">
        <ele>257</ele>
        <time>2021-02-28T10:19:49Z</time>
      </trkpt>
      <trkpt lat="50.13855" lon="4.32297">
        <ele>257</ele>
        <time>2021-02-28T10:19:51Z</time>
      </trkpt>
      <trkpt lat="50.13851" lon="4.32291">
        <ele>257</ele>
        <time>2021-02-28T10:19:53Z</time>
      </trkpt>
      <trkpt lat="50.13849" lon="4.32287">
        <ele>257</ele>
        <time>2021-02-28T10:19:55Z</time>
      </trkpt>
      <trkpt lat="50.13846" lon="4.3228">
        <ele>258</ele>
        <time>2021-02-28T10:19:57Z</time>
      </trkpt>
      <trkpt lat="50.13841" lon="4.32274">
        <ele>258</ele>
        <time>2021-02-28T10:19:59Z</time>
      </trkpt>
      <trkpt lat="50.13836" lon="4.32268">
        <ele>258</ele>
        <time>2021-02-28T10:20:01Z</time>
      </trkpt>
      <trkpt lat="50.13833" lon="4.32261">
        <ele>258</ele>
        <time>2021-02-28T10:20:03Z</time>
      </trkpt>
      <trkpt lat="50.13828" lon="4.32254">
        <ele>258</ele>
        <time>2021-02-28T10:20:05Z</time>
      </trkpt>
      <trkpt lat="50.13823" lon="4.32247">
        <ele>258</ele>
        <time>2021-02-28T10:20:07Z</time>
      </trkpt>
      <trkpt lat="50.13818" lon="4.32239">
        <ele>259</ele>
        <time>2021-02-28T10:20:09Z</time>
      </trkpt>
      <trkpt lat="50.13815" lon="4.32232">
        <ele>258</ele>
        <time>2021-02-28T10:20:11Z</time>
      </trkpt>
      <trkpt lat="50.13812" lon="4.32224">
        <ele>258</ele>
        <time>2021-02-28T10:20:13Z</time>
      </trkpt>
      <trkpt lat="50.13808" lon="4.32219">
        <ele>258</ele>
        <time>2021-02-28T10:20:15Z</time>
      </trkpt>
      <trkpt lat="50.13804" lon="4.32211">
        <ele>258</ele>
        <time>2021-02-28T10:20:17Z</time>
      </trkpt>
      <trkpt lat="50.13799" lon="4.32204">
        <ele>259</ele>
        <time>2021-02-28T10:20:19Z</time>
      </trkpt>
      <trkpt lat="50.13796" lon="4.32199">
        <ele>259</ele>
        <time>2021-02-28T10:20:21Z</time>
      </trkpt>
      <trkpt lat="50.13792" lon="4.32193">
        <ele>259</ele>
        <time>2021-02-28T10:20:23Z</time>
      </trkpt>
      <trkpt lat="50.13787" lon="4.32185">
        <ele>259</ele>
        <time>2021-02-28T10:20:25Z</time>
      </trkpt>
      <trkpt lat="50.13781" lon="4.32176">
        <ele>259</ele>
        <time>2021-02-28T10:20:27Z</time>
      </trkpt>
      <trkpt lat="50.13771" lon="4.32163">
        <ele>259</ele>
        <time>2021-02-28T10:20:30Z</time>
      </trkpt>
      <trkpt lat="50.13765" lon="4.32154">
        <ele>259</ele>
        <time>2021-02-28T10:20:32Z</time>
      </trkpt>
      <trkpt lat="50.1376" lon="4.32144">
        <ele>259</ele>
        <time>2021-02-28T10:20:34Z</time>
      </trkpt>
      <trkpt lat="50.13755" lon="4.32135">
        <ele>259</ele>
        <time>2021-02-28T10:20:36Z</time>
      </trkpt>
      <trkpt lat="50.13749" lon="4.32123">
        <ele>258</ele>
        <time>2021-02-28T10:20:38Z</time>
      </trkpt>
      <trkpt lat="50.13743" lon="4.32115">
        <ele>258</ele>
        <time>2021-02-28T10:20:40Z</time>
      </trkpt>
      <trkpt lat="50.13741" lon="4.32107">
        <ele>258</ele>
        <time>2021-02-28T10:20:42Z</time>
      </trkpt>
      <trkpt lat="50.13734" lon="4.32098">
        <ele>260</ele>
        <time>2021-02-28T10:20:44Z</time>
      </trkpt>
      <trkpt lat="50.1373" lon="4.32089">
        <ele>261</ele>
        <time>2021-02-28T10:20:46Z</time>
      </trkpt>
      <trkpt lat="50.13725" lon="4.3208">
        <ele>261</ele>
        <time>2021-02-28T10:20:48Z</time>
      </trkpt>
      <trkpt lat="50.1372" lon="4.32069">
        <ele>259</ele>
        <time>2021-02-28T10:20:50Z</time>
      </trkpt>
      <trkpt lat="50.13714" lon="4.32058">
        <ele>259</ele>
        <time>2021-02-28T10:20:52Z</time>
      </trkpt>
      <trkpt lat="50.1371" lon="4.3205">
        <ele>259</ele>
        <time>2021-02-28T10:20:54Z</time>
      </trkpt>
      <trkpt lat="50.13703" lon="4.3204">
        <ele>261</ele>
        <time>2021-02-28T10:20:56Z</time>
      </trkpt>
      <trkpt lat="50.13699" lon="4.32032">
        <ele>261</ele>
        <time>2021-02-28T10:20:58Z</time>
      </trkpt>
      <trkpt lat="50.13691" lon="4.32018">
        <ele>261</ele>
        <time>2021-02-28T10:21:00Z</time>
      </trkpt>
      <trkpt lat="50.13685" lon="4.32008">
        <ele>260</ele>
        <time>2021-02-28T10:21:02Z</time>
      </trkpt>
      <trkpt lat="50.1368" lon="4.31998">
        <ele>263</ele>
        <time>2021-02-28T10:21:04Z</time>
      </trkpt>
      <trkpt lat="50.13675" lon="4.3199">
        <ele>263</ele>
        <time>2021-02-28T10:21:06Z</time>
      </trkpt>
      <trkpt lat="50.13671" lon="4.31983">
        <ele>261</ele>
        <time>2021-02-28T10:21:08Z</time>
      </trkpt>
      <trkpt lat="50.13666" lon="4.31974">
        <ele>261</ele>
        <time>2021-02-28T10:21:10Z</time>
      </trkpt>
      <trkpt lat="50.13662" lon="4.31968">
        <ele>261</ele>
        <time>2021-02-28T10:21:12Z</time>
      </trkpt>
      <trkpt lat="50.13659" lon="4.31962">
        <ele>261</ele>
        <time>2021-02-28T10:21:14Z</time>
      </trkpt>
      <trkpt lat="50.13656" lon="4.31956">
        <ele>259</ele>
        <time>2021-02-28T10:21:16Z</time>
      </trkpt>
      <trkpt lat="50.13651" lon="4.3195">
        <ele>260</ele>
        <time>2021-02-28T10:21:18Z</time>
      </trkpt>
      <trkpt lat="50.13646" lon="4.31945">
        <ele>260</ele>
        <time>2021-02-28T10:21:20Z</time>
      </trkpt>
      <trkpt lat="50.13643" lon="4.31939">
        <ele>260</ele>
        <time>2021-02-28T10:21:22Z</time>
      </trkpt>
      <trkpt lat="50.13641" lon="4.31933">
        <ele>260</ele>
        <time>2021-02-28T10:21:24Z</time>
      </trkpt>
      <trkpt lat="50.13637" lon="4.31925">
        <ele>261</ele>
        <time>2021-02-28T10:21:26Z</time>
      </trkpt>
      <trkpt lat="50.13631" lon="4.31916">
        <ele>261</ele>
        <time>2021-02-28T10:21:28Z</time>
      </trkpt>
      <trkpt lat="50.13626" lon="4.31907">
        <ele>261</ele>
        <time>2021-02-28T10:21:30Z</time>
      </trkpt>
      <trkpt lat="50.13622" lon="4.319">
        <ele>263</ele>
        <time>2021-02-28T10:21:32Z</time>
      </trkpt>
      <trkpt lat="50.1362" lon="4.31895">
        <ele>263</ele>
        <time>2021-02-28T10:21:34Z</time>
      </trkpt>
      <trkpt lat="50.13617" lon="4.3189">
        <ele>263</ele>
        <time>2021-02-28T10:21:36Z</time>
      </trkpt>
      <trkpt lat="50.13614" lon="4.31886">
        <ele>263</ele>
        <time>2021-02-28T10:21:38Z</time>
      </trkpt>
      <trkpt lat="50.13611" lon="4.31881">
        <ele>263</ele>
        <time>2021-02-28T10:21:40Z</time>
      </trkpt>
      <trkpt lat="50.13608" lon="4.31877">
        <ele>263</ele>
        <time>2021-02-28T10:21:42Z</time>
      </trkpt>
      <trkpt lat="50.13604" lon="4.31873">
        <ele>263</ele>
        <time>2021-02-28T10:21:44Z</time>
      </trkpt>
      <trkpt lat="50.136" lon="4.31865">
        <ele>263</ele>
        <time>2021-02-28T10:21:47Z</time>
      </trkpt>
      <trkpt lat="50.13595" lon="4.31858">
        <ele>265</ele>
        <time>2021-02-28T10:21:49Z</time>
      </trkpt>
      <trkpt lat="50.13592" lon="4.31852">
        <ele>265</ele>
        <time>2021-02-28T10:21:51Z</time>
      </trkpt>
      <trkpt lat="50.13589" lon="4.31846">
        <ele>265</ele>
        <time>2021-02-28T10:21:53Z</time>
      </trkpt>
      <trkpt lat="50.13586" lon="4.31841">
        <ele>265</ele>
        <time>2021-02-28T10:21:55Z</time>
      </trkpt>
      <trkpt lat="50.13583" lon="4.31834">
        <ele>265</ele>
        <time>2021-02-28T10:21:57Z</time>
      </trkpt>
      <trkpt lat="50.13579" lon="4.31829">
        <ele>265</ele>
        <time>2021-02-28T10:21:59Z</time>
      </trkpt>
      <trkpt lat="50.13575" lon="4.31824">
        <ele>265</ele>
        <time>2021-02-28T10:22:01Z</time>
      </trkpt>
      <trkpt lat="50.13571" lon="4.31818">
        <ele>266</ele>
        <time>2021-02-28T10:22:03Z</time>
      </trkpt>
      <trkpt lat="50.13569" lon="4.31812">
        <ele>268</ele>
        <time>2021-02-28T10:22:05Z</time>
      </trkpt>
      <trkpt lat="50.13567" lon="4.31807">
        <ele>268</ele>
        <time>2021-02-28T10:22:07Z</time>
      </trkpt>
      <trkpt lat="50.13563" lon="4.31802">
        <ele>268</ele>
        <time>2021-02-28T10:22:09Z</time>
      </trkpt>
      <trkpt lat="50.13559" lon="4.31795">
        <ele>268</ele>
        <time>2021-02-28T10:22:11Z</time>
      </trkpt>
      <trkpt lat="50.13557" lon="4.31788">
        <ele>270</ele>
        <time>2021-02-28T10:22:13Z</time>
      </trkpt>
      <trkpt lat="50.13554" lon="4.31782">
        <ele>270</ele>
        <time>2021-02-28T10:22:15Z</time>
      </trkpt>
      <trkpt lat="50.13549" lon="4.31775">
        <ele>270</ele>
        <time>2021-02-28T10:22:17Z</time>
      </trkpt>
      <trkpt lat="50.13546" lon="4.31768">
        <ele>270</ele>
        <time>2021-02-28T10:22:19Z</time>
      </trkpt>
      <trkpt lat="50.13542" lon="4.31761">
        <ele>270</ele>
        <time>2021-02-28T10:22:21Z</time>
      </trkpt>
      <trkpt lat="50.1354" lon="4.31753">
        <ele>272</ele>
        <time>2021-02-28T10:22:23Z</time>
      </trkpt>
      <trkpt lat="50.13536" lon="4.31746">
        <ele>272</ele>
        <time>2021-02-28T10:22:25Z</time>
      </trkpt>
      <trkpt lat="50.13532" lon="4.3174">
        <ele>272</ele>
        <time>2021-02-28T10:22:27Z</time>
      </trkpt>
      <trkpt lat="50.13528" lon="4.31732">
        <ele>272</ele>
        <time>2021-02-28T10:22:29Z</time>
      </trkpt>
      <trkpt lat="50.13522" lon="4.31722">
        <ele>272</ele>
        <time>2021-02-28T10:22:31Z</time>
      </trkpt>
      <trkpt lat="50.13518" lon="4.31713">
        <ele>272</ele>
        <time>2021-02-28T10:22:33Z</time>
      </trkpt>
      <trkpt lat="50.13514" lon="4.31706">
        <ele>273</ele>
        <time>2021-02-28T10:22:35Z</time>
      </trkpt>
      <trkpt lat="50.13512" lon="4.317">
        <ele>275</ele>
        <time>2021-02-28T10:22:37Z</time>
      </trkpt>
      <trkpt lat="50.1351" lon="4.31697">
        <ele>275</ele>
        <time>2021-02-28T10:22:39Z</time>
      </trkpt>
      <trkpt lat="50.13508" lon="4.31693">
        <ele>275</ele>
        <time>2021-02-28T10:22:41Z</time>
      </trkpt>
      <trkpt lat="50.13505" lon="4.3169">
        <ele>275</ele>
        <time>2021-02-28T10:22:43Z</time>
      </trkpt>
      <trkpt lat="50.13502" lon="4.31685">
        <ele>275</ele>
        <time>2021-02-28T10:22:45Z</time>
      </trkpt>
      <trkpt lat="50.13499" lon="4.31679">
        <ele>275</ele>
        <time>2021-02-28T10:22:47Z</time>
      </trkpt>
      <trkpt lat="50.13496" lon="4.31672">
        <ele>275</ele>
        <time>2021-02-28T10:22:49Z</time>
      </trkpt>
      <trkpt lat="50.13493" lon="4.31666">
        <ele>275</ele>
        <time>2021-02-28T10:22:51Z</time>
      </trkpt>
      <trkpt lat="50.13489" lon="4.31661">
        <ele>275</ele>
        <time>2021-02-28T10:22:53Z</time>
      </trkpt>
      <trkpt lat="50.13485" lon="4.31655">
        <ele>277</ele>
        <time>2021-02-28T10:22:55Z</time>
      </trkpt>
      <trkpt lat="50.13481" lon="4.31651">
        <ele>276</ele>
        <time>2021-02-28T10:22:57Z</time>
      </trkpt>
      <trkpt lat="50.13477" lon="4.31644">
        <ele>276</ele>
        <time>2021-02-28T10:22:59Z</time>
      </trkpt>
      <trkpt lat="50.13473" lon="4.31636">
        <ele>276</ele>
        <time>2021-02-28T10:23:01Z</time>
      </trkpt>
      <trkpt lat="50.13471" lon="4.31633">
        <ele>276</ele>
        <time>2021-02-28T10:23:03Z</time>
      </trkpt>
      <trkpt lat="50.13467" lon="4.31626">
        <ele>276</ele>
        <time>2021-02-28T10:23:05Z</time>
      </trkpt>
      <trkpt lat="50.13466" lon="4.3162">
        <ele>276</ele>
        <time>2021-02-28T10:23:07Z</time>
      </trkpt>
      <trkpt lat="50.13464" lon="4.31616">
        <ele>276</ele>
        <time>2021-02-28T10:23:09Z</time>
      </trkpt>
      <trkpt lat="50.13463" lon="4.31612">
        <ele>276</ele>
        <time>2021-02-28T10:23:11Z</time>
      </trkpt>
      <trkpt lat="50.13462" lon="4.31608">
        <ele>276</ele>
        <time>2021-02-28T10:23:13Z</time>
      </trkpt>
      <trkpt lat="50.1346" lon="4.31602">
        <ele>276</ele>
        <time>2021-02-28T10:23:15Z</time>
      </trkpt>
      <trkpt lat="50.13459" lon="4.31596">
        <ele>274</ele>
        <time>2021-02-28T10:23:17Z</time>
      </trkpt>
      <trkpt lat="50.13458" lon="4.31593">
        <ele>274</ele>
        <time>2021-02-28T10:23:19Z</time>
      </trkpt>
      <trkpt lat="50.13454" lon="4.31586">
        <ele>274</ele>
        <time>2021-02-28T10:25:25Z</time>
      </trkpt>
      <trkpt lat="50.13454" lon="4.31583">
        <ele>274</ele>
        <time>2021-02-28T10:25:27Z</time>
      </trkpt>
      <trkpt lat="50.1345" lon="4.31568">
        <ele>275</ele>
        <time>2021-02-28T10:25:29Z</time>
      </trkpt>
      <trkpt lat="50.13451" lon="4.31564">
        <ele>275</ele>
        <time>2021-02-28T10:25:31Z</time>
      </trkpt>
      <trkpt lat="50.13451" lon="4.31559">
        <ele>275</ele>
        <time>2021-02-28T10:25:33Z</time>
      </trkpt>
      <trkpt lat="50.13452" lon="4.31555">
        <ele>275</ele>
        <time>2021-02-28T10:25:35Z</time>
      </trkpt>
      <trkpt lat="50.13454" lon="4.31551">
        <ele>275</ele>
        <time>2021-02-28T10:25:37Z</time>
      </trkpt>
      <trkpt lat="50.13454" lon="4.31546">
        <ele>275</ele>
        <time>2021-02-28T10:25:41Z</time>
      </trkpt>
      <trkpt lat="50.13455" lon="4.31542">
        <ele>275</ele>
        <time>2021-02-28T10:25:43Z</time>
      </trkpt>
      <trkpt lat="50.13456" lon="4.31538">
        <ele>272</ele>
        <time>2021-02-28T10:25:45Z</time>
      </trkpt>
      <trkpt lat="50.13458" lon="4.31532">
        <ele>272</ele>
        <time>2021-02-28T10:25:47Z</time>
      </trkpt>
      <trkpt lat="50.1346" lon="4.31527">
        <ele>274</ele>
        <time>2021-02-28T10:25:49Z</time>
      </trkpt>
      <trkpt lat="50.1346" lon="4.31521">
        <ele>274</ele>
        <time>2021-02-28T10:25:51Z</time>
      </trkpt>
      <trkpt lat="50.13461" lon="4.31516">
        <ele>274</ele>
        <time>2021-02-28T10:25:53Z</time>
      </trkpt>
      <trkpt lat="50.13461" lon="4.31509">
        <ele>276</ele>
        <time>2021-02-28T10:25:55Z</time>
      </trkpt>
      <trkpt lat="50.13459" lon="4.31501">
        <ele>276</ele>
        <time>2021-02-28T10:25:57Z</time>
      </trkpt>
      <trkpt lat="50.1346" lon="4.31491">
        <ele>276</ele>
        <time>2021-02-28T10:25:59Z</time>
      </trkpt>
      <trkpt lat="50.13461" lon="4.3148">
        <ele>273</ele>
        <time>2021-02-28T10:26:01Z</time>
      </trkpt>
      <trkpt lat="50.13464" lon="4.31469">
        <ele>273</ele>
        <time>2021-02-28T10:26:03Z</time>
      </trkpt>
      <trkpt lat="50.13467" lon="4.31459">
        <ele>273</ele>
        <time>2021-02-28T10:26:05Z</time>
      </trkpt>
      <trkpt lat="50.13469" lon="4.3145">
        <ele>275</ele>
        <time>2021-02-28T10:26:07Z</time>
      </trkpt>
      <trkpt lat="50.13474" lon="4.3144">
        <ele>275</ele>
        <time>2021-02-28T10:26:09Z</time>
      </trkpt>
      <trkpt lat="50.13479" lon="4.31427">
        <ele>272</ele>
        <time>2021-02-28T10:26:11Z</time>
      </trkpt>
      <trkpt lat="50.13484" lon="4.31415">
        <ele>272</ele>
        <time>2021-02-28T10:26:13Z</time>
      </trkpt>
      <trkpt lat="50.13487" lon="4.31401">
        <ele>273</ele>
        <time>2021-02-28T10:26:15Z</time>
      </trkpt>
      <trkpt lat="50.13488" lon="4.3139">
        <ele>273</ele>
        <time>2021-02-28T10:26:17Z</time>
      </trkpt>
      <trkpt lat="50.13493" lon="4.31379">
        <ele>273</ele>
        <time>2021-02-28T10:26:19Z</time>
      </trkpt>
      <trkpt lat="50.13496" lon="4.31366">
        <ele>272</ele>
        <time>2021-02-28T10:26:21Z</time>
      </trkpt>
      <trkpt lat="50.135" lon="4.31352">
        <ele>272</ele>
        <time>2021-02-28T10:26:23Z</time>
      </trkpt>
      <trkpt lat="50.13498" lon="4.31339">
        <ele>272</ele>
        <time>2021-02-28T10:26:25Z</time>
      </trkpt>
      <trkpt lat="50.13495" lon="4.31329">
        <ele>272</ele>
        <time>2021-02-28T10:26:27Z</time>
      </trkpt>
      <trkpt lat="50.13494" lon="4.31317">
        <ele>272</ele>
        <time>2021-02-28T10:26:29Z</time>
      </trkpt>
      <trkpt lat="50.13491" lon="4.31303">
        <ele>272</ele>
        <time>2021-02-28T10:26:31Z</time>
      </trkpt>
      <trkpt lat="50.13487" lon="4.31277">
        <ele>271</ele>
        <time>2021-02-28T10:27:00Z</time>
      </trkpt>
      <trkpt lat="50.13489" lon="4.31281">
        <ele>271</ele>
        <time>2021-02-28T10:27:02Z</time>
      </trkpt>
      <trkpt lat="50.13493" lon="4.31286">
        <ele>271</ele>
        <time>2021-02-28T10:27:04Z</time>
      </trkpt>
      <trkpt lat="50.13496" lon="4.31287">
        <ele>271</ele>
        <time>2021-02-28T10:27:06Z</time>
      </trkpt>
      <trkpt lat="50.13501" lon="4.31281">
        <ele>271</ele>
        <time>2021-02-28T10:27:08Z</time>
      </trkpt>
      <trkpt lat="50.13507" lon="4.31274">
        <ele>271</ele>
        <time>2021-02-28T10:27:10Z</time>
      </trkpt>
      <trkpt lat="50.13512" lon="4.31265">
        <ele>271</ele>
        <time>2021-02-28T10:27:12Z</time>
      </trkpt>
      <trkpt lat="50.13517" lon="4.31255">
        <ele>270</ele>
        <time>2021-02-28T10:27:14Z</time>
      </trkpt>
      <trkpt lat="50.13521" lon="4.31247">
        <ele>270</ele>
        <time>2021-02-28T10:27:16Z</time>
      </trkpt>
      <trkpt lat="50.13525" lon="4.31239">
        <ele>270</ele>
        <time>2021-02-28T10:27:18Z</time>
      </trkpt>
      <trkpt lat="50.13531" lon="4.31229">
        <ele>270</ele>
        <time>2021-02-28T10:27:20Z</time>
      </trkpt>
      <trkpt lat="50.13536" lon="4.31218">
        <ele>270</ele>
        <time>2021-02-28T10:27:22Z</time>
      </trkpt>
      <trkpt lat="50.1354" lon="4.3121">
        <ele>270</ele>
        <time>2021-02-28T10:27:24Z</time>
      </trkpt>
      <trkpt lat="50.13544" lon="4.31199">
        <ele>268</ele>
        <time>2021-02-28T10:27:26Z</time>
      </trkpt>
      <trkpt lat="50.13548" lon="4.31188">
        <ele>268</ele>
        <time>2021-02-28T10:27:28Z</time>
      </trkpt>
      <trkpt lat="50.13551" lon="4.31177">
        <ele>268</ele>
        <time>2021-02-28T10:27:30Z</time>
      </trkpt>
      <trkpt lat="50.13556" lon="4.31165">
        <ele>268</ele>
        <time>2021-02-28T10:27:32Z</time>
      </trkpt>
      <trkpt lat="50.13562" lon="4.31154">
        <ele>268</ele>
        <time>2021-02-28T10:27:34Z</time>
      </trkpt>
      <trkpt lat="50.13567" lon="4.31141">
        <ele>270</ele>
        <time>2021-02-28T10:27:36Z</time>
      </trkpt>
      <trkpt lat="50.13572" lon="4.31129">
        <ele>269</ele>
        <time>2021-02-28T10:27:38Z</time>
      </trkpt>
      <trkpt lat="50.13577" lon="4.31118">
        <ele>270</ele>
        <time>2021-02-28T10:27:40Z</time>
      </trkpt>
      <trkpt lat="50.13583" lon="4.31108">
        <ele>270</ele>
        <time>2021-02-28T10:27:42Z</time>
      </trkpt>
      <trkpt lat="50.13589" lon="4.31096">
        <ele>270</ele>
        <time>2021-02-28T10:27:44Z</time>
      </trkpt>
      <trkpt lat="50.13594" lon="4.31084">
        <ele>270</ele>
        <time>2021-02-28T10:27:46Z</time>
      </trkpt>
      <trkpt lat="50.13602" lon="4.31072">
        <ele>268</ele>
        <time>2021-02-28T10:27:48Z</time>
      </trkpt>
      <trkpt lat="50.13611" lon="4.31058">
        <ele>268</ele>
        <time>2021-02-28T10:27:50Z</time>
      </trkpt>
      <trkpt lat="50.13622" lon="4.31047">
        <ele>268</ele>
        <time>2021-02-28T10:27:52Z</time>
      </trkpt>
      <trkpt lat="50.13633" lon="4.31032">
        <ele>266</ele>
        <time>2021-02-28T10:27:54Z</time>
      </trkpt>
      <trkpt lat="50.13646" lon="4.31018">
        <ele>266</ele>
        <time>2021-02-28T10:27:56Z</time>
      </trkpt>
      <trkpt lat="50.13659" lon="4.31005">
        <ele>263</ele>
        <time>2021-02-28T10:27:58Z</time>
      </trkpt>
      <trkpt lat="50.13673" lon="4.30992">
        <ele>263</ele>
        <time>2021-02-28T10:28:00Z</time>
      </trkpt>
      <trkpt lat="50.13687" lon="4.30975">
        <ele>261</ele>
        <time>2021-02-28T10:28:02Z</time>
      </trkpt>
      <trkpt lat="50.13702" lon="4.30958">
        <ele>260</ele>
        <time>2021-02-28T10:28:04Z</time>
      </trkpt>
      <trkpt lat="50.13716" lon="4.3094">
        <ele>258</ele>
        <time>2021-02-28T10:28:06Z</time>
      </trkpt>
      <trkpt lat="50.13731" lon="4.30922">
        <ele>258</ele>
        <time>2021-02-28T10:28:08Z</time>
      </trkpt>
      <trkpt lat="50.13745" lon="4.30901">
        <ele>256</ele>
        <time>2021-02-28T10:28:10Z</time>
      </trkpt>
      <trkpt lat="50.1376" lon="4.30879">
        <ele>256</ele>
        <time>2021-02-28T10:28:12Z</time>
      </trkpt>
      <trkpt lat="50.13777" lon="4.30859">
        <ele>252</ele>
        <time>2021-02-28T10:28:14Z</time>
      </trkpt>
      <trkpt lat="50.13793" lon="4.30837">
        <ele>248</ele>
        <time>2021-02-28T10:28:16Z</time>
      </trkpt>
      <trkpt lat="50.1381" lon="4.30815">
        <ele>248</ele>
        <time>2021-02-28T10:28:18Z</time>
      </trkpt>
      <trkpt lat="50.13824" lon="4.30791">
        <ele>245</ele>
        <time>2021-02-28T10:28:20Z</time>
      </trkpt>
      <trkpt lat="50.13838" lon="4.3077">
        <ele>245</ele>
        <time>2021-02-28T10:28:22Z</time>
      </trkpt>
      <trkpt lat="50.13853" lon="4.30751">
        <ele>244</ele>
        <time>2021-02-28T10:28:24Z</time>
      </trkpt>
      <trkpt lat="50.13867" lon="4.30732">
        <ele>243</ele>
        <time>2021-02-28T10:28:26Z</time>
      </trkpt>
      <trkpt lat="50.13881" lon="4.30714">
        <ele>240</ele>
        <time>2021-02-28T10:28:28Z</time>
      </trkpt>
      <trkpt lat="50.13894" lon="4.30696">
        <ele>242</ele>
        <time>2021-02-28T10:28:30Z</time>
      </trkpt>
      <trkpt lat="50.13907" lon="4.30678">
        <ele>240</ele>
        <time>2021-02-28T10:28:32Z</time>
      </trkpt>
      <trkpt lat="50.13919" lon="4.3066">
        <ele>240</ele>
        <time>2021-02-28T10:28:34Z</time>
      </trkpt>
      <trkpt lat="50.13931" lon="4.30643">
        <ele>240</ele>
        <time>2021-02-28T10:28:36Z</time>
      </trkpt>
      <trkpt lat="50.13942" lon="4.30628">
        <ele>239</ele>
        <time>2021-02-28T10:28:38Z</time>
      </trkpt>
      <trkpt lat="50.13953" lon="4.30614">
        <ele>240</ele>
        <time>2021-02-28T10:28:40Z</time>
      </trkpt>
      <trkpt lat="50.13964" lon="4.30599">
        <ele>238</ele>
        <time>2021-02-28T10:28:42Z</time>
      </trkpt>
      <trkpt lat="50.13973" lon="4.30586">
        <ele>238</ele>
        <time>2021-02-28T10:28:44Z</time>
      </trkpt>
      <trkpt lat="50.13982" lon="4.30577">
        <ele>238</ele>
        <time>2021-02-28T10:28:46Z</time>
      </trkpt>
      <trkpt lat="50.13989" lon="4.30573">
        <ele>238</ele>
        <time>2021-02-28T10:28:48Z</time>
      </trkpt>
      <trkpt lat="50.13992" lon="4.30567">
        <ele>237</ele>
        <time>2021-02-28T10:28:50Z</time>
      </trkpt>
      <trkpt lat="50.13992" lon="4.30558">
        <ele>237</ele>
        <time>2021-02-28T10:28:52Z</time>
      </trkpt>
      <trkpt lat="50.13991" lon="4.30547">
        <ele>237</ele>
        <time>2021-02-28T10:28:54Z</time>
      </trkpt>
      <trkpt lat="50.13987" lon="4.30538">
        <ele>237</ele>
        <time>2021-02-28T10:28:56Z</time>
      </trkpt>
      <trkpt lat="50.13982" lon="4.30532">
        <ele>238</ele>
        <time>2021-02-28T10:28:58Z</time>
      </trkpt>
      <trkpt lat="50.13979" lon="4.30529">
        <ele>238</ele>
        <time>2021-02-28T10:29:00Z</time>
      </trkpt>
      <trkpt lat="50.13976" lon="4.30523">
        <ele>238</ele>
        <time>2021-02-28T10:29:02Z</time>
      </trkpt>
      <trkpt lat="50.13974" lon="4.30517">
        <ele>238</ele>
        <time>2021-02-28T10:29:04Z</time>
      </trkpt>
      <trkpt lat="50.1397" lon="4.3051">
        <ele>238</ele>
        <time>2021-02-28T10:29:06Z</time>
      </trkpt>
      <trkpt lat="50.13966" lon="4.30503">
        <ele>238</ele>
        <time>2021-02-28T10:29:08Z</time>
      </trkpt>
      <trkpt lat="50.13961" lon="4.30485">
        <ele>237</ele>
        <time>2021-02-28T10:29:50Z</time>
      </trkpt>
      <trkpt lat="50.13961" lon="4.30479">
        <ele>237</ele>
        <time>2021-02-28T10:29:52Z</time>
      </trkpt>
      <trkpt lat="50.1396" lon="4.3047">
        <ele>237</ele>
        <time>2021-02-28T10:29:54Z</time>
      </trkpt>
      <trkpt lat="50.13961" lon="4.30463">
        <ele>237</ele>
        <time>2021-02-28T10:29:56Z</time>
      </trkpt>
      <trkpt lat="50.13959" lon="4.30456">
        <ele>236</ele>
        <time>2021-02-28T10:29:59Z</time>
      </trkpt>
      <trkpt lat="50.13958" lon="4.3045">
        <ele>236</ele>
        <time>2021-02-28T10:30:01Z</time>
      </trkpt>
      <trkpt lat="50.13956" lon="4.30445">
        <ele>237</ele>
        <time>2021-02-28T10:30:07Z</time>
      </trkpt>
      <trkpt lat="50.13954" lon="4.30443">
        <ele>237</ele>
        <time>2021-02-28T10:30:09Z</time>
      </trkpt>
      <trkpt lat="50.13951" lon="4.3044">
        <ele>237</ele>
        <time>2021-02-28T10:30:11Z</time>
      </trkpt>
      <trkpt lat="50.13948" lon="4.30436">
        <ele>237</ele>
        <time>2021-02-28T10:30:13Z</time>
      </trkpt>
      <trkpt lat="50.13946" lon="4.30431">
        <ele>237</ele>
        <time>2021-02-28T10:30:15Z</time>
      </trkpt>
      <trkpt lat="50.13944" lon="4.30429">
        <ele>237</ele>
        <time>2021-02-28T10:30:17Z</time>
      </trkpt>
      <trkpt lat="50.13941" lon="4.30423">
        <ele>237</ele>
        <time>2021-02-28T10:30:19Z</time>
      </trkpt>
      <trkpt lat="50.13939" lon="4.30416">
        <ele>237</ele>
        <time>2021-02-28T10:30:21Z</time>
      </trkpt>
      <trkpt lat="50.13939" lon="4.30411">
        <ele>237</ele>
        <time>2021-02-28T10:30:23Z</time>
      </trkpt>
      <trkpt lat="50.13937" lon="4.30405">
        <ele>237</ele>
        <time>2021-02-28T10:30:25Z</time>
      </trkpt>
      <trkpt lat="50.13936" lon="4.30398">
        <ele>236</ele>
        <time>2021-02-28T10:30:27Z</time>
      </trkpt>
      <trkpt lat="50.13933" lon="4.30391">
        <ele>236</ele>
        <time>2021-02-28T10:30:29Z</time>
      </trkpt>
      <trkpt lat="50.13928" lon="4.3038">
        <ele>237</ele>
        <time>2021-02-28T10:30:31Z</time>
      </trkpt>
      <trkpt lat="50.13921" lon="4.30373">
        <ele>237</ele>
        <time>2021-02-28T10:30:33Z</time>
      </trkpt>
      <trkpt lat="50.13915" lon="4.30366">
        <ele>237</ele>
        <time>2021-02-28T10:30:35Z</time>
      </trkpt>
      <trkpt lat="50.13911" lon="4.30358">
        <ele>237</ele>
        <time>2021-02-28T10:30:37Z</time>
      </trkpt>
      <trkpt lat="50.13907" lon="4.3035">
        <ele>237</ele>
        <time>2021-02-28T10:30:39Z</time>
      </trkpt>
      <trkpt lat="50.13903" lon="4.30341">
        <ele>236</ele>
        <time>2021-02-28T10:30:41Z</time>
      </trkpt>
      <trkpt lat="50.13897" lon="4.30336">
        <ele>237</ele>
        <time>2021-02-28T10:30:43Z</time>
      </trkpt>
      <trkpt lat="50.13892" lon="4.30329">
        <ele>237</ele>
        <time>2021-02-28T10:30:45Z</time>
      </trkpt>
      <trkpt lat="50.1389" lon="4.30319">
        <ele>238</ele>
        <time>2021-02-28T10:30:47Z</time>
      </trkpt>
      <trkpt lat="50.13885" lon="4.3031">
        <ele>238</ele>
        <time>2021-02-28T10:30:49Z</time>
      </trkpt>
      <trkpt lat="50.1388" lon="4.30302">
        <ele>238</ele>
        <time>2021-02-28T10:30:51Z</time>
      </trkpt>
      <trkpt lat="50.13878" lon="4.30295">
        <ele>238</ele>
        <time>2021-02-28T10:30:53Z</time>
      </trkpt>
      <trkpt lat="50.13878" lon="4.30286">
        <ele>236</ele>
        <time>2021-02-28T10:30:55Z</time>
      </trkpt>
      <trkpt lat="50.13875" lon="4.30276">
        <ele>237</ele>
        <time>2021-02-28T10:30:57Z</time>
      </trkpt>
      <trkpt lat="50.13872" lon="4.30264">
        <ele>237</ele>
        <time>2021-02-28T10:30:59Z</time>
      </trkpt>
      <trkpt lat="50.13868" lon="4.30253">
        <ele>237</ele>
        <time>2021-02-28T10:31:01Z</time>
      </trkpt>
      <trkpt lat="50.13864" lon="4.30243">
        <ele>237</ele>
        <time>2021-02-28T10:31:03Z</time>
      </trkpt>
      <trkpt lat="50.13859" lon="4.30232">
        <ele>236</ele>
        <time>2021-02-28T10:31:05Z</time>
      </trkpt>
      <trkpt lat="50.13857" lon="4.30223">
        <ele>236</ele>
        <time>2021-02-28T10:31:07Z</time>
      </trkpt>
      <trkpt lat="50.13855" lon="4.30212">
        <ele>236</ele>
        <time>2021-02-28T10:31:09Z</time>
      </trkpt>
      <trkpt lat="50.13851" lon="4.30205">
        <ele>235</ele>
        <time>2021-02-28T10:31:11Z</time>
      </trkpt>
      <trkpt lat="50.13848" lon="4.30194">
        <ele>235</ele>
        <time>2021-02-28T10:31:13Z</time>
      </trkpt>
      <trkpt lat="50.13846" lon="4.30184">
        <ele>236</ele>
        <time>2021-02-28T10:31:15Z</time>
      </trkpt>
      <trkpt lat="50.13845" lon="4.30178">
        <ele>235</ele>
        <time>2021-02-28T10:31:17Z</time>
      </trkpt>
      <trkpt lat="50.13844" lon="4.30173">
        <ele>235</ele>
        <time>2021-02-28T10:31:19Z</time>
      </trkpt>
      <trkpt lat="50.13841" lon="4.30168">
        <ele>235</ele>
        <time>2021-02-28T10:31:21Z</time>
      </trkpt>
      <trkpt lat="50.13838" lon="4.30159">
        <ele>235</ele>
        <time>2021-02-28T10:31:23Z</time>
      </trkpt>
      <trkpt lat="50.13836" lon="4.30149">
        <ele>234</ele>
        <time>2021-02-28T10:31:25Z</time>
      </trkpt>
      <trkpt lat="50.13835" lon="4.30141">
        <ele>234</ele>
        <time>2021-02-28T10:31:27Z</time>
      </trkpt>
      <trkpt lat="50.13833" lon="4.30129">
        <ele>234</ele>
        <time>2021-02-28T10:31:29Z</time>
      </trkpt>
      <trkpt lat="50.13831" lon="4.3012">
        <ele>234</ele>
        <time>2021-02-28T10:31:31Z</time>
      </trkpt>
      <trkpt lat="50.1383" lon="4.30109">
        <ele>234</ele>
        <time>2021-02-28T10:31:33Z</time>
      </trkpt>
      <trkpt lat="50.13829" lon="4.30096">
        <ele>233</ele>
        <time>2021-02-28T10:31:35Z</time>
      </trkpt>
      <trkpt lat="50.13829" lon="4.30083">
        <ele>233</ele>
        <time>2021-02-28T10:31:37Z</time>
      </trkpt>
      <trkpt lat="50.13829" lon="4.30072">
        <ele>233</ele>
        <time>2021-02-28T10:31:39Z</time>
      </trkpt>
      <trkpt lat="50.13831" lon="4.30065">
        <ele>232</ele>
        <time>2021-02-28T10:31:41Z</time>
      </trkpt>
      <trkpt lat="50.13831" lon="4.30056">
        <ele>232</ele>
        <time>2021-02-28T10:31:43Z</time>
      </trkpt>
      <trkpt lat="50.13833" lon="4.30048">
        <ele>232</ele>
        <time>2021-02-28T10:31:45Z</time>
      </trkpt>
      <trkpt lat="50.13832" lon="4.30037">
        <ele>232</ele>
        <time>2021-02-28T10:31:47Z</time>
      </trkpt>
      <trkpt lat="50.13833" lon="4.30026">
        <ele>232</ele>
        <time>2021-02-28T10:31:49Z</time>
      </trkpt>
      <trkpt lat="50.13837" lon="4.30017">
        <ele>232</ele>
        <time>2021-02-28T10:31:51Z</time>
      </trkpt>
      <trkpt lat="50.13841" lon="4.30012">
        <ele>232</ele>
        <time>2021-02-28T10:31:53Z</time>
      </trkpt>
      <trkpt lat="50.13845" lon="4.30005">
        <ele>232</ele>
        <time>2021-02-28T10:31:55Z</time>
      </trkpt>
      <trkpt lat="50.1385" lon="4.29999">
        <ele>228</ele>
        <time>2021-02-28T10:31:57Z</time>
      </trkpt>
      <trkpt lat="50.13857" lon="4.29994">
        <ele>228</ele>
        <time>2021-02-28T10:31:59Z</time>
      </trkpt>
      <trkpt lat="50.13863" lon="4.29988">
        <ele>228</ele>
        <time>2021-02-28T10:32:01Z</time>
      </trkpt>
      <trkpt lat="50.1387" lon="4.29983">
        <ele>227</ele>
        <time>2021-02-28T10:32:03Z</time>
      </trkpt>
      <trkpt lat="50.13877" lon="4.2998">
        <ele>225</ele>
        <time>2021-02-28T10:32:05Z</time>
      </trkpt>
      <trkpt lat="50.13885" lon="4.29977">
        <ele>225</ele>
        <time>2021-02-28T10:32:07Z</time>
      </trkpt>
      <trkpt lat="50.13893" lon="4.29973">
        <ele>225</ele>
        <time>2021-02-28T10:32:09Z</time>
      </trkpt>
      <trkpt lat="50.13901" lon="4.29969">
        <ele>225</ele>
        <time>2021-02-28T10:32:11Z</time>
      </trkpt>
      <trkpt lat="50.1391" lon="4.29965">
        <ele>224</ele>
        <time>2021-02-28T10:32:13Z</time>
      </trkpt>
      <trkpt lat="50.13919" lon="4.2996">
        <ele>224</ele>
        <time>2021-02-28T10:32:15Z</time>
      </trkpt>
      <trkpt lat="50.13927" lon="4.29955">
        <ele>224</ele>
        <time>2021-02-28T10:32:17Z</time>
      </trkpt>
      <trkpt lat="50.13936" lon="4.29951">
        <ele>225</ele>
        <time>2021-02-28T10:32:19Z</time>
      </trkpt>
      <trkpt lat="50.13944" lon="4.29947">
        <ele>225</ele>
        <time>2021-02-28T10:32:21Z</time>
      </trkpt>
      <trkpt lat="50.13952" lon="4.29943">
        <ele>225</ele>
        <time>2021-02-28T10:32:23Z</time>
      </trkpt>
      <trkpt lat="50.1396" lon="4.29939">
        <ele>226</ele>
        <time>2021-02-28T10:32:25Z</time>
      </trkpt>
      <trkpt lat="50.13968" lon="4.29935">
        <ele>226</ele>
        <time>2021-02-28T10:32:27Z</time>
      </trkpt>
      <trkpt lat="50.13975" lon="4.29932">
        <ele>226</ele>
        <time>2021-02-28T10:32:29Z</time>
      </trkpt>
      <trkpt lat="50.13982" lon="4.2993">
        <ele>225</ele>
        <time>2021-02-28T10:32:31Z</time>
      </trkpt>
      <trkpt lat="50.1399" lon="4.29928">
        <ele>226</ele>
        <time>2021-02-28T10:32:33Z</time>
      </trkpt>
      <trkpt lat="50.13997" lon="4.29927">
        <ele>226</ele>
        <time>2021-02-28T10:32:35Z</time>
      </trkpt>
      <trkpt lat="50.14005" lon="4.29926">
        <ele>226</ele>
        <time>2021-02-28T10:32:37Z</time>
      </trkpt>
      <trkpt lat="50.14012" lon="4.29927">
        <ele>226</ele>
        <time>2021-02-28T10:32:39Z</time>
      </trkpt>
      <trkpt lat="50.1402" lon="4.29926">
        <ele>226</ele>
        <time>2021-02-28T10:32:41Z</time>
      </trkpt>
      <trkpt lat="50.14027" lon="4.29926">
        <ele>226</ele>
        <time>2021-02-28T10:32:43Z</time>
      </trkpt>
      <trkpt lat="50.14035" lon="4.29927">
        <ele>226</ele>
        <time>2021-02-28T10:32:45Z</time>
      </trkpt>
      <trkpt lat="50.14042" lon="4.29927">
        <ele>226</ele>
        <time>2021-02-28T10:32:47Z</time>
      </trkpt>
      <trkpt lat="50.14047" lon="4.29927">
        <ele>226</ele>
        <time>2021-02-28T10:32:49Z</time>
      </trkpt>
      <trkpt lat="50.1405" lon="4.29924">
        <ele>226</ele>
        <time>2021-02-28T10:32:51Z</time>
      </trkpt>
      <trkpt lat="50.14055" lon="4.29915">
        <ele>226</ele>
        <time>2021-02-28T10:32:53Z</time>
      </trkpt>
      <trkpt lat="50.14057" lon="4.29902">
        <ele>226</ele>
        <time>2021-02-28T10:32:55Z</time>
      </trkpt>
      <trkpt lat="50.14058" lon="4.29887">
        <ele>226</ele>
        <time>2021-02-28T10:32:57Z</time>
      </trkpt>
      <trkpt lat="50.14059" lon="4.2987">
        <ele>223</ele>
        <time>2021-02-28T10:32:59Z</time>
      </trkpt>
      <trkpt lat="50.1406" lon="4.29853">
        <ele>223</ele>
        <time>2021-02-28T10:33:01Z</time>
      </trkpt>
      <trkpt lat="50.14061" lon="4.29835">
        <ele>223</ele>
        <time>2021-02-28T10:33:03Z</time>
      </trkpt>
      <trkpt lat="50.14064" lon="4.29815">
        <ele>221</ele>
        <time>2021-02-28T10:33:05Z</time>
      </trkpt>
      <trkpt lat="50.14067" lon="4.29794">
        <ele>221</ele>
        <time>2021-02-28T10:33:07Z</time>
      </trkpt>
      <trkpt lat="50.14072" lon="4.29774">
        <ele>221</ele>
        <time>2021-02-28T10:33:09Z</time>
      </trkpt>
      <trkpt lat="50.14078" lon="4.29755">
        <ele>221</ele>
        <time>2021-02-28T10:33:11Z</time>
      </trkpt>
      <trkpt lat="50.14085" lon="4.29737">
        <ele>221</ele>
        <time>2021-02-28T10:33:13Z</time>
      </trkpt>
      <trkpt lat="50.14088" lon="4.29718">
        <ele>221</ele>
        <time>2021-02-28T10:33:15Z</time>
      </trkpt>
      <trkpt lat="50.14085" lon="4.29699">
        <ele>221</ele>
        <time>2021-02-28T10:33:17Z</time>
      </trkpt>
      <trkpt lat="50.14079" lon="4.29681">
        <ele>221</ele>
        <time>2021-02-28T10:33:19Z</time>
      </trkpt>
      <trkpt lat="50.14071" lon="4.29665">
        <ele>221</ele>
        <time>2021-02-28T10:33:21Z</time>
      </trkpt>
      <trkpt lat="50.14064" lon="4.2965">
        <ele>220</ele>
        <time>2021-02-28T10:33:23Z</time>
      </trkpt>
      <trkpt lat="50.14057" lon="4.29635">
        <ele>220</ele>
        <time>2021-02-28T10:33:25Z</time>
      </trkpt>
      <trkpt lat="50.14051" lon="4.29619">
        <ele>222</ele>
        <time>2021-02-28T10:33:27Z</time>
      </trkpt>
      <trkpt lat="50.14047" lon="4.29602">
        <ele>222</ele>
        <time>2021-02-28T10:33:29Z</time>
      </trkpt>
      <trkpt lat="50.14045" lon="4.29584">
        <ele>222</ele>
        <time>2021-02-28T10:33:31Z</time>
      </trkpt>
      <trkpt lat="50.14045" lon="4.29566">
        <ele>223</ele>
        <time>2021-02-28T10:33:33Z</time>
      </trkpt>
      <trkpt lat="50.14045" lon="4.29548">
        <ele>223</ele>
        <time>2021-02-28T10:33:35Z</time>
      </trkpt>
      <trkpt lat="50.14046" lon="4.29531">
        <ele>223</ele>
        <time>2021-02-28T10:33:37Z</time>
      </trkpt>
      <trkpt lat="50.14048" lon="4.29514">
        <ele>223</ele>
        <time>2021-02-28T10:33:39Z</time>
      </trkpt>
      <trkpt lat="50.14049" lon="4.29498">
        <ele>224</ele>
        <time>2021-02-28T10:33:41Z</time>
      </trkpt>
      <trkpt lat="50.1405" lon="4.29481">
        <ele>223</ele>
        <time>2021-02-28T10:33:43Z</time>
      </trkpt>
      <trkpt lat="50.1405" lon="4.29464">
        <ele>223</ele>
        <time>2021-02-28T10:33:45Z</time>
      </trkpt>
      <trkpt lat="50.14051" lon="4.29446">
        <ele>222</ele>
        <time>2021-02-28T10:33:47Z</time>
      </trkpt>
      <trkpt lat="50.14051" lon="4.29429">
        <ele>223</ele>
        <time>2021-02-28T10:33:49Z</time>
      </trkpt>
      <trkpt lat="50.14051" lon="4.29412">
        <ele>223</ele>
        <time>2021-02-28T10:33:51Z</time>
      </trkpt>
      <trkpt lat="50.14051" lon="4.29395">
        <ele>223</ele>
        <time>2021-02-28T10:33:53Z</time>
      </trkpt>
      <trkpt lat="50.14051" lon="4.29378">
        <ele>223</ele>
        <time>2021-02-28T10:33:55Z</time>
      </trkpt>
      <trkpt lat="50.1405" lon="4.29361">
        <ele>224</ele>
        <time>2021-02-28T10:33:57Z</time>
      </trkpt>
      <trkpt lat="50.14048" lon="4.29345">
        <ele>225</ele>
        <time>2021-02-28T10:33:59Z</time>
      </trkpt>
      <trkpt lat="50.14046" lon="4.29328">
        <ele>225</ele>
        <time>2021-02-28T10:34:01Z</time>
      </trkpt>
      <trkpt lat="50.14044" lon="4.29312">
        <ele>226</ele>
        <time>2021-02-28T10:34:03Z</time>
      </trkpt>
      <trkpt lat="50.14042" lon="4.29296">
        <ele>226</ele>
        <time>2021-02-28T10:34:05Z</time>
      </trkpt>
      <trkpt lat="50.1404" lon="4.2928">
        <ele>225</ele>
        <time>2021-02-28T10:34:07Z</time>
      </trkpt>
      <trkpt lat="50.14039" lon="4.29264">
        <ele>226</ele>
        <time>2021-02-28T10:34:09Z</time>
      </trkpt>
      <trkpt lat="50.14039" lon="4.29247">
        <ele>226</ele>
        <time>2021-02-28T10:34:11Z</time>
      </trkpt>
      <trkpt lat="50.14039" lon="4.29232">
        <ele>225</ele>
        <time>2021-02-28T10:34:13Z</time>
      </trkpt>
      <trkpt lat="50.14038" lon="4.29216">
        <ele>225</ele>
        <time>2021-02-28T10:34:15Z</time>
      </trkpt>
      <trkpt lat="50.14038" lon="4.292">
        <ele>227</ele>
        <time>2021-02-28T10:34:17Z</time>
      </trkpt>
      <trkpt lat="50.14038" lon="4.29184">
        <ele>227</ele>
        <time>2021-02-28T10:34:19Z</time>
      </trkpt>
      <trkpt lat="50.14039" lon="4.29168">
        <ele>227</ele>
        <time>2021-02-28T10:34:21Z</time>
      </trkpt>
      <trkpt lat="50.14039" lon="4.29152">
        <ele>228</ele>
        <time>2021-02-28T10:34:23Z</time>
      </trkpt>
      <trkpt lat="50.1404" lon="4.29136">
        <ele>228</ele>
        <time>2021-02-28T10:34:25Z</time>
      </trkpt>
      <trkpt lat="50.14041" lon="4.29121">
        <ele>228</ele>
        <time>2021-02-28T10:34:27Z</time>
      </trkpt>
      <trkpt lat="50.14043" lon="4.29105">
        <ele>229</ele>
        <time>2021-02-28T10:34:29Z</time>
      </trkpt>
      <trkpt lat="50.14045" lon="4.29089">
        <ele>229</ele>
        <time>2021-02-28T10:34:31Z</time>
      </trkpt>
      <trkpt lat="50.14048" lon="4.29074">
        <ele>229</ele>
        <time>2021-02-28T10:34:33Z</time>
      </trkpt>
      <trkpt lat="50.14051" lon="4.29059">
        <ele>228</ele>
        <time>2021-02-28T10:34:35Z</time>
      </trkpt>
      <trkpt lat="50.14056" lon="4.29046">
        <ele>228</ele>
        <time>2021-02-28T10:34:37Z</time>
      </trkpt>
      <trkpt lat="50.14062" lon="4.29031">
        <ele>228</ele>
        <time>2021-02-28T10:34:39Z</time>
      </trkpt>
      <trkpt lat="50.14068" lon="4.29017">
        <ele>228</ele>
        <time>2021-02-28T10:34:41Z</time>
      </trkpt>
      <trkpt lat="50.14074" lon="4.29002">
        <ele>228</ele>
        <time>2021-02-28T10:34:43Z</time>
      </trkpt>
      <trkpt lat="50.14082" lon="4.28987">
        <ele>228</ele>
        <time>2021-02-28T10:34:45Z</time>
      </trkpt>
      <trkpt lat="50.1409" lon="4.2897">
        <ele>228</ele>
        <time>2021-02-28T10:34:47Z</time>
      </trkpt>
      <trkpt lat="50.14101" lon="4.28953">
        <ele>227</ele>
        <time>2021-02-28T10:34:49Z</time>
      </trkpt>
      <trkpt lat="50.14112" lon="4.28935">
        <ele>227</ele>
        <time>2021-02-28T10:34:51Z</time>
      </trkpt>
      <trkpt lat="50.14124" lon="4.28918">
        <ele>227</ele>
        <time>2021-02-28T10:34:53Z</time>
      </trkpt>
      <trkpt lat="50.14134" lon="4.28901">
        <ele>227</ele>
        <time>2021-02-28T10:34:55Z</time>
      </trkpt>
      <trkpt lat="50.14143" lon="4.28885">
        <ele>227</ele>
        <time>2021-02-28T10:34:57Z</time>
      </trkpt>
      <trkpt lat="50.14152" lon="4.2887">
        <ele>227</ele>
        <time>2021-02-28T10:34:59Z</time>
      </trkpt>
      <trkpt lat="50.14159" lon="4.28855">
        <ele>227</ele>
        <time>2021-02-28T10:35:01Z</time>
      </trkpt>
      <trkpt lat="50.14167" lon="4.2884">
        <ele>228</ele>
        <time>2021-02-28T10:35:03Z</time>
      </trkpt>
      <trkpt lat="50.14174" lon="4.28827">
        <ele>228</ele>
        <time>2021-02-28T10:35:05Z</time>
      </trkpt>
      <trkpt lat="50.14179" lon="4.28814">
        <ele>229</ele>
        <time>2021-02-28T10:35:07Z</time>
      </trkpt>
      <trkpt lat="50.14185" lon="4.28801">
        <ele>230</ele>
        <time>2021-02-28T10:35:09Z</time>
      </trkpt>
      <trkpt lat="50.14191" lon="4.28788">
        <ele>231</ele>
        <time>2021-02-28T10:35:11Z</time>
      </trkpt>
      <trkpt lat="50.14198" lon="4.28774">
        <ele>231</ele>
        <time>2021-02-28T10:35:13Z</time>
      </trkpt>
      <trkpt lat="50.14204" lon="4.28761">
        <ele>233</ele>
        <time>2021-02-28T10:35:15Z</time>
      </trkpt>
      <trkpt lat="50.1421" lon="4.28747">
        <ele>233</ele>
        <time>2021-02-28T10:35:17Z</time>
      </trkpt>
      <trkpt lat="50.14216" lon="4.28734">
        <ele>234</ele>
        <time>2021-02-28T10:35:19Z</time>
      </trkpt>
      <trkpt lat="50.14221" lon="4.28722">
        <ele>234</ele>
        <time>2021-02-28T10:35:21Z</time>
      </trkpt>
      <trkpt lat="50.14226" lon="4.28711">
        <ele>234</ele>
        <time>2021-02-28T10:35:23Z</time>
      </trkpt>
      <trkpt lat="50.14232" lon="4.287">
        <ele>235</ele>
        <time>2021-02-28T10:35:25Z</time>
      </trkpt>
      <trkpt lat="50.14237" lon="4.2869">
        <ele>236</ele>
        <time>2021-02-28T10:35:27Z</time>
      </trkpt>
      <trkpt lat="50.14241" lon="4.28679">
        <ele>238</ele>
        <time>2021-02-28T10:35:29Z</time>
      </trkpt>
      <trkpt lat="50.14246" lon="4.28669">
        <ele>238</ele>
        <time>2021-02-28T10:35:31Z</time>
      </trkpt>
      <trkpt lat="50.14251" lon="4.28658">
        <ele>238</ele>
        <time>2021-02-28T10:35:33Z</time>
      </trkpt>
      <trkpt lat="50.14256" lon="4.28648">
        <ele>238</ele>
        <time>2021-02-28T10:35:35Z</time>
      </trkpt>
      <trkpt lat="50.1426" lon="4.28638">
        <ele>238</ele>
        <time>2021-02-28T10:35:37Z</time>
      </trkpt>
      <trkpt lat="50.14265" lon="4.28627">
        <ele>238</ele>
        <time>2021-02-28T10:35:39Z</time>
      </trkpt>
      <trkpt lat="50.1427" lon="4.28617">
        <ele>238</ele>
        <time>2021-02-28T10:35:41Z</time>
      </trkpt>
      <trkpt lat="50.14275" lon="4.28607">
        <ele>238</ele>
        <time>2021-02-28T10:35:43Z</time>
      </trkpt>
      <trkpt lat="50.14278" lon="4.28595">
        <ele>238</ele>
        <time>2021-02-28T10:35:45Z</time>
      </trkpt>
      <trkpt lat="50.14282" lon="4.28582">
        <ele>238</ele>
        <time>2021-02-28T10:35:47Z</time>
      </trkpt>
      <trkpt lat="50.14284" lon="4.28568">
        <ele>238</ele>
        <time>2021-02-28T10:35:49Z</time>
      </trkpt>
      <trkpt lat="50.14286" lon="4.28554">
        <ele>238</ele>
        <time>2021-02-28T10:35:51Z</time>
      </trkpt>
      <trkpt lat="50.14287" lon="4.28539">
        <ele>239</ele>
        <time>2021-02-28T10:35:53Z</time>
      </trkpt>
      <trkpt lat="50.14288" lon="4.28524">
        <ele>239</ele>
        <time>2021-02-28T10:35:55Z</time>
      </trkpt>
      <trkpt lat="50.1429" lon="4.2851">
        <ele>239</ele>
        <time>2021-02-28T10:35:57Z</time>
      </trkpt>
      <trkpt lat="50.14292" lon="4.28496">
        <ele>241</ele>
        <time>2021-02-28T10:35:59Z</time>
      </trkpt>
      <trkpt lat="50.14294" lon="4.28482">
        <ele>240</ele>
        <time>2021-02-28T10:36:01Z</time>
      </trkpt>
      <trkpt lat="50.14296" lon="4.28469">
        <ele>240</ele>
        <time>2021-02-28T10:36:03Z</time>
      </trkpt>
      <trkpt lat="50.143" lon="4.28459">
        <ele>240</ele>
        <time>2021-02-28T10:36:05Z</time>
      </trkpt>
      <trkpt lat="50.14302" lon="4.28453">
        <ele>240</ele>
        <time>2021-02-28T10:36:07Z</time>
      </trkpt>
      <trkpt lat="50.14302" lon="4.28452">
        <ele>240</ele>
        <time>2021-02-28T10:36:09Z</time>
      </trkpt>
      <trkpt lat="50.14302" lon="4.28448">
        <ele>240</ele>
        <time>2021-02-28T10:38:59Z</time>
      </trkpt>
      <trkpt lat="50.14301" lon="4.28441">
        <ele>240</ele>
        <time>2021-02-28T10:39:01Z</time>
      </trkpt>
      <trkpt lat="50.14302" lon="4.28434">
        <ele>240</ele>
        <time>2021-02-28T10:39:03Z</time>
      </trkpt>
      <trkpt lat="50.14304" lon="4.28426">
        <ele>239</ele>
        <time>2021-02-28T10:39:05Z</time>
      </trkpt>
      <trkpt lat="50.14305" lon="4.28416">
        <ele>239</ele>
        <time>2021-02-28T10:39:07Z</time>
      </trkpt>
      <trkpt lat="50.14308" lon="4.28406">
        <ele>239</ele>
        <time>2021-02-28T10:39:09Z</time>
      </trkpt>
      <trkpt lat="50.1431" lon="4.28396">
        <ele>239</ele>
        <time>2021-02-28T10:39:11Z</time>
      </trkpt>
      <trkpt lat="50.14312" lon="4.28386">
        <ele>239</ele>
        <time>2021-02-28T10:39:13Z</time>
      </trkpt>
      <trkpt lat="50.14316" lon="4.28376">
        <ele>239</ele>
        <time>2021-02-28T10:39:15Z</time>
      </trkpt>
      <trkpt lat="50.14321" lon="4.28368">
        <ele>239</ele>
        <time>2021-02-28T10:39:17Z</time>
      </trkpt>
      <trkpt lat="50.14327" lon="4.28362">
        <ele>239</ele>
        <time>2021-02-28T10:39:19Z</time>
      </trkpt>
      <trkpt lat="50.14335" lon="4.28359">
        <ele>239</ele>
        <time>2021-02-28T10:39:21Z</time>
      </trkpt>
      <trkpt lat="50.14342" lon="4.28357">
        <ele>239</ele>
        <time>2021-02-28T10:39:23Z</time>
      </trkpt>
      <trkpt lat="50.14348" lon="4.28355">
        <ele>239</ele>
        <time>2021-02-28T10:39:25Z</time>
      </trkpt>
      <trkpt lat="50.14356" lon="4.28353">
        <ele>239</ele>
        <time>2021-02-28T10:39:27Z</time>
      </trkpt>
      <trkpt lat="50.14362" lon="4.28352">
        <ele>239</ele>
        <time>2021-02-28T10:39:29Z</time>
      </trkpt>
      <trkpt lat="50.1437" lon="4.28351">
        <ele>239</ele>
        <time>2021-02-28T10:39:31Z</time>
      </trkpt>
      <trkpt lat="50.14379" lon="4.28348">
        <ele>240</ele>
        <time>2021-02-28T10:39:33Z</time>
      </trkpt>
      <trkpt lat="50.14388" lon="4.28346">
        <ele>240</ele>
        <time>2021-02-28T10:39:35Z</time>
      </trkpt>
      <trkpt lat="50.14396" lon="4.28342">
        <ele>240</ele>
        <time>2021-02-28T10:39:37Z</time>
      </trkpt>
      <trkpt lat="50.14403" lon="4.28336">
        <ele>241</ele>
        <time>2021-02-28T10:39:39Z</time>
      </trkpt>
      <trkpt lat="50.1441" lon="4.28326">
        <ele>241</ele>
        <time>2021-02-28T10:39:41Z</time>
      </trkpt>
      <trkpt lat="50.14415" lon="4.28314">
        <ele>241</ele>
        <time>2021-02-28T10:39:43Z</time>
      </trkpt>
      <trkpt lat="50.1442" lon="4.28301">
        <ele>241</ele>
        <time>2021-02-28T10:39:45Z</time>
      </trkpt>
      <trkpt lat="50.14424" lon="4.28288">
        <ele>241</ele>
        <time>2021-02-28T10:39:47Z</time>
      </trkpt>
      <trkpt lat="50.14428" lon="4.28275">
        <ele>241</ele>
        <time>2021-02-28T10:39:49Z</time>
      </trkpt>
      <trkpt lat="50.14432" lon="4.28263">
        <ele>241</ele>
        <time>2021-02-28T10:39:51Z</time>
      </trkpt>
      <trkpt lat="50.14436" lon="4.2825">
        <ele>241</ele>
        <time>2021-02-28T10:39:53Z</time>
      </trkpt>
      <trkpt lat="50.1444" lon="4.28237">
        <ele>241</ele>
        <time>2021-02-28T10:39:55Z</time>
      </trkpt>
      <trkpt lat="50.14444" lon="4.28225">
        <ele>240</ele>
        <time>2021-02-28T10:39:57Z</time>
      </trkpt>
      <trkpt lat="50.14449" lon="4.28213">
        <ele>240</ele>
        <time>2021-02-28T10:39:59Z</time>
      </trkpt>
      <trkpt lat="50.14454" lon="4.28203">
        <ele>239</ele>
        <time>2021-02-28T10:40:01Z</time>
      </trkpt>
      <trkpt lat="50.1446" lon="4.28198">
        <ele>239</ele>
        <time>2021-02-28T10:40:03Z</time>
      </trkpt>
      <trkpt lat="50.14465" lon="4.28201">
        <ele>239</ele>
        <time>2021-02-28T10:40:05Z</time>
      </trkpt>
      <trkpt lat="50.14471" lon="4.28204">
        <ele>239</ele>
        <time>2021-02-28T10:40:07Z</time>
      </trkpt>
      <trkpt lat="50.14476" lon="4.28203">
        <ele>239</ele>
        <time>2021-02-28T10:40:09Z</time>
      </trkpt>
      <trkpt lat="50.14479" lon="4.28196">
        <ele>239</ele>
        <time>2021-02-28T10:40:11Z</time>
      </trkpt>
      <trkpt lat="50.14484" lon="4.28187">
        <ele>239</ele>
        <time>2021-02-28T10:40:13Z</time>
      </trkpt>
      <trkpt lat="50.14489" lon="4.28176">
        <ele>238</ele>
        <time>2021-02-28T10:40:15Z</time>
      </trkpt>
      <trkpt lat="50.14493" lon="4.28164">
        <ele>238</ele>
        <time>2021-02-28T10:40:17Z</time>
      </trkpt>
      <trkpt lat="50.14498" lon="4.28152">
        <ele>237</ele>
        <time>2021-02-28T10:40:19Z</time>
      </trkpt>
      <trkpt lat="50.14503" lon="4.28139">
        <ele>237</ele>
        <time>2021-02-28T10:40:21Z</time>
      </trkpt>
      <trkpt lat="50.14508" lon="4.28126">
        <ele>237</ele>
        <time>2021-02-28T10:40:23Z</time>
      </trkpt>
      <trkpt lat="50.14513" lon="4.28113">
        <ele>237</ele>
        <time>2021-02-28T10:40:25Z</time>
      </trkpt>
      <trkpt lat="50.14519" lon="4.281">
        <ele>237</ele>
        <time>2021-02-28T10:40:27Z</time>
      </trkpt>
      <trkpt lat="50.14525" lon="4.28088">
        <ele>236</ele>
        <time>2021-02-28T10:40:29Z</time>
      </trkpt>
      <trkpt lat="50.14531" lon="4.28075">
        <ele>236</ele>
        <time>2021-02-28T10:40:31Z</time>
      </trkpt>
      <trkpt lat="50.14537" lon="4.28062">
        <ele>236</ele>
        <time>2021-02-28T10:40:33Z</time>
      </trkpt>
      <trkpt lat="50.14543" lon="4.28048">
        <ele>237</ele>
        <time>2021-02-28T10:40:35Z</time>
      </trkpt>
      <trkpt lat="50.1455" lon="4.28035">
        <ele>236</ele>
        <time>2021-02-28T10:40:37Z</time>
      </trkpt>
      <trkpt lat="50.14557" lon="4.28022">
        <ele>236</ele>
        <time>2021-02-28T10:40:39Z</time>
      </trkpt>
      <trkpt lat="50.14564" lon="4.28009">
        <ele>236</ele>
        <time>2021-02-28T10:40:41Z</time>
      </trkpt>
      <trkpt lat="50.14571" lon="4.27996">
        <ele>236</ele>
        <time>2021-02-28T10:40:43Z</time>
      </trkpt>
      <trkpt lat="50.14578" lon="4.27982">
        <ele>236</ele>
        <time>2021-02-28T10:40:45Z</time>
      </trkpt>
      <trkpt lat="50.14586" lon="4.27969">
        <ele>236</ele>
        <time>2021-02-28T10:40:47Z</time>
      </trkpt>
      <trkpt lat="50.14593" lon="4.27956">
        <ele>236</ele>
        <time>2021-02-28T10:40:49Z</time>
      </trkpt>
      <trkpt lat="50.146" lon="4.27943">
        <ele>239</ele>
        <time>2021-02-28T10:40:51Z</time>
      </trkpt>
      <trkpt lat="50.14607" lon="4.27929">
        <ele>238</ele>
        <time>2021-02-28T10:40:53Z</time>
      </trkpt>
      <trkpt lat="50.14615" lon="4.27915">
        <ele>238</ele>
        <time>2021-02-28T10:40:55Z</time>
      </trkpt>
      <trkpt lat="50.14622" lon="4.27902">
        <ele>237</ele>
        <time>2021-02-28T10:40:57Z</time>
      </trkpt>
      <trkpt lat="50.14629" lon="4.27889">
        <ele>241</ele>
        <time>2021-02-28T10:40:59Z</time>
      </trkpt>
      <trkpt lat="50.14636" lon="4.27875">
        <ele>240</ele>
        <time>2021-02-28T10:41:01Z</time>
      </trkpt>
      <trkpt lat="50.14644" lon="4.2786">
        <ele>240</ele>
        <time>2021-02-28T10:41:03Z</time>
      </trkpt>
      <trkpt lat="50.14651" lon="4.27847">
        <ele>239</ele>
        <time>2021-02-28T10:41:05Z</time>
      </trkpt>
      <trkpt lat="50.1466" lon="4.27833">
        <ele>244</ele>
        <time>2021-02-28T10:41:07Z</time>
      </trkpt>
      <trkpt lat="50.14667" lon="4.27819">
        <ele>243</ele>
        <time>2021-02-28T10:41:09Z</time>
      </trkpt>
      <trkpt lat="50.14676" lon="4.27806">
        <ele>243</ele>
        <time>2021-02-28T10:41:11Z</time>
      </trkpt>
      <trkpt lat="50.14684" lon="4.27792">
        <ele>247</ele>
        <time>2021-02-28T10:41:13Z</time>
      </trkpt>
      <trkpt lat="50.14692" lon="4.27778">
        <ele>246</ele>
        <time>2021-02-28T10:41:15Z</time>
      </trkpt>
      <trkpt lat="50.147" lon="4.27764">
        <ele>246</ele>
        <time>2021-02-28T10:41:17Z</time>
      </trkpt>
      <trkpt lat="50.14707" lon="4.2775">
        <ele>243</ele>
        <time>2021-02-28T10:41:19Z</time>
      </trkpt>
      <trkpt lat="50.14716" lon="4.27738">
        <ele>247</ele>
        <time>2021-02-28T10:41:21Z</time>
      </trkpt>
      <trkpt lat="50.14724" lon="4.27726">
        <ele>246</ele>
        <time>2021-02-28T10:41:23Z</time>
      </trkpt>
      <trkpt lat="50.14734" lon="4.27714">
        <ele>246</ele>
        <time>2021-02-28T10:41:25Z</time>
      </trkpt>
      <trkpt lat="50.14743" lon="4.277">
        <ele>248</ele>
        <time>2021-02-28T10:41:27Z</time>
      </trkpt>
      <trkpt lat="50.14751" lon="4.27685">
        <ele>248</ele>
        <time>2021-02-28T10:41:29Z</time>
      </trkpt>
      <trkpt lat="50.1476" lon="4.27672">
        <ele>246</ele>
        <time>2021-02-28T10:41:31Z</time>
      </trkpt>
      <trkpt lat="50.14769" lon="4.2766">
        <ele>249</ele>
        <time>2021-02-28T10:41:33Z</time>
      </trkpt>
      <trkpt lat="50.14779" lon="4.27647">
        <ele>248</ele>
        <time>2021-02-28T10:41:35Z</time>
      </trkpt>
      <trkpt lat="50.14788" lon="4.27635">
        <ele>248</ele>
        <time>2021-02-28T10:41:37Z</time>
      </trkpt>
      <trkpt lat="50.14797" lon="4.27622">
        <ele>247</ele>
        <time>2021-02-28T10:41:39Z</time>
      </trkpt>
      <trkpt lat="50.14806" lon="4.27609">
        <ele>247</ele>
        <time>2021-02-28T10:41:41Z</time>
      </trkpt>
      <trkpt lat="50.14814" lon="4.27595">
        <ele>247</ele>
        <time>2021-02-28T10:41:43Z</time>
      </trkpt>
      <trkpt lat="50.14824" lon="4.27583">
        <ele>247</ele>
        <time>2021-02-28T10:41:45Z</time>
      </trkpt>
      <trkpt lat="50.14833" lon="4.27571">
        <ele>247</ele>
        <time>2021-02-28T10:41:47Z</time>
      </trkpt>
      <trkpt lat="50.14842" lon="4.27559">
        <ele>245</ele>
        <time>2021-02-28T10:41:49Z</time>
      </trkpt>
      <trkpt lat="50.14851" lon="4.27546">
        <ele>245</ele>
        <time>2021-02-28T10:41:51Z</time>
      </trkpt>
      <trkpt lat="50.1486" lon="4.27532">
        <ele>240</ele>
        <time>2021-02-28T10:41:53Z</time>
      </trkpt>
      <trkpt lat="50.14871" lon="4.27521">
        <ele>240</ele>
        <time>2021-02-28T10:41:55Z</time>
      </trkpt>
      <trkpt lat="50.14882" lon="4.2751">
        <ele>237</ele>
        <time>2021-02-28T10:41:57Z</time>
      </trkpt>
      <trkpt lat="50.14893" lon="4.27499">
        <ele>237</ele>
        <time>2021-02-28T10:41:59Z</time>
      </trkpt>
      <trkpt lat="50.14905" lon="4.27489">
        <ele>236</ele>
        <time>2021-02-28T10:42:01Z</time>
      </trkpt>
      <trkpt lat="50.14916" lon="4.27479">
        <ele>234</ele>
        <time>2021-02-28T10:42:03Z</time>
      </trkpt>
      <trkpt lat="50.14928" lon="4.2747">
        <ele>234</ele>
        <time>2021-02-28T10:42:05Z</time>
      </trkpt>
      <trkpt lat="50.14939" lon="4.27462">
        <ele>234</ele>
        <time>2021-02-28T10:42:07Z</time>
      </trkpt>
      <trkpt lat="50.14951" lon="4.27454">
        <ele>233</ele>
        <time>2021-02-28T10:42:09Z</time>
      </trkpt>
      <trkpt lat="50.14964" lon="4.27445">
        <ele>234</ele>
        <time>2021-02-28T10:42:11Z</time>
      </trkpt>
      <trkpt lat="50.14975" lon="4.27437">
        <ele>234</ele>
        <time>2021-02-28T10:42:13Z</time>
      </trkpt>
      <trkpt lat="50.14986" lon="4.27429">
        <ele>235</ele>
        <time>2021-02-28T10:42:15Z</time>
      </trkpt>
      <trkpt lat="50.14998" lon="4.27422">
        <ele>235</ele>
        <time>2021-02-28T10:42:17Z</time>
      </trkpt>
      <trkpt lat="50.1501" lon="4.27415">
        <ele>235</ele>
        <time>2021-02-28T10:42:19Z</time>
      </trkpt>
      <trkpt lat="50.15022" lon="4.27407">
        <ele>236</ele>
        <time>2021-02-28T10:42:21Z</time>
      </trkpt>
      <trkpt lat="50.15035" lon="4.27399">
        <ele>236</ele>
        <time>2021-02-28T10:42:23Z</time>
      </trkpt>
      <trkpt lat="50.15046" lon="4.27392">
        <ele>238</ele>
        <time>2021-02-28T10:42:25Z</time>
      </trkpt>
      <trkpt lat="50.15058" lon="4.27385">
        <ele>238</ele>
        <time>2021-02-28T10:42:27Z</time>
      </trkpt>
      <trkpt lat="50.1507" lon="4.27377">
        <ele>238</ele>
        <time>2021-02-28T10:42:29Z</time>
      </trkpt>
      <trkpt lat="50.15082" lon="4.2737">
        <ele>236</ele>
        <time>2021-02-28T10:42:31Z</time>
      </trkpt>
      <trkpt lat="50.15093" lon="4.27363">
        <ele>236</ele>
        <time>2021-02-28T10:42:33Z</time>
      </trkpt>
      <trkpt lat="50.15104" lon="4.27356">
        <ele>237</ele>
        <time>2021-02-28T10:42:35Z</time>
      </trkpt>
      <trkpt lat="50.15113" lon="4.27349">
        <ele>237</ele>
        <time>2021-02-28T10:42:37Z</time>
      </trkpt>
      <trkpt lat="50.15123" lon="4.27343">
        <ele>236</ele>
        <time>2021-02-28T10:42:39Z</time>
      </trkpt>
      <trkpt lat="50.15131" lon="4.27339">
        <ele>236</ele>
        <time>2021-02-28T10:42:41Z</time>
      </trkpt>
      <trkpt lat="50.15139" lon="4.27339">
        <ele>236</ele>
        <time>2021-02-28T10:42:43Z</time>
      </trkpt>
      <trkpt lat="50.15689" lon="4.27395">
        <ele>268</ele>
      </trkpt>
      <trkpt lat="50.15788" lon="4.27214">
        <ele>268</ele>
      </trkpt>
      <trkpt lat="50.16003" lon="4.26814">
        <ele>269</ele>
      </trkpt>
      <trkpt lat="50.16013" lon="4.26815">
        <ele>269</ele>
        <time>2021-02-28T11:02:19Z</time>
      </trkpt>
      <trkpt lat="50.16011" lon="4.26807">
        <ele>269</ele>
        <time>2021-02-28T11:02:21Z</time>
      </trkpt>
      <trkpt lat="50.16008" lon="4.26801">
        <ele>269</ele>
        <time>2021-02-28T11:02:23Z</time>
      </trkpt>
      <trkpt lat="50.16005" lon="4.26794">
        <ele>269</ele>
        <time>2021-02-28T11:02:25Z</time>
      </trkpt>
      <trkpt lat="50.16002" lon="4.26787">
        <ele>269</ele>
        <time>2021-02-28T11:02:27Z</time>
      </trkpt>
      <trkpt lat="50.16001" lon="4.26781">
        <ele>269</ele>
        <time>2021-02-28T11:02:29Z</time>
      </trkpt>
      <trkpt lat="50.16001" lon="4.26773">
        <ele>269</ele>
        <time>2021-02-28T11:02:31Z</time>
      </trkpt>
      <trkpt lat="50.16001" lon="4.26765">
        <ele>269</ele>
        <time>2021-02-28T11:02:33Z</time>
      </trkpt>
      <trkpt lat="50.16" lon="4.26756">
        <ele>269</ele>
        <time>2021-02-28T11:02:35Z</time>
      </trkpt>
      <trkpt lat="50.16" lon="4.26747">
        <ele>269</ele>
        <time>2021-02-28T11:02:37Z</time>
      </trkpt>
      <trkpt lat="50.16" lon="4.26741">
        <ele>269</ele>
        <time>2021-02-28T11:02:39Z</time>
      </trkpt>
      <trkpt lat="50.16" lon="4.26734">
        <ele>269</ele>
        <time>2021-02-28T11:02:41Z</time>
      </trkpt>
      <trkpt lat="50.16" lon="4.26727">
        <ele>269</ele>
        <time>2021-02-28T11:02:43Z</time>
      </trkpt>
      <trkpt lat="50.16" lon="4.26719">
        <ele>269</ele>
        <time>2021-02-28T11:02:45Z</time>
      </trkpt>
      <trkpt lat="50.16" lon="4.26711">
        <ele>269</ele>
        <time>2021-02-28T11:02:47Z</time>
      </trkpt>
      <trkpt lat="50.16" lon="4.26702">
        <ele>269</ele>
        <time>2021-02-28T11:02:49Z</time>
      </trkpt>
      <trkpt lat="50.16" lon="4.26693">
        <ele>269</ele>
        <time>2021-02-28T11:02:51Z</time>
      </trkpt>
      <trkpt lat="50.16" lon="4.26683">
        <ele>269</ele>
        <time>2021-02-28T11:02:53Z</time>
      </trkpt>
      <trkpt lat="50.16" lon="4.26674">
        <ele>269</ele>
        <time>2021-02-28T11:02:55Z</time>
      </trkpt>
      <trkpt lat="50.16001" lon="4.26665">
        <ele>269</ele>
        <time>2021-02-28T11:02:57Z</time>
      </trkpt>
      <trkpt lat="50.16002" lon="4.26653">
        <ele>269</ele>
        <time>2021-02-28T11:02:59Z</time>
      </trkpt>
      <trkpt lat="50.16002" lon="4.2664">
        <ele>269</ele>
        <time>2021-02-28T11:03:01Z</time>
      </trkpt>
      <trkpt lat="50.16002" lon="4.26626">
        <ele>269</ele>
        <time>2021-02-28T11:03:03Z</time>
      </trkpt>
      <trkpt lat="50.16" lon="4.26613">
        <ele>269</ele>
        <time>2021-02-28T11:03:05Z</time>
      </trkpt>
      <trkpt lat="50.16" lon="4.266">
        <ele>269</ele>
        <time>2021-02-28T11:03:07Z</time>
      </trkpt>
      <trkpt lat="50.15999" lon="4.2659">
        <ele>270</ele>
        <time>2021-02-28T11:03:09Z</time>
      </trkpt>
      <trkpt lat="50.15999" lon="4.26576">
        <ele>270</ele>
        <time>2021-02-28T11:03:11Z</time>
      </trkpt>
      <trkpt lat="50.16" lon="4.26561">
        <ele>270</ele>
        <time>2021-02-28T11:03:13Z</time>
      </trkpt>
      <trkpt lat="50.16" lon="4.26546">
        <ele>270</ele>
        <time>2021-02-28T11:03:15Z</time>
      </trkpt>
      <trkpt lat="50.16001" lon="4.26534">
        <ele>272</ele>
        <time>2021-02-28T11:03:17Z</time>
      </trkpt>
      <trkpt lat="50.16002" lon="4.26518">
        <ele>272</ele>
        <time>2021-02-28T11:03:19Z</time>
      </trkpt>
      <trkpt lat="50.16003" lon="4.26501">
        <ele>272</ele>
        <time>2021-02-28T11:03:21Z</time>
      </trkpt>
      <trkpt lat="50.16004" lon="4.26485">
        <ele>272</ele>
        <time>2021-02-28T11:03:23Z</time>
      </trkpt>
      <trkpt lat="50.16005" lon="4.2647">
        <ele>272</ele>
        <time>2021-02-28T11:03:25Z</time>
      </trkpt>
      <trkpt lat="50.16004" lon="4.26456">
        <ele>272</ele>
        <time>2021-02-28T11:03:27Z</time>
      </trkpt>
      <trkpt lat="50.16001" lon="4.26444">
        <ele>272</ele>
        <time>2021-02-28T11:03:29Z</time>
      </trkpt>
      <trkpt lat="50.15996" lon="4.26437">
        <ele>272</ele>
        <time>2021-02-28T11:03:31Z</time>
      </trkpt>
      <trkpt lat="50.15993" lon="4.26429">
        <ele>271</ele>
        <time>2021-02-28T11:03:33Z</time>
      </trkpt>
      <trkpt lat="50.1599" lon="4.26418">
        <ele>271</ele>
        <time>2021-02-28T11:03:35Z</time>
      </trkpt>
      <trkpt lat="50.1599" lon="4.26406">
        <ele>271</ele>
        <time>2021-02-28T11:03:37Z</time>
      </trkpt>
      <trkpt lat="50.15991" lon="4.26394">
        <ele>271</ele>
        <time>2021-02-28T11:03:39Z</time>
      </trkpt>
      <trkpt lat="50.15994" lon="4.26384">
        <ele>271</ele>
        <time>2021-02-28T11:03:41Z</time>
      </trkpt>
      <trkpt lat="50.15999" lon="4.26372">
        <ele>270</ele>
        <time>2021-02-28T11:03:43Z</time>
      </trkpt>
      <trkpt lat="50.16" lon="4.26362">
        <ele>270</ele>
        <time>2021-02-28T11:03:45Z</time>
      </trkpt>
      <trkpt lat="50.15996" lon="4.26355">
        <ele>270</ele>
        <time>2021-02-28T11:03:47Z</time>
      </trkpt>
      <trkpt lat="50.15991" lon="4.26354">
        <ele>270</ele>
        <time>2021-02-28T11:03:49Z</time>
      </trkpt>
      <trkpt lat="50.15987" lon="4.26349">
        <ele>270</ele>
        <time>2021-02-28T11:03:51Z</time>
      </trkpt>
      <trkpt lat="50.15984" lon="4.26341">
        <ele>271</ele>
        <time>2021-02-28T11:03:53Z</time>
      </trkpt>
      <trkpt lat="50.1598" lon="4.26331">
        <ele>271</ele>
        <time>2021-02-28T11:03:55Z</time>
      </trkpt>
      <trkpt lat="50.15976" lon="4.2632">
        <ele>271</ele>
        <time>2021-02-28T11:03:57Z</time>
      </trkpt>
      <trkpt lat="50.15973" lon="4.2631">
        <ele>270</ele>
        <time>2021-02-28T11:03:59Z</time>
      </trkpt>
      <trkpt lat="50.15968" lon="4.263">
        <ele>270</ele>
        <time>2021-02-28T11:04:01Z</time>
      </trkpt>
      <trkpt lat="50.15961" lon="4.26291">
        <ele>270</ele>
        <time>2021-02-28T11:04:03Z</time>
      </trkpt>
      <trkpt lat="50.15955" lon="4.26283">
        <ele>273</ele>
        <time>2021-02-28T11:04:05Z</time>
      </trkpt>
      <trkpt lat="50.15949" lon="4.26271">
        <ele>273</ele>
        <time>2021-02-28T11:04:07Z</time>
      </trkpt>
      <trkpt lat="50.15945" lon="4.26259">
        <ele>271</ele>
        <time>2021-02-28T11:04:09Z</time>
      </trkpt>
      <trkpt lat="50.15939" lon="4.26246">
        <ele>271</ele>
        <time>2021-02-28T11:04:11Z</time>
      </trkpt>
      <trkpt lat="50.15934" lon="4.26233">
        <ele>270</ele>
        <time>2021-02-28T11:04:13Z</time>
      </trkpt>
      <trkpt lat="50.15929" lon="4.2622">
        <ele>271</ele>
        <time>2021-02-28T11:04:15Z</time>
      </trkpt>
      <trkpt lat="50.15924" lon="4.26208">
        <ele>271</ele>
        <time>2021-02-28T11:04:17Z</time>
      </trkpt>
      <trkpt lat="50.15919" lon="4.26195">
        <ele>271</ele>
        <time>2021-02-28T11:04:19Z</time>
      </trkpt>
      <trkpt lat="50.15914" lon="4.26183">
        <ele>271</ele>
        <time>2021-02-28T11:04:21Z</time>
      </trkpt>
      <trkpt lat="50.1591" lon="4.26171">
        <ele>269</ele>
        <time>2021-02-28T11:04:23Z</time>
      </trkpt>
      <trkpt lat="50.15905" lon="4.26158">
        <ele>269</ele>
        <time>2021-02-28T11:04:25Z</time>
      </trkpt>
      <trkpt lat="50.159" lon="4.26147">
        <ele>270</ele>
        <time>2021-02-28T11:04:27Z</time>
      </trkpt>
      <trkpt lat="50.15897" lon="4.26135">
        <ele>270</ele>
        <time>2021-02-28T11:04:29Z</time>
      </trkpt>
      <trkpt lat="50.15893" lon="4.26123">
        <ele>270</ele>
        <time>2021-02-28T11:04:31Z</time>
      </trkpt>
      <trkpt lat="50.15889" lon="4.26111">
        <ele>270</ele>
        <time>2021-02-28T11:04:33Z</time>
      </trkpt>
      <trkpt lat="50.15886" lon="4.26098">
        <ele>270</ele>
        <time>2021-02-28T11:04:35Z</time>
      </trkpt>
      <trkpt lat="50.15885" lon="4.26082">
        <ele>270</ele>
        <time>2021-02-28T11:04:37Z</time>
      </trkpt>
      <trkpt lat="50.15884" lon="4.26067">
        <ele>269</ele>
        <time>2021-02-28T11:04:39Z</time>
      </trkpt>
      <trkpt lat="50.15882" lon="4.26052">
        <ele>269</ele>
        <time>2021-02-28T11:04:41Z</time>
      </trkpt>
      <trkpt lat="50.15881" lon="4.26038">
        <ele>269</ele>
        <time>2021-02-28T11:04:43Z</time>
      </trkpt>
      <trkpt lat="50.15878" lon="4.26025">
        <ele>269</ele>
        <time>2021-02-28T11:04:45Z</time>
      </trkpt>
      <trkpt lat="50.15876" lon="4.26011">
        <ele>269</ele>
        <time>2021-02-28T11:04:47Z</time>
      </trkpt>
      <trkpt lat="50.15872" lon="4.25997">
        <ele>271</ele>
        <time>2021-02-28T11:04:49Z</time>
      </trkpt>
      <trkpt lat="50.15867" lon="4.25981">
        <ele>269</ele>
        <time>2021-02-28T11:04:51Z</time>
      </trkpt>
      <trkpt lat="50.15862" lon="4.25964">
        <ele>269</ele>
        <time>2021-02-28T11:04:53Z</time>
      </trkpt>
      <trkpt lat="50.15859" lon="4.25952">
        <ele>269</ele>
        <time>2021-02-28T11:04:55Z</time>
      </trkpt>
      <trkpt lat="50.15855" lon="4.25939">
        <ele>269</ele>
        <time>2021-02-28T11:04:57Z</time>
      </trkpt>
      <trkpt lat="50.15851" lon="4.25924">
        <ele>268</ele>
        <time>2021-02-28T11:04:59Z</time>
      </trkpt>
      <trkpt lat="50.15846" lon="4.2591">
        <ele>267</ele>
        <time>2021-02-28T11:05:01Z</time>
      </trkpt>
      <trkpt lat="50.15842" lon="4.25898">
        <ele>266</ele>
        <time>2021-02-28T11:05:03Z</time>
      </trkpt>
      <trkpt lat="50.15839" lon="4.25884">
        <ele>266</ele>
        <time>2021-02-28T11:05:05Z</time>
      </trkpt>
      <trkpt lat="50.15836" lon="4.2587">
        <ele>265</ele>
        <time>2021-02-28T11:05:07Z</time>
      </trkpt>
      <trkpt lat="50.15834" lon="4.25856">
        <ele>265</ele>
        <time>2021-02-28T11:05:09Z</time>
      </trkpt>
      <trkpt lat="50.15832" lon="4.25842">
        <ele>264</ele>
        <time>2021-02-28T11:05:11Z</time>
      </trkpt>
      <trkpt lat="50.15832" lon="4.25827">
        <ele>264</ele>
        <time>2021-02-28T11:05:13Z</time>
      </trkpt>
      <trkpt lat="50.1583" lon="4.25812">
        <ele>264</ele>
        <time>2021-02-28T11:05:15Z</time>
      </trkpt>
      <trkpt lat="50.15828" lon="4.25799">
        <ele>264</ele>
        <time>2021-02-28T11:05:17Z</time>
      </trkpt>
      <trkpt lat="50.15827" lon="4.25789">
        <ele>264</ele>
        <time>2021-02-28T11:05:19Z</time>
      </trkpt>
      <trkpt lat="50.15828" lon="4.2578">
        <ele>264</ele>
        <time>2021-02-28T11:05:21Z</time>
      </trkpt>
      <trkpt lat="50.1583" lon="4.25774">
        <ele>264</ele>
        <time>2021-02-28T11:05:23Z</time>
      </trkpt>
      <trkpt lat="50.15834" lon="4.25773">
        <ele>264</ele>
        <time>2021-02-28T11:05:25Z</time>
      </trkpt>
      <trkpt lat="50.15838" lon="4.25774">
        <ele>264</ele>
        <time>2021-02-28T11:05:27Z</time>
      </trkpt>
      <trkpt lat="50.15842" lon="4.25773">
        <ele>264</ele>
        <time>2021-02-28T11:05:29Z</time>
      </trkpt>
      <trkpt lat="50.15845" lon="4.25772">
        <ele>264</ele>
        <time>2021-02-28T11:05:31Z</time>
      </trkpt>
      <trkpt lat="50.15848" lon="4.25772">
        <ele>263</ele>
        <time>2021-02-28T11:05:33Z</time>
      </trkpt>
      <trkpt lat="50.15853" lon="4.25773">
        <ele>263</ele>
        <time>2021-02-28T11:05:35Z</time>
      </trkpt>
      <trkpt lat="50.15858" lon="4.25774">
        <ele>263</ele>
        <time>2021-02-28T11:05:37Z</time>
      </trkpt>
      <trkpt lat="50.15864" lon="4.25773">
        <ele>263</ele>
        <time>2021-02-28T11:05:39Z</time>
      </trkpt>
      <trkpt lat="50.15868" lon="4.25774">
        <ele>263</ele>
        <time>2021-02-28T11:05:41Z</time>
      </trkpt>
      <trkpt lat="50.15872" lon="4.25774">
        <ele>263</ele>
        <time>2021-02-28T11:05:43Z</time>
      </trkpt>
      <trkpt lat="50.15878" lon="4.25774">
        <ele>263</ele>
        <time>2021-02-28T11:05:45Z</time>
      </trkpt>
      <trkpt lat="50.15885" lon="4.25773">
        <ele>263</ele>
        <time>2021-02-28T11:05:47Z</time>
      </trkpt>
      <trkpt lat="50.15893" lon="4.25773">
        <ele>263</ele>
        <time>2021-02-28T11:05:49Z</time>
      </trkpt>
      <trkpt lat="50.15899" lon="4.25772">
        <ele>263</ele>
        <time>2021-02-28T11:05:51Z</time>
      </trkpt>
      <trkpt lat="50.15906" lon="4.25773">
        <ele>264</ele>
        <time>2021-02-28T11:05:53Z</time>
      </trkpt>
      <trkpt lat="50.15912" lon="4.25773">
        <ele>264</ele>
        <time>2021-02-28T11:05:55Z</time>
      </trkpt>
      <trkpt lat="50.15916" lon="4.25774">
        <ele>264</ele>
        <time>2021-02-28T11:05:57Z</time>
      </trkpt>
      <trkpt lat="50.15918" lon="4.25775">
        <ele>264</ele>
        <time>2021-02-28T11:05:59Z</time>
      </trkpt>
      <trkpt lat="50.15922" lon="4.25775">
        <ele>264</ele>
        <time>2021-02-28T11:06:09Z</time>
      </trkpt>
      <trkpt lat="50.15923" lon="4.25775">
        <ele>264</ele>
        <time>2021-02-28T11:06:11Z</time>
      </trkpt>
      <trkpt lat="50.15926" lon="4.25775">
        <ele>264</ele>
        <time>2021-02-28T11:06:13Z</time>
      </trkpt>
      <trkpt lat="50.15933" lon="4.25776">
        <ele>266</ele>
        <time>2021-02-28T11:06:15Z</time>
      </trkpt>
      <trkpt lat="50.15935" lon="4.25776">
        <ele>266</ele>
        <time>2021-02-28T11:06:17Z</time>
      </trkpt>
      <trkpt lat="50.15936" lon="4.25776">
        <ele>266</ele>
        <time>2021-02-28T11:06:19Z</time>
      </trkpt>
      <trkpt lat="50.15939" lon="4.25776">
        <ele>266</ele>
        <time>2021-02-28T11:06:21Z</time>
      </trkpt>
      <trkpt lat="50.15943" lon="4.25778">
        <ele>266</ele>
        <time>2021-02-28T11:06:23Z</time>
      </trkpt>
      <trkpt lat="50.15947" lon="4.25778">
        <ele>266</ele>
        <time>2021-02-28T11:06:25Z</time>
      </trkpt>
      <trkpt lat="50.15951" lon="4.2578">
        <ele>266</ele>
        <time>2021-02-28T11:06:27Z</time>
      </trkpt>
      <trkpt lat="50.15957" lon="4.25781">
        <ele>266</ele>
        <time>2021-02-28T11:06:29Z</time>
      </trkpt>
      <trkpt lat="50.15964" lon="4.25782">
        <ele>266</ele>
        <time>2021-02-28T11:06:31Z</time>
      </trkpt>
      <trkpt lat="50.15971" lon="4.25783">
        <ele>266</ele>
        <time>2021-02-28T11:06:33Z</time>
      </trkpt>
      <trkpt lat="50.15977" lon="4.25782">
        <ele>266</ele>
        <time>2021-02-28T11:06:35Z</time>
      </trkpt>
      <trkpt lat="50.15982" lon="4.25782">
        <ele>266</ele>
        <time>2021-02-28T11:06:37Z</time>
      </trkpt>
      <trkpt lat="50.1599" lon="4.25782">
        <ele>267</ele>
        <time>2021-02-28T11:06:39Z</time>
      </trkpt>
      <trkpt lat="50.15999" lon="4.25784">
        <ele>267</ele>
        <time>2021-02-28T11:06:41Z</time>
      </trkpt>
      <trkpt lat="50.16006" lon="4.25785">
        <ele>267</ele>
        <time>2021-02-28T11:06:43Z</time>
      </trkpt>
      <trkpt lat="50.16015" lon="4.25784">
        <ele>270</ele>
        <time>2021-02-28T11:06:45Z</time>
      </trkpt>
      <trkpt lat="50.16023" lon="4.25784">
        <ele>270</ele>
        <time>2021-02-28T11:06:47Z</time>
      </trkpt>
      <trkpt lat="50.16031" lon="4.25785">
        <ele>270</ele>
        <time>2021-02-28T11:06:49Z</time>
      </trkpt>
      <trkpt lat="50.1604" lon="4.25787">
        <ele>270</ele>
        <time>2021-02-28T11:06:51Z</time>
      </trkpt>
      <trkpt lat="50.16048" lon="4.25788">
        <ele>272</ele>
        <time>2021-02-28T11:06:53Z</time>
      </trkpt>
      <trkpt lat="50.16053" lon="4.25788">
        <ele>272</ele>
        <time>2021-02-28T11:06:55Z</time>
      </trkpt>
      <trkpt lat="50.16059" lon="4.25789">
        <ele>272</ele>
        <time>2021-02-28T11:06:57Z</time>
      </trkpt>
      <trkpt lat="50.16063" lon="4.2579">
        <ele>272</ele>
        <time>2021-02-28T11:06:59Z</time>
      </trkpt>
      <trkpt lat="50.16068" lon="4.25792">
        <ele>271</ele>
        <time>2021-02-28T11:07:01Z</time>
      </trkpt>
      <trkpt lat="50.16075" lon="4.25792">
        <ele>271</ele>
        <time>2021-02-28T11:07:03Z</time>
      </trkpt>
      <trkpt lat="50.1608" lon="4.25792">
        <ele>271</ele>
        <time>2021-02-28T11:07:05Z</time>
      </trkpt>
      <trkpt lat="50.16084" lon="4.25792">
        <ele>271</ele>
        <time>2021-02-28T11:07:07Z</time>
      </trkpt>
      <trkpt lat="50.16088" lon="4.25792">
        <ele>271</ele>
        <time>2021-02-28T11:07:09Z</time>
      </trkpt>
      <trkpt lat="50.16094" lon="4.25793">
        <ele>271</ele>
        <time>2021-02-28T11:07:11Z</time>
      </trkpt>
      <trkpt lat="50.16099" lon="4.25793">
        <ele>271</ele>
        <time>2021-02-28T11:07:13Z</time>
      </trkpt>
      <trkpt lat="50.16106" lon="4.25792">
        <ele>271</ele>
        <time>2021-02-28T11:07:15Z</time>
      </trkpt>
      <trkpt lat="50.16113" lon="4.25794">
        <ele>271</ele>
        <time>2021-02-28T11:07:17Z</time>
      </trkpt>
      <trkpt lat="50.16115" lon="4.25795">
        <ele>271</ele>
        <time>2021-02-28T11:07:19Z</time>
      </trkpt>
      <trkpt lat="50.16121" lon="4.25796">
        <ele>271</ele>
        <time>2021-02-28T11:07:21Z</time>
      </trkpt>
      <trkpt lat="50.16128" lon="4.25797">
        <ele>271</ele>
        <time>2021-02-28T11:07:23Z</time>
      </trkpt>
      <trkpt lat="50.16136" lon="4.25797">
        <ele>271</ele>
        <time>2021-02-28T11:07:25Z</time>
      </trkpt>
      <trkpt lat="50.16144" lon="4.25799">
        <ele>271</ele>
        <time>2021-02-28T11:07:27Z</time>
      </trkpt>
      <trkpt lat="50.16152" lon="4.25801">
        <ele>271</ele>
        <time>2021-02-28T11:07:29Z</time>
      </trkpt>
      <trkpt lat="50.16159" lon="4.25802">
        <ele>270</ele>
        <time>2021-02-28T11:07:31Z</time>
      </trkpt>
      <trkpt lat="50.16164" lon="4.25804">
        <ele>270</ele>
        <time>2021-02-28T11:07:33Z</time>
      </trkpt>
      <trkpt lat="50.1617" lon="4.25805">
        <ele>270</ele>
        <time>2021-02-28T11:07:35Z</time>
      </trkpt>
      <trkpt lat="50.16176" lon="4.25808">
        <ele>270</ele>
        <time>2021-02-28T11:07:37Z</time>
      </trkpt>
      <trkpt lat="50.16184" lon="4.25809">
        <ele>270</ele>
        <time>2021-02-28T11:07:39Z</time>
      </trkpt>
      <trkpt lat="50.16192" lon="4.25809">
        <ele>270</ele>
        <time>2021-02-28T11:07:41Z</time>
      </trkpt>
      <trkpt lat="50.16201" lon="4.25809">
        <ele>270</ele>
        <time>2021-02-28T11:07:43Z</time>
      </trkpt>
      <trkpt lat="50.1621" lon="4.25811">
        <ele>270</ele>
        <time>2021-02-28T11:07:45Z</time>
      </trkpt>
      <trkpt lat="50.1622" lon="4.25812">
        <ele>270</ele>
        <time>2021-02-28T11:07:47Z</time>
      </trkpt>
      <trkpt lat="50.1623" lon="4.25813">
        <ele>270</ele>
        <time>2021-02-28T11:07:49Z</time>
      </trkpt>
      <trkpt lat="50.16237" lon="4.25813">
        <ele>270</ele>
        <time>2021-02-28T11:07:51Z</time>
      </trkpt>
      <trkpt lat="50.16246" lon="4.25814">
        <ele>270</ele>
        <time>2021-02-28T11:07:53Z</time>
      </trkpt>
      <trkpt lat="50.16256" lon="4.25818">
        <ele>270</ele>
        <time>2021-02-28T11:07:55Z</time>
      </trkpt>
      <trkpt lat="50.16263" lon="4.25822">
        <ele>271</ele>
        <time>2021-02-28T11:07:57Z</time>
      </trkpt>
      <trkpt lat="50.16271" lon="4.25824">
        <ele>272</ele>
        <time>2021-02-28T11:07:59Z</time>
      </trkpt>
      <trkpt lat="50.1628" lon="4.25824">
        <ele>272</ele>
        <time>2021-02-28T11:08:01Z</time>
      </trkpt>
      <trkpt lat="50.16288" lon="4.25826">
        <ele>272</ele>
        <time>2021-02-28T11:08:03Z</time>
      </trkpt>
      <trkpt lat="50.16297" lon="4.25827">
        <ele>273</ele>
        <time>2021-02-28T11:08:05Z</time>
      </trkpt>
      <trkpt lat="50.16306" lon="4.25828">
        <ele>273</ele>
        <time>2021-02-28T11:08:07Z</time>
      </trkpt>
      <trkpt lat="50.16316" lon="4.25829">
        <ele>273</ele>
        <time>2021-02-28T11:08:09Z</time>
      </trkpt>
      <trkpt lat="50.16324" lon="4.25829">
        <ele>272</ele>
        <time>2021-02-28T11:08:11Z</time>
      </trkpt>
      <trkpt lat="50.16331" lon="4.25829">
        <ele>272</ele>
        <time>2021-02-28T11:08:13Z</time>
      </trkpt>
      <trkpt lat="50.1634" lon="4.25829">
        <ele>272</ele>
        <time>2021-02-28T11:08:15Z</time>
      </trkpt>
      <trkpt lat="50.16349" lon="4.2583">
        <ele>270</ele>
        <time>2021-02-28T11:08:17Z</time>
      </trkpt>
      <trkpt lat="50.16358" lon="4.25831">
        <ele>270</ele>
        <time>2021-02-28T11:08:19Z</time>
      </trkpt>
      <trkpt lat="50.16366" lon="4.25833">
        <ele>270</ele>
        <time>2021-02-28T11:08:21Z</time>
      </trkpt>
      <trkpt lat="50.16373" lon="4.25835">
        <ele>270</ele>
        <time>2021-02-28T11:08:23Z</time>
      </trkpt>
      <trkpt lat="50.16381" lon="4.25838">
        <ele>269</ele>
        <time>2021-02-28T11:08:25Z</time>
      </trkpt>
      <trkpt lat="50.16388" lon="4.25836">
        <ele>269</ele>
        <time>2021-02-28T11:08:27Z</time>
      </trkpt>
      <trkpt lat="50.16397" lon="4.25836">
        <ele>269</ele>
        <time>2021-02-28T11:08:29Z</time>
      </trkpt>
      <trkpt lat="50.16404" lon="4.25835">
        <ele>270</ele>
        <time>2021-02-28T11:08:31Z</time>
      </trkpt>
      <trkpt lat="50.16411" lon="4.25838">
        <ele>270</ele>
        <time>2021-02-28T11:08:33Z</time>
      </trkpt>
      <trkpt lat="50.1642" lon="4.25841">
        <ele>270</ele>
        <time>2021-02-28T11:08:35Z</time>
      </trkpt>
      <trkpt lat="50.16431" lon="4.25841">
        <ele>270</ele>
        <time>2021-02-28T11:08:37Z</time>
      </trkpt>
      <trkpt lat="50.16441" lon="4.2584">
        <ele>270</ele>
        <time>2021-02-28T11:08:39Z</time>
      </trkpt>
      <trkpt lat="50.16447" lon="4.2584">
        <ele>270</ele>
        <time>2021-02-28T11:08:41Z</time>
      </trkpt>
      <trkpt lat="50.16453" lon="4.25842">
        <ele>270</ele>
        <time>2021-02-28T11:08:43Z</time>
      </trkpt>
      <trkpt lat="50.16459" lon="4.25844">
        <ele>271</ele>
        <time>2021-02-28T11:08:45Z</time>
      </trkpt>
      <trkpt lat="50.16464" lon="4.25844">
        <ele>271</ele>
        <time>2021-02-28T11:08:47Z</time>
      </trkpt>
      <trkpt lat="50.16467" lon="4.25844">
        <ele>271</ele>
        <time>2021-02-28T11:08:51Z</time>
      </trkpt>
      <trkpt lat="50.16473" lon="4.25847">
        <ele>271</ele>
        <time>2021-02-28T11:09:32Z</time>
      </trkpt>
      <trkpt lat="50.16481" lon="4.2585">
        <ele>269</ele>
        <time>2021-02-28T11:09:34Z</time>
      </trkpt>
      <trkpt lat="50.16509" lon="4.25858">
        <ele>270</ele>
        <time>2021-02-28T11:09:36Z</time>
      </trkpt>
      <trkpt lat="50.16515" lon="4.25858">
        <ele>269</ele>
        <time>2021-02-28T11:09:38Z</time>
      </trkpt>
      <trkpt lat="50.1652" lon="4.25858">
        <ele>269</ele>
        <time>2021-02-28T11:09:40Z</time>
      </trkpt>
      <trkpt lat="50.16526" lon="4.25858">
        <ele>269</ele>
        <time>2021-02-28T11:09:42Z</time>
      </trkpt>
      <trkpt lat="50.16531" lon="4.25858">
        <ele>269</ele>
        <time>2021-02-28T11:09:44Z</time>
      </trkpt>
      <trkpt lat="50.16538" lon="4.25859">
        <ele>269</ele>
        <time>2021-02-28T11:09:46Z</time>
      </trkpt>
      <trkpt lat="50.16543" lon="4.25861">
        <ele>268</ele>
        <time>2021-02-28T11:09:48Z</time>
      </trkpt>
      <trkpt lat="50.16551" lon="4.25862">
        <ele>268</ele>
        <time>2021-02-28T11:09:50Z</time>
      </trkpt>
      <trkpt lat="50.16559" lon="4.25862">
        <ele>268</ele>
        <time>2021-02-28T11:09:52Z</time>
      </trkpt>
      <trkpt lat="50.16568" lon="4.25862">
        <ele>268</ele>
        <time>2021-02-28T11:09:54Z</time>
      </trkpt>
      <trkpt lat="50.16576" lon="4.25863">
        <ele>267</ele>
        <time>2021-02-28T11:09:56Z</time>
      </trkpt>
      <trkpt lat="50.16584" lon="4.25862">
        <ele>267</ele>
        <time>2021-02-28T11:09:58Z</time>
      </trkpt>
      <trkpt lat="50.16594" lon="4.25863">
        <ele>267</ele>
        <time>2021-02-28T11:10:00Z</time>
      </trkpt>
      <trkpt lat="50.16605" lon="4.25865">
        <ele>265</ele>
        <time>2021-02-28T11:10:02Z</time>
      </trkpt>
      <trkpt lat="50.16616" lon="4.25867">
        <ele>265</ele>
        <time>2021-02-28T11:10:04Z</time>
      </trkpt>
      <trkpt lat="50.16629" lon="4.25867">
        <ele>263</ele>
        <time>2021-02-28T11:10:06Z</time>
      </trkpt>
      <trkpt lat="50.16643" lon="4.25869">
        <ele>263</ele>
        <time>2021-02-28T11:10:08Z</time>
      </trkpt>
      <trkpt lat="50.16657" lon="4.25873">
        <ele>261</ele>
        <time>2021-02-28T11:10:10Z</time>
      </trkpt>
      <trkpt lat="50.1667" lon="4.25875">
        <ele>263</ele>
        <time>2021-02-28T11:10:12Z</time>
      </trkpt>
      <trkpt lat="50.16684" lon="4.25879">
        <ele>260</ele>
        <time>2021-02-28T11:10:14Z</time>
      </trkpt>
      <trkpt lat="50.16699" lon="4.25881">
        <ele>260</ele>
        <time>2021-02-28T11:10:16Z</time>
      </trkpt>
      <trkpt lat="50.16713" lon="4.25884">
        <ele>259</ele>
        <time>2021-02-28T11:10:18Z</time>
      </trkpt>
      <trkpt lat="50.16727" lon="4.25887">
        <ele>259</ele>
        <time>2021-02-28T11:10:20Z</time>
      </trkpt>
      <trkpt lat="50.16738" lon="4.25889">
        <ele>258</ele>
        <time>2021-02-28T11:10:22Z</time>
      </trkpt>
      <trkpt lat="50.16747" lon="4.25895">
        <ele>258</ele>
        <time>2021-02-28T11:10:24Z</time>
      </trkpt>
      <trkpt lat="50.16755" lon="4.25902">
        <ele>258</ele>
        <time>2021-02-28T11:10:26Z</time>
      </trkpt>
      <trkpt lat="50.16764" lon="4.25909">
        <ele>256</ele>
        <time>2021-02-28T11:10:28Z</time>
      </trkpt>
      <trkpt lat="50.16775" lon="4.25917">
        <ele>255</ele>
        <time>2021-02-28T11:10:30Z</time>
      </trkpt>
      <trkpt lat="50.16786" lon="4.25925">
        <ele>255</ele>
        <time>2021-02-28T11:10:32Z</time>
      </trkpt>
      <trkpt lat="50.16797" lon="4.25933">
        <ele>253</ele>
        <time>2021-02-28T11:10:34Z</time>
      </trkpt>
      <trkpt lat="50.16806" lon="4.25938">
        <ele>253</ele>
        <time>2021-02-28T11:10:36Z</time>
      </trkpt>
      <trkpt lat="50.16815" lon="4.2594">
        <ele>253</ele>
        <time>2021-02-28T11:10:38Z</time>
      </trkpt>
      <trkpt lat="50.16824" lon="4.25941">
        <ele>254</ele>
        <time>2021-02-28T11:10:40Z</time>
      </trkpt>
      <trkpt lat="50.16834" lon="4.25944">
        <ele>254</ele>
        <time>2021-02-28T11:10:42Z</time>
      </trkpt>
      <trkpt lat="50.16843" lon="4.25947">
        <ele>254</ele>
        <time>2021-02-28T11:10:44Z</time>
      </trkpt>
      <trkpt lat="50.16852" lon="4.2595">
        <ele>255</ele>
        <time>2021-02-28T11:10:46Z</time>
      </trkpt>
      <trkpt lat="50.1686" lon="4.25956">
        <ele>255</ele>
        <time>2021-02-28T11:10:48Z</time>
      </trkpt>
      <trkpt lat="50.16868" lon="4.25963">
        <ele>254</ele>
        <time>2021-02-28T11:10:50Z</time>
      </trkpt>
      <trkpt lat="50.16876" lon="4.25971">
        <ele>256</ele>
        <time>2021-02-28T11:10:52Z</time>
      </trkpt>
      <trkpt lat="50.16884" lon="4.25974">
        <ele>256</ele>
        <time>2021-02-28T11:10:54Z</time>
      </trkpt>
      <trkpt lat="50.1689" lon="4.25976">
        <ele>256</ele>
        <time>2021-02-28T11:10:56Z</time>
      </trkpt>
      <trkpt lat="50.16896" lon="4.25982">
        <ele>256</ele>
        <time>2021-02-28T11:10:58Z</time>
      </trkpt>
      <trkpt lat="50.16901" lon="4.25989">
        <ele>254</ele>
        <time>2021-02-28T11:11:00Z</time>
      </trkpt>
      <trkpt lat="50.16906" lon="4.25994">
        <ele>255</ele>
        <time>2021-02-28T11:11:02Z</time>
      </trkpt>
      <trkpt lat="50.16912" lon="4.26002">
        <ele>255</ele>
        <time>2021-02-28T11:11:04Z</time>
      </trkpt>
      <trkpt lat="50.16917" lon="4.26007">
        <ele>255</ele>
        <time>2021-02-28T11:11:06Z</time>
      </trkpt>
      <trkpt lat="50.16923" lon="4.26011">
        <ele>255</ele>
        <time>2021-02-28T11:11:08Z</time>
      </trkpt>
      <trkpt lat="50.16929" lon="4.26015">
        <ele>253</ele>
        <time>2021-02-28T11:11:10Z</time>
      </trkpt>
      <trkpt lat="50.16935" lon="4.26018">
        <ele>253</ele>
        <time>2021-02-28T11:11:12Z</time>
      </trkpt>
      <trkpt lat="50.16943" lon="4.26018">
        <ele>253</ele>
        <time>2021-02-28T11:11:14Z</time>
      </trkpt>
      <trkpt lat="50.1695" lon="4.2602">
        <ele>253</ele>
        <time>2021-02-28T11:11:16Z</time>
      </trkpt>
      <trkpt lat="50.16958" lon="4.26021">
        <ele>253</ele>
        <time>2021-02-28T11:11:18Z</time>
      </trkpt>
      <trkpt lat="50.16967" lon="4.26022">
        <ele>255</ele>
        <time>2021-02-28T11:11:20Z</time>
      </trkpt>
      <trkpt lat="50.16975" lon="4.26024">
        <ele>255</ele>
        <time>2021-02-28T11:11:22Z</time>
      </trkpt>
      <trkpt lat="50.16983" lon="4.26026">
        <ele>255</ele>
        <time>2021-02-28T11:11:24Z</time>
      </trkpt>
      <trkpt lat="50.1699" lon="4.26027">
        <ele>256</ele>
        <time>2021-02-28T11:11:26Z</time>
      </trkpt>
      <trkpt lat="50.16996" lon="4.26029">
        <ele>256</ele>
        <time>2021-02-28T11:11:28Z</time>
      </trkpt>
      <trkpt lat="50.17001" lon="4.2603">
        <ele>256</ele>
        <time>2021-02-28T11:11:30Z</time>
      </trkpt>
      <trkpt lat="50.17008" lon="4.26031">
        <ele>256</ele>
        <time>2021-02-28T11:11:32Z</time>
      </trkpt>
      <trkpt lat="50.17016" lon="4.26032">
        <ele>257</ele>
        <time>2021-02-28T11:11:34Z</time>
      </trkpt>
      <trkpt lat="50.17024" lon="4.26034">
        <ele>257</ele>
        <time>2021-02-28T11:11:36Z</time>
      </trkpt>
      <trkpt lat="50.17032" lon="4.26035">
        <ele>257</ele>
        <time>2021-02-28T11:11:38Z</time>
      </trkpt>
      <trkpt lat="50.17041" lon="4.26038">
        <ele>257</ele>
        <time>2021-02-28T11:11:40Z</time>
      </trkpt>
      <trkpt lat="50.1705" lon="4.2604">
        <ele>258</ele>
        <time>2021-02-28T11:11:42Z</time>
      </trkpt>
      <trkpt lat="50.17059" lon="4.26043">
        <ele>257</ele>
        <time>2021-02-28T11:11:44Z</time>
      </trkpt>
      <trkpt lat="50.17067" lon="4.26047">
        <ele>257</ele>
        <time>2021-02-28T11:11:46Z</time>
      </trkpt>
      <trkpt lat="50.17076" lon="4.26051">
        <ele>257</ele>
        <time>2021-02-28T11:11:48Z</time>
      </trkpt>
      <trkpt lat="50.17085" lon="4.26055">
        <ele>257</ele>
        <time>2021-02-28T11:11:50Z</time>
      </trkpt>
      <trkpt lat="50.17094" lon="4.26058">
        <ele>257</ele>
        <time>2021-02-28T11:11:52Z</time>
      </trkpt>
      <trkpt lat="50.17103" lon="4.26061">
        <ele>258</ele>
        <time>2021-02-28T11:11:54Z</time>
      </trkpt>
      <trkpt lat="50.17111" lon="4.26067">
        <ele>258</ele>
        <time>2021-02-28T11:11:56Z</time>
      </trkpt>
      <trkpt lat="50.1712" lon="4.26071">
        <ele>255</ele>
        <time>2021-02-28T11:11:58Z</time>
      </trkpt>
      <trkpt lat="50.1713" lon="4.26076">
        <ele>255</ele>
        <time>2021-02-28T11:12:00Z</time>
      </trkpt>
      <trkpt lat="50.17139" lon="4.2608">
        <ele>255</ele>
        <time>2021-02-28T11:12:02Z</time>
      </trkpt>
      <trkpt lat="50.17147" lon="4.26085">
        <ele>255</ele>
        <time>2021-02-28T11:12:04Z</time>
      </trkpt>
      <trkpt lat="50.17156" lon="4.2609">
        <ele>254</ele>
        <time>2021-02-28T11:12:06Z</time>
      </trkpt>
      <trkpt lat="50.17164" lon="4.26096">
        <ele>254</ele>
        <time>2021-02-28T11:12:08Z</time>
      </trkpt>
      <trkpt lat="50.17172" lon="4.26103">
        <ele>252</ele>
        <time>2021-02-28T11:12:10Z</time>
      </trkpt>
      <trkpt lat="50.17181" lon="4.26108">
        <ele>251</ele>
        <time>2021-02-28T11:12:12Z</time>
      </trkpt>
      <trkpt lat="50.17189" lon="4.26115">
        <ele>251</ele>
        <time>2021-02-28T11:12:14Z</time>
      </trkpt>
      <trkpt lat="50.17197" lon="4.26121">
        <ele>251</ele>
        <time>2021-02-28T11:12:16Z</time>
      </trkpt>
      <trkpt lat="50.17207" lon="4.26128">
        <ele>249</ele>
        <time>2021-02-28T11:12:18Z</time>
      </trkpt>
      <trkpt lat="50.17216" lon="4.26136">
        <ele>248</ele>
        <time>2021-02-28T11:12:20Z</time>
      </trkpt>
      <trkpt lat="50.17225" lon="4.26144">
        <ele>248</ele>
        <time>2021-02-28T11:12:22Z</time>
      </trkpt>
      <trkpt lat="50.17234" lon="4.26152">
        <ele>248</ele>
        <time>2021-02-28T11:12:24Z</time>
      </trkpt>
      <trkpt lat="50.17244" lon="4.2616">
        <ele>248</ele>
        <time>2021-02-28T11:12:26Z</time>
      </trkpt>
      <trkpt lat="50.17254" lon="4.26168">
        <ele>248</ele>
        <time>2021-02-28T11:12:28Z</time>
      </trkpt>
      <trkpt lat="50.17262" lon="4.26177">
        <ele>248</ele>
        <time>2021-02-28T11:12:30Z</time>
      </trkpt>
      <trkpt lat="50.17272" lon="4.26185">
        <ele>247</ele>
        <time>2021-02-28T11:12:32Z</time>
      </trkpt>
      <trkpt lat="50.17281" lon="4.26193">
        <ele>247</ele>
        <time>2021-02-28T11:12:34Z</time>
      </trkpt>
      <trkpt lat="50.1729" lon="4.26202">
        <ele>247</ele>
        <time>2021-02-28T11:12:36Z</time>
      </trkpt>
      <trkpt lat="50.17299" lon="4.2621">
        <ele>247</ele>
        <time>2021-02-28T11:12:38Z</time>
      </trkpt>
      <trkpt lat="50.17307" lon="4.26217">
        <ele>247</ele>
        <time>2021-02-28T11:12:40Z</time>
      </trkpt>
      <trkpt lat="50.17315" lon="4.26224">
        <ele>247</ele>
        <time>2021-02-28T11:12:42Z</time>
      </trkpt>
      <trkpt lat="50.17322" lon="4.26231">
        <ele>247</ele>
        <time>2021-02-28T11:12:44Z</time>
      </trkpt>
      <trkpt lat="50.17329" lon="4.26237">
        <ele>247</ele>
        <time>2021-02-28T11:12:46Z</time>
      </trkpt>
      <trkpt lat="50.17336" lon="4.26239">
        <ele>247</ele>
        <time>2021-02-28T11:12:48Z</time>
      </trkpt>
      <trkpt lat="50.17342" lon="4.26233">
        <ele>247</ele>
        <time>2021-02-28T11:12:50Z</time>
      </trkpt>
      <trkpt lat="50.17347" lon="4.26223">
        <ele>246</ele>
        <time>2021-02-28T11:12:52Z</time>
      </trkpt>
      <trkpt lat="50.17353" lon="4.26212">
        <ele>246</ele>
        <time>2021-02-28T11:12:54Z</time>
      </trkpt>
      <trkpt lat="50.17359" lon="4.26201">
        <ele>246</ele>
        <time>2021-02-28T11:12:56Z</time>
      </trkpt>
      <trkpt lat="50.17365" lon="4.2619">
        <ele>246</ele>
        <time>2021-02-28T11:12:58Z</time>
      </trkpt>
      <trkpt lat="50.1737" lon="4.26179">
        <ele>246</ele>
        <time>2021-02-28T11:13:00Z</time>
      </trkpt>
      <trkpt lat="50.17375" lon="4.26168">
        <ele>247</ele>
        <time>2021-02-28T11:13:02Z</time>
      </trkpt>
      <trkpt lat="50.17381" lon="4.26157">
        <ele>247</ele>
        <time>2021-02-28T11:13:04Z</time>
      </trkpt>
      <trkpt lat="50.17387" lon="4.26147">
        <ele>247</ele>
        <time>2021-02-28T11:13:06Z</time>
      </trkpt>
      <trkpt lat="50.17393" lon="4.26135">
        <ele>247</ele>
        <time>2021-02-28T11:13:08Z</time>
      </trkpt>
      <trkpt lat="50.17399" lon="4.26124">
        <ele>249</ele>
        <time>2021-02-28T11:13:10Z</time>
      </trkpt>
      <trkpt lat="50.17404" lon="4.26113">
        <ele>249</ele>
        <time>2021-02-28T11:13:12Z</time>
      </trkpt>
      <trkpt lat="50.1741" lon="4.26101">
        <ele>249</ele>
        <time>2021-02-28T11:13:14Z</time>
      </trkpt>
      <trkpt lat="50.17416" lon="4.26089">
        <ele>250</ele>
        <time>2021-02-28T11:13:16Z</time>
      </trkpt>
      <trkpt lat="50.17422" lon="4.26078">
        <ele>250</ele>
        <time>2021-02-28T11:13:18Z</time>
      </trkpt>
      <trkpt lat="50.17426" lon="4.26065">
        <ele>253</ele>
        <time>2021-02-28T11:13:20Z</time>
      </trkpt>
      <trkpt lat="50.17429" lon="4.26054">
        <ele>253</ele>
        <time>2021-02-28T11:13:22Z</time>
      </trkpt>
      <trkpt lat="50.17432" lon="4.26042">
        <ele>251</ele>
        <time>2021-02-28T11:13:24Z</time>
      </trkpt>
      <trkpt lat="50.17434" lon="4.26032">
        <ele>252</ele>
        <time>2021-02-28T11:13:26Z</time>
      </trkpt>
      <trkpt lat="50.17435" lon="4.2602">
        <ele>252</ele>
        <time>2021-02-28T11:13:28Z</time>
      </trkpt>
      <trkpt lat="50.17436" lon="4.26007">
        <ele>255</ele>
        <time>2021-02-28T11:13:30Z</time>
      </trkpt>
      <trkpt lat="50.17437" lon="4.25995">
        <ele>255</ele>
        <time>2021-02-28T11:13:32Z</time>
      </trkpt>
      <trkpt lat="50.17437" lon="4.25982">
        <ele>254</ele>
        <time>2021-02-28T11:13:34Z</time>
      </trkpt>
      <trkpt lat="50.17437" lon="4.25968">
        <ele>254</ele>
        <time>2021-02-28T11:13:36Z</time>
      </trkpt>
      <trkpt lat="50.17437" lon="4.25954">
        <ele>255</ele>
        <time>2021-02-28T11:13:38Z</time>
      </trkpt>
      <trkpt lat="50.17439" lon="4.25941">
        <ele>255</ele>
        <time>2021-02-28T11:13:40Z</time>
      </trkpt>
      <trkpt lat="50.1744" lon="4.25927">
        <ele>254</ele>
        <time>2021-02-28T11:13:42Z</time>
      </trkpt>
      <trkpt lat="50.17442" lon="4.25914">
        <ele>254</ele>
        <time>2021-02-28T11:13:44Z</time>
      </trkpt>
      <trkpt lat="50.17444" lon="4.25901">
        <ele>256</ele>
        <time>2021-02-28T11:13:46Z</time>
      </trkpt>
      <trkpt lat="50.17445" lon="4.25889">
        <ele>256</ele>
        <time>2021-02-28T11:13:48Z</time>
      </trkpt>
      <trkpt lat="50.17447" lon="4.25876">
        <ele>256</ele>
        <time>2021-02-28T11:13:50Z</time>
      </trkpt>
      <trkpt lat="50.17448" lon="4.25862">
        <ele>253</ele>
        <time>2021-02-28T11:13:52Z</time>
      </trkpt>
      <trkpt lat="50.1745" lon="4.25847">
        <ele>255</ele>
        <time>2021-02-28T11:13:54Z</time>
      </trkpt>
      <trkpt lat="50.17451" lon="4.25834">
        <ele>255</ele>
        <time>2021-02-28T11:13:56Z</time>
      </trkpt>
      <trkpt lat="50.17453" lon="4.25822">
        <ele>255</ele>
        <time>2021-02-28T11:13:58Z</time>
      </trkpt>
      <trkpt lat="50.17455" lon="4.25808">
        <ele>251</ele>
        <time>2021-02-28T11:14:00Z</time>
      </trkpt>
      <trkpt lat="50.17457" lon="4.25796">
        <ele>251</ele>
        <time>2021-02-28T11:14:02Z</time>
      </trkpt>
      <trkpt lat="50.17458" lon="4.25781">
        <ele>251</ele>
        <time>2021-02-28T11:14:04Z</time>
      </trkpt>
      <trkpt lat="50.17457" lon="4.25769">
        <ele>251</ele>
        <time>2021-02-28T11:14:06Z</time>
      </trkpt>
      <trkpt lat="50.17459" lon="4.25762">
        <ele>248</ele>
        <time>2021-02-28T11:14:08Z</time>
      </trkpt>
      <trkpt lat="50.17462" lon="4.25751">
        <ele>248</ele>
        <time>2021-02-28T11:14:10Z</time>
      </trkpt>
      <trkpt lat="50.17466" lon="4.25741">
        <ele>248</ele>
        <time>2021-02-28T11:14:12Z</time>
      </trkpt>
      <trkpt lat="50.17471" lon="4.25731">
        <ele>249</ele>
        <time>2021-02-28T11:14:14Z</time>
      </trkpt>
      <trkpt lat="50.17476" lon="4.25723">
        <ele>249</ele>
        <time>2021-02-28T11:14:16Z</time>
      </trkpt>
      <trkpt lat="50.17479" lon="4.25713">
        <ele>249</ele>
        <time>2021-02-28T11:14:18Z</time>
      </trkpt>
      <trkpt lat="50.17484" lon="4.25704">
        <ele>247</ele>
        <time>2021-02-28T11:14:20Z</time>
      </trkpt>
      <trkpt lat="50.17488" lon="4.25696">
        <ele>248</ele>
        <time>2021-02-28T11:14:22Z</time>
      </trkpt>
      <trkpt lat="50.17491" lon="4.25689">
        <ele>248</ele>
        <time>2021-02-28T11:14:24Z</time>
      </trkpt>
      <trkpt lat="50.17493" lon="4.25685">
        <ele>248</ele>
        <time>2021-02-28T11:14:26Z</time>
      </trkpt>
      <trkpt lat="50.17495" lon="4.25682">
        <ele>248</ele>
        <time>2021-02-28T11:14:28Z</time>
      </trkpt>
      <trkpt lat="50.17495" lon="4.2568">
        <ele>248</ele>
        <time>2021-02-28T11:14:32Z</time>
      </trkpt>
      <trkpt lat="50.17497" lon="4.25677">
        <ele>248</ele>
        <time>2021-02-28T11:14:34Z</time>
      </trkpt>
      <trkpt lat="50.17499" lon="4.25673">
        <ele>248</ele>
        <time>2021-02-28T11:14:36Z</time>
      </trkpt>
      <trkpt lat="50.17501" lon="4.25669">
        <ele>248</ele>
        <time>2021-02-28T11:14:40Z</time>
      </trkpt>
      <trkpt lat="50.17502" lon="4.25666">
        <ele>248</ele>
        <time>2021-02-28T11:14:42Z</time>
      </trkpt>
      <trkpt lat="50.17503" lon="4.25663">
        <ele>248</ele>
        <time>2021-02-28T11:14:44Z</time>
      </trkpt>
      <trkpt lat="50.17504" lon="4.2566">
        <ele>248</ele>
        <time>2021-02-28T11:14:46Z</time>
      </trkpt>
      <trkpt lat="50.17505" lon="4.25656">
        <ele>248</ele>
        <time>2021-02-28T11:14:48Z</time>
      </trkpt>
      <trkpt lat="50.17507" lon="4.25653">
        <ele>248</ele>
        <time>2021-02-28T11:14:50Z</time>
      </trkpt>
      <trkpt lat="50.17508" lon="4.25649">
        <ele>249</ele>
        <time>2021-02-28T11:14:52Z</time>
      </trkpt>
      <trkpt lat="50.1751" lon="4.25646">
        <ele>249</ele>
        <time>2021-02-28T11:14:54Z</time>
      </trkpt>
      <trkpt lat="50.17511" lon="4.25643">
        <ele>249</ele>
        <time>2021-02-28T11:14:56Z</time>
      </trkpt>
      <trkpt lat="50.17513" lon="4.2564">
        <ele>249</ele>
        <time>2021-02-28T11:14:58Z</time>
      </trkpt>
      <trkpt lat="50.17514" lon="4.25636">
        <ele>247</ele>
        <time>2021-02-28T11:15:00Z</time>
      </trkpt>
      <trkpt lat="50.17516" lon="4.25633">
        <ele>247</ele>
        <time>2021-02-28T11:15:02Z</time>
      </trkpt>
      <trkpt lat="50.17517" lon="4.2563">
        <ele>247</ele>
        <time>2021-02-28T11:15:04Z</time>
      </trkpt>
      <trkpt lat="50.17518" lon="4.25628">
        <ele>247</ele>
        <time>2021-02-28T11:15:06Z</time>
      </trkpt>
      <trkpt lat="50.1752" lon="4.25625">
        <ele>248</ele>
        <time>2021-02-28T11:15:08Z</time>
      </trkpt>
      <trkpt lat="50.17522" lon="4.25622">
        <ele>248</ele>
        <time>2021-02-28T11:15:10Z</time>
      </trkpt>
      <trkpt lat="50.17523" lon="4.25618">
        <ele>248</ele>
        <time>2021-02-28T11:15:12Z</time>
      </trkpt>
      <trkpt lat="50.17524" lon="4.25615">
        <ele>248</ele>
        <time>2021-02-28T11:15:14Z</time>
      </trkpt>
      <trkpt lat="50.17526" lon="4.25612">
        <ele>248</ele>
        <time>2021-02-28T11:15:16Z</time>
      </trkpt>
      <trkpt lat="50.17527" lon="4.25609">
        <ele>248</ele>
        <time>2021-02-28T11:15:18Z</time>
      </trkpt>
      <trkpt lat="50.17529" lon="4.25606">
        <ele>248</ele>
        <time>2021-02-28T11:15:20Z</time>
      </trkpt>
      <trkpt lat="50.17529" lon="4.25604">
        <ele>248</ele>
        <time>2021-02-28T11:15:22Z</time>
      </trkpt>
      <trkpt lat="50.1753" lon="4.25601">
        <ele>248</ele>
        <time>2021-02-28T11:15:24Z</time>
      </trkpt>
      <trkpt lat="50.17531" lon="4.25598">
        <ele>248</ele>
        <time>2021-02-28T11:15:26Z</time>
      </trkpt>
      <trkpt lat="50.17533" lon="4.25596">
        <ele>248</ele>
        <time>2021-02-28T11:15:28Z</time>
      </trkpt>
      <trkpt lat="50.17533" lon="4.25593">
        <ele>248</ele>
        <time>2021-02-28T11:15:30Z</time>
      </trkpt>
      <trkpt lat="50.17534" lon="4.2559">
        <ele>248</ele>
        <time>2021-02-28T11:15:32Z</time>
      </trkpt>
      <trkpt lat="50.17536" lon="4.25587">
        <ele>248</ele>
        <time>2021-02-28T11:15:34Z</time>
      </trkpt>
      <trkpt lat="50.17537" lon="4.25584">
        <ele>248</ele>
        <time>2021-02-28T11:15:36Z</time>
      </trkpt>
      <trkpt lat="50.17539" lon="4.25581">
        <ele>248</ele>
        <time>2021-02-28T11:15:38Z</time>
      </trkpt>
      <trkpt lat="50.1754" lon="4.25578">
        <ele>248</ele>
        <time>2021-02-28T11:15:40Z</time>
      </trkpt>
      <trkpt lat="50.17541" lon="4.25576">
        <ele>248</ele>
        <time>2021-02-28T11:15:42Z</time>
      </trkpt>
      <trkpt lat="50.17542" lon="4.25573">
        <ele>244</ele>
        <time>2021-02-28T11:15:44Z</time>
      </trkpt>
      <trkpt lat="50.17543" lon="4.2557">
        <ele>244</ele>
        <time>2021-02-28T11:15:46Z</time>
      </trkpt>
      <trkpt lat="50.17545" lon="4.25567">
        <ele>244</ele>
        <time>2021-02-28T11:15:48Z</time>
      </trkpt>
      <trkpt lat="50.17547" lon="4.25562">
        <ele>244</ele>
        <time>2021-02-28T11:15:50Z</time>
      </trkpt>
      <trkpt lat="50.1755" lon="4.25557">
        <ele>244</ele>
        <time>2021-02-28T11:15:52Z</time>
      </trkpt>
      <trkpt lat="50.17552" lon="4.25552">
        <ele>244</ele>
        <time>2021-02-28T11:15:54Z</time>
      </trkpt>
      <trkpt lat="50.17553" lon="4.25545">
        <ele>244</ele>
        <time>2021-02-28T11:15:56Z</time>
      </trkpt>
      <trkpt lat="50.17554" lon="4.25538">
        <ele>244</ele>
        <time>2021-02-28T11:15:58Z</time>
      </trkpt>
      <trkpt lat="50.17553" lon="4.25531">
        <ele>244</ele>
        <time>2021-02-28T11:16:00Z</time>
      </trkpt>
      <trkpt lat="50.17551" lon="4.25527">
        <ele>244</ele>
        <time>2021-02-28T11:16:02Z</time>
      </trkpt>
      <trkpt lat="50.17549" lon="4.2552">
        <ele>244</ele>
        <time>2021-02-28T11:16:04Z</time>
      </trkpt>
      <trkpt lat="50.17546" lon="4.25513">
        <ele>245</ele>
        <time>2021-02-28T11:16:06Z</time>
      </trkpt>
      <trkpt lat="50.17542" lon="4.25503">
        <ele>245</ele>
        <time>2021-02-28T11:16:08Z</time>
      </trkpt>
      <trkpt lat="50.17539" lon="4.25494">
        <ele>248</ele>
        <time>2021-02-28T11:16:10Z</time>
      </trkpt>
      <trkpt lat="50.17535" lon="4.25484">
        <ele>247</ele>
        <time>2021-02-28T11:16:12Z</time>
      </trkpt>
      <trkpt lat="50.17531" lon="4.2548">
        <ele>247</ele>
        <time>2021-02-28T11:16:14Z</time>
      </trkpt>
      <trkpt lat="50.17527" lon="4.25477">
        <ele>247</ele>
        <time>2021-02-28T11:16:16Z</time>
      </trkpt>
      <trkpt lat="50.17523" lon="4.2547">
        <ele>247</ele>
        <time>2021-02-28T11:16:28Z</time>
      </trkpt>
      <trkpt lat="50.17518" lon="4.25463">
        <ele>247</ele>
        <time>2021-02-28T11:16:30Z</time>
      </trkpt>
      <trkpt lat="50.17514" lon="4.25453">
        <ele>246</ele>
        <time>2021-02-28T11:16:32Z</time>
      </trkpt>
      <trkpt lat="50.17509" lon="4.25445">
        <ele>249</ele>
        <time>2021-02-28T11:16:34Z</time>
      </trkpt>
      <trkpt lat="50.17504" lon="4.25436">
        <ele>249</ele>
        <time>2021-02-28T11:16:36Z</time>
      </trkpt>
      <trkpt lat="50.17501" lon="4.25426">
        <ele>248</ele>
        <time>2021-02-28T11:16:38Z</time>
      </trkpt>
      <trkpt lat="50.17501" lon="4.25417">
        <ele>248</ele>
        <time>2021-02-28T11:16:40Z</time>
      </trkpt>
      <trkpt lat="50.17499" lon="4.25406">
        <ele>248</ele>
        <time>2021-02-28T11:16:42Z</time>
      </trkpt>
      <trkpt lat="50.17495" lon="4.25398">
        <ele>248</ele>
        <time>2021-02-28T11:16:44Z</time>
      </trkpt>
      <trkpt lat="50.17495" lon="4.25391">
        <ele>248</ele>
        <time>2021-02-28T11:16:46Z</time>
      </trkpt>
      <trkpt lat="50.17497" lon="4.25387">
        <ele>248</ele>
        <time>2021-02-28T11:16:48Z</time>
      </trkpt>
      <trkpt lat="50.17499" lon="4.25384">
        <ele>248</ele>
        <time>2021-02-28T11:16:50Z</time>
      </trkpt>
      <trkpt lat="50.17503" lon="4.2537">
        <ele>247</ele>
        <time>2021-02-28T11:17:20Z</time>
      </trkpt>
      <trkpt lat="50.17506" lon="4.25369">
        <ele>247</ele>
        <time>2021-02-28T11:17:22Z</time>
      </trkpt>
      <trkpt lat="50.17509" lon="4.2537">
        <ele>247</ele>
        <time>2021-02-28T11:17:24Z</time>
      </trkpt>
      <trkpt lat="50.17514" lon="4.25368">
        <ele>247</ele>
        <time>2021-02-28T11:17:26Z</time>
      </trkpt>
      <trkpt lat="50.17518" lon="4.25368">
        <ele>245</ele>
        <time>2021-02-28T11:17:28Z</time>
      </trkpt>
      <trkpt lat="50.17524" lon="4.25364">
        <ele>245</ele>
        <time>2021-02-28T11:17:30Z</time>
      </trkpt>
      <trkpt lat="50.17531" lon="4.25366">
        <ele>245</ele>
        <time>2021-02-28T11:17:32Z</time>
      </trkpt>
      <trkpt lat="50.17537" lon="4.25369">
        <ele>245</ele>
        <time>2021-02-28T11:17:34Z</time>
      </trkpt>
      <trkpt lat="50.17544" lon="4.25371">
        <ele>243</ele>
        <time>2021-02-28T11:17:36Z</time>
      </trkpt>
      <trkpt lat="50.1755" lon="4.25375">
        <ele>243</ele>
        <time>2021-02-28T11:17:38Z</time>
      </trkpt>
      <trkpt lat="50.17559" lon="4.25375">
        <ele>243</ele>
        <time>2021-02-28T11:17:40Z</time>
      </trkpt>
      <trkpt lat="50.1757" lon="4.25368">
        <ele>240</ele>
        <time>2021-02-28T11:17:42Z</time>
      </trkpt>
      <trkpt lat="50.17581" lon="4.25353">
        <ele>240</ele>
        <time>2021-02-28T11:17:44Z</time>
      </trkpt>
      <trkpt lat="50.17595" lon="4.25339">
        <ele>240</ele>
        <time>2021-02-28T11:17:46Z</time>
      </trkpt>
      <trkpt lat="50.17607" lon="4.2533">
        <ele>236</ele>
        <time>2021-02-28T11:17:48Z</time>
      </trkpt>
      <trkpt lat="50.17616" lon="4.25323">
        <ele>236</ele>
        <time>2021-02-28T11:17:50Z</time>
      </trkpt>
      <trkpt lat="50.17626" lon="4.25315">
        <ele>229</ele>
        <time>2021-02-28T11:17:52Z</time>
      </trkpt>
      <trkpt lat="50.17637" lon="4.25309">
        <ele>229</ele>
        <time>2021-02-28T11:17:54Z</time>
      </trkpt>
      <trkpt lat="50.17648" lon="4.25304">
        <ele>229</ele>
        <time>2021-02-28T11:17:56Z</time>
      </trkpt>
      <trkpt lat="50.17652" lon="4.25303">
        <ele>229</ele>
        <time>2021-02-28T11:17:58Z</time>
      </trkpt>
      <trkpt lat="50.17656" lon="4.25302">
        <ele>227</ele>
        <time>2021-02-28T11:18:00Z</time>
      </trkpt>
      <trkpt lat="50.17659" lon="4.25303">
        <ele>227</ele>
        <time>2021-02-28T11:18:02Z</time>
      </trkpt>
      <trkpt lat="50.17663" lon="4.25306">
        <ele>227</ele>
        <time>2021-02-28T11:18:04Z</time>
      </trkpt>
      <trkpt lat="50.17669" lon="4.25314">
        <ele>227</ele>
        <time>2021-02-28T11:18:06Z</time>
      </trkpt>
      <trkpt lat="50.17674" lon="4.25324">
        <ele>228</ele>
        <time>2021-02-28T11:18:08Z</time>
      </trkpt>
      <trkpt lat="50.17681" lon="4.25333">
        <ele>224</ele>
        <time>2021-02-28T11:18:10Z</time>
      </trkpt>
      <trkpt lat="50.17686" lon="4.25344">
        <ele>224</ele>
        <time>2021-02-28T11:18:12Z</time>
      </trkpt>
      <trkpt lat="50.17692" lon="4.25354">
        <ele>226</ele>
        <time>2021-02-28T11:18:14Z</time>
      </trkpt>
      <trkpt lat="50.17701" lon="4.25365">
        <ele>226</ele>
        <time>2021-02-28T11:18:16Z</time>
      </trkpt>
      <trkpt lat="50.17707" lon="4.25375">
        <ele>226</ele>
        <time>2021-02-28T11:18:18Z</time>
      </trkpt>
      <trkpt lat="50.17711" lon="4.25383">
        <ele>223</ele>
        <time>2021-02-28T11:18:20Z</time>
      </trkpt>
      <trkpt lat="50.17716" lon="4.25395">
        <ele>223</ele>
        <time>2021-02-28T11:18:22Z</time>
      </trkpt>
      <trkpt lat="50.17719" lon="4.25405">
        <ele>223</ele>
        <time>2021-02-28T11:18:24Z</time>
      </trkpt>
      <trkpt lat="50.17723" lon="4.25411">
        <ele>223</ele>
        <time>2021-02-28T11:18:26Z</time>
      </trkpt>
      <trkpt lat="50.17728" lon="4.25421">
        <ele>223</ele>
        <time>2021-02-28T11:18:28Z</time>
      </trkpt>
      <trkpt lat="50.17735" lon="4.25429">
        <ele>223</ele>
        <time>2021-02-28T11:18:30Z</time>
      </trkpt>
      <trkpt lat="50.17742" lon="4.25438">
        <ele>218</ele>
        <time>2021-02-28T11:18:32Z</time>
      </trkpt>
      <trkpt lat="50.17748" lon="4.25445">
        <ele>218</ele>
        <time>2021-02-28T11:18:34Z</time>
      </trkpt>
      <trkpt lat="50.17753" lon="4.25453">
        <ele>218</ele>
        <time>2021-02-28T11:18:36Z</time>
      </trkpt>
      <trkpt lat="50.17755" lon="4.25457">
        <ele>218</ele>
        <time>2021-02-28T11:18:38Z</time>
      </trkpt>
      <trkpt lat="50.17757" lon="4.25458">
        <ele>218</ele>
        <time>2021-02-28T11:18:40Z</time>
      </trkpt>
      <trkpt lat="50.17758" lon="4.25456">
        <ele>218</ele>
        <time>2021-02-28T11:18:42Z</time>
      </trkpt>
      <trkpt lat="50.17756" lon="4.25455">
        <ele>218</ele>
        <time>2021-02-28T11:18:44Z</time>
      </trkpt>
      <trkpt lat="50.17754" lon="4.25456">
        <ele>218</ele>
        <time>2021-02-28T11:18:46Z</time>
      </trkpt>
      <trkpt lat="50.17751" lon="4.25457">
        <ele>218</ele>
        <time>2021-02-28T11:18:48Z</time>
      </trkpt>
      <trkpt lat="50.17749" lon="4.25458">
        <ele>218</ele>
        <time>2021-02-28T11:18:50Z</time>
      </trkpt>
      <trkpt lat="50.17745" lon="4.25461">
        <ele>219</ele>
        <time>2021-02-28T11:18:52Z</time>
      </trkpt>
      <trkpt lat="50.17745" lon="4.25468">
        <ele>219</ele>
        <time>2021-02-28T11:18:54Z</time>
      </trkpt>
      <trkpt lat="50.17743" lon="4.25477">
        <ele>219</ele>
        <time>2021-02-28T11:18:56Z</time>
      </trkpt>
      <trkpt lat="50.17743" lon="4.25484">
        <ele>219</ele>
        <time>2021-02-28T11:18:58Z</time>
      </trkpt>
      <trkpt lat="50.17741" lon="4.25491">
        <ele>217</ele>
        <time>2021-02-28T11:19:00Z</time>
      </trkpt>
      <trkpt lat="50.17742" lon="4.25497">
        <ele>217</ele>
        <time>2021-02-28T11:19:02Z</time>
      </trkpt>
      <trkpt lat="50.17742" lon="4.25503">
        <ele>217</ele>
        <time>2021-02-28T11:19:04Z</time>
      </trkpt>
      <trkpt lat="50.17742" lon="4.25511">
        <ele>217</ele>
        <time>2021-02-28T11:19:06Z</time>
      </trkpt>
      <trkpt lat="50.17745" lon="4.25519">
        <ele>218</ele>
        <time>2021-02-28T11:19:08Z</time>
      </trkpt>
      <trkpt lat="50.17746" lon="4.25529">
        <ele>218</ele>
        <time>2021-02-28T11:19:10Z</time>
      </trkpt>
      <trkpt lat="50.17749" lon="4.25543">
        <ele>216</ele>
        <time>2021-02-28T11:19:12Z</time>
      </trkpt>
      <trkpt lat="50.17751" lon="4.25557">
        <ele>216</ele>
        <time>2021-02-28T11:19:14Z</time>
      </trkpt>
      <trkpt lat="50.17753" lon="4.2557">
        <ele>218</ele>
        <time>2021-02-28T11:19:16Z</time>
      </trkpt>
      <trkpt lat="50.17756" lon="4.25584">
        <ele>218</ele>
        <time>2021-02-28T11:19:18Z</time>
      </trkpt>
      <trkpt lat="50.17758" lon="4.25598">
        <ele>218</ele>
        <time>2021-02-28T11:19:20Z</time>
      </trkpt>
      <trkpt lat="50.17762" lon="4.25607">
        <ele>218</ele>
        <time>2021-02-28T11:19:22Z</time>
      </trkpt>
      <trkpt lat="50.17763" lon="4.25619">
        <ele>218</ele>
        <time>2021-02-28T11:19:24Z</time>
      </trkpt>
      <trkpt lat="50.17767" lon="4.25629">
        <ele>216</ele>
        <time>2021-02-28T11:19:26Z</time>
      </trkpt>
      <trkpt lat="50.1777" lon="4.2564">
        <ele>216</ele>
        <time>2021-02-28T11:19:28Z</time>
      </trkpt>
      <trkpt lat="50.17775" lon="4.25645">
        <ele>216</ele>
        <time>2021-02-28T11:19:30Z</time>
      </trkpt>
      <trkpt lat="50.17779" lon="4.25648">
        <ele>216</ele>
        <time>2021-02-28T11:19:32Z</time>
      </trkpt>
      <trkpt lat="50.17785" lon="4.25652">
        <ele>216</ele>
        <time>2021-02-28T11:19:34Z</time>
      </trkpt>
      <trkpt lat="50.17787" lon="4.25656">
        <ele>215</ele>
        <time>2021-02-28T11:19:36Z</time>
      </trkpt>
      <trkpt lat="50.17789" lon="4.25664">
        <ele>215</ele>
        <time>2021-02-28T11:19:38Z</time>
      </trkpt>
      <trkpt lat="50.17791" lon="4.25671">
        <ele>215</ele>
        <time>2021-02-28T11:19:40Z</time>
      </trkpt>
      <trkpt lat="50.17796" lon="4.25681">
        <ele>215</ele>
        <time>2021-02-28T11:19:42Z</time>
      </trkpt>
      <trkpt lat="50.17799" lon="4.25689">
        <ele>215</ele>
        <time>2021-02-28T11:19:44Z</time>
      </trkpt>
      <trkpt lat="50.17804" lon="4.25697">
        <ele>215</ele>
        <time>2021-02-28T11:19:46Z</time>
      </trkpt>
      <trkpt lat="50.17809" lon="4.25708">
        <ele>215</ele>
        <time>2021-02-28T11:19:48Z</time>
      </trkpt>
      <trkpt lat="50.17812" lon="4.25718">
        <ele>217</ele>
        <time>2021-02-28T11:19:50Z</time>
      </trkpt>
      <trkpt lat="50.17816" lon="4.25726">
        <ele>217</ele>
        <time>2021-02-28T11:19:52Z</time>
      </trkpt>
      <trkpt lat="50.17822" lon="4.25734">
        <ele>211</ele>
        <time>2021-02-28T11:19:54Z</time>
      </trkpt>
      <trkpt lat="50.17832" lon="4.25748">
        <ele>215</ele>
        <time>2021-02-28T11:19:56Z</time>
      </trkpt>
      <trkpt lat="50.17839" lon="4.25761">
        <ele>215</ele>
        <time>2021-02-28T11:19:58Z</time>
      </trkpt>
      <trkpt lat="50.17845" lon="4.25772">
        <ele>218</ele>
        <time>2021-02-28T11:20:00Z</time>
      </trkpt>
      <trkpt lat="50.17852" lon="4.25785">
        <ele>213</ele>
        <time>2021-02-28T11:20:02Z</time>
      </trkpt>
      <trkpt lat="50.17856" lon="4.25798">
        <ele>216</ele>
        <time>2021-02-28T11:20:04Z</time>
      </trkpt>
      <trkpt lat="50.17859" lon="4.25811">
        <ele>216</ele>
        <time>2021-02-28T11:20:06Z</time>
      </trkpt>
      <trkpt lat="50.17863" lon="4.25824">
        <ele>218</ele>
        <time>2021-02-28T11:20:08Z</time>
      </trkpt>
      <trkpt lat="50.17867" lon="4.25834">
        <ele>218</ele>
        <time>2021-02-28T11:20:10Z</time>
      </trkpt>
      <trkpt lat="50.1787" lon="4.25842">
        <ele>218</ele>
        <time>2021-02-28T11:20:12Z</time>
      </trkpt>
      <trkpt lat="50.17873" lon="4.25852">
        <ele>220</ele>
        <time>2021-02-28T11:20:14Z</time>
      </trkpt>
      <trkpt lat="50.17875" lon="4.25863">
        <ele>220</ele>
        <time>2021-02-28T11:20:16Z</time>
      </trkpt>
      <trkpt lat="50.17878" lon="4.25872">
        <ele>215</ele>
        <time>2021-02-28T11:20:18Z</time>
      </trkpt>
      <trkpt lat="50.17883" lon="4.25881">
        <ele>217</ele>
        <time>2021-02-28T11:20:20Z</time>
      </trkpt>
      <trkpt lat="50.17888" lon="4.25889">
        <ele>217</ele>
        <time>2021-02-28T11:20:22Z</time>
      </trkpt>
      <trkpt lat="50.17893" lon="4.259">
        <ele>217</ele>
        <time>2021-02-28T11:20:24Z</time>
      </trkpt>
      <trkpt lat="50.17898" lon="4.25912">
        <ele>219</ele>
        <time>2021-02-28T11:20:26Z</time>
      </trkpt>
      <trkpt lat="50.17901" lon="4.25925">
        <ele>219</ele>
        <time>2021-02-28T11:20:28Z</time>
      </trkpt>
      <trkpt lat="50.17906" lon="4.25938">
        <ele>216</ele>
        <time>2021-02-28T11:20:30Z</time>
      </trkpt>
      <trkpt lat="50.1791" lon="4.2595">
        <ele>216</ele>
        <time>2021-02-28T11:20:32Z</time>
      </trkpt>
      <trkpt lat="50.17917" lon="4.25962">
        <ele>218</ele>
        <time>2021-02-28T11:20:34Z</time>
      </trkpt>
      <trkpt lat="50.17923" lon="4.25971">
        <ele>218</ele>
        <time>2021-02-28T11:20:36Z</time>
      </trkpt>
      <trkpt lat="50.17929" lon="4.2598">
        <ele>218</ele>
        <time>2021-02-28T11:20:38Z</time>
      </trkpt>
      <trkpt lat="50.17933" lon="4.25988">
        <ele>212</ele>
        <time>2021-02-28T11:20:40Z</time>
      </trkpt>
      <trkpt lat="50.17938" lon="4.25994">
        <ele>212</ele>
        <time>2021-02-28T11:20:42Z</time>
      </trkpt>
      <trkpt lat="50.17942" lon="4.26005">
        <ele>212</ele>
        <time>2021-02-28T11:20:44Z</time>
      </trkpt>
      <trkpt lat="50.17947" lon="4.26017">
        <ele>215</ele>
        <time>2021-02-28T11:20:46Z</time>
      </trkpt>
      <trkpt lat="50.17952" lon="4.26031">
        <ele>215</ele>
        <time>2021-02-28T11:20:48Z</time>
      </trkpt>
      <trkpt lat="50.17958" lon="4.26041">
        <ele>215</ele>
        <time>2021-02-28T11:20:50Z</time>
      </trkpt>
      <trkpt lat="50.17964" lon="4.26048">
        <ele>210</ele>
        <time>2021-02-28T11:20:52Z</time>
      </trkpt>
      <trkpt lat="50.17969" lon="4.26059">
        <ele>210</ele>
        <time>2021-02-28T11:20:54Z</time>
      </trkpt>
      <trkpt lat="50.17975" lon="4.2607">
        <ele>213</ele>
        <time>2021-02-28T11:20:56Z</time>
      </trkpt>
      <trkpt lat="50.17983" lon="4.26082">
        <ele>213</ele>
        <time>2021-02-28T11:20:58Z</time>
      </trkpt>
      <trkpt lat="50.1799" lon="4.26094">
        <ele>210</ele>
        <time>2021-02-28T11:21:00Z</time>
      </trkpt>
      <trkpt lat="50.17997" lon="4.26105">
        <ele>212</ele>
        <time>2021-02-28T11:21:02Z</time>
      </trkpt>
      <trkpt lat="50.18004" lon="4.26118">
        <ele>212</ele>
        <time>2021-02-28T11:21:04Z</time>
      </trkpt>
      <trkpt lat="50.1801" lon="4.26127">
        <ele>217</ele>
        <time>2021-02-28T11:21:06Z</time>
      </trkpt>
      <trkpt lat="50.18016" lon="4.26136">
        <ele>214</ele>
        <time>2021-02-28T11:21:08Z</time>
      </trkpt>
      <trkpt lat="50.18022" lon="4.26145">
        <ele>214</ele>
        <time>2021-02-28T11:21:10Z</time>
      </trkpt>
      <trkpt lat="50.18028" lon="4.26154">
        <ele>213</ele>
        <time>2021-02-28T11:21:12Z</time>
      </trkpt>
      <trkpt lat="50.18033" lon="4.26162">
        <ele>213</ele>
        <time>2021-02-28T11:21:14Z</time>
      </trkpt>
      <trkpt lat="50.18037" lon="4.26169">
        <ele>213</ele>
        <time>2021-02-28T11:21:16Z</time>
      </trkpt>
      <trkpt lat="50.18044" lon="4.26178">
        <ele>208</ele>
        <time>2021-02-28T11:21:18Z</time>
      </trkpt>
      <trkpt lat="50.18049" lon="4.26189">
        <ele>214</ele>
        <time>2021-02-28T11:21:20Z</time>
      </trkpt>
      <trkpt lat="50.18054" lon="4.26198">
        <ele>214</ele>
        <time>2021-02-28T11:21:22Z</time>
      </trkpt>
      <trkpt lat="50.18059" lon="4.26207">
        <ele>214</ele>
        <time>2021-02-28T11:21:24Z</time>
      </trkpt>
      <trkpt lat="50.18063" lon="4.26215">
        <ele>214</ele>
        <time>2021-02-28T11:21:26Z</time>
      </trkpt>
      <trkpt lat="50.18068" lon="4.2622">
        <ele>214</ele>
        <time>2021-02-28T11:21:28Z</time>
      </trkpt>
      <trkpt lat="50.18071" lon="4.26222">
        <ele>207</ele>
        <time>2021-02-28T11:21:30Z</time>
      </trkpt>
      <trkpt lat="50.18074" lon="4.26221">
        <ele>207</ele>
        <time>2021-02-28T11:21:32Z</time>
      </trkpt>
      <trkpt lat="50.18077" lon="4.2622">
        <ele>207</ele>
        <time>2021-02-28T11:21:34Z</time>
      </trkpt>
      <trkpt lat="50.18084" lon="4.26215">
        <ele>207</ele>
        <time>2021-02-28T11:21:36Z</time>
      </trkpt>
      <trkpt lat="50.18088" lon="4.26214">
        <ele>207</ele>
        <time>2021-02-28T11:21:38Z</time>
      </trkpt>
      <trkpt lat="50.18092" lon="4.26213">
        <ele>207</ele>
        <time>2021-02-28T11:21:40Z</time>
      </trkpt>
      <trkpt lat="50.18095" lon="4.26212">
        <ele>207</ele>
        <time>2021-02-28T11:21:42Z</time>
      </trkpt>
      <trkpt lat="50.18099" lon="4.26213">
        <ele>206</ele>
        <time>2021-02-28T11:21:44Z</time>
      </trkpt>
      <trkpt lat="50.18101" lon="4.26215">
        <ele>206</ele>
        <time>2021-02-28T11:21:50Z</time>
      </trkpt>
      <trkpt lat="50.18103" lon="4.26221">
        <ele>206</ele>
        <time>2021-02-28T11:25:15Z</time>
      </trkpt>
      <trkpt lat="50.18108" lon="4.26223">
        <ele>206</ele>
        <time>2021-02-28T11:25:17Z</time>
      </trkpt>
      <trkpt lat="50.18114" lon="4.26228">
        <ele>206</ele>
        <time>2021-02-28T11:25:19Z</time>
      </trkpt>
      <trkpt lat="50.18118" lon="4.26231">
        <ele>206</ele>
        <time>2021-02-28T11:25:21Z</time>
      </trkpt>
      <trkpt lat="50.18121" lon="4.26237">
        <ele>209</ele>
        <time>2021-02-28T11:25:23Z</time>
      </trkpt>
      <trkpt lat="50.18123" lon="4.26242">
        <ele>209</ele>
        <time>2021-02-28T11:25:25Z</time>
      </trkpt>
      <trkpt lat="50.18126" lon="4.2625">
        <ele>209</ele>
        <time>2021-02-28T11:25:27Z</time>
      </trkpt>
      <trkpt lat="50.18131" lon="4.26253">
        <ele>209</ele>
        <time>2021-02-28T11:25:29Z</time>
      </trkpt>
      <trkpt lat="50.18135" lon="4.2626">
        <ele>209</ele>
        <time>2021-02-28T11:25:31Z</time>
      </trkpt>
      <trkpt lat="50.18138" lon="4.26266">
        <ele>206</ele>
        <time>2021-02-28T11:25:33Z</time>
      </trkpt>
      <trkpt lat="50.18143" lon="4.26274">
        <ele>206</ele>
        <time>2021-02-28T11:25:35Z</time>
      </trkpt>
      <trkpt lat="50.18149" lon="4.26281">
        <ele>206</ele>
        <time>2021-02-28T11:25:37Z</time>
      </trkpt>
      <trkpt lat="50.18153" lon="4.26287">
        <ele>207</ele>
        <time>2021-02-28T11:25:39Z</time>
      </trkpt>
      <trkpt lat="50.18157" lon="4.26291">
        <ele>207</ele>
        <time>2021-02-28T11:25:41Z</time>
      </trkpt>
      <trkpt lat="50.18163" lon="4.26292">
        <ele>206</ele>
        <time>2021-02-28T11:25:43Z</time>
      </trkpt>
      <trkpt lat="50.1817" lon="4.26293">
        <ele>206</ele>
        <time>2021-02-28T11:25:45Z</time>
      </trkpt>
      <trkpt lat="50.18178" lon="4.26293">
        <ele>206</ele>
        <time>2021-02-28T11:25:47Z</time>
      </trkpt>
      <trkpt lat="50.18186" lon="4.26293">
        <ele>205</ele>
        <time>2021-02-28T11:25:49Z</time>
      </trkpt>
      <trkpt lat="50.18194" lon="4.26293">
        <ele>205</ele>
        <time>2021-02-28T11:25:51Z</time>
      </trkpt>
      <trkpt lat="50.18201" lon="4.26292">
        <ele>206</ele>
        <time>2021-02-28T11:25:53Z</time>
      </trkpt>
      <trkpt lat="50.18211" lon="4.2629">
        <ele>204</ele>
        <time>2021-02-28T11:25:55Z</time>
      </trkpt>
      <trkpt lat="50.18219" lon="4.26289">
        <ele>204</ele>
        <time>2021-02-28T11:25:57Z</time>
      </trkpt>
      <trkpt lat="50.18228" lon="4.26286">
        <ele>204</ele>
        <time>2021-02-28T11:25:59Z</time>
      </trkpt>
      <trkpt lat="50.18236" lon="4.26285">
        <ele>204</ele>
        <time>2021-02-28T11:26:01Z</time>
      </trkpt>
      <trkpt lat="50.18243" lon="4.26284">
        <ele>201</ele>
        <time>2021-02-28T11:26:03Z</time>
      </trkpt>
      <trkpt lat="50.18251" lon="4.26283">
        <ele>201</ele>
        <time>2021-02-28T11:26:05Z</time>
      </trkpt>
      <trkpt lat="50.18258" lon="4.26283">
        <ele>201</ele>
        <time>2021-02-28T11:26:07Z</time>
      </trkpt>
      <trkpt lat="50.18267" lon="4.26282">
        <ele>200</ele>
        <time>2021-02-28T11:26:09Z</time>
      </trkpt>
      <trkpt lat="50.18276" lon="4.26281">
        <ele>200</ele>
        <time>2021-02-28T11:26:11Z</time>
      </trkpt>
      <trkpt lat="50.18284" lon="4.26281">
        <ele>200</ele>
        <time>2021-02-28T11:26:13Z</time>
      </trkpt>
      <trkpt lat="50.18292" lon="4.26281">
        <ele>200</ele>
        <time>2021-02-28T11:26:15Z</time>
      </trkpt>
      <trkpt lat="50.183" lon="4.2628">
        <ele>200</ele>
        <time>2021-02-28T11:26:17Z</time>
      </trkpt>
      <trkpt lat="50.18306" lon="4.26279">
        <ele>200</ele>
        <time>2021-02-28T11:26:19Z</time>
      </trkpt>
      <trkpt lat="50.18313" lon="4.26279">
        <ele>200</ele>
        <time>2021-02-28T11:26:21Z</time>
      </trkpt>
      <trkpt lat="50.18319" lon="4.26278">
        <ele>200</ele>
        <time>2021-02-28T11:26:23Z</time>
      </trkpt>
      <trkpt lat="50.18326" lon="4.26277">
        <ele>200</ele>
        <time>2021-02-28T11:26:25Z</time>
      </trkpt>
      <trkpt lat="50.18333" lon="4.26279">
        <ele>200</ele>
        <time>2021-02-28T11:26:27Z</time>
      </trkpt>
      <trkpt lat="50.1834" lon="4.26279">
        <ele>200</ele>
        <time>2021-02-28T11:26:29Z</time>
      </trkpt>
      <trkpt lat="50.18346" lon="4.26281">
        <ele>200</ele>
        <time>2021-02-28T11:26:31Z</time>
      </trkpt>
      <trkpt lat="50.18352" lon="4.26285">
        <ele>204</ele>
        <time>2021-02-28T11:26:33Z</time>
      </trkpt>
      <trkpt lat="50.18358" lon="4.26289">
        <ele>204</ele>
        <time>2021-02-28T11:26:35Z</time>
      </trkpt>
      <trkpt lat="50.18363" lon="4.26294">
        <ele>203</ele>
        <time>2021-02-28T11:26:37Z</time>
      </trkpt>
      <trkpt lat="50.18369" lon="4.26299">
        <ele>203</ele>
        <time>2021-02-28T11:26:39Z</time>
      </trkpt>
      <trkpt lat="50.18375" lon="4.26304">
        <ele>203</ele>
        <time>2021-02-28T11:26:41Z</time>
      </trkpt>
      <trkpt lat="50.18381" lon="4.26309">
        <ele>206</ele>
        <time>2021-02-28T11:26:43Z</time>
      </trkpt>
      <trkpt lat="50.18388" lon="4.26312">
        <ele>206</ele>
        <time>2021-02-28T11:26:45Z</time>
      </trkpt>
      <trkpt lat="50.18395" lon="4.26318">
        <ele>206</ele>
        <time>2021-02-28T11:26:47Z</time>
      </trkpt>
      <trkpt lat="50.18401" lon="4.26323">
        <ele>205</ele>
        <time>2021-02-28T11:26:49Z</time>
      </trkpt>
      <trkpt lat="50.18407" lon="4.26328">
        <ele>207</ele>
        <time>2021-02-28T11:26:51Z</time>
      </trkpt>
      <trkpt lat="50.18414" lon="4.26333">
        <ele>207</ele>
        <time>2021-02-28T11:26:53Z</time>
      </trkpt>
      <trkpt lat="50.18421" lon="4.26338">
        <ele>207</ele>
        <time>2021-02-28T11:26:55Z</time>
      </trkpt>
      <trkpt lat="50.18427" lon="4.26342">
        <ele>207</ele>
        <time>2021-02-28T11:26:57Z</time>
      </trkpt>
      <trkpt lat="50.18433" lon="4.26346">
        <ele>209</ele>
        <time>2021-02-28T11:26:59Z</time>
      </trkpt>
      <trkpt lat="50.18438" lon="4.26353">
        <ele>206</ele>
        <time>2021-02-28T11:27:01Z</time>
      </trkpt>
      <trkpt lat="50.18444" lon="4.2636">
        <ele>206</ele>
        <time>2021-02-28T11:27:03Z</time>
      </trkpt>
      <trkpt lat="50.18449" lon="4.26367">
        <ele>206</ele>
        <time>2021-02-28T11:27:05Z</time>
      </trkpt>
      <trkpt lat="50.18456" lon="4.26374">
        <ele>206</ele>
        <time>2021-02-28T11:27:07Z</time>
      </trkpt>
      <trkpt lat="50.18464" lon="4.26379">
        <ele>208</ele>
        <time>2021-02-28T11:27:09Z</time>
      </trkpt>
      <trkpt lat="50.18469" lon="4.26385">
        <ele>208</ele>
        <time>2021-02-28T11:27:11Z</time>
      </trkpt>
      <trkpt lat="50.18474" lon="4.26391">
        <ele>208</ele>
        <time>2021-02-28T11:27:13Z</time>
      </trkpt>
      <trkpt lat="50.18478" lon="4.26396">
        <ele>208</ele>
        <time>2021-02-28T11:27:15Z</time>
      </trkpt>
      <trkpt lat="50.18483" lon="4.26403">
        <ele>202</ele>
        <time>2021-02-28T11:27:17Z</time>
      </trkpt>
      <trkpt lat="50.18488" lon="4.26413">
        <ele>204</ele>
        <time>2021-02-28T11:27:19Z</time>
      </trkpt>
      <trkpt lat="50.18495" lon="4.26419">
        <ele>204</ele>
        <time>2021-02-28T11:27:21Z</time>
      </trkpt>
      <trkpt lat="50.185" lon="4.26429">
        <ele>204</ele>
        <time>2021-02-28T11:27:23Z</time>
      </trkpt>
      <trkpt lat="50.18506" lon="4.26443">
        <ele>200</ele>
        <time>2021-02-28T11:27:25Z</time>
      </trkpt>
      <trkpt lat="50.18512" lon="4.2646">
        <ele>200</ele>
        <time>2021-02-28T11:27:27Z</time>
      </trkpt>
      <trkpt lat="50.18518" lon="4.26478">
        <ele>200</ele>
        <time>2021-02-28T11:27:29Z</time>
      </trkpt>
      <trkpt lat="50.18524" lon="4.26495">
        <ele>198</ele>
        <time>2021-02-28T11:27:31Z</time>
      </trkpt>
      <trkpt lat="50.18531" lon="4.26513">
        <ele>198</ele>
        <time>2021-02-28T11:27:33Z</time>
      </trkpt>
      <trkpt lat="50.18538" lon="4.26531">
        <ele>197</ele>
        <time>2021-02-28T11:27:35Z</time>
      </trkpt>
      <trkpt lat="50.18543" lon="4.26548">
        <ele>197</ele>
        <time>2021-02-28T11:27:37Z</time>
      </trkpt>
      <trkpt lat="50.18549" lon="4.26563">
        <ele>197</ele>
        <time>2021-02-28T11:27:39Z</time>
      </trkpt>
      <trkpt lat="50.18558" lon="4.26574">
        <ele>194</ele>
        <time>2021-02-28T11:27:41Z</time>
      </trkpt>
      <trkpt lat="50.18568" lon="4.26576">
        <ele>194</ele>
        <time>2021-02-28T11:27:43Z</time>
      </trkpt>
      <trkpt lat="50.18578" lon="4.26569">
        <ele>195</ele>
        <time>2021-02-28T11:27:45Z</time>
      </trkpt>
      <trkpt lat="50.18588" lon="4.26559">
        <ele>195</ele>
        <time>2021-02-28T11:27:47Z</time>
      </trkpt>
      <trkpt lat="50.18597" lon="4.26548">
        <ele>191</ele>
        <time>2021-02-28T11:27:49Z</time>
      </trkpt>
      <trkpt lat="50.18606" lon="4.26535">
        <ele>193</ele>
        <time>2021-02-28T11:27:51Z</time>
      </trkpt>
      <trkpt lat="50.18615" lon="4.26521">
        <ele>193</ele>
        <time>2021-02-28T11:27:53Z</time>
      </trkpt>
      <trkpt lat="50.18624" lon="4.26506">
        <ele>193</ele>
        <time>2021-02-28T11:27:55Z</time>
      </trkpt>
      <trkpt lat="50.18633" lon="4.2649">
        <ele>190</ele>
        <time>2021-02-28T11:27:57Z</time>
      </trkpt>
      <trkpt lat="50.18642" lon="4.26474">
        <ele>192</ele>
        <time>2021-02-28T11:27:59Z</time>
      </trkpt>
      <trkpt lat="50.18651" lon="4.26459">
        <ele>192</ele>
        <time>2021-02-28T11:28:01Z</time>
      </trkpt>
      <trkpt lat="50.1866" lon="4.26445">
        <ele>190</ele>
        <time>2021-02-28T11:28:03Z</time>
      </trkpt>
      <trkpt lat="50.18668" lon="4.26431">
        <ele>190</ele>
        <time>2021-02-28T11:28:05Z</time>
      </trkpt>
      <trkpt lat="50.18676" lon="4.26417">
        <ele>191</ele>
        <time>2021-02-28T11:28:07Z</time>
      </trkpt>
      <trkpt lat="50.18683" lon="4.26403">
        <ele>189</ele>
        <time>2021-02-28T11:28:09Z</time>
      </trkpt>
      <trkpt lat="50.18688" lon="4.26389">
        <ele>190</ele>
        <time>2021-02-28T11:28:11Z</time>
      </trkpt>
      <trkpt lat="50.18694" lon="4.26374">
        <ele>191</ele>
        <time>2021-02-28T11:28:13Z</time>
      </trkpt>
      <trkpt lat="50.18701" lon="4.26361">
        <ele>191</ele>
        <time>2021-02-28T11:28:15Z</time>
      </trkpt>
      <trkpt lat="50.18709" lon="4.26349">
        <ele>190</ele>
        <time>2021-02-28T11:28:17Z</time>
      </trkpt>
      <trkpt lat="50.18718" lon="4.26339">
        <ele>189</ele>
        <time>2021-02-28T11:28:19Z</time>
      </trkpt>
      <trkpt lat="50.18727" lon="4.26329">
        <ele>189</ele>
        <time>2021-02-28T11:28:21Z</time>
      </trkpt>
      <trkpt lat="50.18736" lon="4.2632">
        <ele>189</ele>
        <time>2021-02-28T11:28:23Z</time>
      </trkpt>
      <trkpt lat="50.18745" lon="4.26311">
        <ele>193</ele>
        <time>2021-02-28T11:28:25Z</time>
      </trkpt>
      <trkpt lat="50.18754" lon="4.26303">
        <ele>193</ele>
        <time>2021-02-28T11:28:27Z</time>
      </trkpt>
      <trkpt lat="50.18763" lon="4.26295">
        <ele>193</ele>
        <time>2021-02-28T11:28:29Z</time>
      </trkpt>
      <trkpt lat="50.18773" lon="4.26288">
        <ele>196</ele>
        <time>2021-02-28T11:28:31Z</time>
      </trkpt>
      <trkpt lat="50.18781" lon="4.26282">
        <ele>196</ele>
        <time>2021-02-28T11:28:33Z</time>
      </trkpt>
      <trkpt lat="50.18787" lon="4.26279">
        <ele>196</ele>
        <time>2021-02-28T11:28:35Z</time>
      </trkpt>
      <trkpt lat="50.18791" lon="4.26276">
        <ele>196</ele>
        <time>2021-02-28T11:28:37Z</time>
      </trkpt>
      <trkpt lat="50.18795" lon="4.26276">
        <ele>197</ele>
        <time>2021-02-28T11:28:39Z</time>
      </trkpt>
      <trkpt lat="50.18799" lon="4.26275">
        <ele>197</ele>
        <time>2021-02-28T11:28:41Z</time>
      </trkpt>
      <trkpt lat="50.18805" lon="4.26273">
        <ele>197</ele>
        <time>2021-02-28T11:28:43Z</time>
      </trkpt>
      <trkpt lat="50.18811" lon="4.2627">
        <ele>197</ele>
        <time>2021-02-28T11:28:45Z</time>
      </trkpt>
      <trkpt lat="50.18816" lon="4.2627">
        <ele>197</ele>
        <time>2021-02-28T11:28:47Z</time>
      </trkpt>
      <trkpt lat="50.18821" lon="4.26269">
        <ele>197</ele>
        <time>2021-02-28T11:28:49Z</time>
      </trkpt>
      <trkpt lat="50.18828" lon="4.26269">
        <ele>197</ele>
        <time>2021-02-28T11:28:51Z</time>
      </trkpt>
      <trkpt lat="50.18835" lon="4.26268">
        <ele>197</ele>
        <time>2021-02-28T11:28:53Z</time>
      </trkpt>
      <trkpt lat="50.18843" lon="4.26267">
        <ele>197</ele>
        <time>2021-02-28T11:28:55Z</time>
      </trkpt>
      <trkpt lat="50.1885" lon="4.26266">
        <ele>198</ele>
        <time>2021-02-28T11:28:57Z</time>
      </trkpt>
      <trkpt lat="50.18857" lon="4.26265">
        <ele>198</ele>
        <time>2021-02-28T11:28:59Z</time>
      </trkpt>
      <trkpt lat="50.18864" lon="4.26265">
        <ele>198</ele>
        <time>2021-02-28T11:29:01Z</time>
      </trkpt>
      <trkpt lat="50.18872" lon="4.26266">
        <ele>198</ele>
        <time>2021-02-28T11:29:03Z</time>
      </trkpt>
      <trkpt lat="50.1888" lon="4.26268">
        <ele>200</ele>
        <time>2021-02-28T11:29:05Z</time>
      </trkpt>
      <trkpt lat="50.18889" lon="4.26272">
        <ele>200</ele>
        <time>2021-02-28T11:29:07Z</time>
      </trkpt>
      <trkpt lat="50.189" lon="4.26274">
        <ele>200</ele>
        <time>2021-02-28T11:29:09Z</time>
      </trkpt>
      <trkpt lat="50.1891" lon="4.26277">
        <ele>199</ele>
        <time>2021-02-28T11:29:11Z</time>
      </trkpt>
      <trkpt lat="50.18921" lon="4.26281">
        <ele>199</ele>
        <time>2021-02-28T11:29:13Z</time>
      </trkpt>
      <trkpt lat="50.1893" lon="4.26283">
        <ele>199</ele>
        <time>2021-02-28T11:29:15Z</time>
      </trkpt>
      <trkpt lat="50.18939" lon="4.26286">
        <ele>195</ele>
        <time>2021-02-28T11:29:17Z</time>
      </trkpt>
      <trkpt lat="50.18947" lon="4.26289">
        <ele>195</ele>
        <time>2021-02-28T11:29:19Z</time>
      </trkpt>
      <trkpt lat="50.18955" lon="4.26291">
        <ele>195</ele>
        <time>2021-02-28T11:29:21Z</time>
      </trkpt>
      <trkpt lat="50.18962" lon="4.26294">
        <ele>196</ele>
        <time>2021-02-28T11:29:23Z</time>
      </trkpt>
      <trkpt lat="50.18969" lon="4.26298">
        <ele>196</ele>
        <time>2021-02-28T11:29:25Z</time>
      </trkpt>
      <trkpt lat="50.18976" lon="4.26301">
        <ele>196</ele>
        <time>2021-02-28T11:29:27Z</time>
      </trkpt>
      <trkpt lat="50.18981" lon="4.26305">
        <ele>196</ele>
        <time>2021-02-28T11:29:29Z</time>
      </trkpt>
      <trkpt lat="50.18985" lon="4.26308">
        <ele>196</ele>
        <time>2021-02-28T11:29:31Z</time>
      </trkpt>
      <trkpt lat="50.18987" lon="4.26314">
        <ele>197</ele>
        <time>2021-02-28T11:29:33Z</time>
      </trkpt>
      <trkpt lat="50.18988" lon="4.26318">
        <ele>197</ele>
        <time>2021-02-28T11:29:35Z</time>
      </trkpt>
      <trkpt lat="50.18989" lon="4.26322">
        <ele>196</ele>
        <time>2021-02-28T11:29:37Z</time>
      </trkpt>
      <trkpt lat="50.18992" lon="4.26336">
        <ele>196</ele>
        <time>2021-02-28T11:30:25Z</time>
      </trkpt>
      <trkpt lat="50.18994" lon="4.26348">
        <ele>196</ele>
        <time>2021-02-28T11:30:27Z</time>
      </trkpt>
      <trkpt lat="50.18997" lon="4.26361">
        <ele>196</ele>
        <time>2021-02-28T11:30:29Z</time>
      </trkpt>
      <trkpt lat="50.19" lon="4.26375">
        <ele>196</ele>
        <time>2021-02-28T11:30:31Z</time>
      </trkpt>
      <trkpt lat="50.19003" lon="4.26388">
        <ele>196</ele>
        <time>2021-02-28T11:30:33Z</time>
      </trkpt>
      <trkpt lat="50.19007" lon="4.26403">
        <ele>196</ele>
        <time>2021-02-28T11:30:35Z</time>
      </trkpt>
      <trkpt lat="50.19017" lon="4.26412">
        <ele>195</ele>
        <time>2021-02-28T11:30:37Z</time>
      </trkpt>
      <trkpt lat="50.19029" lon="4.26418">
        <ele>195</ele>
        <time>2021-02-28T11:30:39Z</time>
      </trkpt>
      <trkpt lat="50.1904" lon="4.26426">
        <ele>195</ele>
        <time>2021-02-28T11:30:41Z</time>
      </trkpt>
      <trkpt lat="50.1905" lon="4.26435">
        <ele>194</ele>
        <time>2021-02-28T11:30:43Z</time>
      </trkpt>
      <trkpt lat="50.19059" lon="4.26444">
        <ele>194</ele>
        <time>2021-02-28T11:30:45Z</time>
      </trkpt>
      <trkpt lat="50.19068" lon="4.26453">
        <ele>194</ele>
        <time>2021-02-28T11:30:47Z</time>
      </trkpt>
      <trkpt lat="50.1908" lon="4.2646">
        <ele>193</ele>
        <time>2021-02-28T11:30:49Z</time>
      </trkpt>
      <trkpt lat="50.19093" lon="4.26461">
        <ele>193</ele>
        <time>2021-02-28T11:30:51Z</time>
      </trkpt>
      <trkpt lat="50.19106" lon="4.26456">
        <ele>191</ele>
        <time>2021-02-28T11:30:53Z</time>
      </trkpt>
      <trkpt lat="50.19118" lon="4.2645">
        <ele>191</ele>
        <time>2021-02-28T11:30:55Z</time>
      </trkpt>
      <trkpt lat="50.19133" lon="4.26441">
        <ele>188</ele>
        <time>2021-02-28T11:30:57Z</time>
      </trkpt>
      <trkpt lat="50.19146" lon="4.26441">
        <ele>188</ele>
        <time>2021-02-28T11:30:59Z</time>
      </trkpt>
      <trkpt lat="50.19155" lon="4.26449">
        <ele>186</ele>
        <time>2021-02-28T11:31:01Z</time>
      </trkpt>
      <trkpt lat="50.19162" lon="4.2646">
        <ele>187</ele>
        <time>2021-02-28T11:31:03Z</time>
      </trkpt>
      <trkpt lat="50.19169" lon="4.26473">
        <ele>187</ele>
        <time>2021-02-28T11:31:05Z</time>
      </trkpt>
      <trkpt lat="50.19175" lon="4.26487">
        <ele>188</ele>
        <time>2021-02-28T11:31:07Z</time>
      </trkpt>
      <trkpt lat="50.19182" lon="4.26503">
        <ele>187</ele>
        <time>2021-02-28T11:31:09Z</time>
      </trkpt>
      <trkpt lat="50.19186" lon="4.26519">
        <ele>188</ele>
        <time>2021-02-28T11:31:11Z</time>
      </trkpt>
      <trkpt lat="50.19192" lon="4.26533">
        <ele>188</ele>
        <time>2021-02-28T11:31:13Z</time>
      </trkpt>
      <trkpt lat="50.19199" lon="4.26545">
        <ele>189</ele>
        <time>2021-02-28T11:31:15Z</time>
      </trkpt>
      <trkpt lat="50.19204" lon="4.26558">
        <ele>189</ele>
        <time>2021-02-28T11:31:17Z</time>
      </trkpt>
      <trkpt lat="50.19206" lon="4.26572">
        <ele>190</ele>
        <time>2021-02-28T11:31:19Z</time>
      </trkpt>
      <trkpt lat="50.19205" lon="4.26586">
        <ele>190</ele>
        <time>2021-02-28T11:31:21Z</time>
      </trkpt>
      <trkpt lat="50.19203" lon="4.26599">
        <ele>193</ele>
        <time>2021-02-28T11:31:23Z</time>
      </trkpt>
      <trkpt lat="50.19201" lon="4.26613">
        <ele>193</ele>
        <time>2021-02-28T11:31:25Z</time>
      </trkpt>
      <trkpt lat="50.19199" lon="4.26626">
        <ele>192</ele>
        <time>2021-02-28T11:31:27Z</time>
      </trkpt>
      <trkpt lat="50.19198" lon="4.26637">
        <ele>192</ele>
        <time>2021-02-28T11:31:29Z</time>
      </trkpt>
      <trkpt lat="50.19195" lon="4.26647">
        <ele>192</ele>
        <time>2021-02-28T11:31:31Z</time>
      </trkpt>
      <trkpt lat="50.19191" lon="4.26659">
        <ele>194</ele>
        <time>2021-02-28T11:31:33Z</time>
      </trkpt>
      <trkpt lat="50.19187" lon="4.2667">
        <ele>194</ele>
        <time>2021-02-28T11:31:35Z</time>
      </trkpt>
      <trkpt lat="50.19185" lon="4.2668">
        <ele>194</ele>
        <time>2021-02-28T11:31:37Z</time>
      </trkpt>
      <trkpt lat="50.19182" lon="4.26692">
        <ele>194</ele>
        <time>2021-02-28T11:31:39Z</time>
      </trkpt>
      <trkpt lat="50.19181" lon="4.26703">
        <ele>194</ele>
        <time>2021-02-28T11:31:41Z</time>
      </trkpt>
      <trkpt lat="50.19181" lon="4.26714">
        <ele>195</ele>
        <time>2021-02-28T11:31:43Z</time>
      </trkpt>
      <trkpt lat="50.19183" lon="4.26722">
        <ele>195</ele>
        <time>2021-02-28T11:31:45Z</time>
      </trkpt>
      <trkpt lat="50.19188" lon="4.26729">
        <ele>195</ele>
        <time>2021-02-28T11:31:47Z</time>
      </trkpt>
      <trkpt lat="50.19193" lon="4.26733">
        <ele>195</ele>
        <time>2021-02-28T11:31:49Z</time>
      </trkpt>
      <trkpt lat="50.19197" lon="4.26736">
        <ele>196</ele>
        <time>2021-02-28T11:31:51Z</time>
      </trkpt>
      <trkpt lat="50.19201" lon="4.26739">
        <ele>196</ele>
        <time>2021-02-28T11:31:53Z</time>
      </trkpt>
      <trkpt lat="50.19205" lon="4.2674">
        <ele>196</ele>
        <time>2021-02-28T11:31:55Z</time>
      </trkpt>
      <trkpt lat="50.19209" lon="4.26743">
        <ele>196</ele>
        <time>2021-02-28T11:31:57Z</time>
      </trkpt>
      <trkpt lat="50.19212" lon="4.26746">
        <ele>196</ele>
        <time>2021-02-28T11:31:59Z</time>
      </trkpt>
      <trkpt lat="50.19215" lon="4.26749">
        <ele>196</ele>
        <time>2021-02-28T11:32:01Z</time>
      </trkpt>
      <trkpt lat="50.19217" lon="4.26751">
        <ele>196</ele>
        <time>2021-02-28T11:32:03Z</time>
      </trkpt>
    </trkseg>
  </trk>
</gpx>